Wetterdaten: Donnerstag, 19.10.2017
Datum Zeit Temp. A. Temp. A. max Feuchte A. Luftdruck Regen Wind Richtung Richtung Sonnenschein ET UV Solar Taupunkt Windchill Windböen
19.10.2017 00:00 7,6 °C 7,6 °C 89 % 1014,8 hPa 0,0 mm 0,0 km/h (0 Bft) S 183 ° 0 min 0,000 mm 0,0 UV-I 0 W/m² 5,9 °C 7,6 °C 0,0 km/h (0 Bft)
19.10.2017 00:01 7,6 °C 7,6 °C 89 % 1014,8 hPa 0,0 mm 0,0 km/h (0 Bft) S 183 ° 0 min 0,000 mm 0,0 UV-I 0 W/m² 5,9 °C 7,6 °C 0,0 km/h (0 Bft)
19.10.2017 00:02 7,6 °C 7,6 °C 89 % 1014,8 hPa 0,0 mm 0,0 km/h (0 Bft) S 183 ° 0 min 0,000 mm 0,0 UV-I 0 W/m² 5,9 °C 7,6 °C 0,0 km/h (0 Bft)
19.10.2017 00:03 7,6 °C 7,6 °C 89 % 1014,9 hPa 0,0 mm 0,8 km/h (0 Bft) S 183 ° 0 min 0,000 mm 0,0 UV-I 0 W/m² 5,9 °C 7,6 °C 1,6 km/h (1 Bft)
19.10.2017 00:04 7,6 °C 7,7 °C 89 % 1014,9 hPa 0,0 mm 0,9 km/h (0 Bft) S 183 ° 0 min 0,000 mm 0,0 UV-I 0 W/m² 5,9 °C 7,6 °C 1,6 km/h (1 Bft)
19.10.2017 00:05 7,7 °C 7,7 °C 89 % 1014,8 hPa 0,0 mm 0,6 km/h (0 Bft) S 183 ° 0 min 0,000 mm 0,0 UV-I 0 W/m² 6,0 °C 7,7 °C 3,2 km/h (1 Bft)
19.10.2017 00:06 7,6 °C 7,7 °C 88 % 1014,8 hPa 0,0 mm 0,6 km/h (0 Bft) S 183 ° 0 min 0,000 mm 0,0 UV-I 0 W/m² 5,7 °C 7,6 °C 1,6 km/h (1 Bft)
19.10.2017 00:07 7,6 °C 7,6 °C 89 % 1014,8 hPa 0,0 mm 0,0 km/h (0 Bft) S 183 ° 0 min 0,000 mm 0,0 UV-I 0 W/m² 5,9 °C 7,6 °C 0,0 km/h (0 Bft)
19.10.2017 00:08 7,4 °C 7,6 °C 88 % 1014,8 hPa 0,0 mm 0,0 km/h (0 Bft) S 183 ° 0 min 0,000 mm 0,0 UV-I 0 W/m² 5,5 °C 7,4 °C 0,0 km/h (0 Bft)
19.10.2017 00:09 7,2 °C 7,4 °C 87 % 1014,9 hPa 0,0 mm 0,0 km/h (0 Bft) S 183 ° 0 min 0,000 mm 0,0 UV-I 0 W/m² 5,2 °C 7,2 °C 0,0 km/h (0 Bft)
19.10.2017 00:10 7,1 °C 7,2 °C 88 % 1014,8 hPa 0,0 mm 0,0 km/h (0 Bft) S 183 ° 0 min 0,000 mm 0,0 UV-I 0 W/m² 5,2 °C 7,1 °C 0,0 km/h (0 Bft)
19.10.2017 00:11 6,9 °C 7,1 °C 88 % 1014,8 hPa 0,0 mm 0,0 km/h (0 Bft) S 183 ° 0 min 0,000 mm 0,0 UV-I 0 W/m² 5,1 °C 6,9 °C 0,0 km/h (0 Bft)
19.10.2017 00:12 6,8 °C 6,9 °C 89 % 1014,8 hPa 0,0 mm 0,0 km/h (0 Bft) S 183 ° 0 min 0,000 mm 0,0 UV-I 0 W/m² 5,1 °C 6,8 °C 0,0 km/h (0 Bft)
19.10.2017 00:13 6,8 °C 6,8 °C 90 % 1014,8 hPa 0,0 mm 0,0 km/h (0 Bft) S 183 ° 0 min 0,000 mm 0,0 UV-I 0 W/m² 5,3 °C 6,8 °C 0,0 km/h (0 Bft)
19.10.2017 00:14 6,8 °C 6,8 °C 90 % 1014,8 hPa 0,0 mm 0,0 km/h (0 Bft) S 183 ° 0 min 0,000 mm 0,0 UV-I 0 W/m² 5,3 °C 6,8 °C 0,0 km/h (0 Bft)
19.10.2017 00:15 6,8 °C 6,8 °C 90 % 1014,8 hPa 0,0 mm 0,0 km/h (0 Bft) S 183 ° 0 min 0,000 mm 0,0 UV-I 0 W/m² 5,3 °C 6,8 °C 0,0 km/h (0 Bft)
19.10.2017 00:16 6,7 °C 6,8 °C 90 % 1014,8 hPa 0,0 mm 0,0 km/h (0 Bft) S 183 ° 0 min 0,000 mm 0,0 UV-I 0 W/m² 5,2 °C 6,7 °C 0,0 km/h (0 Bft)
19.10.2017 00:17 6,7 °C 6,7 °C 90 % 1014,8 hPa 0,0 mm 0,0 km/h (0 Bft) S 183 ° 0 min 0,000 mm 0,0 UV-I 0 W/m² 5,2 °C 6,7 °C 0,0 km/h (0 Bft)
19.10.2017 00:18 6,7 °C 6,7 °C 90 % 1014,8 hPa 0,0 mm 0,0 km/h (0 Bft) S 183 ° 0 min 0,000 mm 0,0 UV-I 0 W/m² 5,2 °C 6,7 °C 0,0 km/h (0 Bft)
19.10.2017 00:19 6,8 °C 6,8 °C 91 % 1014,8 hPa 0,0 mm 0,0 km/h (0 Bft) S 183 ° 0 min 0,000 mm 0,0 UV-I 0 W/m² 5,4 °C 6,8 °C 0,0 km/h (0 Bft)
19.10.2017 00:20 6,9 °C 6,9 °C 91 % 1014,8 hPa 0,0 mm 0,0 km/h (0 Bft) S 183 ° 0 min 0,000 mm 0,0 UV-I 0 W/m² 5,5 °C 6,9 °C 0,0 km/h (0 Bft)
19.10.2017 00:21 6,9 °C 6,9 °C 91 % 1014,8 hPa 0,0 mm 0,0 km/h (0 Bft) S 183 ° 0 min 0,000 mm 0,0 UV-I 0 W/m² 5,5 °C 6,9 °C 0,0 km/h (0 Bft)
19.10.2017 00:22 7,0 °C 7,1 °C 91 % 1014,8 hPa 0,0 mm 0,0 km/h (0 Bft) S 183 ° 0 min 0,000 mm 0,0 UV-I 0 W/m² 5,6 °C 7,0 °C 0,0 km/h (0 Bft)
19.10.2017 00:23 6,9 °C 7,0 °C 90 % 1014,8 hPa 0,0 mm 0,0 km/h (0 Bft) S 183 ° 0 min 0,000 mm 0,0 UV-I 0 W/m² 5,4 °C 6,9 °C 0,0 km/h (0 Bft)
19.10.2017 00:24 6,8 °C 6,9 °C 89 % 1014,8 hPa 0,0 mm 0,0 km/h (0 Bft) S 183 ° 0 min 0,000 mm 0,0 UV-I 0 W/m² 5,1 °C 6,8 °C 0,0 km/h (0 Bft)
19.10.2017 00:25 6,8 °C 6,8 °C 90 % 1014,8 hPa 0,0 mm 0,0 km/h (0 Bft) S 183 ° 0 min 0,000 mm 0,0 UV-I 0 W/m² 5,3 °C 6,8 °C 0,0 km/h (0 Bft)
19.10.2017 00:26 6,7 °C 6,8 °C 90 % 1014,8 hPa 0,0 mm 0,0 km/h (0 Bft) S 183 ° 0 min 0,000 mm 0,0 UV-I 0 W/m² 5,2 °C 6,7 °C 0,0 km/h (0 Bft)
19.10.2017 00:27 6,7 °C 6,7 °C 90 % 1014,8 hPa 0,0 mm 0,0 km/h (0 Bft) S 183 ° 0 min 0,000 mm 0,0 UV-I 0 W/m² 5,2 °C 6,7 °C 0,0 km/h (0 Bft)
19.10.2017 00:28 6,7 °C 6,7 °C 91 % 1014,8 hPa 0,0 mm 0,0 km/h (0 Bft) S 183 ° 0 min 0,000 mm 0,0 UV-I 0 W/m² 5,3 °C 6,7 °C 0,0 km/h (0 Bft)
19.10.2017 00:29 6,7 °C 6,7 °C 91 % 1014,8 hPa 0,0 mm 0,0 km/h (0 Bft) S 183 ° 0 min 0,000 mm 0,0 UV-I 0 W/m² 5,3 °C 6,7 °C 0,0 km/h (0 Bft)
19.10.2017 00:30 6,7 °C 6,7 °C 91 % 1014,8 hPa 0,0 mm 0,0 km/h (0 Bft) S 183 ° 0 min 0,000 mm 0,0 UV-I 0 W/m² 5,3 °C 6,7 °C 0,0 km/h (0 Bft)
19.10.2017 00:31 6,6 °C 6,7 °C 91 % 1014,8 hPa 0,0 mm 0,0 km/h (0 Bft) S 183 ° 0 min 0,000 mm 0,0 UV-I 0 W/m² 5,2 °C 6,6 °C 0,0 km/h (0 Bft)
19.10.2017 00:32 6,6 °C 6,7 °C 91 % 1014,8 hPa 0,0 mm 0,0 km/h (0 Bft) S 183 ° 0 min 0,000 mm 0,0 UV-I 0 W/m² 5,2 °C 6,6 °C 0,0 km/h (0 Bft)
19.10.2017 00:33 6,6 °C 6,6 °C 91 % 1014,8 hPa 0,0 mm 0,0 km/h (0 Bft) S 183 ° 0 min 0,000 mm 0,0 UV-I 0 W/m² 5,2 °C 6,6 °C 0,0 km/h (0 Bft)
19.10.2017 00:34 6,6 °C 6,6 °C 91 % 1014,8 hPa 0,0 mm 0,0 km/h (0 Bft) S 183 ° 0 min 0,000 mm 0,0 UV-I 0 W/m² 5,2 °C 6,6 °C 0,0 km/h (0 Bft)
19.10.2017 00:35 6,6 °C 6,6 °C 91 % 1014,8 hPa 0,0 mm 0,0 km/h (0 Bft) S 183 ° 0 min 0,000 mm 0,0 UV-I 0 W/m² 5,2 °C 6,6 °C 0,0 km/h (0 Bft)
19.10.2017 00:36 6,5 °C 6,6 °C 91 % 1014,8 hPa 0,0 mm 0,0 km/h (0 Bft) S 183 ° 0 min 0,000 mm 0,0 UV-I 0 W/m² 5,1 °C 6,5 °C 0,0 km/h (0 Bft)
19.10.2017 00:37 6,6 °C 6,6 °C 91 % 1014,8 hPa 0,0 mm 0,0 km/h (0 Bft) S 183 ° 0 min 0,000 mm 0,0 UV-I 0 W/m² 5,2 °C 6,6 °C 0,0 km/h (0 Bft)
19.10.2017 00:38 6,6 °C 6,6 °C 91 % 1014,8 hPa 0,0 mm 0,0 km/h (0 Bft) S 183 ° 0 min 0,000 mm 0,0 UV-I 0 W/m² 5,2 °C 6,6 °C 0,0 km/h (0 Bft)
19.10.2017 00:39 6,6 °C 6,7 °C 91 % 1014,8 hPa 0,0 mm 0,0 km/h (0 Bft) S 183 ° 0 min 0,000 mm 0,0 UV-I 0 W/m² 5,2 °C 6,6 °C 0,0 km/h (0 Bft)
19.10.2017 00:40 6,6 °C 6,7 °C 91 % 1014,8 hPa 0,0 mm 0,0 km/h (0 Bft) S 183 ° 0 min 0,000 mm 0,0 UV-I 0 W/m² 5,2 °C 6,6 °C 0,0 km/h (0 Bft)
19.10.2017 00:41 6,6 °C 6,6 °C 91 % 1014,8 hPa 0,0 mm 0,0 km/h (0 Bft) S 183 ° 0 min 0,000 mm 0,0 UV-I 0 W/m² 5,2 °C 6,6 °C 0,0 km/h (0 Bft)
19.10.2017 00:42 6,4 °C 6,6 °C 90 % 1014,8 hPa 0,0 mm 0,0 km/h (0 Bft) S 183 ° 0 min 0,000 mm 0,0 UV-I 0 W/m² 4,9 °C 6,4 °C 0,0 km/h (0 Bft)
19.10.2017 00:43 6,3 °C 6,4 °C 90 % 1014,8 hPa 0,0 mm 0,0 km/h (0 Bft) S 183 ° 0 min 0,000 mm 0,0 UV-I 0 W/m² 4,8 °C 6,3 °C 0,0 km/h (0 Bft)
19.10.2017 00:44 6,2 °C 6,3 °C 90 % 1014,8 hPa 0,0 mm 0,0 km/h (0 Bft) S 183 ° 0 min 0,000 mm 0,0 UV-I 0 W/m² 4,7 °C 6,2 °C 0,0 km/h (0 Bft)
19.10.2017 00:45 6,2 °C 6,2 °C 91 % 1014,8 hPa 0,0 mm 0,0 km/h (0 Bft) S 183 ° 0 min 0,000 mm 0,0 UV-I 0 W/m² 4,8 °C 6,2 °C 0,0 km/h (0 Bft)
19.10.2017 00:46 6,2 °C 6,2 °C 91 % 1014,8 hPa 0,0 mm 0,0 km/h (0 Bft) S 183 ° 0 min 0,000 mm 0,0 UV-I 0 W/m² 4,8 °C 6,2 °C 0,0 km/h (0 Bft)
19.10.2017 00:47 6,3 °C 6,3 °C 92 % 1014,8 hPa 0,0 mm 0,0 km/h (0 Bft) S 183 ° 0 min 0,000 mm 0,0 UV-I 0 W/m² 5,1 °C 6,3 °C 0,0 km/h (0 Bft)
19.10.2017 00:48 6,3 °C 6,3 °C 92 % 1014,8 hPa 0,0 mm 0,0 km/h (0 Bft) S 183 ° 0 min 0,000 mm 0,0 UV-I 0 W/m² 5,1 °C 6,3 °C 0,0 km/h (0 Bft)
19.10.2017 00:49 6,4 °C 6,4 °C 92 % 1014,8 hPa 0,0 mm 0,0 km/h (0 Bft) S 183 ° 0 min 0,000 mm 0,0 UV-I 0 W/m² 5,2 °C 6,4 °C 0,0 km/h (0 Bft)
19.10.2017 00:50 6,5 °C 6,5 °C 92 % 1014,8 hPa 0,0 mm 0,0 km/h (0 Bft) S 183 ° 0 min 0,000 mm 0,0 UV-I 0 W/m² 5,3 °C 6,5 °C 0,0 km/h (0 Bft)
19.10.2017 00:51 6,7 °C 6,7 °C 92 % 1014,8 hPa 0,0 mm 0,0 km/h (0 Bft) S 183 ° 0 min 0,000 mm 0,0 UV-I 0 W/m² 5,5 °C 6,7 °C 0,0 km/h (0 Bft)
19.10.2017 00:52 6,8 °C 6,8 °C 92 % 1014,8 hPa 0,0 mm 0,0 km/h (0 Bft) S 183 ° 0 min 0,000 mm 0,0 UV-I 0 W/m² 5,6 °C 6,8 °C 0,0 km/h (0 Bft)
19.10.2017 00:53 6,9 °C 6,9 °C 92 % 1014,8 hPa 0,0 mm 0,0 km/h (0 Bft) S 183 ° 0 min 0,000 mm 0,0 UV-I 0 W/m² 5,7 °C 6,9 °C 0,0 km/h (0 Bft)
19.10.2017 00:54 6,8 °C 6,9 °C 91 % 1014,8 hPa 0,0 mm 0,0 km/h (0 Bft) S 183 ° 0 min 0,000 mm 0,0 UV-I 0 W/m² 5,4 °C 6,8 °C 0,0 km/h (0 Bft)
19.10.2017 00:55 6,7 °C 6,8 °C 90 % 1014,8 hPa 0,0 mm 0,0 km/h (0 Bft) S 183 ° 0 min 0,000 mm 0,0 UV-I 0 W/m² 5,2 °C 6,7 °C 0,0 km/h (0 Bft)
19.10.2017 00:56 6,7 °C 6,7 °C 90 % 1014,8 hPa 0,0 mm 0,0 km/h (0 Bft) S 183 ° 0 min 0,000 mm 0,0 UV-I 0 W/m² 5,2 °C 6,7 °C 0,0 km/h (0 Bft)
19.10.2017 00:57 6,7 °C 6,7 °C 90 % 1014,8 hPa 0,0 mm 0,1 km/h (0 Bft) S 183 ° 0 min 0,000 mm 0,0 UV-I 0 W/m² 5,2 °C 6,7 °C 1,6 km/h (1 Bft)
19.10.2017 00:58 6,6 °C 6,7 °C 90 % 1014,8 hPa 0,0 mm 0,0 km/h (0 Bft) S 183 ° 0 min 0,000 mm 0,0 UV-I 0 W/m² 5,1 °C 6,6 °C 0,0 km/h (0 Bft)
19.10.2017 00:59 6,4 °C 6,6 °C 90 % 1014,8 hPa 0,0 mm 0,0 km/h (0 Bft) S 183 ° 0 min 0,000 mm 0,0 UV-I 0 W/m² 4,9 °C 6,4 °C 0,0 km/h (0 Bft)
19.10.2017 01:00 6,3 °C 6,4 °C 90 % 1014,8 hPa 0,0 mm 0,0 km/h (0 Bft) S 183 ° 0 min 0,000 mm 0,0 UV-I 0 W/m² 4,8 °C 6,3 °C 0,0 km/h (0 Bft)
19.10.2017 01:01 6,2 °C 6,3 °C 90 % 1014,8 hPa 0,0 mm 0,0 km/h (0 Bft) S 183 ° 0 min 0,000 mm 0,0 UV-I 0 W/m² 4,7 °C 6,2 °C 0,0 km/h (0 Bft)
19.10.2017 01:02 6,2 °C 6,2 °C 90 % 1014,8 hPa 0,0 mm 0,0 km/h (0 Bft) S 183 ° 0 min 0,000 mm 0,0 UV-I 0 W/m² 4,7 °C 6,2 °C 0,0 km/h (0 Bft)
19.10.2017 01:03 6,2 °C 6,2 °C 91 % 1014,8 hPa 0,0 mm 0,0 km/h (0 Bft) S 183 ° 0 min 0,000 mm 0,0 UV-I 0 W/m² 4,8 °C 6,2 °C 0,0 km/h (0 Bft)
19.10.2017 01:04 6,3 °C 6,3 °C 92 % 1014,8 hPa 0,0 mm 0,0 km/h (0 Bft) S 183 ° 0 min 0,000 mm 0,0 UV-I 0 W/m² 5,1 °C 6,3 °C 0,0 km/h (0 Bft)
19.10.2017 01:05 6,4 °C 6,4 °C 92 % 1014,8 hPa 0,0 mm 0,0 km/h (0 Bft) S 183 ° 0 min 0,000 mm 0,0 UV-I 0 W/m² 5,2 °C 6,4 °C 0,0 km/h (0 Bft)
19.10.2017 01:06 6,7 °C 6,7 °C 92 % 1014,8 hPa 0,0 mm 0,0 km/h (0 Bft) S 183 ° 0 min 0,000 mm 0,0 UV-I 0 W/m² 5,5 °C 6,7 °C 0,0 km/h (0 Bft)
19.10.2017 01:07 6,7 °C 6,7 °C 92 % 1014,8 hPa 0,0 mm 0,0 km/h (0 Bft) S 183 ° 0 min 0,000 mm 0,0 UV-I 0 W/m² 5,5 °C 6,7 °C 0,0 km/h (0 Bft)
19.10.2017 01:08 6,8 °C 6,8 °C 91 % 1014,8 hPa 0,0 mm 0,0 km/h (0 Bft) S 183 ° 0 min 0,000 mm 0,0 UV-I 0 W/m² 5,4 °C 6,8 °C 0,0 km/h (0 Bft)
19.10.2017 01:09 6,7 °C 6,8 °C 91 % 1014,8 hPa 0,0 mm 0,0 km/h (0 Bft) S 183 ° 0 min 0,000 mm 0,0 UV-I 0 W/m² 5,3 °C 6,7 °C 0,0 km/h (0 Bft)
19.10.2017 01:10 6,7 °C 6,7 °C 91 % 1014,8 hPa 0,0 mm 0,0 km/h (0 Bft) S 183 ° 0 min 0,000 mm 0,0 UV-I 0 W/m² 5,3 °C 6,7 °C 0,0 km/h (0 Bft)
19.10.2017 01:11 6,6 °C 6,7 °C 90 % 1014,8 hPa 0,0 mm 0,0 km/h (0 Bft) S 183 ° 0 min 0,000 mm 0,0 UV-I 0 W/m² 5,1 °C 6,6 °C 0,0 km/h (0 Bft)
19.10.2017 01:12 6,6 °C 6,7 °C 91 % 1014,8 hPa 0,0 mm 0,0 km/h (0 Bft) S 183 ° 0 min 0,000 mm 0,0 UV-I 0 W/m² 5,2 °C 6,6 °C 0,0 km/h (0 Bft)
19.10.2017 01:13 6,7 °C 6,7 °C 91 % 1014,8 hPa 0,0 mm 0,0 km/h (0 Bft) S 183 ° 0 min 0,000 mm 0,0 UV-I 0 W/m² 5,3 °C 6,7 °C 0,0 km/h (0 Bft)
19.10.2017 01:14 6,6 °C 6,7 °C 91 % 1014,9 hPa 0,0 mm 0,0 km/h (0 Bft) S 183 ° 0 min 0,000 mm 0,0 UV-I 0 W/m² 5,2 °C 6,6 °C 0,0 km/h (0 Bft)
19.10.2017 01:15 6,6 °C 6,6 °C 90 % 1014,9 hPa 0,0 mm 0,0 km/h (0 Bft) S 183 ° 0 min 0,000 mm 0,0 UV-I 0 W/m² 5,1 °C 6,6 °C 0,0 km/h (0 Bft)
19.10.2017 01:16 6,4 °C 6,6 °C 90 % 1014,8 hPa 0,0 mm 0,0 km/h (0 Bft) S 183 ° 0 min 0,000 mm 0,0 UV-I 0 W/m² 4,9 °C 6,4 °C 0,0 km/h (0 Bft)
19.10.2017 01:17 6,3 °C 6,4 °C 90 % 1014,8 hPa 0,0 mm 0,0 km/h (0 Bft) S 183 ° 0 min 0,000 mm 0,0 UV-I 0 W/m² 4,8 °C 6,3 °C 0,0 km/h (0 Bft)
19.10.2017 01:18 6,3 °C 6,3 °C 90 % 1014,9 hPa 0,0 mm 0,0 km/h (0 Bft) S 183 ° 0 min 0,000 mm 0,0 UV-I 0 W/m² 4,8 °C 6,3 °C 0,0 km/h (0 Bft)
19.10.2017 01:19 6,4 °C 6,4 °C 91 % 1014,8 hPa 0,0 mm 0,0 km/h (0 Bft) S 183 ° 0 min 0,000 mm 0,0 UV-I 0 W/m² 5,0 °C 6,4 °C 0,0 km/h (0 Bft)
19.10.2017 01:20 6,6 °C 6,6 °C 92 % 1014,9 hPa 0,0 mm 0,0 km/h (0 Bft) S 183 ° 0 min 0,000 mm 0,0 UV-I 0 W/m² 5,4 °C 6,6 °C 0,0 km/h (0 Bft)
19.10.2017 01:21 6,8 °C 6,8 °C 92 % 1014,9 hPa 0,0 mm 0,5 km/h (0 Bft) S 183 ° 0 min 0,000 mm 0,0 UV-I 0 W/m² 5,6 °C 6,8 °C 3,2 km/h (1 Bft)
19.10.2017 01:22 6,9 °C 6,9 °C 92 % 1014,9 hPa 0,0 mm 2,0 km/h (1 Bft) S 183 ° 0 min 0,000 mm 0,0 UV-I 0 W/m² 5,7 °C 6,9 °C 3,2 km/h (1 Bft)
19.10.2017 01:23 7,2 °C 7,2 °C 91 % 1014,9 hPa 0,0 mm 1,7 km/h (1 Bft) S 183 ° 0 min 0,000 mm 0,0 UV-I 0 W/m² 5,8 °C 7,2 °C 3,2 km/h (1 Bft)
19.10.2017 01:24 7,3 °C 7,3 °C 91 % 1015,0 hPa 0,0 mm 1,2 km/h (1 Bft) S 183 ° 0 min 0,000 mm 0,0 UV-I 0 W/m² 5,9 °C 7,3 °C 3,2 km/h (1 Bft)
19.10.2017 01:25 7,3 °C 7,4 °C 91 % 1014,9 hPa 0,0 mm 1,7 km/h (1 Bft) S 183 ° 0 min 0,000 mm 0,0 UV-I 0 W/m² 5,9 °C 7,3 °C 3,2 km/h (1 Bft)
19.10.2017 01:26 7,5 °C 7,5 °C 90 % 1014,9 hPa 0,0 mm 1,5 km/h (1 Bft) S 183 ° 0 min 0,000 mm 0,0 UV-I 0 W/m² 6,0 °C 7,5 °C 3,2 km/h (1 Bft)
19.10.2017 01:27 7,6 °C 7,6 °C 89 % 1014,9 hPa 0,0 mm 1,3 km/h (1 Bft) S 183 ° 0 min 0,000 mm 0,0 UV-I 0 W/m² 5,9 °C 7,6 °C 3,2 km/h (1 Bft)
19.10.2017 01:28 7,7 °C 7,7 °C 90 % 1014,9 hPa 0,0 mm 0,0 km/h (0 Bft) S 183 ° 0 min 0,000 mm 0,0 UV-I 0 W/m² 6,2 °C 7,7 °C 0,0 km/h (0 Bft)
19.10.2017 01:29 7,8 °C 7,8 °C 89 % 1014,9 hPa 0,0 mm 0,8 km/h (0 Bft) S 183 ° 0 min 0,000 mm 0,0 UV-I 0 W/m² 6,1 °C 7,8 °C 1,6 km/h (1 Bft)
19.10.2017 01:30 7,9 °C 7,9 °C 89 % 1015,0 hPa 0,0 mm 0,3 km/h (0 Bft) S 183 ° 0 min 0,000 mm 0,0 UV-I 0 W/m² 6,2 °C 7,9 °C 1,6 km/h (1 Bft)
19.10.2017 01:31 7,9 °C 7,9 °C 89 % 1015,0 hPa 0,0 mm 0,0 km/h (0 Bft) S 183 ° 0 min 0,000 mm 0,0 UV-I 0 W/m² 6,2 °C 7,9 °C 0,0 km/h (0 Bft)
19.10.2017 01:32 8,0 °C 8,1 °C 88 % 1014,9 hPa 0,0 mm 0,0 km/h (0 Bft) S 183 ° 0 min 0,000 mm 0,0 UV-I 0 W/m² 6,1 °C 8,0 °C 0,0 km/h (0 Bft)
19.10.2017 01:33 7,9 °C 8,0 °C 87 % 1014,9 hPa 0,0 mm 0,0 km/h (0 Bft) S 183 ° 0 min 0,000 mm 0,0 UV-I 0 W/m² 5,9 °C 7,9 °C 0,0 km/h (0 Bft)
19.10.2017 01:34 7,7 °C 7,9 °C 86 % 1015,0 hPa 0,0 mm 0,0 km/h (0 Bft) S 183 ° 0 min 0,000 mm 0,0 UV-I 0 W/m² 5,5 °C 7,7 °C 0,0 km/h (0 Bft)
19.10.2017 01:35 7,4 °C 7,7 °C 86 % 1015,0 hPa 0,0 mm 0,0 km/h (0 Bft) S 183 ° 0 min 0,000 mm 0,0 UV-I 0 W/m² 5,2 °C 7,4 °C 0,0 km/h (0 Bft)
19.10.2017 01:36 7,2 °C 7,4 °C 87 % 1014,9 hPa 0,0 mm 0,0 km/h (0 Bft) S 183 ° 0 min 0,000 mm 0,0 UV-I 0 W/m² 5,2 °C 7,2 °C 0,0 km/h (0 Bft)
19.10.2017 01:37 7,1 °C 7,2 °C 87 % 1015,0 hPa 0,0 mm 0,0 km/h (0 Bft) S 183 ° 0 min 0,000 mm 0,0 UV-I 0 W/m² 5,1 °C 7,1 °C 0,0 km/h (0 Bft)
19.10.2017 01:38 6,9 °C 7,1 °C 89 % 1015,0 hPa 0,0 mm 0,0 km/h (0 Bft) S 183 ° 0 min 0,000 mm 0,0 UV-I 0 W/m² 5,2 °C 6,9 °C 0,0 km/h (0 Bft)
19.10.2017 01:39 7,0 °C 7,0 °C 89 % 1015,0 hPa 0,0 mm 0,0 km/h (0 Bft) S 183 ° 0 min 0,000 mm 0,0 UV-I 0 W/m² 5,3 °C 7,0 °C 0,0 km/h (0 Bft)
19.10.2017 01:40 7,1 °C 7,1 °C 90 % 1015,0 hPa 0,0 mm 0,0 km/h (0 Bft) S 183 ° 0 min 0,000 mm 0,0 UV-I 0 W/m² 5,6 °C 7,1 °C 0,0 km/h (0 Bft)
19.10.2017 01:41 7,2 °C 7,2 °C 90 % 1015,0 hPa 0,0 mm 0,0 km/h (0 Bft) S 183 ° 0 min 0,000 mm 0,0 UV-I 0 W/m² 5,7 °C 7,2 °C 0,0 km/h (0 Bft)
19.10.2017 01:42 7,3 °C 7,3 °C 90 % 1015,0 hPa 0,0 mm 0,0 km/h (0 Bft) S 183 ° 0 min 0,000 mm 0,0 UV-I 0 W/m² 5,8 °C 7,3 °C 0,0 km/h (0 Bft)
19.10.2017 01:43 7,3 °C 7,3 °C 89 % 1015,0 hPa 0,0 mm 0,0 km/h (0 Bft) S 183 ° 0 min 0,000 mm 0,0 UV-I 0 W/m² 5,6 °C 7,3 °C 0,0 km/h (0 Bft)
19.10.2017 01:44 7,3 °C 7,3 °C 89 % 1015,0 hPa 0,0 mm 0,0 km/h (0 Bft) S 183 ° 0 min 0,000 mm 0,0 UV-I 0 W/m² 5,6 °C 7,3 °C 0,0 km/h (0 Bft)
19.10.2017 01:45 7,3 °C 7,3 °C 89 % 1015,0 hPa 0,0 mm 0,0 km/h (0 Bft) S 183 ° 0 min 0,000 mm 0,0 UV-I 0 W/m² 5,6 °C 7,3 °C 0,0 km/h (0 Bft)
19.10.2017 01:46 7,2 °C 7,3 °C 88 % 1015,0 hPa 0,0 mm 0,0 km/h (0 Bft) S 183 ° 0 min 0,000 mm 0,0 UV-I 0 W/m² 5,3 °C 7,2 °C 0,0 km/h (0 Bft)
19.10.2017 01:47 7,1 °C 7,2 °C 88 % 1015,0 hPa 0,0 mm 0,0 km/h (0 Bft) S 183 ° 0 min 0,000 mm 0,0 UV-I 0 W/m² 5,2 °C 7,1 °C 0,0 km/h (0 Bft)
19.10.2017 01:48 6,9 °C 7,1 °C 88 % 1015,0 hPa 0,0 mm 0,0 km/h (0 Bft) S 183 ° 0 min 0,000 mm 0,0 UV-I 0 W/m² 5,1 °C 6,9 °C 0,0 km/h (0 Bft)
19.10.2017 01:49 6,8 °C 6,9 °C 88 % 1015,0 hPa 0,0 mm 0,0 km/h (0 Bft) S 183 ° 0 min 0,000 mm 0,0 UV-I 0 W/m² 5,0 °C 6,8 °C 0,0 km/h (0 Bft)
19.10.2017 01:50 6,7 °C 6,8 °C 88 % 1015,0 hPa 0,0 mm 0,0 km/h (0 Bft) S 183 ° 0 min 0,000 mm 0,0 UV-I 0 W/m² 4,9 °C 6,7 °C 0,0 km/h (0 Bft)
19.10.2017 01:51 6,6 °C 6,7 °C 89 % 1015,0 hPa 0,0 mm 0,0 km/h (0 Bft) S 183 ° 0 min 0,000 mm 0,0 UV-I 0 W/m² 4,9 °C 6,6 °C 0,0 km/h (0 Bft)
19.10.2017 01:52 6,6 °C 6,6 °C 89 % 1015,0 hPa 0,0 mm 0,0 km/h (0 Bft) S 183 ° 0 min 0,000 mm 0,0 UV-I 0 W/m² 4,9 °C 6,6 °C 0,0 km/h (0 Bft)
19.10.2017 01:53 6,5 °C 6,6 °C 90 % 1015,1 hPa 0,0 mm 0,0 km/h (0 Bft) S 183 ° 0 min 0,000 mm 0,0 UV-I 0 W/m² 5,0 °C 6,5 °C 0,0 km/h (0 Bft)
19.10.2017 01:54 6,5 °C 6,5 °C 90 % 1015,1 hPa 0,0 mm 0,0 km/h (0 Bft) S 183 ° 0 min 0,000 mm 0,0 UV-I 0 W/m² 5,0 °C 6,5 °C 0,0 km/h (0 Bft)
19.10.2017 01:55 6,4 °C 6,5 °C 90 % 1015,1 hPa 0,0 mm 0,0 km/h (0 Bft) S 183 ° 0 min 0,000 mm 0,0 UV-I 0 W/m² 4,9 °C 6,4 °C 0,0 km/h (0 Bft)
19.10.2017 01:56 6,4 °C 6,4 °C 90 % 1015,1 hPa 0,0 mm 0,0 km/h (0 Bft) S 183 ° 0 min 0,000 mm 0,0 UV-I 0 W/m² 4,9 °C 6,4 °C 0,0 km/h (0 Bft)
19.10.2017 01:57 6,3 °C 6,4 °C 90 % 1015,1 hPa 0,0 mm 0,0 km/h (0 Bft) S 183 ° 0 min 0,000 mm 0,0 UV-I 0 W/m² 4,8 °C 6,3 °C 0,0 km/h (0 Bft)
19.10.2017 01:58 6,2 °C 6,3 °C 90 % 1015,1 hPa 0,0 mm 0,0 km/h (0 Bft) S 183 ° 0 min 0,000 mm 0,0 UV-I 0 W/m² 4,7 °C 6,2 °C 0,0 km/h (0 Bft)
19.10.2017 01:59 6,3 °C 6,3 °C 90 % 1015,1 hPa 0,0 mm 0,0 km/h (0 Bft) S 183 ° 0 min 0,000 mm 0,0 UV-I 0 W/m² 4,8 °C 6,3 °C 0,0 km/h (0 Bft)
19.10.2017 02:00 6,2 °C 6,3 °C 91 % 1015,1 hPa 0,0 mm 0,0 km/h (0 Bft) S 183 ° 0 min 0,000 mm 0,0 UV-I 0 W/m² 4,8 °C 6,2 °C 0,0 km/h (0 Bft)
19.10.2017 02:01 6,3 °C 6,3 °C 91 % 1015,2 hPa 0,0 mm 0,0 km/h (0 Bft) S 183 ° 0 min 0,000 mm 0,0 UV-I 0 W/m² 4,9 °C 6,3 °C 0,0 km/h (0 Bft)
19.10.2017 02:02 6,3 °C 6,3 °C 91 % 1015,2 hPa 0,0 mm 0,0 km/h (0 Bft) S 183 ° 0 min 0,000 mm 0,0 UV-I 0 W/m² 4,9 °C 6,3 °C 0,0 km/h (0 Bft)
19.10.2017 02:03 6,3 °C 6,3 °C 91 % 1015,2 hPa 0,0 mm 2,4 km/h (1 Bft) S 183 ° 0 min 0,000 mm 0,0 UV-I 0 W/m² 4,9 °C 6,3 °C 3,2 km/h (1 Bft)
19.10.2017 02:04 6,4 °C 6,4 °C 91 % 1015,2 hPa 0,0 mm 0,2 km/h (0 Bft) S 183 ° 0 min 0,000 mm 0,0 UV-I 0 W/m² 5,0 °C 6,4 °C 1,6 km/h (1 Bft)
19.10.2017 02:05 6,6 °C 6,6 °C 92 % 1015,3 hPa 0,0 mm 0,0 km/h (0 Bft) S 183 ° 0 min 0,000 mm 0,0 UV-I 0 W/m² 5,4 °C 6,6 °C 0,0 km/h (0 Bft)
19.10.2017 02:06 6,7 °C 6,7 °C 92 % 1015,3 hPa 0,0 mm 0,0 km/h (0 Bft) S 183 ° 0 min 0,000 mm 0,0 UV-I 0 W/m² 5,5 °C 6,7 °C 0,0 km/h (0 Bft)
19.10.2017 02:07 6,8 °C 6,8 °C 91 % 1015,2 hPa 0,0 mm 0,5 km/h (0 Bft) S 183 ° 0 min 0,000 mm 0,0 UV-I 0 W/m² 5,4 °C 6,8 °C 1,6 km/h (1 Bft)
19.10.2017 02:08 6,8 °C 6,8 °C 90 % 1015,1 hPa 0,0 mm 1,4 km/h (1 Bft) S 183 ° 0 min 0,000 mm 0,0 UV-I 0 W/m² 5,3 °C 6,8 °C 3,2 km/h (1 Bft)
19.10.2017 02:09 6,8 °C 6,8 °C 91 % 1015,1 hPa 0,0 mm 2,5 km/h (1 Bft) S 183 ° 0 min 0,000 mm 0,0 UV-I 0 W/m² 5,4 °C 6,8 °C 3,2 km/h (1 Bft)
19.10.2017 02:10 6,8 °C 6,8 °C 90 % 1015,1 hPa 0,0 mm 1,0 km/h (0 Bft) S 170 ° 0 min 0,000 mm 0,0 UV-I 0 W/m² 5,3 °C 6,8 °C 3,2 km/h (1 Bft)
19.10.2017 02:11 6,8 °C 6,8 °C 91 % 1015,1 hPa 0,0 mm 0,0 km/h (0 Bft) S 170 ° 0 min 0,000 mm 0,0 UV-I 0 W/m² 5,4 °C 6,8 °C 0,0 km/h (0 Bft)
19.10.2017 02:12 6,8 °C 6,8 °C 90 % 1015,1 hPa 0,0 mm 0,0 km/h (0 Bft) S 170 ° 0 min 0,000 mm 0,0 UV-I 0 W/m² 5,3 °C 6,8 °C 0,0 km/h (0 Bft)
19.10.2017 02:13 6,8 °C 6,8 °C 90 % 1015,1 hPa 0,0 mm 0,0 km/h (0 Bft) S 170 ° 0 min 0,000 mm 0,0 UV-I 0 W/m² 5,3 °C 6,8 °C 0,0 km/h (0 Bft)
19.10.2017 02:14 6,8 °C 6,8 °C 90 % 1015,1 hPa 0,0 mm 0,0 km/h (0 Bft) S 170 ° 0 min 0,000 mm 0,0 UV-I 0 W/m² 5,3 °C 6,8 °C 0,0 km/h (0 Bft)
19.10.2017 02:15 6,8 °C 6,8 °C 89 % 1015,1 hPa 0,0 mm 0,0 km/h (0 Bft) S 170 ° 0 min 0,000 mm 0,0 UV-I 0 W/m² 5,1 °C 6,8 °C 0,0 km/h (0 Bft)
19.10.2017 02:16 6,6 °C 6,8 °C 89 % 1015,1 hPa 0,0 mm 0,0 km/h (0 Bft) S 170 ° 0 min 0,000 mm 0,0 UV-I 0 W/m² 4,9 °C 6,6 °C 0,0 km/h (0 Bft)
19.10.2017 02:17 6,5 °C 6,6 °C 89 % 1015,1 hPa 0,0 mm 0,0 km/h (0 Bft) S 170 ° 0 min 0,000 mm 0,0 UV-I 0 W/m² 4,8 °C 6,5 °C 0,0 km/h (0 Bft)
19.10.2017 02:18 6,5 °C 6,5 °C 90 % 1015,1 hPa 0,0 mm 0,0 km/h (0 Bft) S 170 ° 0 min 0,000 mm 0,0 UV-I 0 W/m² 5,0 °C 6,5 °C 0,0 km/h (0 Bft)
19.10.2017 02:19 6,5 °C 6,5 °C 90 % 1015,2 hPa 0,0 mm 0,0 km/h (0 Bft) S 170 ° 0 min 0,000 mm 0,0 UV-I 0 W/m² 5,0 °C 6,5 °C 0,0 km/h (0 Bft)
19.10.2017 02:20 6,4 °C 6,5 °C 90 % 1015,2 hPa 0,0 mm 0,0 km/h (0 Bft) S 170 ° 0 min 0,000 mm 0,0 UV-I 0 W/m² 4,9 °C 6,4 °C 0,0 km/h (0 Bft)
19.10.2017 02:21 6,3 °C 6,4 °C 90 % 1015,2 hPa 0,0 mm 0,0 km/h (0 Bft) S 170 ° 0 min 0,000 mm 0,0 UV-I 0 W/m² 4,8 °C 6,3 °C 0,0 km/h (0 Bft)
19.10.2017 02:22 6,2 °C 6,3 °C 90 % 1015,2 hPa 0,0 mm 0,0 km/h (0 Bft) S 170 ° 0 min 0,000 mm 0,0 UV-I 0 W/m² 4,7 °C 6,2 °C 0,0 km/h (0 Bft)
19.10.2017 02:23 6,2 °C 6,2 °C 90 % 1015,2 hPa 0,0 mm 0,0 km/h (0 Bft) S 170 ° 0 min 0,000 mm 0,0 UV-I 0 W/m² 4,7 °C 6,2 °C 0,0 km/h (0 Bft)
19.10.2017 02:24 6,2 °C 6,2 °C 91 % 1015,2 hPa 0,0 mm 0,0 km/h (0 Bft) S 170 ° 0 min 0,000 mm 0,0 UV-I 0 W/m² 4,8 °C 6,2 °C 0,0 km/h (0 Bft)
19.10.2017 02:25 6,2 °C 6,2 °C 91 % 1015,1 hPa 0,0 mm 0,0 km/h (0 Bft) S 170 ° 0 min 0,000 mm 0,0 UV-I 0 W/m² 4,8 °C 6,2 °C 0,0 km/h (0 Bft)
19.10.2017 02:26 6,3 °C 6,3 °C 91 % 1015,1 hPa 0,0 mm 0,0 km/h (0 Bft) S 170 ° 0 min 0,000 mm 0,0 UV-I 0 W/m² 4,9 °C 6,3 °C 0,0 km/h (0 Bft)
19.10.2017 02:27 6,4 °C 6,4 °C 91 % 1015,1 hPa 0,0 mm 0,0 km/h (0 Bft) S 170 ° 0 min 0,000 mm 0,0 UV-I 0 W/m² 5,0 °C 6,4 °C 0,0 km/h (0 Bft)
19.10.2017 02:28 6,4 °C 6,4 °C 91 % 1015,1 hPa 0,0 mm 0,0 km/h (0 Bft) S 170 ° 0 min 0,000 mm 0,0 UV-I 0 W/m² 5,0 °C 6,4 °C 0,0 km/h (0 Bft)
19.10.2017 02:29 6,4 °C 6,5 °C 91 % 1015,1 hPa 0,0 mm 0,0 km/h (0 Bft) S 170 ° 0 min 0,000 mm 0,0 UV-I 0 W/m² 5,0 °C 6,4 °C 0,0 km/h (0 Bft)
19.10.2017 02:30 6,4 °C 6,4 °C 90 % 1015,1 hPa 0,0 mm 0,0 km/h (0 Bft) S 170 ° 0 min 0,000 mm 0,0 UV-I 0 W/m² 4,9 °C 6,4 °C 0,0 km/h (0 Bft)
19.10.2017 02:31 6,3 °C 6,4 °C 90 % 1015,1 hPa 0,0 mm 0,0 km/h (0 Bft) S 170 ° 0 min 0,000 mm 0,0 UV-I 0 W/m² 4,8 °C 6,3 °C 0,0 km/h (0 Bft)
19.10.2017 02:32 6,3 °C 6,4 °C 91 % 1015,1 hPa 0,0 mm 0,0 km/h (0 Bft) S 170 ° 0 min 0,000 mm 0,0 UV-I 0 W/m² 4,9 °C 6,3 °C 0,0 km/h (0 Bft)
19.10.2017 02:33 6,3 °C 6,3 °C 90 % 1015,1 hPa 0,0 mm 1,1 km/h (1 Bft) S-SW 204 ° 0 min 0,000 mm 0,0 UV-I 0 W/m² 4,8 °C 6,3 °C 3,2 km/h (1 Bft)
19.10.2017 02:34 6,2 °C 6,3 °C 91 % 1015,1 hPa 0,0 mm 0,1 km/h (0 Bft) S-SW 204 ° 0 min 0,000 mm 0,0 UV-I 0 W/m² 4,8 °C 6,2 °C 1,6 km/h (1 Bft)
19.10.2017 02:35 6,2 °C 6,2 °C 91 % 1015,1 hPa 0,0 mm 0,0 km/h (0 Bft) S-SW 204 ° 0 min 0,000 mm 0,0 UV-I 0 W/m² 4,8 °C 6,2 °C 0,0 km/h (0 Bft)
19.10.2017 02:36 6,2 °C 6,2 °C 90 % 1015,1 hPa 0,0 mm 0,0 km/h (0 Bft) S-SW 204 ° 0 min 0,000 mm 0,0 UV-I 0 W/m² 4,7 °C 6,2 °C 0,0 km/h (0 Bft)
19.10.2017 02:37 6,2 °C 6,2 °C 91 % 1015,1 hPa 0,0 mm 0,0 km/h (0 Bft) S-SW 204 ° 0 min 0,000 mm 0,0 UV-I 0 W/m² 4,8 °C 6,2 °C 0,0 km/h (0 Bft)
19.10.2017 02:38 6,2 °C 6,2 °C 91 % 1015,0 hPa 0,0 mm 0,0 km/h (0 Bft) S-SW 204 ° 0 min 0,000 mm 0,0 UV-I 0 W/m² 4,8 °C 6,2 °C 0,0 km/h (0 Bft)
19.10.2017 02:39 6,2 °C 6,2 °C 91 % 1015,0 hPa 0,0 mm 0,0 km/h (0 Bft) S-SW 204 ° 0 min 0,000 mm 0,0 UV-I 0 W/m² 4,8 °C 6,2 °C 0,0 km/h (0 Bft)
19.10.2017 02:40 6,2 °C 6,3 °C 91 % 1015,1 hPa 0,0 mm 0,0 km/h (0 Bft) S-SW 204 ° 0 min 0,000 mm 0,0 UV-I 0 W/m² 4,8 °C 6,2 °C 0,0 km/h (0 Bft)
19.10.2017 02:41 6,2 °C 6,3 °C 91 % 1015,0 hPa 0,0 mm 0,0 km/h (0 Bft) S-SW 204 ° 0 min 0,000 mm 0,0 UV-I 0 W/m² 4,8 °C 6,2 °C 0,0 km/h (0 Bft)
19.10.2017 02:42 6,2 °C 6,2 °C 91 % 1015,1 hPa 0,0 mm 0,0 km/h (0 Bft) S-SW 204 ° 0 min 0,000 mm 0,0 UV-I 0 W/m² 4,8 °C 6,2 °C 0,0 km/h (0 Bft)
19.10.2017 02:43 6,1 °C 6,2 °C 90 % 1015,1 hPa 0,0 mm 0,0 km/h (0 Bft) S-SW 203 ° 0 min 0,000 mm 0,0 UV-I 0 W/m² 4,6 °C 6,1 °C 0,0 km/h (0 Bft)
19.10.2017 02:44 6,1 °C 6,1 °C 91 % 1015,1 hPa 0,0 mm 0,0 km/h (0 Bft) S-SW 203 ° 0 min 0,000 mm 0,0 UV-I 0 W/m² 4,7 °C 6,1 °C 0,0 km/h (0 Bft)
19.10.2017 02:45 6,1 °C 6,1 °C 91 % 1015,1 hPa 0,0 mm 0,0 km/h (0 Bft) S-SW 203 ° 0 min 0,000 mm 0,0 UV-I 0 W/m² 4,7 °C 6,1 °C 0,0 km/h (0 Bft)
19.10.2017 02:46 6,1 °C 6,2 °C 91 % 1015,1 hPa 0,0 mm 0,0 km/h (0 Bft) S-SW 203 ° 0 min 0,000 mm 0,0 UV-I 0 W/m² 4,7 °C 6,1 °C 0,0 km/h (0 Bft)
19.10.2017 02:47 6,1 °C 6,2 °C 91 % 1015,1 hPa 0,0 mm 0,0 km/h (0 Bft) S-SW 203 ° 0 min 0,000 mm 0,0 UV-I 0 W/m² 4,7 °C 6,1 °C 0,0 km/h (0 Bft)
19.10.2017 02:48 6,2 °C 6,2 °C 92 % 1015,1 hPa 0,0 mm 0,0 km/h (0 Bft) S-SW 203 ° 0 min 0,000 mm 0,0 UV-I 0 W/m² 5,0 °C 6,2 °C 0,0 km/h (0 Bft)
19.10.2017 02:49 6,2 °C 6,2 °C 92 % 1015,1 hPa 0,0 mm 0,0 km/h (0 Bft) S-SW 203 ° 0 min 0,000 mm 0,0 UV-I 0 W/m² 5,0 °C 6,2 °C 0,0 km/h (0 Bft)
19.10.2017 02:50 6,3 °C 6,3 °C 92 % 1015,1 hPa 0,0 mm 0,0 km/h (0 Bft) S-SW 203 ° 0 min 0,000 mm 0,0 UV-I 0 W/m² 5,1 °C 6,3 °C 0,0 km/h (0 Bft)
19.10.2017 02:51 6,3 °C 6,3 °C 92 % 1015,1 hPa 0,0 mm 0,0 km/h (0 Bft) S-SW 203 ° 0 min 0,000 mm 0,0 UV-I 0 W/m² 5,1 °C 6,3 °C 0,0 km/h (0 Bft)
19.10.2017 02:52 6,4 °C 6,4 °C 91 % 1015,1 hPa 0,0 mm 0,0 km/h (0 Bft) S-SW 203 ° 0 min 0,000 mm 0,0 UV-I 0 W/m² 5,0 °C 6,4 °C 0,0 km/h (0 Bft)
19.10.2017 02:53 6,3 °C 6,4 °C 91 % 1015,1 hPa 0,0 mm 0,0 km/h (0 Bft) S-SW 203 ° 0 min 0,000 mm 0,0 UV-I 0 W/m² 4,9 °C 6,3 °C 0,0 km/h (0 Bft)
19.10.2017 02:54 6,4 °C 6,4 °C 91 % 1015,1 hPa 0,0 mm 0,0 km/h (0 Bft) S-SW 203 ° 0 min 0,000 mm 0,0 UV-I 0 W/m² 5,0 °C 6,4 °C 0,0 km/h (0 Bft)
19.10.2017 02:55 6,4 °C 6,4 °C 91 % 1015,1 hPa 0,0 mm 0,0 km/h (0 Bft) S-SW 203 ° 0 min 0,000 mm 0,0 UV-I 0 W/m² 5,0 °C 6,4 °C 0,0 km/h (0 Bft)
19.10.2017 02:56 6,5 °C 6,5 °C 92 % 1015,1 hPa 0,0 mm 0,0 km/h (0 Bft) S-SW 203 ° 0 min 0,000 mm 0,0 UV-I 0 W/m² 5,3 °C 6,5 °C 0,0 km/h (0 Bft)
19.10.2017 02:57 6,5 °C 6,5 °C 91 % 1015,1 hPa 0,0 mm 0,0 km/h (0 Bft) S-SW 203 ° 0 min 0,000 mm 0,0 UV-I 0 W/m² 5,1 °C 6,5 °C 0,0 km/h (0 Bft)
19.10.2017 02:58 6,4 °C 6,5 °C 91 % 1015,1 hPa 0,0 mm 0,0 km/h (0 Bft) S-SW 203 ° 0 min 0,000 mm 0,0 UV-I 0 W/m² 5,0 °C 6,4 °C 0,0 km/h (0 Bft)
19.10.2017 02:59 6,3 °C 6,4 °C 91 % 1015,0 hPa 0,0 mm 0,0 km/h (0 Bft) S-SW 203 ° 0 min 0,000 mm 0,0 UV-I 0 W/m² 4,9 °C 6,3 °C 0,0 km/h (0 Bft)
19.10.2017 03:00 6,2 °C 6,3 °C 91 % 1015,0 hPa 0,0 mm 0,0 km/h (0 Bft) S-SW 203 ° 0 min 0,000 mm 0,0 UV-I 0 W/m² 4,8 °C 6,2 °C 0,0 km/h (0 Bft)
19.10.2017 03:01 6,2 °C 6,3 °C 91 % 1015,0 hPa 0,0 mm 0,0 km/h (0 Bft) S-SW 203 ° 0 min 0,000 mm 0,0 UV-I 0 W/m² 4,8 °C 6,2 °C 0,0 km/h (0 Bft)
19.10.2017 03:02 6,2 °C 6,2 °C 91 % 1015,0 hPa 0,0 mm 0,0 km/h (0 Bft) S-SW 203 ° 0 min 0,000 mm 0,0 UV-I 0 W/m² 4,8 °C 6,2 °C 0,0 km/h (0 Bft)
19.10.2017 03:03 6,2 °C 6,2 °C 91 % 1015,0 hPa 0,0 mm 0,0 km/h (0 Bft) S-SW 203 ° 0 min 0,000 mm 0,0 UV-I 0 W/m² 4,8 °C 6,2 °C 0,0 km/h (0 Bft)
19.10.2017 03:04 6,2 °C 6,2 °C 91 % 1015,0 hPa 0,0 mm 0,0 km/h (0 Bft) S-SW 203 ° 0 min 0,000 mm 0,0 UV-I 0 W/m² 4,8 °C 6,2 °C 0,0 km/h (0 Bft)
19.10.2017 03:05 6,1 °C 6,2 °C 91 % 1015,0 hPa 0,0 mm 0,0 km/h (0 Bft) S-SW 203 ° 0 min 0,000 mm 0,0 UV-I 0 W/m² 4,7 °C 6,1 °C 0,0 km/h (0 Bft)
19.10.2017 03:06 6,1 °C 6,1 °C 91 % 1015,0 hPa 0,0 mm 0,0 km/h (0 Bft) S-SW 203 ° 0 min 0,000 mm 0,0 UV-I 0 W/m² 4,7 °C 6,1 °C 0,0 km/h (0 Bft)
19.10.2017 03:07 6,0 °C 6,1 °C 91 % 1015,0 hPa 0,0 mm 0,0 km/h (0 Bft) S-SW 203 ° 0 min 0,000 mm 0,0 UV-I 0 W/m² 4,6 °C 6,0 °C 0,0 km/h (0 Bft)
19.10.2017 03:08 5,9 °C 6,0 °C 91 % 1015,0 hPa 0,0 mm 0,0 km/h (0 Bft) S-SW 203 ° 0 min 0,000 mm 0,0 UV-I 0 W/m² 4,5 °C 5,9 °C 0,0 km/h (0 Bft)
19.10.2017 03:09 5,9 °C 6,0 °C 91 % 1015,0 hPa 0,0 mm 0,0 km/h (0 Bft) S-SW 203 ° 0 min 0,000 mm 0,0 UV-I 0 W/m² 4,5 °C 5,9 °C 0,0 km/h (0 Bft)
19.10.2017 03:10 6,0 °C 6,0 °C 92 % 1015,0 hPa 0,0 mm 0,0 km/h (0 Bft) S-SW 203 ° 0 min 0,000 mm 0,0 UV-I 0 W/m² 4,8 °C 6,0 °C 0,0 km/h (0 Bft)
19.10.2017 03:11 6,0 °C 6,0 °C 92 % 1015,0 hPa 0,0 mm 0,0 km/h (0 Bft) S-SW 203 ° 0 min 0,000 mm 0,0 UV-I 0 W/m² 4,8 °C 6,0 °C 0,0 km/h (0 Bft)
19.10.2017 03:12 5,9 °C 6,0 °C 92 % 1015,0 hPa 0,0 mm 0,0 km/h (0 Bft) S-SW 203 ° 0 min 0,000 mm 0,0 UV-I 0 W/m² 4,7 °C 5,9 °C 0,0 km/h (0 Bft)
19.10.2017 03:13 5,9 °C 5,9 °C 92 % 1014,9 hPa 0,0 mm 0,0 km/h (0 Bft) S-SW 204 ° 0 min 0,000 mm 0,0 UV-I 0 W/m² 4,7 °C 5,9 °C 0,0 km/h (0 Bft)
19.10.2017 03:14 5,9 °C 5,9 °C 91 % 1014,9 hPa 0,0 mm 0,0 km/h (0 Bft) S-SW 203 ° 0 min 0,000 mm 0,0 UV-I 0 W/m² 4,5 °C 5,9 °C 0,0 km/h (0 Bft)
19.10.2017 03:15 5,9 °C 5,9 °C 92 % 1014,9 hPa 0,0 mm 0,0 km/h (0 Bft) S-SW 203 ° 0 min 0,000 mm 0,0 UV-I 0 W/m² 4,7 °C 5,9 °C 0,0 km/h (0 Bft)
19.10.2017 03:16 5,9 °C 5,9 °C 92 % 1015,0 hPa 0,0 mm 0,0 km/h (0 Bft) S-SW 203 ° 0 min 0,000 mm 0,0 UV-I 0 W/m² 4,7 °C 5,9 °C 0,0 km/h (0 Bft)
19.10.2017 03:17 5,9 °C 5,9 °C 92 % 1014,9 hPa 0,0 mm 0,0 km/h (0 Bft) S-SW 203 ° 0 min 0,000 mm 0,0 UV-I 0 W/m² 4,7 °C 5,9 °C 0,0 km/h (0 Bft)
19.10.2017 03:18 5,9 °C 5,9 °C 92 % 1014,9 hPa 0,0 mm 0,0 km/h (0 Bft) S-SW 203 ° 0 min 0,000 mm 0,0 UV-I 0 W/m² 4,7 °C 5,9 °C 0,0 km/h (0 Bft)
19.10.2017 03:19 5,9 °C 5,9 °C 92 % 1014,9 hPa 0,0 mm 0,0 km/h (0 Bft) S-SW 203 ° 0 min 0,000 mm 0,0 UV-I 0 W/m² 4,7 °C 5,9 °C 0,0 km/h (0 Bft)
19.10.2017 03:20 6,0 °C 6,0 °C 93 % 1014,9 hPa 0,0 mm 0,0 km/h (0 Bft) S-SW 203 ° 0 min 0,000 mm 0,0 UV-I 0 W/m² 5,0 °C 6,0 °C 0,0 km/h (0 Bft)
19.10.2017 03:21 6,0 °C 6,1 °C 92 % 1014,9 hPa 0,0 mm 0,0 km/h (0 Bft) S-SW 203 ° 0 min 0,000 mm 0,0 UV-I 0 W/m² 4,8 °C 6,0 °C 0,0 km/h (0 Bft)
19.10.2017 03:22 5,9 °C 6,0 °C 92 % 1014,9 hPa 0,0 mm 0,0 km/h (0 Bft) S-SW 203 ° 0 min 0,000 mm 0,0 UV-I 0 W/m² 4,7 °C 5,9 °C 0,0 km/h (0 Bft)
19.10.2017 03:23 5,9 °C 5,9 °C 92 % 1014,9 hPa 0,0 mm 0,0 km/h (0 Bft) S-SW 203 ° 0 min 0,000 mm 0,0 UV-I 0 W/m² 4,7 °C 5,9 °C 0,0 km/h (0 Bft)
19.10.2017 03:24 5,8 °C 5,9 °C 92 % 1014,9 hPa 0,0 mm 0,0 km/h (0 Bft) S-SW 203 ° 0 min 0,000 mm 0,0 UV-I 0 W/m² 4,6 °C 5,8 °C 0,0 km/h (0 Bft)
19.10.2017 03:25 5,8 °C 5,8 °C 92 % 1014,9 hPa 0,0 mm 0,0 km/h (0 Bft) S-SW 203 ° 0 min 0,000 mm 0,0 UV-I 0 W/m² 4,6 °C 5,8 °C 0,0 km/h (0 Bft)
19.10.2017 03:26 5,8 °C 5,8 °C 92 % 1014,8 hPa 0,0 mm 0,0 km/h (0 Bft) S-SW 203 ° 0 min 0,000 mm 0,0 UV-I 0 W/m² 4,6 °C 5,8 °C 0,0 km/h (0 Bft)
19.10.2017 03:27 5,8 °C 5,8 °C 92 % 1014,8 hPa 0,0 mm 0,0 km/h (0 Bft) S-SW 203 ° 0 min 0,000 mm 0,0 UV-I 0 W/m² 4,6 °C 5,8 °C 0,0 km/h (0 Bft)
19.10.2017 03:28 5,8 °C 5,8 °C 92 % 1014,9 hPa 0,0 mm 0,0 km/h (0 Bft) S-SW 203 ° 0 min 0,000 mm 0,0 UV-I 0 W/m² 4,6 °C 5,8 °C 0,0 km/h (0 Bft)
19.10.2017 03:29 5,7 °C 5,8 °C 92 % 1014,9 hPa 0,0 mm 0,0 km/h (0 Bft) S-SW 203 ° 0 min 0,000 mm 0,0 UV-I 0 W/m² 4,5 °C 5,7 °C 0,0 km/h (0 Bft)
19.10.2017 03:30 5,7 °C 5,7 °C 92 % 1014,9 hPa 0,0 mm 0,0 km/h (0 Bft) S-SW 203 ° 0 min 0,000 mm 0,0 UV-I 0 W/m² 4,5 °C 5,7 °C 0,0 km/h (0 Bft)
19.10.2017 03:31 5,7 °C 5,7 °C 92 % 1014,9 hPa 0,0 mm 0,0 km/h (0 Bft) S-SW 203 ° 0 min 0,000 mm 0,0 UV-I 0 W/m² 4,5 °C 5,7 °C 0,0 km/h (0 Bft)
19.10.2017 03:32 5,8 °C 5,8 °C 92 % 1014,9 hPa 0,0 mm 0,0 km/h (0 Bft) S-SW 203 ° 0 min 0,000 mm 0,0 UV-I 0 W/m² 4,6 °C 5,8 °C 0,0 km/h (0 Bft)
19.10.2017 03:33 5,8 °C 5,8 °C 92 % 1014,9 hPa 0,0 mm 0,0 km/h (0 Bft) S-SW 203 ° 0 min 0,000 mm 0,0 UV-I 0 W/m² 4,6 °C 5,8 °C 0,0 km/h (0 Bft)
19.10.2017 03:34 5,7 °C 5,8 °C 93 % 1014,9 hPa 0,0 mm 0,0 km/h (0 Bft) S-SW 203 ° 0 min 0,000 mm 0,0 UV-I 0 W/m² 4,7 °C 5,7 °C 0,0 km/h (0 Bft)
19.10.2017 03:35 5,7 °C 5,8 °C 92 % 1014,9 hPa 0,0 mm 0,0 km/h (0 Bft) S-SW 203 ° 0 min 0,000 mm 0,0 UV-I 0 W/m² 4,5 °C 5,7 °C 0,0 km/h (0 Bft)
19.10.2017 03:36 5,7 °C 5,7 °C 92 % 1014,9 hPa 0,0 mm 0,0 km/h (0 Bft) S-SW 203 ° 0 min 0,000 mm 0,0 UV-I 0 W/m² 4,5 °C 5,7 °C 0,0 km/h (0 Bft)
19.10.2017 03:37 5,6 °C 5,7 °C 92 % 1014,9 hPa 0,0 mm 0,0 km/h (0 Bft) S-SW 203 ° 0 min 0,000 mm 0,0 UV-I 0 W/m² 4,4 °C 5,6 °C 0,0 km/h (0 Bft)
19.10.2017 03:38 5,6 °C 5,6 °C 92 % 1014,9 hPa 0,0 mm 0,0 km/h (0 Bft) S-SW 203 ° 0 min 0,000 mm 0,0 UV-I 0 W/m² 4,4 °C 5,6 °C 0,0 km/h (0 Bft)
19.10.2017 03:39 5,6 °C 5,6 °C 92 % 1014,9 hPa 0,0 mm 0,0 km/h (0 Bft) S-SW 204 ° 0 min 0,000 mm 0,0 UV-I 0 W/m² 4,4 °C 5,6 °C 0,0 km/h (0 Bft)
19.10.2017 03:40 5,5 °C 5,6 °C 92 % 1014,8 hPa 0,0 mm 0,0 km/h (0 Bft) S-SW 203 ° 0 min 0,000 mm 0,0 UV-I 0 W/m² 4,3 °C 5,5 °C 0,0 km/h (0 Bft)
19.10.2017 03:41 5,5 °C 5,6 °C 92 % 1014,8 hPa 0,0 mm 0,0 km/h (0 Bft) S-SW 203 ° 0 min 0,000 mm 0,0 UV-I 0 W/m² 4,3 °C 5,5 °C 0,0 km/h (0 Bft)
19.10.2017 03:42 5,5 °C 5,5 °C 93 % 1014,8 hPa 0,0 mm 0,0 km/h (0 Bft) S-SW 203 ° 0 min 0,000 mm 0,0 UV-I 0 W/m² 4,5 °C 5,5 °C 0,0 km/h (0 Bft)
19.10.2017 03:43 5,6 °C 5,6 °C 93 % 1014,9 hPa 0,0 mm 0,0 km/h (0 Bft) S-SW 203 ° 0 min 0,000 mm 0,0 UV-I 0 W/m² 4,6 °C 5,6 °C 0,0 km/h (0 Bft)
19.10.2017 03:44 5,6 °C 5,6 °C 93 % 1014,8 hPa 0,0 mm 0,0 km/h (0 Bft) S-SW 203 ° 0 min 0,000 mm 0,0 UV-I 0 W/m² 4,6 °C 5,6 °C 0,0 km/h (0 Bft)
19.10.2017 03:45 5,7 °C 5,7 °C 93 % 1014,8 hPa 0,0 mm 0,0 km/h (0 Bft) S-SW 203 ° 0 min 0,000 mm 0,0 UV-I 0 W/m² 4,7 °C 5,7 °C 0,0 km/h (0 Bft)
19.10.2017 03:46 5,7 °C 5,7 °C 93 % 1014,8 hPa 0,0 mm 0,0 km/h (0 Bft) S-SW 204 ° 0 min 0,000 mm 0,0 UV-I 0 W/m² 4,7 °C 5,7 °C 0,0 km/h (0 Bft)
19.10.2017 03:47 5,6 °C 5,7 °C 93 % 1014,9 hPa 0,0 mm 0,0 km/h (0 Bft) S-SW 203 ° 0 min 0,000 mm 0,0 UV-I 0 W/m² 4,6 °C 5,6 °C 0,0 km/h (0 Bft)
19.10.2017 03:48 5,6 °C 5,6 °C 92 % 1014,8 hPa 0,0 mm 0,0 km/h (0 Bft) S-SW 203 ° 0 min 0,000 mm 0,0 UV-I 0 W/m² 4,4 °C 5,6 °C 0,0 km/h (0 Bft)
19.10.2017 03:49 5,6 °C 5,6 °C 93 % 1014,8 hPa 0,0 mm 0,0 km/h (0 Bft) S-SW 203 ° 0 min 0,000 mm 0,0 UV-I 0 W/m² 4,6 °C 5,6 °C 0,0 km/h (0 Bft)
19.10.2017 03:50 5,5 °C 5,6 °C 92 % 1014,8 hPa 0,0 mm 0,0 km/h (0 Bft) S-SW 203 ° 0 min 0,000 mm 0,0 UV-I 0 W/m² 4,3 °C 5,5 °C 0,0 km/h (0 Bft)
19.10.2017 03:51 5,5 °C 5,6 °C 92 % 1014,8 hPa 0,0 mm 0,0 km/h (0 Bft) S-SW 203 ° 0 min 0,000 mm 0,0 UV-I 0 W/m² 4,3 °C 5,5 °C 0,0 km/h (0 Bft)
19.10.2017 03:52 5,4 °C 5,5 °C 92 % 1014,8 hPa 0,0 mm 0,0 km/h (0 Bft) S-SW 203 ° 0 min 0,000 mm 0,0 UV-I 0 W/m² 4,2 °C 5,4 °C 0,0 km/h (0 Bft)
19.10.2017 03:53 5,5 °C 5,5 °C 93 % 1014,8 hPa 0,0 mm 0,0 km/h (0 Bft) S-SW 203 ° 0 min 0,000 mm 0,0 UV-I 0 W/m² 4,5 °C 5,5 °C 0,0 km/h (0 Bft)
19.10.2017 03:54 5,4 °C 5,5 °C 92 % 1014,8 hPa 0,0 mm 0,0 km/h (0 Bft) S-SW 203 ° 0 min 0,000 mm 0,0 UV-I 0 W/m² 4,2 °C 5,4 °C 0,0 km/h (0 Bft)
19.10.2017 03:55 5,4 °C 5,5 °C 93 % 1014,9 hPa 0,0 mm 0,0 km/h (0 Bft) S-SW 204 ° 0 min 0,000 mm 0,0 UV-I 0 W/m² 4,4 °C 5,4 °C 0,0 km/h (0 Bft)
19.10.2017 03:56 5,4 °C 5,4 °C 92 % 1014,8 hPa 0,0 mm 0,0 km/h (0 Bft) S-SW 204 ° 0 min 0,000 mm 0,0 UV-I 0 W/m² 4,2 °C 5,4 °C 0,0 km/h (0 Bft)
19.10.2017 03:57 5,4 °C 5,4 °C 92 % 1014,8 hPa 0,0 mm 0,0 km/h (0 Bft) S-SW 203 ° 0 min 0,000 mm 0,0 UV-I 0 W/m² 4,2 °C 5,4 °C 0,0 km/h (0 Bft)
19.10.2017 03:58 5,3 °C 5,4 °C 92 % 1014,8 hPa 0,0 mm 0,0 km/h (0 Bft) S-SW 203 ° 0 min 0,000 mm 0,0 UV-I 0 W/m² 4,1 °C 5,3 °C 0,0 km/h (0 Bft)
19.10.2017 03:59 5,3 °C 5,3 °C 92 % 1014,8 hPa 0,0 mm 0,0 km/h (0 Bft) S-SW 203 ° 0 min 0,000 mm 0,0 UV-I 0 W/m² 4,1 °C 5,3 °C 0,0 km/h (0 Bft)
19.10.2017 04:00 5,3 °C 5,3 °C 93 % 1014,8 hPa 0,0 mm 0,0 km/h (0 Bft) S-SW 203 ° 0 min 0,000 mm 0,0 UV-I 0 W/m² 4,3 °C 5,3 °C 0,0 km/h (0 Bft)
19.10.2017 04:01 5,3 °C 5,3 °C 93 % 1014,8 hPa 0,0 mm 0,0 km/h (0 Bft) S-SW 203 ° 0 min 0,000 mm 0,0 UV-I 0 W/m² 4,3 °C 5,3 °C 0,0 km/h (0 Bft)
19.10.2017 04:02 5,3 °C 5,3 °C 92 % 1014,8 hPa 0,0 mm 0,0 km/h (0 Bft) S-SW 204 ° 0 min 0,000 mm 0,0 UV-I 0 W/m² 4,1 °C 5,3 °C 0,0 km/h (0 Bft)
19.10.2017 04:03 5,2 °C 5,3 °C 92 % 1014,8 hPa 0,0 mm 0,0 km/h (0 Bft) S-SW 203 ° 0 min 0,000 mm 0,0 UV-I 0 W/m² 4,0 °C 5,2 °C 0,0 km/h (0 Bft)
19.10.2017 04:04 5,2 °C 5,2 °C 92 % 1014,8 hPa 0,0 mm 0,0 km/h (0 Bft) S-SW 203 ° 0 min 0,000 mm 0,0 UV-I 0 W/m² 4,0 °C 5,2 °C 0,0 km/h (0 Bft)
19.10.2017 04:05 5,2 °C 5,2 °C 92 % 1014,8 hPa 0,0 mm 0,0 km/h (0 Bft) S-SW 203 ° 0 min 0,000 mm 0,0 UV-I 0 W/m² 4,0 °C 5,2 °C 0,0 km/h (0 Bft)
19.10.2017 04:06 5,2 °C 5,2 °C 92 % 1014,7 hPa 0,0 mm 0,0 km/h (0 Bft) S-SW 203 ° 0 min 0,000 mm 0,0 UV-I 0 W/m² 4,0 °C 5,2 °C 0,0 km/h (0 Bft)
19.10.2017 04:07 5,2 °C 5,2 °C 92 % 1014,8 hPa 0,0 mm 0,0 km/h (0 Bft) S-SW 203 ° 0 min 0,000 mm 0,0 UV-I 0 W/m² 4,0 °C 5,2 °C 0,0 km/h (0 Bft)
19.10.2017 04:08 5,1 °C 5,2 °C 93 % 1014,8 hPa 0,0 mm 0,0 km/h (0 Bft) S-SW 203 ° 0 min 0,000 mm 0,0 UV-I 0 W/m² 4,1 °C 5,1 °C 0,0 km/h (0 Bft)
19.10.2017 04:09 5,1 °C 5,1 °C 92 % 1014,8 hPa 0,0 mm 0,0 km/h (0 Bft) S-SW 203 ° 0 min 0,000 mm 0,0 UV-I 0 W/m² 3,9 °C 5,1 °C 0,0 km/h (0 Bft)
19.10.2017 04:10 5,1 °C 5,1 °C 93 % 1014,8 hPa 0,0 mm 0,0 km/h (0 Bft) S-SW 203 ° 0 min 0,000 mm 0,0 UV-I 0 W/m² 4,1 °C 5,1 °C 0,0 km/h (0 Bft)
19.10.2017 04:11 5,1 °C 5,1 °C 93 % 1014,8 hPa 0,0 mm 0,0 km/h (0 Bft) S-SW 203 ° 0 min 0,000 mm 0,0 UV-I 0 W/m² 4,1 °C 5,1 °C 0,0 km/h (0 Bft)
19.10.2017 04:12 5,0 °C 5,1 °C 93 % 1014,8 hPa 0,0 mm 0,0 km/h (0 Bft) S-SW 203 ° 0 min 0,000 mm 0,0 UV-I 0 W/m² 4,0 °C 5,0 °C 0,0 km/h (0 Bft)
19.10.2017 04:13 4,9 °C 5,0 °C 93 % 1014,8 hPa 0,0 mm 0,0 km/h (0 Bft) S-SW 203 ° 0 min 0,000 mm 0,0 UV-I 0 W/m² 3,9 °C 4,9 °C 0,0 km/h (0 Bft)
19.10.2017 04:14 4,9 °C 4,9 °C 93 % 1014,8 hPa 0,0 mm 0,0 km/h (0 Bft) S-SW 203 ° 0 min 0,000 mm 0,0 UV-I 0 W/m² 3,9 °C 4,9 °C 0,0 km/h (0 Bft)
19.10.2017 04:15 4,9 °C 4,9 °C 93 % 1014,8 hPa 0,0 mm 0,0 km/h (0 Bft) S-SW 203 ° 0 min 0,000 mm 0,0 UV-I 0 W/m² 3,9 °C 4,9 °C 0,0 km/h (0 Bft)
19.10.2017 04:16 4,9 °C 4,9 °C 93 % 1014,8 hPa 0,0 mm 0,0 km/h (0 Bft) S-SW 203 ° 0 min 0,000 mm 0,0 UV-I 0 W/m² 3,9 °C 4,9 °C 0,0 km/h (0 Bft)
19.10.2017 04:17 4,9 °C 4,9 °C 93 % 1014,8 hPa 0,0 mm 0,0 km/h (0 Bft) S-SW 203 ° 0 min 0,000 mm 0,0 UV-I 0 W/m² 3,9 °C 4,9 °C 0,0 km/h (0 Bft)
19.10.2017 04:18 4,9 °C 4,9 °C 93 % 1014,7 hPa 0,0 mm 0,0 km/h (0 Bft) S-SW 203 ° 0 min 0,000 mm 0,0 UV-I 0 W/m² 3,9 °C 4,9 °C 0,0 km/h (0 Bft)
19.10.2017 04:19 4,9 °C 4,9 °C 93 % 1014,8 hPa 0,0 mm 0,0 km/h (0 Bft) S-SW 203 ° 0 min 0,000 mm 0,0 UV-I 0 W/m² 3,9 °C 4,9 °C 0,0 km/h (0 Bft)
19.10.2017 04:20 5,1 °C 5,1 °C 93 % 1014,8 hPa 0,0 mm 0,0 km/h (0 Bft) S-SW 203 ° 0 min 0,000 mm 0,0 UV-I 0 W/m² 4,1 °C 5,1 °C 0,0 km/h (0 Bft)
19.10.2017 04:21 5,1 °C 5,1 °C 94 % 1014,8 hPa 0,0 mm 0,0 km/h (0 Bft) S-SW 204 ° 0 min 0,000 mm 0,0 UV-I 0 W/m² 4,2 °C 5,1 °C 0,0 km/h (0 Bft)
19.10.2017 04:22 5,2 °C 5,2 °C 93 % 1014,7 hPa 0,0 mm 0,0 km/h (0 Bft) S-SW 204 ° 0 min 0,000 mm 0,0 UV-I 0 W/m² 4,2 °C 5,2 °C 0,0 km/h (0 Bft)
19.10.2017 04:23 5,2 °C 5,2 °C 93 % 1014,7 hPa 0,0 mm 0,0 km/h (0 Bft) S-SW 204 ° 0 min 0,000 mm 0,0 UV-I 0 W/m² 4,2 °C 5,2 °C 0,0 km/h (0 Bft)
19.10.2017 04:24 5,3 °C 5,3 °C 94 % 1014,7 hPa 0,0 mm 0,0 km/h (0 Bft) S-SW 204 ° 0 min 0,000 mm 0,0 UV-I 0 W/m² 4,4 °C 5,3 °C 0,0 km/h (0 Bft)
19.10.2017 04:25 5,3 °C 5,3 °C 94 % 1014,7 hPa 0,0 mm 0,0 km/h (0 Bft) S-SW 204 ° 0 min 0,000 mm 0,0 UV-I 0 W/m² 4,4 °C 5,3 °C 0,0 km/h (0 Bft)
19.10.2017 04:26 5,4 °C 5,4 °C 94 % 1014,7 hPa 0,0 mm 0,0 km/h (0 Bft) S-SW 203 ° 0 min 0,000 mm 0,0 UV-I 0 W/m² 4,5 °C 5,4 °C 0,0 km/h (0 Bft)
19.10.2017 04:27 5,4 °C 5,4 °C 93 % 1014,7 hPa 0,0 mm 0,0 km/h (0 Bft) S-SW 204 ° 0 min 0,000 mm 0,0 UV-I 0 W/m² 4,4 °C 5,4 °C 0,0 km/h (0 Bft)
19.10.2017 04:28 5,4 °C 5,4 °C 93 % 1014,7 hPa 0,0 mm 0,0 km/h (0 Bft) S-SW 204 ° 0 min 0,000 mm 0,0 UV-I 0 W/m² 4,4 °C 5,4 °C 0,0 km/h (0 Bft)
19.10.2017 04:29 5,4 °C 5,4 °C 93 % 1014,7 hPa 0,0 mm 0,0 km/h (0 Bft) S-SW 203 ° 0 min 0,000 mm 0,0 UV-I 0 W/m² 4,4 °C 5,4 °C 0,0 km/h (0 Bft)
19.10.2017 04:30 5,4 °C 5,4 °C 93 % 1014,7 hPa 0,0 mm 0,0 km/h (0 Bft) S-SW 204 ° 0 min 0,000 mm 0,0 UV-I 0 W/m² 4,4 °C 5,4 °C 0,0 km/h (0 Bft)
19.10.2017 04:31 5,4 °C 5,4 °C 93 % 1014,7 hPa 0,0 mm 0,0 km/h (0 Bft) S-SW 204 ° 0 min 0,000 mm 0,0 UV-I 0 W/m² 4,4 °C 5,4 °C 0,0 km/h (0 Bft)
19.10.2017 04:32 5,4 °C 5,4 °C 93 % 1014,7 hPa 0,0 mm 0,0 km/h (0 Bft) S-SW 204 ° 0 min 0,000 mm 0,0 UV-I 0 W/m² 4,4 °C 5,4 °C 0,0 km/h (0 Bft)
19.10.2017 04:33 5,3 °C 5,4 °C 93 % 1014,7 hPa 0,0 mm 0,0 km/h (0 Bft) S-SW 204 ° 0 min 0,000 mm 0,0 UV-I 0 W/m² 4,3 °C 5,3 °C 0,0 km/h (0 Bft)
19.10.2017 04:34 5,3 °C 5,3 °C 93 % 1014,7 hPa 0,0 mm 0,0 km/h (0 Bft) S-SW 204 ° 0 min 0,000 mm 0,0 UV-I 0 W/m² 4,3 °C 5,3 °C 0,0 km/h (0 Bft)
19.10.2017 04:35 5,3 °C 5,3 °C 93 % 1014,7 hPa 0,0 mm 0,0 km/h (0 Bft) S-SW 204 ° 0 min 0,000 mm 0,0 UV-I 0 W/m² 4,3 °C 5,3 °C 0,0 km/h (0 Bft)
19.10.2017 04:36 5,3 °C 5,3 °C 93 % 1014,7 hPa 0,0 mm 0,0 km/h (0 Bft) S-SW 203 ° 0 min 0,000 mm 0,0 UV-I 0 W/m² 4,3 °C 5,3 °C 0,0 km/h (0 Bft)
19.10.2017 04:37 5,3 °C 5,3 °C 93 % 1014,7 hPa 0,0 mm 0,0 km/h (0 Bft) S-SW 204 ° 0 min 0,000 mm 0,0 UV-I 0 W/m² 4,3 °C 5,3 °C 0,0 km/h (0 Bft)
19.10.2017 04:38 5,3 °C 5,3 °C 93 % 1014,7 hPa 0,0 mm 0,0 km/h (0 Bft) S-SW 204 ° 0 min 0,000 mm 0,0 UV-I 0 W/m² 4,3 °C 5,3 °C 0,0 km/h (0 Bft)
19.10.2017 04:39 5,3 °C 5,3 °C 93 % 1014,7 hPa 0,0 mm 0,0 km/h (0 Bft) S-SW 204 ° 0 min 0,000 mm 0,0 UV-I 0 W/m² 4,3 °C 5,3 °C 0,0 km/h (0 Bft)
19.10.2017 04:40 5,3 °C 5,3 °C 93 % 1014,7 hPa 0,0 mm 0,0 km/h (0 Bft) S-SW 204 ° 0 min 0,000 mm 0,0 UV-I 0 W/m² 4,3 °C 5,3 °C 0,0 km/h (0 Bft)
19.10.2017 04:41 5,2 °C 5,3 °C 93 % 1014,7 hPa 0,0 mm 0,0 km/h (0 Bft) S-SW 204 ° 0 min 0,000 mm 0,0 UV-I 0 W/m² 4,2 °C 5,2 °C 0,0 km/h (0 Bft)
19.10.2017 04:42 5,2 °C 5,2 °C 92 % 1014,7 hPa 0,0 mm 0,0 km/h (0 Bft) S-SW 204 ° 0 min 0,000 mm 0,0 UV-I 0 W/m² 4,0 °C 5,2 °C 0,0 km/h (0 Bft)
19.10.2017 04:43 5,1 °C 5,2 °C 92 % 1014,7 hPa 0,0 mm 0,0 km/h (0 Bft) S-SW 204 ° 0 min 0,000 mm 0,0 UV-I 0 W/m² 3,9 °C 5,1 °C 0,0 km/h (0 Bft)
19.10.2017 04:44 5,1 °C 5,1 °C 92 % 1014,7 hPa 0,0 mm 0,0 km/h (0 Bft) S-SW 203 ° 0 min 0,000 mm 0,0 UV-I 0 W/m² 3,9 °C 5,1 °C 0,0 km/h (0 Bft)
19.10.2017 04:45 5,0 °C 5,1 °C 92 % 1014,7 hPa 0,0 mm 0,0 km/h (0 Bft) S-SW 203 ° 0 min 0,000 mm 0,0 UV-I 0 W/m² 3,8 °C 5,0 °C 0,0 km/h (0 Bft)
19.10.2017 04:46 4,9 °C 5,0 °C 93 % 1014,7 hPa 0,0 mm 0,0 km/h (0 Bft) S-SW 203 ° 0 min 0,000 mm 0,0 UV-I 0 W/m² 3,9 °C 4,9 °C 0,0 km/h (0 Bft)
19.10.2017 04:47 4,9 °C 4,9 °C 93 % 1014,7 hPa 0,0 mm 0,0 km/h (0 Bft) S-SW 203 ° 0 min 0,000 mm 0,0 UV-I 0 W/m² 3,9 °C 4,9 °C 0,0 km/h (0 Bft)
19.10.2017 04:48 4,9 °C 4,9 °C 93 % 1014,7 hPa 0,0 mm 0,0 km/h (0 Bft) S-SW 204 ° 0 min 0,000 mm 0,0 UV-I 0 W/m² 3,9 °C 4,9 °C 0,0 km/h (0 Bft)
19.10.2017 04:49 5,1 °C 5,1 °C 93 % 1014,7 hPa 0,0 mm 0,0 km/h (0 Bft) S-SW 204 ° 0 min 0,000 mm 0,0 UV-I 0 W/m² 4,1 °C 5,1 °C 0,0 km/h (0 Bft)
19.10.2017 04:50 5,0 °C 5,1 °C 93 % 1014,7 hPa 0,0 mm 0,0 km/h (0 Bft) S-SW 204 ° 0 min 0,000 mm 0,0 UV-I 0 W/m² 4,0 °C 5,0 °C 0,0 km/h (0 Bft)
19.10.2017 04:51 5,1 °C 5,1 °C 93 % 1014,7 hPa 0,0 mm 0,0 km/h (0 Bft) S-SW 203 ° 0 min 0,000 mm 0,0 UV-I 0 W/m² 4,1 °C 5,1 °C 0,0 km/h (0 Bft)
19.10.2017 04:52 5,1 °C 5,1 °C 93 % 1014,7 hPa 0,0 mm 0,0 km/h (0 Bft) S-SW 204 ° 0 min 0,000 mm 0,0 UV-I 0 W/m² 4,1 °C 5,1 °C 0,0 km/h (0 Bft)
19.10.2017 04:53 5,2 °C 5,2 °C 93 % 1014,6 hPa 0,0 mm 0,0 km/h (0 Bft) S-SW 204 ° 0 min 0,000 mm 0,0 UV-I 0 W/m² 4,2 °C 5,2 °C 0,0 km/h (0 Bft)
19.10.2017 04:54 5,2 °C 5,2 °C 93 % 1014,7 hPa 0,0 mm 0,0 km/h (0 Bft) S-SW 204 ° 0 min 0,000 mm 0,0 UV-I 0 W/m² 4,2 °C 5,2 °C 0,0 km/h (0 Bft)
19.10.2017 04:55 5,2 °C 5,2 °C 93 % 1014,7 hPa 0,0 mm 0,0 km/h (0 Bft) S-SW 203 ° 0 min 0,000 mm 0,0 UV-I 0 W/m² 4,2 °C 5,2 °C 0,0 km/h (0 Bft)
19.10.2017 04:56 5,1 °C 5,2 °C 93 % 1014,7 hPa 0,0 mm 0,0 km/h (0 Bft) S-SW 203 ° 0 min 0,000 mm 0,0 UV-I 0 W/m² 4,1 °C 5,1 °C 0,0 km/h (0 Bft)
19.10.2017 04:57 5,1 °C 5,1 °C 93 % 1014,7 hPa 0,0 mm 0,0 km/h (0 Bft) S-SW 203 ° 0 min 0,000 mm 0,0 UV-I 0 W/m² 4,1 °C 5,1 °C 0,0 km/h (0 Bft)
19.10.2017 04:58 5,1 °C 5,1 °C 93 % 1014,7 hPa 0,0 mm 0,0 km/h (0 Bft) S-SW 204 ° 0 min 0,000 mm 0,0 UV-I 0 W/m² 4,1 °C 5,1 °C 0,0 km/h (0 Bft)
19.10.2017 04:59 5,0 °C 5,1 °C 93 % 1014,6 hPa 0,0 mm 0,0 km/h (0 Bft) S-SW 204 ° 0 min 0,000 mm 0,0 UV-I 0 W/m² 4,0 °C 5,0 °C 0,0 km/h (0 Bft)
19.10.2017 05:00 5,0 °C 5,1 °C 93 % 1014,6 hPa 0,0 mm 0,0 km/h (0 Bft) S-SW 204 ° 0 min 0,000 mm 0,0 UV-I 0 W/m² 4,0 °C 5,0 °C 0,0 km/h (0 Bft)
19.10.2017 05:01 4,9 °C 5,0 °C 93 % 1014,7 hPa 0,0 mm 0,0 km/h (0 Bft) S-SW 204 ° 0 min 0,000 mm 0,0 UV-I 0 W/m² 3,9 °C 4,9 °C 0,0 km/h (0 Bft)
19.10.2017 05:02 5,0 °C 5,0 °C 93 % 1014,7 hPa 0,0 mm 0,0 km/h (0 Bft) S-SW 204 ° 0 min 0,000 mm 0,0 UV-I 0 W/m² 4,0 °C 5,0 °C 0,0 km/h (0 Bft)
19.10.2017 05:03 5,0 °C 5,0 °C 93 % 1014,7 hPa 0,0 mm 0,0 km/h (0 Bft) S-SW 204 ° 0 min 0,000 mm 0,0 UV-I 0 W/m² 4,0 °C 5,0 °C 0,0 km/h (0 Bft)
19.10.2017 05:04 5,1 °C 5,1 °C 93 % 1014,7 hPa 0,0 mm 0,0 km/h (0 Bft) S-SW 204 ° 0 min 0,000 mm 0,0 UV-I 0 W/m² 4,1 °C 5,1 °C 0,0 km/h (0 Bft)
19.10.2017 05:05 5,1 °C 5,1 °C 93 % 1014,7 hPa 0,0 mm 0,0 km/h (0 Bft) S-SW 203 ° 0 min 0,000 mm 0,0 UV-I 0 W/m² 4,1 °C 5,1 °C 0,0 km/h (0 Bft)
19.10.2017 05:06 5,2 °C 5,2 °C 93 % 1014,7 hPa 0,0 mm 0,0 km/h (0 Bft) S-SW 203 ° 0 min 0,000 mm 0,0 UV-I 0 W/m² 4,2 °C 5,2 °C 0,0 km/h (0 Bft)
19.10.2017 05:07 5,2 °C 5,2 °C 93 % 1014,7 hPa 0,0 mm 0,0 km/h (0 Bft) S-SW 203 ° 0 min 0,000 mm 0,0 UV-I 0 W/m² 4,2 °C 5,2 °C 0,0 km/h (0 Bft)
19.10.2017 05:08 5,1 °C 5,2 °C 93 % 1014,7 hPa 0,0 mm 0,0 km/h (0 Bft) S-SW 204 ° 0 min 0,000 mm 0,0 UV-I 0 W/m² 4,1 °C 5,1 °C 0,0 km/h (0 Bft)
19.10.2017 05:09 5,1 °C 5,1 °C 93 % 1014,7 hPa 0,0 mm 0,0 km/h (0 Bft) S-SW 204 ° 0 min 0,000 mm 0,0 UV-I 0 W/m² 4,1 °C 5,1 °C 0,0 km/h (0 Bft)
19.10.2017 05:10 5,1 °C 5,1 °C 93 % 1014,7 hPa 0,0 mm 0,0 km/h (0 Bft) S-SW 204 ° 0 min 0,000 mm 0,0 UV-I 0 W/m² 4,1 °C 5,1 °C 0,0 km/h (0 Bft)
19.10.2017 05:11 5,0 °C 5,1 °C 93 % 1014,7 hPa 0,0 mm 0,0 km/h (0 Bft) S-SW 204 ° 0 min 0,000 mm 0,0 UV-I 0 W/m² 4,0 °C 5,0 °C 0,0 km/h (0 Bft)
19.10.2017 05:12 5,0 °C 5,0 °C 93 % 1014,6 hPa 0,0 mm 0,0 km/h (0 Bft) S-SW 203 ° 0 min 0,000 mm 0,0 UV-I 0 W/m² 4,0 °C 5,0 °C 0,0 km/h (0 Bft)
19.10.2017 05:13 4,9 °C 5,0 °C 93 % 1014,7 hPa 0,0 mm 0,0 km/h (0 Bft) N 0 ° 0 min 0,000 mm 0,0 UV-I 0 W/m² 3,9 °C 4,9 °C 0,0 km/h (0 Bft)
19.10.2017 05:14 4,9 °C 5,0 °C 93 % 1014,6 hPa 0,0 mm 0,0 km/h (0 Bft) N 0 ° 0 min 0,000 mm 0,0 UV-I 0 W/m² 3,9 °C 4,9 °C 0,0 km/h (0 Bft)
19.10.2017 05:15 4,9 °C 4,9 °C 93 % 1014,6 hPa 0,0 mm 0,0 km/h (0 Bft) N 0 ° 0 min 0,000 mm 0,0 UV-I 0 W/m² 3,9 °C 4,9 °C 0,0 km/h (0 Bft)
19.10.2017 05:16 4,9 °C 4,9 °C 93 % 1014,6 hPa 0,0 mm 0,0 km/h (0 Bft) N 0 ° 0 min 0,000 mm 0,0 UV-I 0 W/m² 3,9 °C 4,9 °C 0,0 km/h (0 Bft)
19.10.2017 05:17 4,9 °C 4,9 °C 93 % 1014,7 hPa 0,0 mm 0,0 km/h (0 Bft) N 0 ° 0 min 0,000 mm 0,0 UV-I 0 W/m² 3,9 °C 4,9 °C 0,0 km/h (0 Bft)
19.10.2017 05:18 4,9 °C 4,9 °C 93 % 1014,7 hPa 0,0 mm 0,0 km/h (0 Bft) N 0 ° 0 min 0,000 mm 0,0 UV-I 0 W/m² 3,9 °C 4,9 °C 0,0 km/h (0 Bft)
19.10.2017 05:19 4,9 °C 4,9 °C 93 % 1014,6 hPa 0,0 mm 0,0 km/h (0 Bft) N 0 ° 0 min 0,000 mm 0,0 UV-I 0 W/m² 3,9 °C 4,9 °C 0,0 km/h (0 Bft)
19.10.2017 05:20 4,9 °C 4,9 °C 93 % 1014,7 hPa 0,0 mm 0,0 km/h (0 Bft) N 0 ° 0 min 0,000 mm 0,0 UV-I 0 W/m² 3,9 °C 4,9 °C 0,0 km/h (0 Bft)
19.10.2017 05:21 4,9 °C 4,9 °C 93 % 1014,7 hPa 0,0 mm 0,0 km/h (0 Bft) N 0 ° 0 min 0,000 mm 0,0 UV-I 0 W/m² 3,9 °C 4,9 °C 0,0 km/h (0 Bft)
19.10.2017 05:22 4,9 °C 4,9 °C 93 % 1014,7 hPa 0,0 mm 0,0 km/h (0 Bft) N 0 ° 0 min 0,000 mm 0,0 UV-I 0 W/m² 3,9 °C 4,9 °C 0,0 km/h (0 Bft)
19.10.2017 05:23 4,9 °C 4,9 °C 93 % 1014,6 hPa 0,0 mm 0,0 km/h (0 Bft) N 0 ° 0 min 0,000 mm 0,0 UV-I 0 W/m² 3,9 °C 4,9 °C 0,0 km/h (0 Bft)
19.10.2017 05:24 4,9 °C 4,9 °C 93 % 1014,7 hPa 0,0 mm 0,0 km/h (0 Bft) N 0 ° 0 min 0,000 mm 0,0 UV-I 0 W/m² 3,9 °C 4,9 °C 0,0 km/h (0 Bft)
19.10.2017 05:25 4,9 °C 4,9 °C 93 % 1014,6 hPa 0,0 mm 0,0 km/h (0 Bft) N 0 ° 0 min 0,000 mm 0,0 UV-I 0 W/m² 3,9 °C 4,9 °C 0,0 km/h (0 Bft)
19.10.2017 05:26 4,9 °C 4,9 °C 93 % 1014,6 hPa 0,0 mm 0,0 km/h (0 Bft) N 0 ° 0 min 0,000 mm 0,0 UV-I 0 W/m² 3,9 °C 4,9 °C 0,0 km/h (0 Bft)
19.10.2017 05:27 5,1 °C 5,1 °C 93 % 1014,6 hPa 0,0 mm 0,0 km/h (0 Bft) N 0 ° 0 min 0,000 mm 0,0 UV-I 0 W/m² 4,1 °C 5,1 °C 0,0 km/h (0 Bft)
19.10.2017 05:28 5,0 °C 5,1 °C 93 % 1014,6 hPa 0,0 mm 0,0 km/h (0 Bft) N 0 ° 0 min 0,000 mm 0,0 UV-I 0 W/m² 4,0 °C 5,0 °C 0,0 km/h (0 Bft)
19.10.2017 05:29 5,1 °C 5,1 °C 93 % 1014,7 hPa 0,0 mm 0,0 km/h (0 Bft) N 0 ° 0 min 0,000 mm 0,0 UV-I 0 W/m² 4,1 °C 5,1 °C 0,0 km/h (0 Bft)
19.10.2017 05:30 5,0 °C 5,1 °C 93 % 1014,6 hPa 0,0 mm 0,0 km/h (0 Bft) N 0 ° 0 min 0,000 mm 0,0 UV-I 0 W/m² 4,0 °C 5,0 °C 0,0 km/h (0 Bft)
19.10.2017 05:31 4,9 °C 4,9 °C 92 % 1014,6 hPa 0,0 mm 0,0 km/h (0 Bft) N 0 ° 0 min 0,000 mm 0,0 UV-I 0 W/m² 3,7 °C 4,9 °C 0,0 km/h (0 Bft)
19.10.2017 05:32 4,9 °C 4,9 °C 93 % 1014,7 hPa 0,0 mm 0,0 km/h (0 Bft) N 0 ° 0 min 0,000 mm 0,0 UV-I 0 W/m² 3,9 °C 4,9 °C 0,0 km/h (0 Bft)
19.10.2017 05:33 4,9 °C 4,9 °C 93 % 1014,6 hPa 0,0 mm 0,0 km/h (0 Bft) N 0 ° 0 min 0,000 mm 0,0 UV-I 0 W/m² 3,9 °C 4,9 °C 0,0 km/h (0 Bft)
19.10.2017 05:34 4,8 °C 4,9 °C 92 % 1014,7 hPa 0,0 mm 0,0 km/h (0 Bft) N 0 ° 0 min 0,000 mm 0,0 UV-I 0 W/m² 3,6 °C 4,8 °C 0,0 km/h (0 Bft)
19.10.2017 05:35 4,8 °C 4,8 °C 93 % 1014,6 hPa 0,0 mm 0,0 km/h (0 Bft) N 0 ° 0 min 0,000 mm 0,0 UV-I 0 W/m² 3,8 °C 4,8 °C 0,0 km/h (0 Bft)
19.10.2017 05:36 4,8 °C 4,8 °C 93 % 1014,6 hPa 0,0 mm 0,0 km/h (0 Bft) N 0 ° 0 min 0,000 mm 0,0 UV-I 0 W/m² 3,8 °C 4,8 °C 0,0 km/h (0 Bft)
19.10.2017 05:37 4,7 °C 4,8 °C 92 % 1014,6 hPa 0,0 mm 0,0 km/h (0 Bft) N 0 ° 0 min 0,000 mm 0,0 UV-I 0 W/m² 3,5 °C 4,7 °C 0,0 km/h (0 Bft)
19.10.2017 05:38 4,6 °C 4,7 °C 93 % 1014,6 hPa 0,0 mm 0,0 km/h (0 Bft) N 0 ° 0 min 0,000 mm 0,0 UV-I 0 W/m² 3,6 °C 4,6 °C 0,0 km/h (0 Bft)
19.10.2017 05:39 4,6 °C 4,6 °C 93 % 1014,6 hPa 0,0 mm 0,0 km/h (0 Bft) N 0 ° 0 min 0,000 mm 0,0 UV-I 0 W/m² 3,6 °C 4,6 °C 0,0 km/h (0 Bft)
19.10.2017 05:40 4,6 °C 4,6 °C 93 % 1014,6 hPa 0,0 mm 0,0 km/h (0 Bft) N 0 ° 0 min 0,000 mm 0,0 UV-I 0 W/m² 3,6 °C 4,6 °C 0,0 km/h (0 Bft)
19.10.2017 05:42 4,7 °C 4,7 °C 93 % 1014,6 hPa 0,0 mm 0,0 km/h (0 Bft) S-SW 204 ° 0 min 0,000 mm 0,0 UV-I 0 W/m² 3,7 °C 4,7 °C 0,0 km/h (0 Bft)
19.10.2017 05:43 4,7 °C 4,7 °C 93 % 1014,6 hPa 0,0 mm 0,0 km/h (0 Bft) S-SW 204 ° 0 min 0,000 mm 0,0 UV-I 0 W/m² 3,7 °C 4,7 °C 0,0 km/h (0 Bft)
19.10.2017 05:44 4,8 °C 4,8 °C 93 % 1014,6 hPa 0,0 mm 0,0 km/h (0 Bft) S-SW 204 ° 0 min 0,000 mm 0,0 UV-I 0 W/m² 3,8 °C 4,8 °C 0,0 km/h (0 Bft)
19.10.2017 05:45 4,8 °C 4,8 °C 93 % 1014,7 hPa 0,0 mm 0,0 km/h (0 Bft) S-SW 204 ° 0 min 0,000 mm 0,0 UV-I 0 W/m² 3,8 °C 4,8 °C 0,0 km/h (0 Bft)
19.10.2017 05:46 4,8 °C 4,8 °C 93 % 1014,7 hPa 0,0 mm 0,0 km/h (0 Bft) S-SW 204 ° 0 min 0,000 mm 0,0 UV-I 0 W/m² 3,8 °C 4,8 °C 0,0 km/h (0 Bft)
19.10.2017 05:47 4,8 °C 4,8 °C 93 % 1014,7 hPa 0,0 mm 0,0 km/h (0 Bft) S-SW 204 ° 0 min 0,000 mm 0,0 UV-I 0 W/m² 3,8 °C 4,8 °C 0,0 km/h (0 Bft)
19.10.2017 05:48 4,9 °C 4,9 °C 93 % 1014,6 hPa 0,0 mm 0,0 km/h (0 Bft) S-SW 203 ° 0 min 0,000 mm 0,0 UV-I 0 W/m² 3,9 °C 4,9 °C 0,0 km/h (0 Bft)
19.10.2017 05:49 4,9 °C 4,9 °C 94 % 1014,6 hPa 0,0 mm 0,0 km/h (0 Bft) S-SW 203 ° 0 min 0,000 mm 0,0 UV-I 0 W/m² 4,0 °C 4,9 °C 0,0 km/h (0 Bft)
19.10.2017 05:50 4,8 °C 4,9 °C 93 % 1014,6 hPa 0,0 mm 0,0 km/h (0 Bft) S-SW 203 ° 0 min 0,000 mm 0,0 UV-I 0 W/m² 3,8 °C 4,8 °C 0,0 km/h (0 Bft)
19.10.2017 05:51 4,8 °C 4,8 °C 93 % 1014,6 hPa 0,0 mm 0,0 km/h (0 Bft) S-SW 204 ° 0 min 0,000 mm 0,0 UV-I 0 W/m² 3,8 °C 4,8 °C 0,0 km/h (0 Bft)
19.10.2017 05:52 4,8 °C 4,8 °C 93 % 1014,6 hPa 0,0 mm 0,0 km/h (0 Bft) S-SW 203 ° 0 min 0,000 mm 0,0 UV-I 0 W/m² 3,8 °C 4,8 °C 0,0 km/h (0 Bft)
19.10.2017 05:53 4,7 °C 4,8 °C 93 % 1014,6 hPa 0,0 mm 0,0 km/h (0 Bft) S-SW 204 ° 0 min 0,000 mm 0,0 UV-I 0 W/m² 3,7 °C 4,7 °C 0,0 km/h (0 Bft)
19.10.2017 05:54 4,7 °C 4,7 °C 93 % 1014,6 hPa 0,0 mm 0,0 km/h (0 Bft) S-SW 203 ° 0 min 0,000 mm 0,0 UV-I 0 W/m² 3,7 °C 4,7 °C 0,0 km/h (0 Bft)
19.10.2017 05:55 4,7 °C 4,7 °C 93 % 1014,6 hPa 0,0 mm 0,0 km/h (0 Bft) S-SW 204 ° 0 min 0,000 mm 0,0 UV-I 0 W/m² 3,7 °C 4,7 °C 0,0 km/h (0 Bft)
19.10.2017 05:56 4,6 °C 4,7 °C 93 % 1014,6 hPa 0,0 mm 0,0 km/h (0 Bft) S-SW 204 ° 0 min 0,000 mm 0,0 UV-I 0 W/m² 3,6 °C 4,6 °C 0,0 km/h (0 Bft)
19.10.2017 05:57 4,6 °C 4,6 °C 93 % 1014,6 hPa 0,0 mm 0,0 km/h (0 Bft) S-SW 204 ° 0 min 0,000 mm 0,0 UV-I 0 W/m² 3,6 °C 4,6 °C 0,0 km/h (0 Bft)
19.10.2017 05:58 4,6 °C 4,6 °C 93 % 1014,6 hPa 0,0 mm 0,0 km/h (0 Bft) S-SW 204 ° 0 min 0,000 mm 0,0 UV-I 0 W/m² 3,6 °C 4,6 °C 0,0 km/h (0 Bft)
19.10.2017 05:59 4,5 °C 4,6 °C 93 % 1014,5 hPa 0,0 mm 0,0 km/h (0 Bft) S-SW 204 ° 0 min 0,000 mm 0,0 UV-I 0 W/m² 3,5 °C 4,5 °C 0,0 km/h (0 Bft)
19.10.2017 06:00 4,5 °C 4,5 °C 93 % 1014,5 hPa 0,0 mm 0,0 km/h (0 Bft) S-SW 204 ° 0 min 0,000 mm 0,0 UV-I 0 W/m² 3,5 °C 4,5 °C 0,0 km/h (0 Bft)
19.10.2017 06:01 4,5 °C 4,5 °C 93 % 1014,6 hPa 0,0 mm 0,0 km/h (0 Bft) S-SW 204 ° 0 min 0,000 mm 0,0 UV-I 0 W/m² 3,5 °C 4,5 °C 0,0 km/h (0 Bft)
19.10.2017 06:02 4,6 °C 4,6 °C 93 % 1014,5 hPa 0,0 mm 0,0 km/h (0 Bft) S-SW 204 ° 0 min 0,000 mm 0,0 UV-I 0 W/m² 3,6 °C 4,6 °C 0,0 km/h (0 Bft)
19.10.2017 06:03 4,6 °C 4,6 °C 94 % 1014,5 hPa 0,0 mm 0,0 km/h (0 Bft) S-SW 204 ° 0 min 0,000 mm 0,0 UV-I 0 W/m² 3,7 °C 4,6 °C 0,0 km/h (0 Bft)
19.10.2017 06:04 4,6 °C 4,6 °C 94 % 1014,5 hPa 0,0 mm 0,0 km/h (0 Bft) S-SW 204 ° 0 min 0,000 mm 0,0 UV-I 0 W/m² 3,7 °C 4,6 °C 0,0 km/h (0 Bft)
19.10.2017 06:05 4,6 °C 4,7 °C 94 % 1014,5 hPa 0,0 mm 0,0 km/h (0 Bft) S-SW 204 ° 0 min 0,000 mm 0,0 UV-I 0 W/m² 3,7 °C 4,6 °C 0,0 km/h (0 Bft)
19.10.2017 06:06 4,7 °C 4,7 °C 94 % 1014,5 hPa 0,0 mm 0,0 km/h (0 Bft) S-SW 203 ° 0 min 0,000 mm 0,0 UV-I 0 W/m² 3,8 °C 4,7 °C 0,0 km/h (0 Bft)
19.10.2017 06:07 4,7 °C 4,7 °C 94 % 1014,5 hPa 0,0 mm 0,0 km/h (0 Bft) S-SW 204 ° 0 min 0,000 mm 0,0 UV-I 0 W/m² 3,8 °C 4,7 °C 0,0 km/h (0 Bft)
19.10.2017 06:08 4,7 °C 4,8 °C 93 % 1014,5 hPa 0,0 mm 0,0 km/h (0 Bft) S-SW 204 ° 0 min 0,000 mm 0,0 UV-I 0 W/m² 3,7 °C 4,7 °C 0,0 km/h (0 Bft)
19.10.2017 06:09 4,7 °C 4,7 °C 93 % 1014,4 hPa 0,0 mm 0,0 km/h (0 Bft) S-SW 204 ° 0 min 0,000 mm 0,0 UV-I 0 W/m² 3,7 °C 4,7 °C 0,0 km/h (0 Bft)
19.10.2017 06:10 4,7 °C 4,7 °C 93 % 1014,4 hPa 0,0 mm 0,0 km/h (0 Bft) S-SW 203 ° 0 min 0,000 mm 0,0 UV-I 0 W/m² 3,7 °C 4,7 °C 0,0 km/h (0 Bft)
19.10.2017 06:11 4,7 °C 4,8 °C 93 % 1014,4 hPa 0,0 mm 0,0 km/h (0 Bft) S-SW 203 ° 0 min 0,000 mm 0,0 UV-I 0 W/m² 3,7 °C 4,7 °C 0,0 km/h (0 Bft)
19.10.2017 06:12 4,8 °C 4,8 °C 93 % 1014,5 hPa 0,0 mm 0,0 km/h (0 Bft) S-SW 204 ° 0 min 0,000 mm 0,0 UV-I 0 W/m² 3,8 °C 4,8 °C 0,0 km/h (0 Bft)
19.10.2017 06:13 4,7 °C 4,8 °C 93 % 1014,4 hPa 0,0 mm 0,0 km/h (0 Bft) S-SW 204 ° 0 min 0,000 mm 0,0 UV-I 0 W/m² 3,7 °C 4,7 °C 0,0 km/h (0 Bft)
19.10.2017 06:14 4,6 °C 4,7 °C 92 % 1014,4 hPa 0,0 mm 0,0 km/h (0 Bft) S-SW 204 ° 0 min 0,000 mm 0,0 UV-I 0 W/m² 3,4 °C 4,6 °C 0,0 km/h (0 Bft)
19.10.2017 06:15 4,6 °C 4,7 °C 92 % 1014,4 hPa 0,0 mm 0,0 km/h (0 Bft) S-SW 203 ° 0 min 0,000 mm 0,0 UV-I 0 W/m² 3,4 °C 4,6 °C 0,0 km/h (0 Bft)
19.10.2017 06:16 4,6 °C 4,6 °C 92 % 1014,4 hPa 0,0 mm 0,0 km/h (0 Bft) S-SW 204 ° 0 min 0,000 mm 0,0 UV-I 0 W/m² 3,4 °C 4,6 °C 0,0 km/h (0 Bft)
19.10.2017 06:17 4,5 °C 4,6 °C 92 % 1014,4 hPa 0,0 mm 0,0 km/h (0 Bft) S-SW 203 ° 0 min 0,000 mm 0,0 UV-I 0 W/m² 3,3 °C 4,5 °C 0,0 km/h (0 Bft)
19.10.2017 06:18 4,5 °C 4,5 °C 92 % 1014,3 hPa 0,0 mm 0,0 km/h (0 Bft) S-SW 203 ° 0 min 0,000 mm 0,0 UV-I 0 W/m² 3,3 °C 4,5 °C 0,0 km/h (0 Bft)
19.10.2017 06:19 4,6 °C 4,6 °C 93 % 1014,3 hPa 0,0 mm 0,0 km/h (0 Bft) S-SW 204 ° 0 min 0,000 mm 0,0 UV-I 0 W/m² 3,6 °C 4,6 °C 0,0 km/h (0 Bft)
19.10.2017 06:20 4,5 °C 4,6 °C 93 % 1014,3 hPa 0,0 mm 0,0 km/h (0 Bft) S-SW 203 ° 0 min 0,000 mm 0,0 UV-I 0 W/m² 3,5 °C 4,5 °C 0,0 km/h (0 Bft)
19.10.2017 06:21 4,5 °C 4,6 °C 92 % 1014,4 hPa 0,0 mm 0,0 km/h (0 Bft) S-SW 203 ° 0 min 0,000 mm 0,0 UV-I 0 W/m² 3,3 °C 4,5 °C 0,0 km/h (0 Bft)
19.10.2017 06:22 4,4 °C 4,5 °C 92 % 1014,4 hPa 0,0 mm 0,0 km/h (0 Bft) S-SW 204 ° 0 min 0,000 mm 0,0 UV-I 0 W/m² 3,2 °C 4,4 °C 0,0 km/h (0 Bft)
19.10.2017 06:23 4,4 °C 4,5 °C 92 % 1014,4 hPa 0,0 mm 0,0 km/h (0 Bft) S-SW 203 ° 0 min 0,000 mm 0,0 UV-I 0 W/m² 3,2 °C 4,4 °C 0,0 km/h (0 Bft)
19.10.2017 06:24 4,5 °C 4,5 °C 93 % 1014,4 hPa 0,0 mm 0,0 km/h (0 Bft) S-SW 203 ° 0 min 0,000 mm 0,0 UV-I 0 W/m² 3,5 °C 4,5 °C 0,0 km/h (0 Bft)
19.10.2017 06:25 4,4 °C 4,5 °C 92 % 1014,4 hPa 0,0 mm 0,0 km/h (0 Bft) S-SW 203 ° 0 min 0,000 mm 0,0 UV-I 0 W/m² 3,2 °C 4,4 °C 0,0 km/h (0 Bft)
19.10.2017 06:26 4,5 °C 4,5 °C 93 % 1014,4 hPa 0,0 mm 0,0 km/h (0 Bft) S-SW 203 ° 0 min 0,000 mm 0,0 UV-I 0 W/m² 3,5 °C 4,5 °C 0,0 km/h (0 Bft)
19.10.2017 06:27 4,6 °C 4,6 °C 93 % 1014,4 hPa 0,0 mm 0,0 km/h (0 Bft) S-SW 203 ° 0 min 0,000 mm 0,0 UV-I 0 W/m² 3,6 °C 4,6 °C 0,0 km/h (0 Bft)
19.10.2017 06:28 4,6 °C 4,6 °C 93 % 1014,3 hPa 0,0 mm 0,0 km/h (0 Bft) S-SW 203 ° 0 min 0,000 mm 0,0 UV-I 0 W/m² 3,6 °C 4,6 °C 0,0 km/h (0 Bft)
19.10.2017 06:29 4,6 °C 4,6 °C 93 % 1014,3 hPa 0,0 mm 0,0 km/h (0 Bft) S-SW 203 ° 0 min 0,000 mm 0,0 UV-I 0 W/m² 3,6 °C 4,6 °C 0,0 km/h (0 Bft)
19.10.2017 06:30 4,6 °C 4,7 °C 93 % 1014,3 hPa 0,0 mm 0,0 km/h (0 Bft) S-SW 203 ° 0 min 0,000 mm 0,0 UV-I 0 W/m² 3,6 °C 4,6 °C 0,0 km/h (0 Bft)
19.10.2017 06:31 4,7 °C 4,7 °C 93 % 1014,3 hPa 0,0 mm 0,0 km/h (0 Bft) S-SW 203 ° 0 min 0,000 mm 0,0 UV-I 0 W/m² 3,7 °C 4,7 °C 0,0 km/h (0 Bft)
19.10.2017 06:32 4,8 °C 4,8 °C 93 % 1014,4 hPa 0,0 mm 0,0 km/h (0 Bft) S-SW 203 ° 0 min 0,000 mm 0,0 UV-I 0 W/m² 3,8 °C 4,8 °C 0,0 km/h (0 Bft)
19.10.2017 06:33 4,9 °C 4,9 °C 93 % 1014,3 hPa 0,0 mm 0,0 km/h (0 Bft) S-SW 204 ° 0 min 0,000 mm 0,0 UV-I 0 W/m² 3,9 °C 4,9 °C 0,0 km/h (0 Bft)
19.10.2017 06:34 4,9 °C 4,9 °C 92 % 1014,3 hPa 0,0 mm 0,0 km/h (0 Bft) S-SW 204 ° 0 min 0,000 mm 0,0 UV-I 0 W/m² 3,7 °C 4,9 °C 0,0 km/h (0 Bft)
19.10.2017 06:35 5,0 °C 5,0 °C 92 % 1014,3 hPa 0,0 mm 0,0 km/h (0 Bft) S-SW 203 ° 0 min 0,000 mm 0,0 UV-I 0 W/m² 3,8 °C 5,0 °C 0,0 km/h (0 Bft)
19.10.2017 06:36 5,1 °C 5,1 °C 92 % 1014,2 hPa 0,0 mm 0,0 km/h (0 Bft) S-SW 204 ° 0 min 0,000 mm 0,0 UV-I 0 W/m² 3,9 °C 5,1 °C 0,0 km/h (0 Bft)
19.10.2017 06:37 5,0 °C 5,1 °C 91 % 1014,2 hPa 0,0 mm 0,1 km/h (0 Bft) S-SW 204 ° 0 min 0,000 mm 0,0 UV-I 0 W/m² 3,7 °C 5,0 °C 1,6 km/h (1 Bft)
19.10.2017 06:38 5,0 °C 5,1 °C 91 % 1014,3 hPa 0,0 mm 0,0 km/h (0 Bft) S-SW 204 ° 0 min 0,000 mm 0,0 UV-I 0 W/m² 3,7 °C 5,0 °C 0,0 km/h (0 Bft)
19.10.2017 06:39 4,9 °C 5,0 °C 91 % 1014,2 hPa 0,0 mm 0,0 km/h (0 Bft) S-SW 204 ° 0 min 0,000 mm 0,0 UV-I 0 W/m² 3,6 °C 4,9 °C 0,0 km/h (0 Bft)
19.10.2017 06:40 4,8 °C 4,9 °C 91 % 1014,2 hPa 0,0 mm 0,0 km/h (0 Bft) S-SW 204 ° 0 min 0,000 mm 0,0 UV-I 0 W/m² 3,5 °C 4,8 °C 0,0 km/h (0 Bft)
19.10.2017 06:41 4,8 °C 4,8 °C 91 % 1014,2 hPa 0,0 mm 0,8 km/h (0 Bft) W-NW 294 ° 0 min 0,000 mm 0,0 UV-I 0 W/m² 3,5 °C 4,8 °C 3,2 km/h (1 Bft)
19.10.2017 06:42 4,8 °C 4,8 °C 91 % 1014,2 hPa 0,0 mm 0,0 km/h (0 Bft) W-NW 294 ° 0 min 0,000 mm 0,0 UV-I 0 W/m² 3,5 °C 4,8 °C 0,0 km/h (0 Bft)
19.10.2017 06:43 4,8 °C 4,8 °C 91 % 1014,2 hPa 0,0 mm 0,0 km/h (0 Bft) W-NW 294 ° 0 min 0,000 mm 0,0 UV-I 0 W/m² 3,5 °C 4,8 °C 0,0 km/h (0 Bft)
19.10.2017 06:44 4,7 °C 4,8 °C 91 % 1014,2 hPa 0,0 mm 0,0 km/h (0 Bft) W-NW 294 ° 0 min 0,000 mm 0,0 UV-I 0 W/m² 3,4 °C 4,7 °C 0,0 km/h (0 Bft)
19.10.2017 06:45 4,7 °C 4,7 °C 91 % 1014,2 hPa 0,0 mm 0,0 km/h (0 Bft) W-NW 294 ° 0 min 0,000 mm 0,0 UV-I 0 W/m² 3,4 °C 4,7 °C 0,0 km/h (0 Bft)
19.10.2017 06:46 4,7 °C 4,7 °C 91 % 1014,2 hPa 0,0 mm 0,0 km/h (0 Bft) W-NW 294 ° 0 min 0,000 mm 0,0 UV-I 0 W/m² 3,4 °C 4,7 °C 0,0 km/h (0 Bft)
19.10.2017 06:47 4,7 °C 4,7 °C 91 % 1014,2 hPa 0,0 mm 0,0 km/h (0 Bft) W-NW 294 ° 0 min 0,000 mm 0,0 UV-I 0 W/m² 3,4 °C 4,7 °C 0,0 km/h (0 Bft)
19.10.2017 06:48 4,7 °C 4,7 °C 91 % 1014,2 hPa 0,0 mm 0,0 km/h (0 Bft) W-NW 294 ° 0 min 0,000 mm 0,0 UV-I 0 W/m² 3,4 °C 4,7 °C 0,0 km/h (0 Bft)
19.10.2017 06:49 4,7 °C 4,7 °C 91 % 1014,2 hPa 0,0 mm 0,0 km/h (0 Bft) W-NW 294 ° 0 min 0,000 mm 0,0 UV-I 0 W/m² 3,4 °C 4,7 °C 0,0 km/h (0 Bft)
19.10.2017 06:50 4,7 °C 4,7 °C 91 % 1014,1 hPa 0,0 mm 0,0 km/h (0 Bft) W-NW 294 ° 0 min 0,000 mm 0,0 UV-I 0 W/m² 3,4 °C 4,7 °C 0,0 km/h (0 Bft)
19.10.2017 06:51 4,7 °C 4,7 °C 91 % 1014,1 hPa 0,0 mm 0,0 km/h (0 Bft) W-NW 294 ° 0 min 0,000 mm 0,0 UV-I 0 W/m² 3,4 °C 4,7 °C 0,0 km/h (0 Bft)
19.10.2017 06:52 4,6 °C 4,7 °C 91 % 1014,1 hPa 0,0 mm 0,0 km/h (0 Bft) W-NW 294 ° 0 min 0,000 mm 0,0 UV-I 0 W/m² 3,3 °C 4,6 °C 0,0 km/h (0 Bft)
19.10.2017 06:53 4,6 °C 4,6 °C 91 % 1014,1 hPa 0,0 mm 0,3 km/h (0 Bft) W-NW 294 ° 0 min 0,000 mm 0,0 UV-I 0 W/m² 3,3 °C 4,6 °C 1,6 km/h (1 Bft)
19.10.2017 06:54 4,6 °C 4,6 °C 91 % 1014,1 hPa 0,0 mm 0,2 km/h (0 Bft) W-NW 294 ° 0 min 0,000 mm 0,0 UV-I 0 W/m² 3,3 °C 4,6 °C 1,6 km/h (1 Bft)
19.10.2017 06:55 4,6 °C 4,6 °C 91 % 1014,1 hPa 0,0 mm 0,0 km/h (0 Bft) W-NW 294 ° 0 min 0,000 mm 0,0 UV-I 0 W/m² 3,3 °C 4,6 °C 0,0 km/h (0 Bft)
19.10.2017 06:56 4,6 °C 4,6 °C 91 % 1014,1 hPa 0,0 mm 0,0 km/h (0 Bft) W-NW 294 ° 0 min 0,000 mm 0,0 UV-I 0 W/m² 3,3 °C 4,6 °C 0,0 km/h (0 Bft)
19.10.2017 06:57 4,6 °C 4,7 °C 92 % 1014,1 hPa 0,0 mm 0,0 km/h (0 Bft) W-NW 294 ° 0 min 0,000 mm 0,0 UV-I 0 W/m² 3,4 °C 4,6 °C 0,0 km/h (0 Bft)
19.10.2017 06:58 4,7 °C 4,7 °C 91 % 1014,1 hPa 0,0 mm 0,0 km/h (0 Bft) W-NW 294 ° 0 min 0,000 mm 0,0 UV-I 0 W/m² 3,4 °C 4,7 °C 0,0 km/h (0 Bft)
19.10.2017 06:59 4,7 °C 4,7 °C 92 % 1014,1 hPa 0,0 mm 0,0 km/h (0 Bft) W-NW 294 ° 0 min 0,000 mm 0,0 UV-I 0 W/m² 3,5 °C 4,7 °C 0,0 km/h (0 Bft)
19.10.2017 07:00 4,7 °C 4,7 °C 91 % 1014,1 hPa 0,0 mm 0,0 km/h (0 Bft) W-NW 294 ° 0 min 0,000 mm 0,0 UV-I 0 W/m² 3,4 °C 4,7 °C 0,0 km/h (0 Bft)
19.10.2017 07:01 4,8 °C 4,8 °C 91 % 1014,1 hPa 0,0 mm 0,0 km/h (0 Bft) W-NW 294 ° 0 min 0,000 mm 0,0 UV-I 0 W/m² 3,5 °C 4,8 °C 0,0 km/h (0 Bft)
19.10.2017 07:02 4,8 °C 4,8 °C 91 % 1014,1 hPa 0,0 mm 0,0 km/h (0 Bft) W-NW 294 ° 0 min 0,000 mm 0,0 UV-I 0 W/m² 3,5 °C 4,8 °C 0,0 km/h (0 Bft)
19.10.2017 07:03 4,8 °C 4,8 °C 91 % 1014,1 hPa 0,0 mm 0,0 km/h (0 Bft) W-NW 294 ° 0 min 0,000 mm 0,0 UV-I 0 W/m² 3,5 °C 4,8 °C 0,0 km/h (0 Bft)
19.10.2017 07:04 4,8 °C 4,8 °C 91 % 1014,1 hPa 0,0 mm 0,3 km/h (0 Bft) W-NW 294 ° 0 min 0,000 mm 0,0 UV-I 0 W/m² 3,5 °C 4,8 °C 1,6 km/h (1 Bft)
19.10.2017 07:05 4,7 °C 4,8 °C 91 % 1014,1 hPa 0,0 mm 0,0 km/h (0 Bft) W-NW 294 ° 0 min 0,000 mm 0,0 UV-I 0 W/m² 3,4 °C 4,7 °C 0,0 km/h (0 Bft)
19.10.2017 07:06 4,7 °C 4,7 °C 90 % 1014,1 hPa 0,0 mm 0,0 km/h (0 Bft) W-NW 294 ° 0 min 0,000 mm 0,0 UV-I 0 W/m² 3,2 °C 4,7 °C 0,0 km/h (0 Bft)
19.10.2017 07:07 4,7 °C 4,7 °C 90 % 1014,1 hPa 0,0 mm 0,1 km/h (0 Bft) W-NW 294 ° 0 min 0,000 mm 0,0 UV-I 0 W/m² 3,2 °C 4,7 °C 1,6 km/h (1 Bft)
19.10.2017 07:08 4,6 °C 4,7 °C 90 % 1014,1 hPa 0,0 mm 0,0 km/h (0 Bft) W-NW 294 ° 0 min 0,000 mm 0,0 UV-I 0 W/m² 3,1 °C 4,6 °C 0,0 km/h (0 Bft)
19.10.2017 07:09 4,6 °C 4,6 °C 90 % 1014,1 hPa 0,0 mm 0,0 km/h (0 Bft) W-NW 294 ° 0 min 0,000 mm 0,0 UV-I 0 W/m² 3,1 °C 4,6 °C 0,0 km/h (0 Bft)
19.10.2017 07:10 4,6 °C 4,6 °C 91 % 1014,1 hPa 0,0 mm 0,0 km/h (0 Bft) W-NW 294 ° 0 min 0,000 mm 0,0 UV-I 0 W/m² 3,3 °C 4,6 °C 0,0 km/h (0 Bft)
19.10.2017 07:11 4,7 °C 4,7 °C 91 % 1014,1 hPa 0,0 mm 0,0 km/h (0 Bft) W-NW 294 ° 0 min 0,000 mm 0,0 UV-I 0 W/m² 3,4 °C 4,7 °C 0,0 km/h (0 Bft)
19.10.2017 07:12 4,7 °C 4,7 °C 91 % 1014,1 hPa 0,0 mm 0,0 km/h (0 Bft) W-NW 294 ° 0 min 0,000 mm 0,0 UV-I 0 W/m² 3,4 °C 4,7 °C 0,0 km/h (0 Bft)
19.10.2017 07:13 4,8 °C 4,8 °C 91 % 1014,1 hPa 0,0 mm 0,0 km/h (0 Bft) W-NW 294 ° 0 min 0,000 mm 0,0 UV-I 0 W/m² 3,5 °C 4,8 °C 0,0 km/h (0 Bft)
19.10.2017 07:14 4,9 °C 4,9 °C 91 % 1014,0 hPa 0,0 mm 0,0 km/h (0 Bft) W-NW 294 ° 0 min 0,000 mm 0,0 UV-I 0 W/m² 3,6 °C 4,9 °C 0,0 km/h (0 Bft)
19.10.2017 07:15 4,9 °C 4,9 °C 91 % 1014,0 hPa 0,0 mm 0,0 km/h (0 Bft) W-NW 294 ° 0 min 0,000 mm 0,0 UV-I 0 W/m² 3,6 °C 4,9 °C 0,0 km/h (0 Bft)
19.10.2017 07:16 5,0 °C 5,0 °C 91 % 1014,1 hPa 0,0 mm 0,0 km/h (0 Bft) W-NW 294 ° 0 min 0,000 mm 0,0 UV-I 0 W/m² 3,7 °C 5,0 °C 0,0 km/h (0 Bft)
19.10.2017 07:17 5,0 °C 5,0 °C 90 % 1014,0 hPa 0,0 mm 0,0 km/h (0 Bft) W-NW 294 ° 0 min 0,000 mm 0,0 UV-I 0 W/m² 3,5 °C 5,0 °C 0,0 km/h (0 Bft)
19.10.2017 07:18 4,9 °C 5,0 °C 90 % 1014,1 hPa 0,0 mm 0,0 km/h (0 Bft) W-NW 294 ° 0 min 0,000 mm 0,0 UV-I 0 W/m² 3,4 °C 4,9 °C 0,0 km/h (0 Bft)
19.10.2017 07:19 4,9 °C 4,9 °C 90 % 1014,1 hPa 0,0 mm 0,0 km/h (0 Bft) W-NW 294 ° 0 min 0,000 mm 0,0 UV-I 0 W/m² 3,4 °C 4,9 °C 0,0 km/h (0 Bft)
19.10.2017 07:20 4,9 °C 4,9 °C 90 % 1014,1 hPa 0,0 mm 0,0 km/h (0 Bft) W-NW 294 ° 0 min 0,000 mm 0,0 UV-I 0 W/m² 3,4 °C 4,9 °C 0,0 km/h (0 Bft)
19.10.2017 07:21 4,9 °C 4,9 °C 90 % 1014,1 hPa 0,0 mm 0,1 km/h (0 Bft) W-NW 294 ° 0 min 0,000 mm 0,0 UV-I 0 W/m² 3,4 °C 4,9 °C 1,6 km/h (1 Bft)
19.10.2017 07:22 4,8 °C 4,9 °C 90 % 1014,1 hPa 0,0 mm 0,0 km/h (0 Bft) W-NW 294 ° 0 min 0,000 mm 0,0 UV-I 0 W/m² 3,3 °C 4,8 °C 0,0 km/h (0 Bft)
19.10.2017 07:23 4,8 °C 4,8 °C 90 % 1014,1 hPa 0,0 mm 0,0 km/h (0 Bft) W-NW 294 ° 0 min 0,000 mm 0,0 UV-I 0 W/m² 3,3 °C 4,8 °C 0,0 km/h (0 Bft)
19.10.2017 07:24 4,8 °C 4,8 °C 91 % 1014,1 hPa 0,0 mm 0,0 km/h (0 Bft) W-NW 294 ° 0 min 0,000 mm 0,0 UV-I 0 W/m² 3,5 °C 4,8 °C 0,0 km/h (0 Bft)
19.10.2017 07:25 4,8 °C 4,8 °C 91 % 1014,1 hPa 0,0 mm 0,0 km/h (0 Bft) W-NW 294 ° 0 min 0,000 mm 0,0 UV-I 0 W/m² 3,5 °C 4,8 °C 0,0 km/h (0 Bft)
19.10.2017 07:26 4,8 °C 4,9 °C 91 % 1014,2 hPa 0,0 mm 0,0 km/h (0 Bft) W-NW 294 ° 0 min 0,000 mm 0,0 UV-I 0 W/m² 3,5 °C 4,8 °C 0,0 km/h (0 Bft)
19.10.2017 07:27 4,9 °C 4,9 °C 91 % 1014,2 hPa 0,0 mm 0,0 km/h (0 Bft) W-NW 294 ° 0 min 0,000 mm 0,0 UV-I 0 W/m² 3,6 °C 4,9 °C 0,0 km/h (0 Bft)
19.10.2017 07:28 4,9 °C 4,9 °C 91 % 1014,2 hPa 0,0 mm 0,0 km/h (0 Bft) W-NW 294 ° 0 min 0,000 mm 0,0 UV-I 0 W/m² 3,6 °C 4,9 °C 0,0 km/h (0 Bft)
19.10.2017 07:29 4,9 °C 4,9 °C 91 % 1014,2 hPa 0,0 mm 0,0 km/h (0 Bft) W-NW 294 ° 0 min 0,000 mm 0,0 UV-I 0 W/m² 3,6 °C 4,9 °C 0,0 km/h (0 Bft)
19.10.2017 07:30 4,9 °C 4,9 °C 91 % 1014,1 hPa 0,0 mm 0,1 km/h (0 Bft) W-NW 294 ° 0 min 0,000 mm 0,0 UV-I 0 W/m² 3,6 °C 4,9 °C 1,6 km/h (1 Bft)
19.10.2017 07:31 4,9 °C 4,9 °C 91 % 1014,1 hPa 0,0 mm 0,0 km/h (0 Bft) W-NW 294 ° 0 min 0,000 mm 0,0 UV-I 0 W/m² 3,6 °C 4,9 °C 0,0 km/h (0 Bft)
19.10.2017 07:32 4,9 °C 4,9 °C 91 % 1014,1 hPa 0,0 mm 0,0 km/h (0 Bft) W-NW 294 ° 0 min 0,000 mm 0,0 UV-I 0 W/m² 3,6 °C 4,9 °C 0,0 km/h (0 Bft)
19.10.2017 07:33 4,9 °C 4,9 °C 91 % 1014,1 hPa 0,0 mm 0,0 km/h (0 Bft) W-NW 294 ° 0 min 0,000 mm 0,0 UV-I 0 W/m² 3,6 °C 4,9 °C 0,0 km/h (0 Bft)
19.10.2017 07:34 5,1 °C 5,1 °C 91 % 1014,2 hPa 0,0 mm 0,0 km/h (0 Bft) W-NW 294 ° 0 min 0,000 mm 0,0 UV-I 0 W/m² 3,8 °C 5,1 °C 0,0 km/h (0 Bft)
19.10.2017 07:35 5,1 °C 5,1 °C 90 % 1014,2 hPa 0,0 mm 0,0 km/h (0 Bft) W-NW 294 ° 0 min 0,000 mm 0,0 UV-I 0 W/m² 3,6 °C 5,1 °C 0,0 km/h (0 Bft)
19.10.2017 07:36 5,2 °C 5,2 °C 90 % 1014,2 hPa 0,0 mm 0,0 km/h (0 Bft) W-NW 294 ° 0 min 0,000 mm 0,0 UV-I 0 W/m² 3,7 °C 5,2 °C 0,0 km/h (0 Bft)
19.10.2017 07:37 5,2 °C 5,2 °C 90 % 1014,1 hPa 0,0 mm 0,0 km/h (0 Bft) W-NW 294 ° 0 min 0,000 mm 0,0 UV-I 0 W/m² 3,7 °C 5,2 °C 0,0 km/h (0 Bft)
19.10.2017 07:38 5,2 °C 5,2 °C 90 % 1014,1 hPa 0,0 mm 0,0 km/h (0 Bft) W-NW 294 ° 0 min 0,000 mm 0,0 UV-I 0 W/m² 3,7 °C 5,2 °C 0,0 km/h (0 Bft)
19.10.2017 07:39 5,2 °C 5,2 °C 90 % 1014,2 hPa 0,0 mm 0,0 km/h (0 Bft) W-NW 294 ° 0 min 0,000 mm 0,0 UV-I 0 W/m² 3,7 °C 5,2 °C 0,0 km/h (0 Bft)
19.10.2017 07:40 5,2 °C 5,2 °C 90 % 1014,1 hPa 0,0 mm 0,0 km/h (0 Bft) W-NW 294 ° 0 min 0,000 mm 0,0 UV-I 0 W/m² 3,7 °C 5,2 °C 0,0 km/h (0 Bft)
19.10.2017 07:41 5,3 °C 5,3 °C 90 % 1014,1 hPa 0,0 mm 0,0 km/h (0 Bft) W-NW 294 ° 0 min 0,000 mm 0,0 UV-I 0 W/m² 3,8 °C 5,3 °C 0,0 km/h (0 Bft)
19.10.2017 07:42 5,3 °C 5,3 °C 90 % 1014,1 hPa 0,0 mm 0,0 km/h (0 Bft) W-NW 294 ° 0 min 0,000 mm 0,0 UV-I 5 W/m² 3,8 °C 5,3 °C 0,0 km/h (0 Bft)
19.10.2017 07:43 5,3 °C 5,3 °C 89 % 1014,2 hPa 0,0 mm 0,0 km/h (0 Bft) W-NW 294 ° 0 min 0,000 mm 0,0 UV-I 5 W/m² 3,6 °C 5,3 °C 0,0 km/h (0 Bft)
19.10.2017 07:44 5,4 °C 5,4 °C 89 % 1014,2 hPa 0,0 mm 0,0 km/h (0 Bft) W-NW 294 ° 0 min 0,000 mm 0,0 UV-I 5 W/m² 3,7 °C 5,4 °C 0,0 km/h (0 Bft)
19.10.2017 07:45 5,6 °C 5,6 °C 89 % 1014,1 hPa 0,0 mm 0,0 km/h (0 Bft) W-NW 294 ° 0 min 0,000 mm 0,0 UV-I 5 W/m² 3,9 °C 5,6 °C 0,0 km/h (0 Bft)
19.10.2017 07:46 5,7 °C 5,7 °C 89 % 1014,1 hPa 0,0 mm 0,0 km/h (0 Bft) W-NW 294 ° 0 min 0,000 mm 0,0 UV-I 5 W/m² 4,0 °C 5,7 °C 0,0 km/h (0 Bft)
19.10.2017 07:47 5,7 °C 5,7 °C 88 % 1014,2 hPa 0,0 mm 0,0 km/h (0 Bft) W-NW 294 ° 0 min 0,000 mm 0,0 UV-I 5 W/m² 3,9 °C 5,7 °C 0,0 km/h (0 Bft)
19.10.2017 07:48 5,7 °C 5,7 °C 88 % 1014,2 hPa 0,0 mm 0,0 km/h (0 Bft) W-NW 294 ° 0 min 0,000 mm 0,0 UV-I 5 W/m² 3,9 °C 5,7 °C 0,0 km/h (0 Bft)
19.10.2017 07:49 5,7 °C 5,7 °C 87 % 1014,2 hPa 0,0 mm 0,0 km/h (0 Bft) W-NW 294 ° 0 min 0,000 mm 0,0 UV-I 7 W/m² 3,7 °C 5,7 °C 0,0 km/h (0 Bft)
19.10.2017 07:50 5,6 °C 5,7 °C 87 % 1014,2 hPa 0,0 mm 0,0 km/h (0 Bft) W-NW 294 ° 0 min 0,000 mm 0,0 UV-I 7 W/m² 3,6 °C 5,6 °C 0,0 km/h (0 Bft)
19.10.2017 07:51 5,6 °C 5,6 °C 87 % 1014,2 hPa 0,0 mm 0,0 km/h (0 Bft) W-NW 294 ° 0 min 0,000 mm 0,0 UV-I 7 W/m² 3,6 °C 5,6 °C 0,0 km/h (0 Bft)
19.10.2017 07:52 5,4 °C 5,6 °C 88 % 1014,3 hPa 0,0 mm 0,0 km/h (0 Bft) W-NW 294 ° 0 min 0,000 mm 0,0 UV-I 7 W/m² 3,6 °C 5,4 °C 0,0 km/h (0 Bft)
19.10.2017 07:53 5,4 °C 5,4 °C 88 % 1014,2 hPa 0,0 mm 0,0 km/h (0 Bft) W-NW 294 ° 0 min 0,000 mm 0,0 UV-I 7 W/m² 3,6 °C 5,4 °C 0,0 km/h (0 Bft)
19.10.2017 07:54 5,4 °C 5,4 °C 88 % 1014,3 hPa 0,0 mm 0,0 km/h (0 Bft) W-NW 294 ° 0 min 0,000 mm 0,0 UV-I 9 W/m² 3,6 °C 5,4 °C 0,0 km/h (0 Bft)
19.10.2017 07:55 5,4 °C 5,4 °C 89 % 1014,3 hPa 0,0 mm 0,0 km/h (0 Bft) W-NW 294 ° 0 min 0,000 mm 0,0 UV-I 9 W/m² 3,7 °C 5,4 °C 0,0 km/h (0 Bft)
19.10.2017 07:56 5,4 °C 5,4 °C 89 % 1014,3 hPa 0,0 mm 0,0 km/h (0 Bft) W-NW 294 ° 0 min 0,000 mm 0,0 UV-I 9 W/m² 3,7 °C 5,4 °C 0,0 km/h (0 Bft)
19.10.2017 07:57 5,4 °C 5,4 °C 89 % 1014,3 hPa 0,0 mm 0,0 km/h (0 Bft) W-NW 294 ° 0 min 0,000 mm 0,0 UV-I 9 W/m² 3,7 °C 5,4 °C 0,0 km/h (0 Bft)
19.10.2017 07:58 5,4 °C 5,4 °C 88 % 1014,3 hPa 0,0 mm 0,0 km/h (0 Bft) W-NW 294 ° 0 min 0,000 mm 0,0 UV-I 9 W/m² 3,6 °C 5,4 °C 0,0 km/h (0 Bft)
19.10.2017 07:59 5,4 °C 5,4 °C 89 % 1014,3 hPa 0,0 mm 0,0 km/h (0 Bft) W-NW 294 ° 0 min 0,000 mm 0,0 UV-I 9 W/m² 3,7 °C 5,4 °C 0,0 km/h (0 Bft)
19.10.2017 08:00 5,4 °C 5,4 °C 89 % 1014,3 hPa 0,0 mm 0,0 km/h (0 Bft) W-NW 294 ° 0 min 0,000 mm 0,0 UV-I 11 W/m² 3,7 °C 5,4 °C 0,0 km/h (0 Bft)
19.10.2017 08:01 5,4 °C 5,4 °C 89 % 1014,3 hPa 0,0 mm 0,0 km/h (0 Bft) W-NW 294 ° 0 min 0,000 mm 0,0 UV-I 11 W/m² 3,7 °C 5,4 °C 0,0 km/h (0 Bft)
19.10.2017 08:02 5,4 °C 5,4 °C 89 % 1014,3 hPa 0,0 mm 0,0 km/h (0 Bft) W-NW 294 ° 0 min 0,000 mm 0,0 UV-I 11 W/m² 3,7 °C 5,4 °C 0,0 km/h (0 Bft)
19.10.2017 08:03 5,3 °C 5,4 °C 89 % 1014,3 hPa 0,0 mm 0,0 km/h (0 Bft) W-NW 294 ° 0 min 0,000 mm 0,0 UV-I 11 W/m² 3,6 °C 5,3 °C 0,0 km/h (0 Bft)
19.10.2017 08:04 5,3 °C 5,3 °C 89 % 1014,3 hPa 0,0 mm 0,0 km/h (0 Bft) W-NW 294 ° 0 min 0,000 mm 0,0 UV-I 11 W/m² 3,6 °C 5,3 °C 0,0 km/h (0 Bft)
19.10.2017 08:05 5,2 °C 5,3 °C 89 % 1014,3 hPa 0,0 mm 0,8 km/h (0 Bft) W-NW 294 ° 0 min 0,000 mm 0,0 UV-I 11 W/m² 3,5 °C 5,2 °C 3,2 km/h (1 Bft)
19.10.2017 08:06 5,2 °C 5,3 °C 89 % 1014,3 hPa 0,0 mm 0,7 km/h (0 Bft) W-NW 294 ° 0 min 0,000 mm 0,0 UV-I 11 W/m² 3,5 °C 5,2 °C 1,6 km/h (1 Bft)
19.10.2017 08:07 5,1 °C 5,2 °C 89 % 1014,3 hPa 0,0 mm 0,0 km/h (0 Bft) W-NW 294 ° 0 min 0,000 mm 0,0 UV-I 12 W/m² 3,4 °C 5,1 °C 0,0 km/h (0 Bft)
19.10.2017 08:08 5,1 °C 5,1 °C 90 % 1014,4 hPa 0,0 mm 0,0 km/h (0 Bft) W-NW 294 ° 0 min 0,000 mm 0,0 UV-I 12 W/m² 3,6 °C 5,1 °C 0,0 km/h (0 Bft)
19.10.2017 08:09 5,1 °C 5,1 °C 90 % 1014,4 hPa 0,0 mm 0,0 km/h (0 Bft) W-NW 294 ° 0 min 0,000 mm 0,0 UV-I 12 W/m² 3,6 °C 5,1 °C 0,0 km/h (0 Bft)
19.10.2017 08:10 5,2 °C 5,2 °C 90 % 1014,4 hPa 0,0 mm 0,0 km/h (0 Bft) W-NW 294 ° 0 min 0,000 mm 0,0 UV-I 12 W/m² 3,7 °C 5,2 °C 0,0 km/h (0 Bft)
19.10.2017 08:11 5,2 °C 5,2 °C 91 % 1014,4 hPa 0,0 mm 0,0 km/h (0 Bft) W-NW 294 ° 0 min 0,000 mm 0,0 UV-I 12 W/m² 3,9 °C 5,2 °C 0,0 km/h (0 Bft)
19.10.2017 08:12 5,2 °C 5,2 °C 91 % 1014,4 hPa 0,0 mm 0,0 km/h (0 Bft) W-NW 294 ° 0 min 0,000 mm 0,0 UV-I 12 W/m² 3,9 °C 5,2 °C 0,0 km/h (0 Bft)
19.10.2017 08:13 5,2 °C 5,2 °C 90 % 1014,4 hPa 0,0 mm 0,0 km/h (0 Bft) W-NW 294 ° 0 min 0,000 mm 0,0 UV-I 12 W/m² 3,7 °C 5,2 °C 0,0 km/h (0 Bft)
19.10.2017 08:14 5,2 °C 5,2 °C 91 % 1014,4 hPa 0,0 mm 0,0 km/h (0 Bft) W-NW 294 ° 0 min 0,000 mm 0,0 UV-I 12 W/m² 3,9 °C 5,2 °C 0,0 km/h (0 Bft)
19.10.2017 08:15 5,2 °C 5,2 °C 91 % 1014,4 hPa 0,0 mm 0,0 km/h (0 Bft) W-NW 294 ° 0 min 0,000 mm 0,0 UV-I 14 W/m² 3,9 °C 5,2 °C 0,0 km/h (0 Bft)
19.10.2017 08:16 5,2 °C 5,2 °C 91 % 1014,4 hPa 0,0 mm 0,0 km/h (0 Bft) W-NW 294 ° 0 min 0,000 mm 0,0 UV-I 14 W/m² 3,9 °C 5,2 °C 0,0 km/h (0 Bft)
19.10.2017 08:17 5,2 °C 5,2 °C 90 % 1014,4 hPa 0,0 mm 0,0 km/h (0 Bft) W-NW 294 ° 0 min 0,000 mm 0,0 UV-I 14 W/m² 3,7 °C 5,2 °C 0,0 km/h (0 Bft)
19.10.2017 08:18 5,1 °C 5,2 °C 90 % 1014,5 hPa 0,0 mm 0,0 km/h (0 Bft) W-NW 294 ° 0 min 0,000 mm 0,0 UV-I 14 W/m² 3,6 °C 5,1 °C 0,0 km/h (0 Bft)
19.10.2017 08:19 5,2 °C 5,2 °C 91 % 1014,5 hPa 0,0 mm 0,0 km/h (0 Bft) W-NW 294 ° 0 min 0,000 mm 0,0 UV-I 14 W/m² 3,9 °C 5,2 °C 0,0 km/h (0 Bft)
19.10.2017 08:20 5,2 °C 5,2 °C 91 % 1014,5 hPa 0,0 mm 0,0 km/h (0 Bft) W-NW 294 ° 0 min 0,000 mm 0,0 UV-I 14 W/m² 3,9 °C 5,2 °C 0,0 km/h (0 Bft)
19.10.2017 08:21 5,2 °C 5,2 °C 90 % 1014,5 hPa 0,0 mm 0,0 km/h (0 Bft) W-NW 294 ° 0 min 0,000 mm 0,0 UV-I 14 W/m² 3,7 °C 5,2 °C 0,0 km/h (0 Bft)
19.10.2017 08:22 5,2 °C 5,2 °C 90 % 1014,5 hPa 0,0 mm 0,0 km/h (0 Bft) W-NW 294 ° 0 min 0,000 mm 0,0 UV-I 14 W/m² 3,7 °C 5,2 °C 0,0 km/h (0 Bft)
19.10.2017 08:23 5,2 °C 5,2 °C 90 % 1014,5 hPa 0,0 mm 0,0 km/h (0 Bft) W-NW 294 ° 0 min 0,000 mm 0,0 UV-I 14 W/m² 3,7 °C 5,2 °C 0,0 km/h (0 Bft)
19.10.2017 08:24 5,2 °C 5,2 °C 90 % 1014,5 hPa 0,0 mm 0,0 km/h (0 Bft) W-NW 294 ° 0 min 0,000 mm 0,0 UV-I 16 W/m² 3,7 °C 5,2 °C 0,0 km/h (0 Bft)
19.10.2017 08:25 5,2 °C 5,2 °C 91 % 1014,5 hPa 0,0 mm 0,0 km/h (0 Bft) W-NW 294 ° 0 min 0,000 mm 0,0 UV-I 16 W/m² 3,9 °C 5,2 °C 0,0 km/h (0 Bft)
19.10.2017 08:26 5,3 °C 5,3 °C 91 % 1014,5 hPa 0,0 mm 0,0 km/h (0 Bft) W-NW 294 ° 0 min 0,000 mm 0,0 UV-I 16 W/m² 4,0 °C 5,3 °C 0,0 km/h (0 Bft)
19.10.2017 08:27 5,4 °C 5,4 °C 91 % 1014,5 hPa 0,0 mm 0,0 km/h (0 Bft) W-NW 294 ° 0 min 0,000 mm 0,0 UV-I 16 W/m² 4,1 °C 5,4 °C 0,0 km/h (0 Bft)
19.10.2017 08:28 5,4 °C 5,4 °C 90 % 1014,5 hPa 0,0 mm 0,0 km/h (0 Bft) W-NW 294 ° 0 min 0,000 mm 0,0 UV-I 16 W/m² 3,9 °C 5,4 °C 0,0 km/h (0 Bft)
19.10.2017 08:29 5,4 °C 5,4 °C 89 % 1014,5 hPa 0,0 mm 0,0 km/h (0 Bft) W-NW 294 ° 0 min 0,000 mm 0,0 UV-I 16 W/m² 3,7 °C 5,4 °C 0,0 km/h (0 Bft)
19.10.2017 08:30 5,4 °C 5,4 °C 89 % 1014,5 hPa 0,0 mm 0,0 km/h (0 Bft) W-NW 294 ° 0 min 0,000 mm 0,0 UV-I 16 W/m² 3,7 °C 5,4 °C 0,0 km/h (0 Bft)
19.10.2017 08:31 5,4 °C 5,4 °C 89 % 1014,5 hPa 0,0 mm 0,0 km/h (0 Bft) W-NW 294 ° 0 min 0,000 mm 0,0 UV-I 16 W/m² 3,7 °C 5,4 °C 0,0 km/h (0 Bft)
19.10.2017 08:32 5,5 °C 5,5 °C 89 % 1014,5 hPa 0,0 mm 0,0 km/h (0 Bft) W-NW 294 ° 0 min 0,000 mm 0,0 UV-I 16 W/m² 3,8 °C 5,5 °C 0,0 km/h (0 Bft)
19.10.2017 08:33 5,6 °C 5,6 °C 89 % 1014,5 hPa 0,0 mm 0,0 km/h (0 Bft) W-NW 294 ° 0 min 0,000 mm 0,0 UV-I 16 W/m² 3,9 °C 5,6 °C 0,0 km/h (0 Bft)
19.10.2017 08:34 5,6 °C 5,6 °C 89 % 1014,5 hPa 0,0 mm 0,0 km/h (0 Bft) W-NW 294 ° 0 min 0,000 mm 0,0 UV-I 16 W/m² 3,9 °C 5,6 °C 0,0 km/h (0 Bft)
19.10.2017 08:35 5,7 °C 5,7 °C 89 % 1014,5 hPa 0,0 mm 0,0 km/h (0 Bft) W-NW 294 ° 0 min 0,000 mm 0,0 UV-I 18 W/m² 4,0 °C 5,7 °C 0,0 km/h (0 Bft)
19.10.2017 08:36 5,8 °C 5,8 °C 89 % 1014,5 hPa 0,0 mm 0,0 km/h (0 Bft) W-NW 294 ° 0 min 0,000 mm 0,0 UV-I 18 W/m² 4,1 °C 5,8 °C 0,0 km/h (0 Bft)
19.10.2017 08:37 5,9 °C 5,9 °C 89 % 1014,5 hPa 0,0 mm 0,0 km/h (0 Bft) W-NW 294 ° 0 min 0,000 mm 0,0 UV-I 18 W/m² 4,2 °C 5,9 °C 0,0 km/h (0 Bft)
19.10.2017 08:38 6,0 °C 6,0 °C 88 % 1014,5 hPa 0,0 mm 0,0 km/h (0 Bft) W-NW 294 ° 0 min 0,000 mm 0,0 UV-I 18 W/m² 4,2 °C 6,0 °C 0,0 km/h (0 Bft)
19.10.2017 08:39 6,1 °C 6,1 °C 88 % 1014,5 hPa 0,0 mm 0,0 km/h (0 Bft) W-NW 294 ° 0 min 0,000 mm 0,0 UV-I 18 W/m² 4,3 °C 6,1 °C 0,0 km/h (0 Bft)
19.10.2017 08:40 6,2 °C 6,2 °C 87 % 1014,5 hPa 0,0 mm 0,0 km/h (0 Bft) W-NW 294 ° 0 min 0,000 mm 0,0 UV-I 18 W/m² 4,2 °C 6,2 °C 0,0 km/h (0 Bft)
19.10.2017 08:41 6,3 °C 6,3 °C 87 % 1014,5 hPa 0,0 mm 0,0 km/h (0 Bft) W-NW 294 ° 0 min 0,000 mm 0,0 UV-I 18 W/m² 4,3 °C 6,3 °C 0,0 km/h (0 Bft)
19.10.2017 08:42 6,4 °C 6,4 °C 87 % 1014,5 hPa 0,0 mm 0,0 km/h (0 Bft) W-NW 294 ° 0 min 0,000 mm 0,0 UV-I 18 W/m² 4,4 °C 6,4 °C 0,0 km/h (0 Bft)
19.10.2017 08:43 6,4 °C 6,4 °C 86 % 1014,5 hPa 0,0 mm 0,0 km/h (0 Bft) W-NW 294 ° 0 min 0,000 mm 0,0 UV-I 18 W/m² 4,2 °C 6,4 °C 0,0 km/h (0 Bft)
19.10.2017 08:44 6,4 °C 6,4 °C 86 % 1014,5 hPa 0,0 mm 0,0 km/h (0 Bft) W-NW 294 ° 0 min 0,000 mm 0,0 UV-I 18 W/m² 4,2 °C 6,4 °C 0,0 km/h (0 Bft)
19.10.2017 08:45 6,2 °C 6,4 °C 86 % 1014,5 hPa 0,0 mm 0,0 km/h (0 Bft) W-NW 294 ° 0 min 0,000 mm 0,0 UV-I 18 W/m² 4,0 °C 6,2 °C 0,0 km/h (0 Bft)
19.10.2017 08:46 6,1 °C 6,2 °C 86 % 1014,5 hPa 0,0 mm 0,0 km/h (0 Bft) W-NW 294 ° 0 min 0,000 mm 0,0 UV-I 19 W/m² 3,9 °C 6,1 °C 0,0 km/h (0 Bft)
19.10.2017 08:47 6,0 °C 6,1 °C 87 % 1014,5 hPa 0,0 mm 0,0 km/h (0 Bft) W-NW 294 ° 0 min 0,000 mm 0,0 UV-I 19 W/m² 4,0 °C 6,0 °C 0,0 km/h (0 Bft)
19.10.2017 08:48 5,9 °C 6,0 °C 87 % 1014,5 hPa 0,0 mm 0,0 km/h (0 Bft) W-NW 294 ° 0 min 0,000 mm 0,0 UV-I 19 W/m² 3,9 °C 5,9 °C 0,0 km/h (0 Bft)
19.10.2017 08:49 5,9 °C 6,0 °C 87 % 1014,5 hPa 0,0 mm 0,0 km/h (0 Bft) W-NW 294 ° 0 min 0,000 mm 0,0 UV-I 19 W/m² 3,9 °C 5,9 °C 0,0 km/h (0 Bft)
19.10.2017 08:50 6,1 °C 6,1 °C 87 % 1014,5 hPa 0,0 mm 0,1 km/h (0 Bft) W-NW 294 ° 0 min 0,000 mm 0,0 UV-I 19 W/m² 4,1 °C 6,1 °C 1,6 km/h (1 Bft)
19.10.2017 08:51 6,1 °C 6,1 °C 87 % 1014,5 hPa 0,0 mm 0,1 km/h (0 Bft) W-NW 288 ° 0 min 0,000 mm 0,0 UV-I 19 W/m² 4,1 °C 6,1 °C 1,6 km/h (1 Bft)
19.10.2017 08:52 6,1 °C 6,1 °C 87 % 1014,5 hPa 0,0 mm 0,7 km/h (0 Bft) N-NW 329 ° 0 min 0,000 mm 0,0 UV-I 19 W/m² 4,1 °C 6,1 °C 3,2 km/h (1 Bft)
19.10.2017 08:53 6,2 °C 6,2 °C 86 % 1014,5 hPa 0,0 mm 0,0 km/h (0 Bft) N-NW 329 ° 0 min 0,000 mm 0,0 UV-I 19 W/m² 4,0 °C 6,2 °C 0,0 km/h (0 Bft)
19.10.2017 08:54 6,3 °C 6,3 °C 87 % 1014,5 hPa 0,0 mm 0,0 km/h (0 Bft) N-NW 329 ° 0 min 0,000 mm 0,0 UV-I 19 W/m² 4,3 °C 6,3 °C 0,0 km/h (0 Bft)
19.10.2017 08:55 6,4 °C 6,4 °C 87 % 1014,5 hPa 0,0 mm 0,0 km/h (0 Bft) N-NW 329 ° 0 min 0,000 mm 0,0 UV-I 19 W/m² 4,4 °C 6,4 °C 0,0 km/h (0 Bft)
19.10.2017 08:56 6,4 °C 6,4 °C 87 % 1014,6 hPa 0,0 mm 0,0 km/h (0 Bft) N-NW 329 ° 0 min 0,000 mm 0,0 UV-I 19 W/m² 4,4 °C 6,4 °C 0,0 km/h (0 Bft)
19.10.2017 08:57 6,6 °C 6,6 °C 86 % 1014,6 hPa 0,0 mm 1,1 km/h (1 Bft) N-NW 334 ° 0 min 0,000 mm 0,0 UV-I 21 W/m² 4,4 °C 6,6 °C 6,4 km/h (2 Bft)
19.10.2017 08:58 6,7 °C 6,7 °C 86 % 1014,5 hPa 0,0 mm 0,2 km/h (0 Bft) N-NW 334 ° 0 min 0,000 mm 0,0 UV-I 21 W/m² 4,5 °C 6,7 °C 3,2 km/h (1 Bft)
19.10.2017 08:59 6,8 °C 6,8 °C 86 % 1014,5 hPa 0,0 mm 0,2 km/h (0 Bft) N-NW 334 ° 0 min 0,000 mm 0,0 UV-I 21 W/m² 4,6 °C 6,8 °C 1,6 km/h (1 Bft)
19.10.2017 09:00 6,9 °C 6,9 °C 85 % 1014,5 hPa 0,0 mm 0,1 km/h (0 Bft) N-NW 334 ° 0 min 0,000 mm 0,0 UV-I 21 W/m² 4,6 °C 6,9 °C 1,6 km/h (1 Bft)
19.10.2017 09:01 7,1 °C 7,1 °C 84 % 1014,5 hPa 0,0 mm 0,3 km/h (0 Bft) N-NW 334 ° 0 min 0,000 mm 0,0 UV-I 21 W/m² 4,6 °C 7,1 °C 1,6 km/h (1 Bft)
19.10.2017 09:02 7,2 °C 7,2 °C 84 % 1014,5 hPa 0,0 mm 0,3 km/h (0 Bft) N-NW 334 ° 0 min 0,000 mm 0,0 UV-I 21 W/m² 4,7 °C 7,2 °C 1,6 km/h (1 Bft)
19.10.2017 09:03 7,3 °C 7,3 °C 83 % 1014,5 hPa 0,0 mm 1,3 km/h (1 Bft) N-NW 336 ° 0 min 0,000 mm 0,0 UV-I 21 W/m² 4,6 °C 7,3 °C 3,2 km/h (1 Bft)
19.10.2017 09:04 7,4 °C 7,4 °C 83 % 1014,5 hPa 0,0 mm 0,5 km/h (0 Bft) N-NW 336 ° 0 min 0,000 mm 0,0 UV-I 21 W/m² 4,7 °C 7,4 °C 3,2 km/h (1 Bft)
19.10.2017 09:05 7,5 °C 7,5 °C 82 % 1014,5 hPa 0,0 mm 0,5 km/h (0 Bft) N-NW 336 ° 0 min 0,000 mm 0,0 UV-I 21 W/m² 4,6 °C 7,5 °C 1,6 km/h (1 Bft)
19.10.2017 09:06 7,5 °C 7,6 °C 82 % 1014,5 hPa 0,0 mm 1,5 km/h (1 Bft) N-NW 336 ° 0 min 0,000 mm 0,0 UV-I 21 W/m² 4,6 °C 7,5 °C 3,2 km/h (1 Bft)
19.10.2017 09:07 7,6 °C 7,6 °C 82 % 1014,5 hPa 0,0 mm 1,5 km/h (1 Bft) N-NW 336 ° 0 min 0,000 mm 0,0 UV-I 21 W/m² 4,7 °C 7,6 °C 3,2 km/h (1 Bft)
19.10.2017 09:08 7,7 °C 7,7 °C 82 % 1014,6 hPa 0,0 mm 0,0 km/h (0 Bft) N-NW 336 ° 0 min 0,000 mm 0,0 UV-I 21 W/m² 4,8 °C 7,7 °C 0,0 km/h (0 Bft)
19.10.2017 09:09 7,9 °C 7,9 °C 80 % 1014,5 hPa 0,0 mm 2,0 km/h (1 Bft) W 277 ° 0 min 0,000 mm 0,0 UV-I 21 W/m² 4,7 °C 7,9 °C 4,8 km/h (1 Bft)
19.10.2017 09:10 8,1 °C 8,1 °C 80 % 1014,5 hPa 0,0 mm 0,0 km/h (0 Bft) W 277 ° 0 min 0,000 mm 0,0 UV-I 23 W/m² 4,9 °C 8,1 °C 0,0 km/h (0 Bft)
19.10.2017 09:11 8,2 °C 8,2 °C 79 % 1014,5 hPa 0,0 mm 1,6 km/h (1 Bft) NW 325 ° 0 min 0,000 mm 0,0 UV-I 23 W/m² 4,8 °C 8,2 °C 3,2 km/h (1 Bft)
19.10.2017 09:12 8,2 °C 8,2 °C 79 % 1014,5 hPa 0,0 mm 0,9 km/h (0 Bft) NW 326 ° 0 min 0,000 mm 0,0 UV-I 23 W/m² 4,8 °C 8,2 °C 3,2 km/h (1 Bft)
19.10.2017 09:13 8,3 °C 8,3 °C 79 % 1014,5 hPa 0,0 mm 0,1 km/h (0 Bft) NW 326 ° 0 min 0,000 mm 0,0 UV-I 23 W/m² 4,9 °C 8,3 °C 1,6 km/h (1 Bft)
19.10.2017 09:14 8,3 °C 8,3 °C 78 % 1014,5 hPa 0,0 mm 0,8 km/h (0 Bft) NW 326 ° 0 min 0,000 mm 0,0 UV-I 23 W/m² 4,7 °C 8,3 °C 3,2 km/h (1 Bft)
19.10.2017 09:15 8,4 °C 8,4 °C 78 % 1014,5 hPa 0,0 mm 0,0 km/h (0 Bft) NW 326 ° 0 min 0,000 mm 0,0 UV-I 21 W/m² 4,8 °C 8,4 °C 0,0 km/h (0 Bft)
19.10.2017 09:16 8,6 °C 8,6 °C 77 % 1014,5 hPa 0,0 mm 0,0 km/h (0 Bft) NW 326 ° 0 min 0,000 mm 0,0 UV-I 23 W/m² 4,8 °C 8,6 °C 0,0 km/h (0 Bft)
19.10.2017 09:17 8,7 °C 8,7 °C 77 % 1014,5 hPa 0,0 mm 0,0 km/h (0 Bft) NW 326 ° 0 min 0,000 mm 0,0 UV-I 23 W/m² 4,9 °C 8,7 °C 0,0 km/h (0 Bft)
19.10.2017 09:18 8,9 °C 8,9 °C 76 % 1014,5 hPa 0,0 mm 0,0 km/h (0 Bft) NW 326 ° 0 min 0,000 mm 0,0 UV-I 23 W/m² 4,9 °C 8,9 °C 0,0 km/h (0 Bft)
19.10.2017 09:19 9,1 °C 9,1 °C 77 % 1014,5 hPa 0,0 mm 1,1 km/h (1 Bft) N-NW 330 ° 0 min 0,000 mm 0,0 UV-I 23 W/m² 5,3 °C 9,1 °C 3,2 km/h (1 Bft)
19.10.2017 09:20 9,2 °C 9,2 °C 75 % 1014,5 hPa 0,0 mm 0,0 km/h (0 Bft) N-NW 330 ° 0 min 0,000 mm 0,0 UV-I 23 W/m² 5,0 °C 9,2 °C 0,0 km/h (0 Bft)
19.10.2017 09:21 9,3 °C 9,3 °C 75 % 1014,5 hPa 0,0 mm 0,0 km/h (0 Bft) N-NW 330 ° 0 min 0,000 mm 0,0 UV-I 23 W/m² 5,1 °C 9,3 °C 0,0 km/h (0 Bft)
19.10.2017 09:22 9,4 °C 9,4 °C 75 % 1014,5 hPa 0,0 mm 0,4 km/h (0 Bft) N-NW 330 ° 0 min 0,000 mm 0,0 UV-I 23 W/m² 5,2 °C 9,4 °C 3,2 km/h (1 Bft)
19.10.2017 09:23 9,4 °C 9,4 °C 76 % 1014,4 hPa 0,0 mm 0,4 km/h (0 Bft) N-NW 330 ° 0 min 0,000 mm 0,0 UV-I 23 W/m² 5,4 °C 9,4 °C 3,2 km/h (1 Bft)
19.10.2017 09:24 9,4 °C 9,4 °C 76 % 1014,5 hPa 0,0 mm 0,1 km/h (0 Bft) N-NW 330 ° 0 min 0,000 mm 0,0 UV-I 23 W/m² 5,4 °C 9,4 °C 1,6 km/h (1 Bft)
19.10.2017 09:25 9,4 °C 9,4 °C 76 % 1014,6 hPa 0,0 mm 0,1 km/h (0 Bft) N-NW 330 ° 0 min 0,000 mm 0,0 UV-I 23 W/m² 5,4 °C 9,4 °C 1,6 km/h (1 Bft)
19.10.2017 09:26 9,5 °C 9,5 °C 75 % 1014,6 hPa 0,0 mm 0,1 km/h (0 Bft) N-NW 330 ° 0 min 0,000 mm 0,0 UV-I 23 W/m² 5,3 °C 9,5 °C 1,6 km/h (1 Bft)
19.10.2017 09:27 9,6 °C 9,6 °C 76 % 1014,5 hPa 0,0 mm 0,0 km/h (0 Bft) N-NW 330 ° 0 min 0,000 mm 0,0 UV-I 25 W/m² 5,6 °C 9,6 °C 0,0 km/h (0 Bft)
19.10.2017 09:28 9,7 °C 9,7 °C 76 % 1014,5 hPa 0,0 mm 2,5 km/h (1 Bft) N-NW 330 ° 0 min 0,000 mm 0,0 UV-I 25 W/m² 5,7 °C 9,7 °C 3,2 km/h (1 Bft)
19.10.2017 09:29 9,8 °C 9,8 °C 76 % 1014,6 hPa 0,0 mm 0,5 km/h (0 Bft) N-NW 330 ° 0 min 0,000 mm 0,0 UV-I 25 W/m² 5,8 °C 9,8 °C 3,2 km/h (1 Bft)
19.10.2017 09:30 9,9 °C 9,9 °C 76 % 1014,5 hPa 0,0 mm 0,1 km/h (0 Bft) N-NW 330 ° 0 min 0,000 mm 0,0 UV-I 25 W/m² 5,9 °C 9,9 °C 1,6 km/h (1 Bft)
19.10.2017 09:31 10,0 °C 10,0 °C 76 % 1014,5 hPa 0,0 mm 0,0 km/h (0 Bft) N-NW 330 ° 0 min 0,000 mm 0,0 UV-I 25 W/m² 6,0 °C 10,0 °C 0,0 km/h (0 Bft)
19.10.2017 09:32 10,2 °C 10,2 °C 75 % 1014,5 hPa 0,0 mm 0,0 km/h (0 Bft) N-NW 330 ° 0 min 0,000 mm 0,0 UV-I 25 W/m² 6,0 °C 10,2 °C 0,0 km/h (0 Bft)
19.10.2017 09:33 10,3 °C 10,3 °C 76 % 1014,6 hPa 0,0 mm 0,0 km/h (0 Bft) N-NW 330 ° 0 min 0,000 mm 0,0 UV-I 25 W/m² 6,3 °C 10,3 °C 0,0 km/h (0 Bft)
19.10.2017 09:34 10,3 °C 10,3 °C 76 % 1014,5 hPa 0,0 mm 0,3 km/h (0 Bft) N-NW 330 ° 0 min 0,000 mm 0,0 UV-I 25 W/m² 6,3 °C 10,3 °C 1,6 km/h (1 Bft)
19.10.2017 09:35 10,3 °C 10,3 °C 76 % 1014,6 hPa 0,0 mm 1,7 km/h (1 Bft) N-NW 330 ° 0 min 0,000 mm 0,0 UV-I 25 W/m² 6,3 °C 10,3 °C 3,2 km/h (1 Bft)
19.10.2017 09:36 10,3 °C 10,3 °C 76 % 1014,6 hPa 0,0 mm 1,2 km/h (1 Bft) N-NW 330 ° 0 min 0,000 mm 0,0 UV-I 25 W/m² 6,3 °C 10,3 °C 3,2 km/h (1 Bft)
19.10.2017 09:37 10,3 °C 10,3 °C 76 % 1014,5 hPa 0,0 mm 0,1 km/h (0 Bft) N-NW 330 ° 0 min 0,000 mm 0,0 UV-I 25 W/m² 6,3 °C 10,3 °C 1,6 km/h (1 Bft)
19.10.2017 09:38 10,3 °C 10,4 °C 75 % 1014,6 hPa 0,0 mm 0,0 km/h (0 Bft) N-NW 330 ° 0 min 0,000 mm 0,0 UV-I 25 W/m² 6,1 °C 10,3 °C 0,0 km/h (0 Bft)
19.10.2017 09:39 10,4 °C 10,4 °C 75 % 1014,6 hPa 0,0 mm 0,0 km/h (0 Bft) N-NW 330 ° 0 min 0,000 mm 0,0 UV-I 25 W/m² 6,2 °C 10,4 °C 0,0 km/h (0 Bft)
19.10.2017 09:40 10,4 °C 10,4 °C 75 % 1014,6 hPa 0,0 mm 0,0 km/h (0 Bft) N-NW 330 ° 0 min 0,000 mm 0,0 UV-I 26 W/m² 6,2 °C 10,4 °C 0,0 km/h (0 Bft)
19.10.2017 09:41 10,4 °C 10,4 °C 75 % 1014,6 hPa 0,0 mm 0,0 km/h (0 Bft) N-NW 330 ° 0 min 0,000 mm 0,0 UV-I 26 W/m² 6,2 °C 10,4 °C 0,0 km/h (0 Bft)
19.10.2017 09:42 10,4 °C 10,4 °C 76 % 1014,7 hPa 0,0 mm 0,0 km/h (0 Bft) N-NW 330 ° 0 min 0,000 mm 0,0 UV-I 26 W/m² 6,4 °C 10,4 °C 0,0 km/h (0 Bft)
19.10.2017 09:43 10,3 °C 10,4 °C 76 % 1014,7 hPa 0,0 mm 0,9 km/h (0 Bft) N-NW 344 ° 0 min 0,000 mm 0,0 UV-I 26 W/m² 6,3 °C 10,3 °C 1,6 km/h (1 Bft)
19.10.2017 09:44 10,3 °C 10,3 °C 76 % 1014,7 hPa 0,0 mm 0,7 km/h (0 Bft) N 5 ° 0 min 0,000 mm 0,0 UV-I 26 W/m² 6,3 °C 10,3 °C 3,2 km/h (1 Bft)
19.10.2017 09:45 10,3 °C 10,3 °C 75 % 1014,7 hPa 0,0 mm 2,1 km/h (1 Bft) N 5 ° 0 min 0,000 mm 0,0 UV-I 26 W/m² 6,1 °C 10,3 °C 3,2 km/h (1 Bft)
19.10.2017 09:46 10,4 °C 10,4 °C 75 % 1014,7 hPa 0,0 mm 1,1 km/h (1 Bft) N 5 ° 0 min 0,000 mm 0,0 UV-I 26 W/m² 6,2 °C 10,4 °C 1,6 km/h (1 Bft)
19.10.2017 09:47 10,5 °C 10,5 °C 73 % 1014,7 hPa 0,0 mm 1,8 km/h (1 Bft) N 5 ° 0 min 0,000 mm 0,0 UV-I 26 W/m² 5,9 °C 10,5 °C 3,2 km/h (1 Bft)
19.10.2017 09:48 10,5 °C 10,6 °C 74 % 1014,7 hPa 0,0 mm 1,7 km/h (1 Bft) N 5 ° 0 min 0,000 mm 0,0 UV-I 26 W/m² 6,1 °C 10,5 °C 3,2 km/h (1 Bft)
19.10.2017 09:49 10,4 °C 10,5 °C 73 % 1014,8 hPa 0,0 mm 1,5 km/h (1 Bft) N 5 ° 0 min 0,000 mm 0,0 UV-I 26 W/m² 5,8 °C 10,4 °C 1,6 km/h (1 Bft)
19.10.2017 09:50 10,3 °C 10,4 °C 74 % 1014,8 hPa 0,0 mm 0,3 km/h (0 Bft) N 5 ° 0 min 0,000 mm 0,0 UV-I 26 W/m² 5,9 °C 10,3 °C 1,6 km/h (1 Bft)
19.10.2017 09:51 10,2 °C 10,3 °C 74 % 1014,8 hPa 0,0 mm 0,0 km/h (0 Bft) N 5 ° 0 min 0,000 mm 0,0 UV-I 26 W/m² 5,8 °C 10,2 °C 0,0 km/h (0 Bft)
19.10.2017 09:52 10,2 °C 10,2 °C 75 % 1014,8 hPa 0,0 mm 0,0 km/h (0 Bft) N 5 ° 0 min 0,000 mm 0,0 UV-I 28 W/m² 6,0 °C 10,2 °C 0,0 km/h (0 Bft)
19.10.2017 09:53 10,2 °C 10,2 °C 74 % 1014,8 hPa 0,0 mm 0,0 km/h (0 Bft) N 5 ° 0 min 0,000 mm 0,0 UV-I 28 W/m² 5,8 °C 10,2 °C 0,0 km/h (0 Bft)
19.10.2017 09:54 10,3 °C 10,3 °C 74 % 1014,8 hPa 0,0 mm 0,0 km/h (0 Bft) N 5 ° 0 min 0,000 mm 0,0 UV-I 28 W/m² 5,9 °C 10,3 °C 0,0 km/h (0 Bft)
19.10.2017 09:55 10,2 °C 10,3 °C 74 % 1014,8 hPa 0,0 mm 0,0 km/h (0 Bft) N 5 ° 0 min 0,000 mm 0,0 UV-I 28 W/m² 5,8 °C 10,2 °C 0,0 km/h (0 Bft)
19.10.2017 09:56 10,1 °C 10,2 °C 75 % 1014,8 hPa 0,0 mm 1,0 km/h (0 Bft) N 10 ° 0 min 0,000 mm 0,0 UV-I 28 W/m² 5,9 °C 10,1 °C 3,2 km/h (1 Bft)
19.10.2017 09:57 10,2 °C 10,2 °C 75 % 1014,8 hPa 0,0 mm 0,7 km/h (0 Bft) N 10 ° 0 min 0,000 mm 0,0 UV-I 28 W/m² 6,0 °C 10,2 °C 3,2 km/h (1 Bft)
19.10.2017 09:58 10,3 °C 10,3 °C 74 % 1014,8 hPa 0,0 mm 1,5 km/h (1 Bft) N-NO 15 ° 0 min 0,000 mm 0,0 UV-I 28 W/m² 5,9 °C 10,3 °C 3,2 km/h (1 Bft)
19.10.2017 09:59 10,4 °C 10,4 °C 74 % 1014,8 hPa 0,0 mm 1,3 km/h (1 Bft) N-NO 15 ° 0 min 0,000 mm 0,0 UV-I 28 W/m² 6,0 °C 10,4 °C 3,2 km/h (1 Bft)
19.10.2017 10:00 10,7 °C 10,7 °C 74 % 1014,8 hPa 0,0 mm 1,7 km/h (1 Bft) N-NO 15 ° 0 min 0,025 mm 0,0 UV-I 28 W/m² 6,3 °C 10,7 °C 3,2 km/h (1 Bft)
19.10.2017 10:01 10,8 °C 10,8 °C 73 % 1014,8 hPa 0,0 mm 1,4 km/h (1 Bft) N-NO 15 ° 0 min 0,000 mm 0,0 UV-I 28 W/m² 6,2 °C 10,8 °C 3,2 km/h (1 Bft)
19.10.2017 10:02 11,1 °C 11,1 °C 72 % 1014,9 hPa 0,0 mm 0,0 km/h (0 Bft) N-NO 15 ° 0 min 0,000 mm 0,0 UV-I 28 W/m² 6,2 °C 11,1 °C 0,0 km/h (0 Bft)
19.10.2017 10:03 11,2 °C 11,2 °C 72 % 1014,8 hPa 0,0 mm 0,0 km/h (0 Bft) N-NO 15 ° 0 min 0,000 mm 0,0 UV-I 28 W/m² 6,3 °C 11,2 °C 0,0 km/h (0 Bft)
19.10.2017 10:04 11,3 °C 11,3 °C 72 % 1014,8 hPa 0,0 mm 0,0 km/h (0 Bft) N-NO 15 ° 0 min 0,000 mm 0,0 UV-I 30 W/m² 6,4 °C 11,3 °C 0,0 km/h (0 Bft)
19.10.2017 10:05 11,3 °C 11,3 °C 72 % 1014,9 hPa 0,0 mm 0,0 km/h (0 Bft) N-NO 15 ° 0 min 0,000 mm 0,0 UV-I 30 W/m² 6,4 °C 11,3 °C 0,0 km/h (0 Bft)
19.10.2017 10:06 11,4 °C 11,4 °C 71 % 1014,9 hPa 0,0 mm 0,0 km/h (0 Bft) N-NO 15 ° 0 min 0,000 mm 0,0 UV-I 30 W/m² 6,3 °C 11,4 °C 0,0 km/h (0 Bft)
19.10.2017 10:07 11,4 °C 11,4 °C 71 % 1014,9 hPa 0,0 mm 0,0 km/h (0 Bft) N-NO 15 ° 0 min 0,000 mm 0,0 UV-I 30 W/m² 6,3 °C 11,4 °C 0,0 km/h (0 Bft)
19.10.2017 10:08 11,5 °C 11,5 °C 71 % 1014,9 hPa 0,0 mm 0,0 km/h (0 Bft) N-NO 15 ° 0 min 0,000 mm 0,0 UV-I 30 W/m² 6,4 °C 11,5 °C 0,0 km/h (0 Bft)
19.10.2017 10:09 11,6 °C 11,6 °C 71 % 1014,9 hPa 0,0 mm 0,0 km/h (0 Bft) N-NO 15 ° 0 min 0,000 mm 0,0 UV-I 30 W/m² 6,5 °C 11,6 °C 0,0 km/h (0 Bft)
19.10.2017 10:10 11,6 °C 11,6 °C 71 % 1014,9 hPa 0,0 mm 0,0 km/h (0 Bft) N-NO 15 ° 0 min 0,000 mm 0,0 UV-I 30 W/m² 6,5 °C 11,6 °C 0,0 km/h (0 Bft)
19.10.2017 10:11 11,6 °C 11,6 °C 72 % 1014,9 hPa 0,0 mm 0,6 km/h (0 Bft) N-NO 15 ° 0 min 0,000 mm 0,0 UV-I 30 W/m² 6,7 °C 11,6 °C 1,6 km/h (1 Bft)
19.10.2017 10:12 11,6 °C 11,7 °C 72 % 1014,9 hPa 0,0 mm 0,4 km/h (0 Bft) N-NO 15 ° 0 min 0,000 mm 0,0 UV-I 30 W/m² 6,7 °C 11,6 °C 1,6 km/h (1 Bft)
19.10.2017 10:13 11,6 °C 11,7 °C 72 % 1014,9 hPa 0,0 mm 0,0 km/h (0 Bft) N-NO 15 ° 0 min 0,000 mm 0,0 UV-I 30 W/m² 6,7 °C 11,6 °C 0,0 km/h (0 Bft)
19.10.2017 10:14 11,7 °C 11,7 °C 72 % 1014,9 hPa 0,0 mm 0,0 km/h (0 Bft) N-NO 15 ° 0 min 0,000 mm 0,0 UV-I 30 W/m² 6,8 °C 11,7 °C 0,0 km/h (0 Bft)
19.10.2017 10:15 11,7 °C 11,7 °C 71 % 1014,9 hPa 0,0 mm 0,0 km/h (0 Bft) N-NO 15 ° 0 min 0,000 mm 0,0 UV-I 30 W/m² 6,6 °C 11,7 °C 0,0 km/h (0 Bft)
19.10.2017 10:16 11,7 °C 11,7 °C 71 % 1014,9 hPa 0,0 mm 0,0 km/h (0 Bft) N-NO 15 ° 0 min 0,000 mm 0,0 UV-I 32 W/m² 6,6 °C 11,7 °C 0,0 km/h (0 Bft)
19.10.2017 10:17 11,7 °C 11,7 °C 71 % 1014,9 hPa 0,0 mm 0,0 km/h (0 Bft) N-NO 15 ° 0 min 0,000 mm 0,0 UV-I 32 W/m² 6,6 °C 11,7 °C 0,0 km/h (0 Bft)
19.10.2017 10:18 11,7 °C 11,7 °C 71 % 1014,9 hPa 0,0 mm 0,0 km/h (0 Bft) N-NO 15 ° 0 min 0,000 mm 0,0 UV-I 32 W/m² 6,6 °C 11,7 °C 0,0 km/h (0 Bft)
19.10.2017 10:19 11,7 °C 11,7 °C 70 % 1014,9 hPa 0,0 mm 0,0 km/h (0 Bft) N-NO 15 ° 0 min 0,000 mm 0,0 UV-I 32 W/m² 6,4 °C 11,7 °C 0,0 km/h (0 Bft)
19.10.2017 10:20 11,7 °C 11,7 °C 69 % 1014,9 hPa 0,0 mm 0,0 km/h (0 Bft) N-NO 15 ° 0 min 0,000 mm 0,0 UV-I 32 W/m² 6,2 °C 11,7 °C 0,0 km/h (0 Bft)
19.10.2017 10:21 11,8 °C 11,8 °C 69 % 1014,9 hPa 0,0 mm 0,2 km/h (0 Bft) N-NO 15 ° 0 min 0,000 mm 0,0 UV-I 32 W/m² 6,3 °C 11,8 °C 1,6 km/h (1 Bft)
19.10.2017 10:22 11,8 °C 11,9 °C 68 % 1014,9 hPa 0,0 mm 0,2 km/h (0 Bft) N-NO 15 ° 0 min 0,000 mm 0,0 UV-I 32 W/m² 6,1 °C 11,8 °C 1,6 km/h (1 Bft)
19.10.2017 10:23 11,9 °C 11,9 °C 68 % 1014,9 hPa 0,0 mm 0,0 km/h (0 Bft) N-NO 15 ° 0 min 0,000 mm 0,0 UV-I 32 W/m² 6,2 °C 11,9 °C 0,0 km/h (0 Bft)
19.10.2017 10:24 12,0 °C 12,0 °C 68 % 1014,9 hPa 0,0 mm 0,5 km/h (0 Bft) N-NO 15 ° 0 min 0,000 mm 0,0 UV-I 32 W/m² 6,3 °C 12,0 °C 1,6 km/h (1 Bft)
19.10.2017 10:25 12,1 °C 12,1 °C 67 % 1014,9 hPa 0,0 mm 0,2 km/h (0 Bft) N-NO 15 ° 0 min 0,000 mm 0,0 UV-I 32 W/m² 6,2 °C 12,1 °C 1,6 km/h (1 Bft)
19.10.2017 10:26 12,1 °C 12,1 °C 67 % 1014,9 hPa 0,0 mm 0,0 km/h (0 Bft) N-NO 15 ° 0 min 0,000 mm 0,0 UV-I 32 W/m² 6,2 °C 12,1 °C 0,0 km/h (0 Bft)
19.10.2017 10:27 12,2 °C 12,2 °C 68 % 1014,9 hPa 0,0 mm 0,0 km/h (0 Bft) N-NO 15 ° 0 min 0,000 mm 0,0 UV-I 33 W/m² 6,5 °C 12,2 °C 0,0 km/h (0 Bft)
19.10.2017 10:28 12,2 °C 12,2 °C 69 % 1014,9 hPa 0,0 mm 0,0 km/h (0 Bft) N-NO 15 ° 0 min 0,000 mm 0,0 UV-I 33 W/m² 6,7 °C 12,2 °C 0,0 km/h (0 Bft)
19.10.2017 10:29 12,2 °C 12,2 °C 68 % 1014,9 hPa 0,0 mm 0,4 km/h (0 Bft) N-NO 15 ° 0 min 0,000 mm 0,0 UV-I 33 W/m² 6,5 °C 12,2 °C 1,6 km/h (1 Bft)
19.10.2017 10:30 12,3 °C 12,3 °C 68 % 1014,9 hPa 0,0 mm 0,5 km/h (0 Bft) N-NO 15 ° 0 min 0,000 mm 0,0 UV-I 33 W/m² 6,6 °C 12,3 °C 1,6 km/h (1 Bft)
19.10.2017 10:31 12,4 °C 12,4 °C 68 % 1014,9 hPa 0,0 mm 1,0 km/h (0 Bft) N-NO 15 ° 0 min 0,000 mm 0,0 UV-I 33 W/m² 6,7 °C 12,4 °C 3,2 km/h (1 Bft)
19.10.2017 10:32 12,4 °C 12,4 °C 68 % 1014,9 hPa 0,0 mm 0,3 km/h (0 Bft) N-NO 15 ° 0 min 0,000 mm 0,0 UV-I 33 W/m² 6,7 °C 12,4 °C 1,6 km/h (1 Bft)
19.10.2017 10:33 12,6 °C 12,6 °C 68 % 1014,9 hPa 0,0 mm 0,0 km/h (0 Bft) N-NO 15 ° 0 min 0,000 mm 0,0 UV-I 33 W/m² 6,9 °C 12,6 °C 0,0 km/h (0 Bft)
19.10.2017 10:34 12,6 °C 12,7 °C 67 % 1014,8 hPa 0,0 mm 0,5 km/h (0 Bft) N-NO 21 ° 0 min 0,000 mm 0,0 UV-I 33 W/m² 6,6 °C 12,6 °C 1,6 km/h (1 Bft)
19.10.2017 10:35 12,4 °C 12,6 °C 69 % 1014,9 hPa 0,0 mm 1,9 km/h (1 Bft) N-NO 21 ° 0 min 0,000 mm 0,0 UV-I 33 W/m² 6,9 °C 12,4 °C 3,2 km/h (1 Bft)
19.10.2017 10:36 12,3 °C 12,4 °C 68 % 1014,8 hPa 0,0 mm 0,1 km/h (0 Bft) N-NO 21 ° 0 min 0,000 mm 0,0 UV-I 33 W/m² 6,6 °C 12,3 °C 1,6 km/h (1 Bft)
19.10.2017 10:37 12,3 °C 12,3 °C 68 % 1014,8 hPa 0,0 mm 0,0 km/h (0 Bft) N-NO 21 ° 0 min 0,000 mm 0,0 UV-I 35 W/m² 6,6 °C 12,3 °C 0,0 km/h (0 Bft)
19.10.2017 10:38 12,3 °C 12,4 °C 69 % 1014,8 hPa 0,0 mm 0,0 km/h (0 Bft) N-NO 21 ° 0 min 0,000 mm 0,0 UV-I 35 W/m² 6,8 °C 12,3 °C 0,0 km/h (0 Bft)
19.10.2017 10:39 12,2 °C 12,3 °C 70 % 1014,8 hPa 0,0 mm 0,0 km/h (0 Bft) N-NO 21 ° 0 min 0,000 mm 0,0 UV-I 35 W/m² 6,9 °C 12,2 °C 0,0 km/h (0 Bft)
19.10.2017 10:40 12,2 °C 12,2 °C 70 % 1014,8 hPa 0,0 mm 0,0 km/h (0 Bft) N-NO 21 ° 0 min 0,000 mm 0,0 UV-I 39 W/m² 6,9 °C 12,2 °C 0,0 km/h (0 Bft)
19.10.2017 10:41 12,4 °C 12,4 °C 70 % 1014,8 hPa 0,0 mm 0,0 km/h (0 Bft) N-NO 21 ° 0 min 0,000 mm 0,0 UV-I 40 W/m² 7,1 °C 12,4 °C 0,0 km/h (0 Bft)
19.10.2017 10:42 12,7 °C 12,7 °C 69 % 1014,8 hPa 0,0 mm 0,0 km/h (0 Bft) N-NO 21 ° 0 min 0,000 mm 0,0 UV-I 39 W/m² 7,2 °C 12,7 °C 0,0 km/h (0 Bft)
19.10.2017 10:43 12,8 °C 12,8 °C 69 % 1014,7 hPa 0,0 mm 0,0 km/h (0 Bft) N-NO 21 ° 0 min 0,000 mm 0,0 UV-I 37 W/m² 7,3 °C 12,8 °C 0,0 km/h (0 Bft)
19.10.2017 10:44 13,1 °C 13,1 °C 69 % 1014,8 hPa 0,0 mm 0,0 km/h (0 Bft) N-NO 21 ° 0 min 0,000 mm 0,0 UV-I 35 W/m² 7,5 °C 13,1 °C 0,0 km/h (0 Bft)
19.10.2017 10:45 13,2 °C 13,2 °C 69 % 1014,8 hPa 0,0 mm 0,0 km/h (0 Bft) N-NO 21 ° 0 min 0,000 mm 0,0 UV-I 35 W/m² 7,6 °C 13,2 °C 0,0 km/h (0 Bft)
19.10.2017 10:46 13,3 °C 13,3 °C 69 % 1014,8 hPa 0,0 mm 0,0 km/h (0 Bft) N-NO 21 ° 0 min 0,000 mm 0,0 UV-I 35 W/m² 7,7 °C 13,3 °C 0,0 km/h (0 Bft)
19.10.2017 10:47 13,3 °C 13,4 °C 69 % 1014,8 hPa 0,0 mm 0,0 km/h (0 Bft) N-NO 21 ° 0 min 0,000 mm 0,0 UV-I 35 W/m² 7,7 °C 13,3 °C 0,0 km/h (0 Bft)
19.10.2017 10:48 13,5 °C 13,5 °C 68 % 1014,8 hPa 0,0 mm 0,0 km/h (0 Bft) N-NO 21 ° 0 min 0,000 mm 0,0 UV-I 35 W/m² 7,7 °C 13,5 °C 0,0 km/h (0 Bft)
19.10.2017 10:49 13,6 °C 13,6 °C 68 % 1014,8 hPa 0,0 mm 0,0 km/h (0 Bft) N-NO 21 ° 0 min 0,000 mm 0,0 UV-I 35 W/m² 7,8 °C 13,6 °C 0,0 km/h (0 Bft)
19.10.2017 10:50 13,7 °C 13,7 °C 68 % 1014,8 hPa 0,0 mm 0,0 km/h (0 Bft) N-NO 21 ° 0 min 0,000 mm 0,0 UV-I 35 W/m² 7,9 °C 13,7 °C 0,0 km/h (0 Bft)
19.10.2017 10:51 13,8 °C 13,8 °C 67 % 1014,7 hPa 0,0 mm 0,0 km/h (0 Bft) N-NO 21 ° 0 min 0,000 mm 0,0 UV-I 35 W/m² 7,8 °C 13,8 °C 0,0 km/h (0 Bft)
19.10.2017 10:52 13,8 °C 13,8 °C 67 % 1014,8 hPa 0,0 mm 0,0 km/h (0 Bft) N-NO 21 ° 0 min 0,000 mm 0,0 UV-I 35 W/m² 7,8 °C 13,8 °C 0,0 km/h (0 Bft)
19.10.2017 10:53 13,9 °C 13,9 °C 67 % 1014,8 hPa 0,0 mm 0,0 km/h (0 Bft) N-NO 21 ° 0 min 0,000 mm 0,0 UV-I 35 W/m² 7,9 °C 13,9 °C 0,0 km/h (0 Bft)
19.10.2017 10:54 13,8 °C 13,9 °C 67 % 1014,8 hPa 0,0 mm 0,0 km/h (0 Bft) N-NO 21 ° 0 min 0,000 mm 0,0 UV-I 37 W/m² 7,8 °C 13,8 °C 0,0 km/h (0 Bft)
19.10.2017 10:55 13,9 °C 13,9 °C 67 % 1014,8 hPa 0,0 mm 0,0 km/h (0 Bft) N-NO 21 ° 0 min 0,000 mm 0,0 UV-I 37 W/m² 7,9 °C 13,9 °C 0,0 km/h (0 Bft)
19.10.2017 10:56 14,0 °C 14,0 °C 66 % 1014,7 hPa 0,0 mm 0,0 km/h (0 Bft) N-NO 21 ° 0 min 0,000 mm 0,0 UV-I 35 W/m² 7,7 °C 14,0 °C 0,0 km/h (0 Bft)
19.10.2017 10:57 14,1 °C 14,1 °C 66 % 1014,7 hPa 0,0 mm 0,0 km/h (0 Bft) N-NO 21 ° 0 min 0,000 mm 0,0 UV-I 54 W/m² 7,8 °C 14,1 °C 0,0 km/h (0 Bft)
19.10.2017 10:58 14,1 °C 14,1 °C 65 % 1014,8 hPa 0,0 mm 0,0 km/h (0 Bft) N-NO 21 ° 0 min 0,000 mm 1,3 UV-I 107 W/m² 7,6 °C 14,1 °C 0,0 km/h (0 Bft)
19.10.2017 10:59 14,1 °C 14,2 °C 64 % 1014,8 hPa 0,0 mm 0,0 km/h (0 Bft) N-NO 21 ° 0 min 0,000 mm 1,5 UV-I 149 W/m² 7,4 °C 14,1 °C 0,0 km/h (0 Bft)
19.10.2017 11:00 14,1 °C 14,1 °C 65 % 1014,8 hPa 0,0 mm 0,0 km/h (0 Bft) N-NO 21 ° 0 min 0,026 mm 1,5 UV-I 127 W/m² 7,6 °C 14,1 °C 0,0 km/h (0 Bft)
19.10.2017 11:01 14,1 °C 14,1 °C 65 % 1014,8 hPa 0,0 mm 0,0 km/h (0 Bft) N-NO 21 ° 0 min 0,000 mm 1,4 UV-I 114 W/m² 7,6 °C 14,1 °C 0,0 km/h (0 Bft)
19.10.2017 11:02 14,2 °C 14,2 °C 65 % 1014,8 hPa 0,0 mm 0,0 km/h (0 Bft) N-NO 21 ° 0 min 0,000 mm 1,4 UV-I 91 W/m² 7,7 °C 14,2 °C 0,0 km/h (0 Bft)
19.10.2017 11:03 14,3 °C 14,3 °C 64 % 1014,9 hPa 0,0 mm 0,0 km/h (0 Bft) N-NO 21 ° 0 min 0,000 mm 1,4 UV-I 67 W/m² 7,6 °C 14,3 °C 0,0 km/h (0 Bft)
19.10.2017 11:04 14,4 °C 14,4 °C 64 % 1014,9 hPa 0,0 mm 0,0 km/h (0 Bft) N-NO 21 ° 0 min 0,000 mm 1,3 UV-I 62 W/m² 7,7 °C 14,4 °C 0,0 km/h (0 Bft)
19.10.2017 11:05 14,4 °C 14,4 °C 64 % 1014,9 hPa 0,0 mm 0,0 km/h (0 Bft) N-NO 21 ° 0 min 0,000 mm 1,3 UV-I 83 W/m² 7,7 °C 14,4 °C 0,0 km/h (0 Bft)
19.10.2017 11:06 14,6 °C 14,6 °C 65 % 1014,8 hPa 0,0 mm 0,0 km/h (0 Bft) N-NO 21 ° 0 min 0,000 mm 1,4 UV-I 128 W/m² 8,1 °C 14,6 °C 0,0 km/h (0 Bft)
19.10.2017 11:07 14,7 °C 14,7 °C 65 % 1014,9 hPa 0,0 mm 0,0 km/h (0 Bft) N-NO 21 ° 0 min 0,000 mm 1,5 UV-I 171 W/m² 8,2 °C 14,7 °C 0,0 km/h (0 Bft)
19.10.2017 11:08 14,8 °C 14,8 °C 65 % 1014,9 hPa 0,0 mm 0,1 km/h (0 Bft) N-NO 21 ° 0 min 0,000 mm 1,6 UV-I 181 W/m² 8,3 °C 14,8 °C 1,6 km/h (1 Bft)
19.10.2017 11:09 14,9 °C 14,9 °C 63 % 1014,9 hPa 0,0 mm 0,0 km/h (0 Bft) N-NO 21 ° 0 min 0,000 mm 1,6 UV-I 193 W/m² 7,9 °C 14,9 °C 0,0 km/h (0 Bft)
19.10.2017 11:10 15,0 °C 15,0 °C 63 % 1014,9 hPa 0,0 mm 0,0 km/h (0 Bft) N-NO 21 ° 0 min 0,000 mm 1,7 UV-I 197 W/m² 8,0 °C 15,0 °C 0,0 km/h (0 Bft)
19.10.2017 11:11 15,1 °C 15,1 °C 63 % 1014,9 hPa 0,0 mm 0,1 km/h (0 Bft) N-NO 21 ° 0 min 0,000 mm 1,6 UV-I 158 W/m² 8,1 °C 15,1 °C 1,6 km/h (1 Bft)
19.10.2017 11:12 15,1 °C 15,1 °C 63 % 1014,8 hPa 0,0 mm 0,0 km/h (0 Bft) N-NO 21 ° 0 min 0,000 mm 1,5 UV-I 137 W/m² 8,1 °C 15,1 °C 0,0 km/h (0 Bft)
19.10.2017 11:13 15,1 °C 15,1 °C 62 % 1014,8 hPa 0,0 mm 0,0 km/h (0 Bft) N-NO 21 ° 0 min 0,000 mm 1,5 UV-I 93 W/m² 7,9 °C 15,1 °C 0,0 km/h (0 Bft)
19.10.2017 11:14 15,2 °C 15,2 °C 62 % 1014,9 hPa 0,0 mm 0,0 km/h (0 Bft) N-NO 21 ° 0 min 0,000 mm 1,4 UV-I 83 W/m² 8,0 °C 15,2 °C 0,0 km/h (0 Bft)
19.10.2017 11:15 15,2 °C 15,2 °C 62 % 1014,8 hPa 0,0 mm 0,0 km/h (0 Bft) N-NO 21 ° 0 min 0,000 mm 1,4 UV-I 49 W/m² 8,0 °C 15,2 °C 0,0 km/h (0 Bft)
19.10.2017 11:16 15,3 °C 15,3 °C 62 % 1014,8 hPa 0,0 mm 0,0 km/h (0 Bft) N-NO 21 ° 0 min 0,000 mm 0,0 UV-I 42 W/m² 8,1 °C 15,3 °C 0,0 km/h (0 Bft)
19.10.2017 11:17 15,4 °C 15,4 °C 61 % 1014,8 hPa 0,0 mm 0,0 km/h (0 Bft) N-NO 21 ° 0 min 0,000 mm 0,0 UV-I 40 W/m² 7,9 °C 15,4 °C 0,0 km/h (0 Bft)
19.10.2017 11:18 15,4 °C 15,4 °C 61 % 1014,7 hPa 0,0 mm 0,0 km/h (0 Bft) N-NO 21 ° 0 min 0,000 mm 0,0 UV-I 40 W/m² 7,9 °C 15,4 °C 0,0 km/h (0 Bft)
19.10.2017 11:19 15,4 °C 15,5 °C 62 % 1014,7 hPa 0,0 mm 0,0 km/h (0 Bft) N-NO 21 ° 0 min 0,000 mm 0,0 UV-I 40 W/m² 8,2 °C 15,4 °C 0,0 km/h (0 Bft)
19.10.2017 11:20 15,3 °C 15,4 °C 62 % 1014,8 hPa 0,0 mm 0,0 km/h (0 Bft) N-NO 21 ° 0 min 0,000 mm 0,0 UV-I 42 W/m² 8,1 °C 15,3 °C 0,0 km/h (0 Bft)
19.10.2017 11:21 15,2 °C 15,3 °C 62 % 1014,9 hPa 0,0 mm 0,0 km/h (0 Bft) N-NO 21 ° 0 min 0,000 mm 0,0 UV-I 47 W/m² 8,0 °C 15,2 °C 0,0 km/h (0 Bft)
19.10.2017 11:22 15,1 °C 15,2 °C 63 % 1014,8 hPa 0,0 mm 0,0 km/h (0 Bft) N-NO 21 ° 0 min 0,000 mm 0,0 UV-I 44 W/m² 8,1 °C 15,1 °C 0,0 km/h (0 Bft)
19.10.2017 11:23 15,2 °C 15,2 °C 62 % 1014,8 hPa 0,0 mm 0,0 km/h (0 Bft) N-NO 21 ° 0 min 0,000 mm 0,0 UV-I 40 W/m² 8,0 °C 15,2 °C 0,0 km/h (0 Bft)
19.10.2017 11:24 15,3 °C 15,3 °C 61 % 1014,8 hPa 0,0 mm 0,0 km/h (0 Bft) N-NO 21 ° 0 min 0,000 mm 0,0 UV-I 42 W/m² 7,8 °C 15,3 °C 0,0 km/h (0 Bft)
19.10.2017 11:25 15,4 °C 15,4 °C 60 % 1014,8 hPa 0,0 mm 0,0 km/h (0 Bft) N-NO 21 ° 0 min 0,000 mm 0,0 UV-I 42 W/m² 7,7 °C 15,4 °C 0,0 km/h (0 Bft)
19.10.2017 11:26 15,6 °C 15,6 °C 60 % 1014,9 hPa 0,0 mm 0,0 km/h (0 Bft) N-NO 21 ° 0 min 0,000 mm 0,0 UV-I 42 W/m² 7,9 °C 15,6 °C 0,0 km/h (0 Bft)
19.10.2017 11:27 15,7 °C 15,7 °C 59 % 1014,9 hPa 0,0 mm 0,0 km/h (0 Bft) N-NO 21 ° 0 min 0,000 mm 0,0 UV-I 42 W/m² 7,7 °C 15,7 °C 0,0 km/h (0 Bft)
19.10.2017 11:28 15,8 °C 15,8 °C 59 % 1015,0 hPa 0,0 mm 0,0 km/h (0 Bft) N-NO 21 ° 0 min 0,000 mm 0,0 UV-I 40 W/m² 7,8 °C 15,8 °C 0,0 km/h (0 Bft)
19.10.2017 11:29 15,9 °C 15,9 °C 58 % 1015,0 hPa 0,0 mm 0,0 km/h (0 Bft) N-NO 21 ° 0 min 0,000 mm 0,0 UV-I 40 W/m² 7,6 °C 15,9 °C 0,0 km/h (0 Bft)
19.10.2017 11:30 16,0 °C 16,0 °C 58 % 1014,9 hPa 0,0 mm 0,0 km/h (0 Bft) N-NO 21 ° 0 min 0,000 mm 0,0 UV-I 42 W/m² 7,7 °C 16,0 °C 0,0 km/h (0 Bft)
19.10.2017 11:31 15,9 °C 16,0 °C 59 % 1014,9 hPa 0,0 mm 0,0 km/h (0 Bft) N-NO 21 ° 0 min 0,000 mm 0,0 UV-I 42 W/m² 7,9 °C 15,9 °C 0,0 km/h (0 Bft)
19.10.2017 11:32 15,9 °C 15,9 °C 58 % 1015,0 hPa 0,0 mm 0,0 km/h (0 Bft) N-NO 21 ° 0 min 0,000 mm 0,0 UV-I 42 W/m² 7,6 °C 15,9 °C 0,0 km/h (0 Bft)
19.10.2017 11:33 16,0 °C 16,0 °C 57 % 1014,9 hPa 0,0 mm 0,0 km/h (0 Bft) N-NO 21 ° 0 min 0,000 mm 0,0 UV-I 42 W/m² 7,5 °C 16,0 °C 0,0 km/h (0 Bft)
19.10.2017 11:34 16,1 °C 16,1 °C 56 % 1015,0 hPa 0,0 mm 0,0 km/h (0 Bft) N-NO 21 ° 0 min 0,000 mm 0,0 UV-I 44 W/m² 7,3 °C 16,1 °C 0,0 km/h (0 Bft)
19.10.2017 11:35 16,2 °C 16,2 °C 53 % 1014,9 hPa 0,0 mm 0,0 km/h (0 Bft) N-NO 21 ° 0 min 0,000 mm 0,0 UV-I 49 W/m² 6,6 °C 16,2 °C 0,0 km/h (0 Bft)
19.10.2017 11:36 16,3 °C 16,3 °C 52 % 1015,0 hPa 0,0 mm 0,0 km/h (0 Bft) N-NO 25 ° 0 min 0,000 mm 0,0 UV-I 49 W/m² 6,4 °C 16,3 °C 0,0 km/h (0 Bft)
19.10.2017 11:37 16,4 °C 16,4 °C 52 % 1015,0 hPa 0,0 mm 0,6 km/h (0 Bft) N-NO 25 ° 0 min 0,000 mm 1,5 UV-I 81 W/m² 6,5 °C 16,4 °C 3,2 km/h (1 Bft)
19.10.2017 11:38 16,4 °C 16,4 °C 52 % 1015,0 hPa 0,0 mm 0,0 km/h (0 Bft) N-NO 25 ° 0 min 0,000 mm 1,6 UV-I 169 W/m² 6,5 °C 16,4 °C 0,0 km/h (0 Bft)
19.10.2017 11:39 16,4 °C 16,4 °C 51 % 1015,0 hPa 0,0 mm 0,0 km/h (0 Bft) N-NO 25 ° 0 min 0,000 mm 1,8 UV-I 174 W/m² 6,2 °C 16,4 °C 0,0 km/h (0 Bft)
19.10.2017 11:40 16,5 °C 16,5 °C 50 % 1015,0 hPa 0,0 mm 0,0 km/h (0 Bft) N-NO 25 ° 0 min 0,000 mm 1,8 UV-I 162 W/m² 6,0 °C 16,5 °C 0,0 km/h (0 Bft)
19.10.2017 11:41 16,6 °C 16,6 °C 49 % 1015,0 hPa 0,0 mm 0,0 km/h (0 Bft) N-NO 25 ° 0 min 0,000 mm 1,7 UV-I 146 W/m² 5,8 °C 16,6 °C 0,0 km/h (0 Bft)
19.10.2017 11:42 16,7 °C 16,7 °C 49 % 1015,0 hPa 0,0 mm 0,0 km/h (0 Bft) N-NO 25 ° 0 min 0,000 mm 1,7 UV-I 127 W/m² 5,9 °C 16,7 °C 0,0 km/h (0 Bft)
19.10.2017 11:43 16,7 °C 16,7 °C 49 % 1015,0 hPa 0,0 mm 0,0 km/h (0 Bft) N-NO 25 ° 0 min 0,000 mm 1,6 UV-I 128 W/m² 5,9 °C 16,7 °C 0,0 km/h (0 Bft)
19.10.2017 11:44 16,8 °C 16,8 °C 49 % 1015,0 hPa 0,0 mm 0,0 km/h (0 Bft) N-NO 25 ° 0 min 0,000 mm 1,7 UV-I 271 W/m² 6,0 °C 16,8 °C 0,0 km/h (0 Bft)
19.10.2017 11:45 16,8 °C 16,8 °C 49 % 1015,0 hPa 0,0 mm 0,0 km/h (0 Bft) N-NO 25 ° 1 min 0,000 mm 2,2 UV-I 369 W/m² 6,0 °C 16,8 °C 0,0 km/h (0 Bft)
19.10.2017 11:46 16,9 °C 16,9 °C 49 % 1015,0 hPa 0,0 mm 0,0 km/h (0 Bft) N-NO 25 ° 1 min 0,000 mm 2,4 UV-I 429 W/m² 6,1 °C 16,9 °C 0,0 km/h (0 Bft)
19.10.2017 11:47 16,8 °C 16,9 °C 53 % 1015,0 hPa 0,0 mm 0,0 km/h (0 Bft) N-NO 25 ° 1 min 0,000 mm 2,5 UV-I 468 W/m² 7,2 °C 16,8 °C 0,0 km/h (0 Bft)
19.10.2017 11:48 16,6 °C 16,8 °C 52 % 1015,0 hPa 0,0 mm 0,0 km/h (0 Bft) N-NO 25 ° 1 min 0,000 mm 2,6 UV-I 469 W/m² 6,7 °C 16,6 °C 0,0 km/h (0 Bft)
19.10.2017 11:49 16,4 °C 16,6 °C 53 % 1015,0 hPa 0,0 mm 0,0 km/h (0 Bft) N-NO 25 ° 1 min 0,000 mm 2,6 UV-I 471 W/m² 6,8 °C 16,4 °C 0,0 km/h (0 Bft)
19.10.2017 11:50 16,3 °C 16,4 °C 52 % 1015,0 hPa 0,0 mm 0,0 km/h (0 Bft) N-NO 25 ° 1 min 0,000 mm 2,6 UV-I 466 W/m² 6,4 °C 16,3 °C 0,0 km/h (0 Bft)
19.10.2017 11:51 16,6 °C 16,6 °C 51 % 1015,0 hPa 0,0 mm 0,0 km/h (0 Bft) N-NO 25 ° 1 min 0,000 mm 2,7 UV-I 469 W/m² 6,4 °C 16,6 °C 0,0 km/h (0 Bft)
19.10.2017 11:52 16,8 °C 16,8 °C 51 % 1015,0 hPa 0,0 mm 0,0 km/h (0 Bft) N-NO 25 ° 1 min 0,000 mm 2,7 UV-I 471 W/m² 6,6 °C 16,8 °C 0,0 km/h (0 Bft)
19.10.2017 11:53 16,9 °C 16,9 °C 51 % 1015,0 hPa 0,0 mm 0,0 km/h (0 Bft) N-NO 25 ° 1 min 0,000 mm 2,7 UV-I 473 W/m² 6,7 °C 16,9 °C 0,0 km/h (0 Bft)
19.10.2017 11:54 17,0 °C 17,0 °C 50 % 1015,0 hPa 0,0 mm 0,0 km/h (0 Bft) N-NO 25 ° 1 min 0,000 mm 2,8 UV-I 473 W/m² 6,5 °C 17,0 °C 0,0 km/h (0 Bft)
19.10.2017 11:55 17,1 °C 17,1 °C 50 % 1015,0 hPa 0,0 mm 0,0 km/h (0 Bft) N-NO 25 ° 1 min 0,000 mm 2,8 UV-I 475 W/m² 6,6 °C 17,1 °C 0,0 km/h (0 Bft)
19.10.2017 11:56 17,2 °C 17,2 °C 51 % 1015,0 hPa 0,0 mm 0,0 km/h (0 Bft) N-NO 25 ° 1 min 0,000 mm 2,8 UV-I 476 W/m² 7,0 °C 17,2 °C 0,0 km/h (0 Bft)
19.10.2017 11:57 17,1 °C 17,2 °C 51 % 1015,0 hPa 0,0 mm 0,0 km/h (0 Bft) N-NO 25 ° 1 min 0,000 mm 2,8 UV-I 478 W/m² 6,9 °C 17,1 °C 0,0 km/h (0 Bft)
19.10.2017 11:58 17,2 °C 17,2 °C 52 % 1015,0 hPa 0,0 mm 0,0 km/h (0 Bft) N-NO 25 ° 1 min 0,000 mm 2,8 UV-I 480 W/m² 7,3 °C 17,2 °C 0,0 km/h (0 Bft)
19.10.2017 11:59 16,9 °C 17,2 °C 53 % 1015,0 hPa 0,0 mm 0,7 km/h (0 Bft) N-NO 25 ° 1 min 0,000 mm 2,8 UV-I 482 W/m² 7,3 °C 16,9 °C 3,2 km/h (1 Bft)
19.10.2017 12:00 16,9 °C 16,9 °C 53 % 1015,0 hPa 0,0 mm 0,0 km/h (0 Bft) N-NO 25 ° 1 min 0,000 mm 2,8 UV-I 483 W/m² 7,3 °C 16,9 °C 0,0 km/h (0 Bft)
19.10.2017 12:01 16,9 °C 17,0 °C 53 % 1015,0 hPa 0,0 mm 1,5 km/h (1 Bft) N-NO 25 ° 1 min 0,101 mm 2,8 UV-I 485 W/m² 7,3 °C 16,9 °C 3,2 km/h (1 Bft)
19.10.2017 12:02 17,1 °C 17,1 °C 53 % 1015,0 hPa 0,0 mm 0,2 km/h (0 Bft) N-NO 25 ° 1 min 0,000 mm 2,9 UV-I 487 W/m² 7,4 °C 17,1 °C 1,6 km/h (1 Bft)
19.10.2017 12:03 17,1 °C 17,1 °C 53 % 1015,0 hPa 0,0 mm 0,1 km/h (0 Bft) N-NO 25 ° 1 min 0,000 mm 2,9 UV-I 489 W/m² 7,4 °C 17,1 °C 1,6 km/h (1 Bft)
19.10.2017 12:04 17,1 °C 17,1 °C 54 % 1015,0 hPa 0,0 mm 1,9 km/h (1 Bft) NO 47 ° 1 min 0,000 mm 2,8 UV-I 478 W/m² 7,7 °C 17,1 °C 3,2 km/h (1 Bft)
19.10.2017 12:05 17,1 °C 17,1 °C 54 % 1015,1 hPa 0,0 mm 2,8 km/h (1 Bft) NO 49 ° 1 min 0,000 mm 2,8 UV-I 475 W/m² 7,7 °C 17,1 °C 4,8 km/h (1 Bft)
19.10.2017 12:06 17,1 °C 17,1 °C 53 % 1015,1 hPa 0,0 mm 1,7 km/h (1 Bft) NO 49 ° 1 min 0,000 mm 2,8 UV-I 480 W/m² 7,4 °C 17,1 °C 3,2 km/h (1 Bft)
19.10.2017 12:07 17,1 °C 17,1 °C 53 % 1015,0 hPa 0,0 mm 1,9 km/h (1 Bft) NO 49 ° 1 min 0,000 mm 2,9 UV-I 485 W/m² 7,4 °C 17,1 °C 3,2 km/h (1 Bft)
19.10.2017 12:08 17,1 °C 17,1 °C 54 % 1015,1 hPa 0,0 mm 1,9 km/h (1 Bft) NO 49 ° 1 min 0,000 mm 2,9 UV-I 485 W/m² 7,7 °C 17,1 °C 3,2 km/h (1 Bft)
19.10.2017 12:09 17,0 °C 17,1 °C 54 % 1015,1 hPa 0,0 mm 0,6 km/h (0 Bft) NO 49 ° 1 min 0,000 mm 2,9 UV-I 485 W/m² 7,6 °C 17,0 °C 3,2 km/h (1 Bft)
19.10.2017 12:10 17,0 °C 17,1 °C 53 % 1015,1 hPa 0,0 mm 0,0 km/h (0 Bft) NO 49 ° 1 min 0,000 mm 2,9 UV-I 489 W/m² 7,4 °C 17,0 °C 0,0 km/h (0 Bft)
19.10.2017 12:11 17,1 °C 17,1 °C 53 % 1015,1 hPa 0,0 mm 0,0 km/h (0 Bft) NO 49 ° 1 min 0,000 mm 2,9 UV-I 492 W/m² 7,4 °C 17,1 °C 0,0 km/h (0 Bft)
19.10.2017 12:12 17,1 °C 17,1 °C 53 % 1015,1 hPa 0,0 mm 0,0 km/h (0 Bft) NO 49 ° 1 min 0,000 mm 2,9 UV-I 494 W/m² 7,4 °C 17,1 °C 0,0 km/h (0 Bft)
19.10.2017 12:13 17,1 °C 17,2 °C 53 % 1015,1 hPa 0,0 mm 0,0 km/h (0 Bft) NO 49 ° 1 min 0,000 mm 2,9 UV-I 496 W/m² 7,4 °C 17,1 °C 0,0 km/h (0 Bft)
19.10.2017 12:14 17,2 °C 17,2 °C 54 % 1015,1 hPa 0,0 mm 0,0 km/h (0 Bft) NO 49 ° 1 min 0,000 mm 2,9 UV-I 496 W/m² 7,8 °C 17,2 °C 0,0 km/h (0 Bft)
19.10.2017 12:15 17,2 °C 17,2 °C 54 % 1015,0 hPa 0,0 mm 0,2 km/h (0 Bft) NO 49 ° 1 min 0,000 mm 2,9 UV-I 492 W/m² 7,8 °C 17,2 °C 1,6 km/h (1 Bft)
19.10.2017 12:16 17,2 °C 17,2 °C 54 % 1015,0 hPa 0,0 mm 0,5 km/h (0 Bft) NO 49 ° 1 min 0,000 mm 2,9 UV-I 492 W/m² 7,8 °C 17,2 °C 1,6 km/h (1 Bft)
19.10.2017 12:17 17,2 °C 17,2 °C 54 % 1015,1 hPa 0,0 mm 0,0 km/h (0 Bft) NO 49 ° 1 min 0,000 mm 3,0 UV-I 494 W/m² 7,8 °C 17,2 °C 0,0 km/h (0 Bft)
19.10.2017 12:18 17,3 °C 17,3 °C 54 % 1015,0 hPa 0,0 mm 0,0 km/h (0 Bft) NO 49 ° 1 min 0,000 mm 3,0 UV-I 497 W/m² 7,9 °C 17,3 °C 0,0 km/h (0 Bft)
19.10.2017 12:19 17,3 °C 17,3 °C 53 % 1015,1 hPa 0,0 mm 0,0 km/h (0 Bft) NO 49 ° 1 min 0,000 mm 3,0 UV-I 496 W/m² 7,6 °C 17,3 °C 0,0 km/h (0 Bft)
19.10.2017 12:20 17,3 °C 17,3 °C 53 % 1015,0 hPa 0,0 mm 0,0 km/h (0 Bft) NO 49 ° 1 min 0,000 mm 3,0 UV-I 496 W/m² 7,6 °C 17,3 °C 0,0 km/h (0 Bft)
19.10.2017 12:21 17,3 °C 17,3 °C 53 % 1014,9 hPa 0,0 mm 0,0 km/h (0 Bft) NO 49 ° 1 min 0,000 mm 3,0 UV-I 496 W/m² 7,6 °C 17,3 °C 0,0 km/h (0 Bft)
19.10.2017 12:22 17,3 °C 17,3 °C 52 % 1014,9 hPa 0,0 mm 0,1 km/h (0 Bft) NO 49 ° 1 min 0,000 mm 3,0 UV-I 497 W/m² 7,3 °C 17,3 °C 1,6 km/h (1 Bft)
19.10.2017 12:23 17,4 °C 17,4 °C 54 % 1014,9 hPa 0,0 mm 2,0 km/h (1 Bft) NO 49 ° 1 min 0,000 mm 3,0 UV-I 499 W/m² 8,0 °C 17,4 °C 3,2 km/h (1 Bft)
19.10.2017 12:24 17,3 °C 17,4 °C 54 % 1014,9 hPa 0,0 mm 1,5 km/h (1 Bft) NO 49 ° 1 min 0,000 mm 3,0 UV-I 501 W/m² 7,9 °C 17,3 °C 3,2 km/h (1 Bft)
19.10.2017 12:25 17,3 °C 17,3 °C 54 % 1014,9 hPa 0,0 mm 1,9 km/h (1 Bft) NO 49 ° 1 min 0,000 mm 3,0 UV-I 497 W/m² 7,9 °C 17,3 °C 3,2 km/h (1 Bft)
19.10.2017 12:26 17,3 °C 17,3 °C 55 % 1014,9 hPa 0,0 mm 0,4 km/h (0 Bft) NO 49 ° 1 min 0,000 mm 3,0 UV-I 496 W/m² 8,2 °C 17,3 °C 1,6 km/h (1 Bft)
19.10.2017 12:27 17,3 °C 17,3 °C 54 % 1014,8 hPa 0,0 mm 1,7 km/h (1 Bft) O-NO 62 ° 1 min 0,000 mm 3,0 UV-I 489 W/m² 7,9 °C 17,3 °C 3,2 km/h (1 Bft)
19.10.2017 12:28 17,4 °C 17,4 °C 54 % 1014,9 hPa 0,0 mm 2,2 km/h (1 Bft) O-NO 62 ° 1 min 0,000 mm 3,0 UV-I 497 W/m² 8,0 °C 17,4 °C 4,8 km/h (1 Bft)
19.10.2017 12:29 17,6 °C 17,6 °C 52 % 1014,8 hPa 0,0 mm 0,5 km/h (0 Bft) O-NO 62 ° 1 min 0,000 mm 3,0 UV-I 497 W/m² 7,6 °C 17,6 °C 1,6 km/h (1 Bft)
19.10.2017 12:30 17,7 °C 17,7 °C 52 % 1014,8 hPa 0,0 mm 0,0 km/h (0 Bft) O-NO 62 ° 1 min 0,000 mm 3,0 UV-I 497 W/m² 7,7 °C 17,7 °C 0,0 km/h (0 Bft)
19.10.2017 12:31 17,6 °C 17,7 °C 56 % 1014,9 hPa 0,0 mm 0,0 km/h (0 Bft) O-NO 62 ° 1 min 0,000 mm 3,0 UV-I 503 W/m² 8,7 °C 17,6 °C 0,0 km/h (0 Bft)
19.10.2017 12:32 17,4 °C 17,6 °C 54 % 1014,8 hPa 0,0 mm 1,4 km/h (1 Bft) O-NO 62 ° 1 min 0,000 mm 3,1 UV-I 503 W/m² 8,0 °C 17,4 °C 3,2 km/h (1 Bft)
19.10.2017 12:33 17,4 °C 17,4 °C 56 % 1014,8 hPa 0,0 mm 0,8 km/h (0 Bft) O-NO 62 ° 1 min 0,000 mm 3,1 UV-I 504 W/m² 8,5 °C 17,4 °C 1,6 km/h (1 Bft)
19.10.2017 12:34 17,5 °C 17,5 °C 54 % 1014,8 hPa 0,0 mm 0,0 km/h (0 Bft) O-NO 62 ° 1 min 0,000 mm 3,1 UV-I 504 W/m² 8,1 °C 17,5 °C 0,0 km/h (0 Bft)
19.10.2017 12:35 17,7 °C 17,7 °C 54 % 1014,8 hPa 0,0 mm 0,0 km/h (0 Bft) O-NO 62 ° 1 min 0,000 mm 3,1 UV-I 504 W/m² 8,3 °C 17,7 °C 0,0 km/h (0 Bft)
19.10.2017 12:36 17,7 °C 17,7 °C 53 % 1014,8 hPa 0,0 mm 0,0 km/h (0 Bft) O-NO 62 ° 1 min 0,000 mm 3,1 UV-I 508 W/m² 8,0 °C 17,7 °C 0,0 km/h (0 Bft)
19.10.2017 12:37 17,7 °C 17,7 °C 53 % 1014,8 hPa 0,0 mm 0,0 km/h (0 Bft) O-NO 62 ° 1 min 0,000 mm 3,1 UV-I 508 W/m² 8,0 °C 17,7 °C 0,0 km/h (0 Bft)
19.10.2017 12:38 17,7 °C 17,7 °C 55 % 1014,8 hPa 0,0 mm 0,0 km/h (0 Bft) O-NO 62 ° 1 min 0,000 mm 3,1 UV-I 510 W/m² 8,5 °C 17,7 °C 0,0 km/h (0 Bft)
19.10.2017 12:39 17,5 °C 17,7 °C 54 % 1014,8 hPa 0,0 mm 0,0 km/h (0 Bft) O-NO 62 ° 1 min 0,000 mm 3,1 UV-I 510 W/m² 8,1 °C 17,5 °C 0,0 km/h (0 Bft)
19.10.2017 12:40 17,1 °C 17,5 °C 56 % 1014,8 hPa 0,0 mm 0,8 km/h (0 Bft) O-NO 62 ° 1 min 0,000 mm 3,1 UV-I 510 W/m² 8,3 °C 17,1 °C 3,2 km/h (1 Bft)
19.10.2017 12:41 17,1 °C 17,1 °C 57 % 1014,8 hPa 0,0 mm 3,3 km/h (1 Bft) O-NO 62 ° 1 min 0,000 mm 3,1 UV-I 512 W/m² 8,5 °C 17,1 °C 4,8 km/h (1 Bft)
19.10.2017 12:42 17,2 °C 17,2 °C 55 % 1014,8 hPa 0,0 mm 2,4 km/h (1 Bft) O-NO 62 ° 1 min 0,000 mm 3,1 UV-I 512 W/m² 8,1 °C 17,2 °C 4,8 km/h (1 Bft)
19.10.2017 12:43 17,4 °C 17,4 °C 55 % 1014,8 hPa 0,0 mm 1,9 km/h (1 Bft) O-NO 62 ° 1 min 0,000 mm 3,1 UV-I 510 W/m² 8,3 °C 17,4 °C 3,2 km/h (1 Bft)
19.10.2017 12:44 17,6 °C 17,6 °C 55 % 1014,8 hPa 0,0 mm 0,3 km/h (0 Bft) O-NO 62 ° 1 min 0,000 mm 3,1 UV-I 506 W/m² 8,5 °C 17,6 °C 1,6 km/h (1 Bft)
19.10.2017 12:45 17,7 °C 17,7 °C 54 % 1014,8 hPa 0,0 mm 0,0 km/h (0 Bft) O-NO 62 ° 1 min 0,000 mm 3,1 UV-I 508 W/m² 8,3 °C 17,7 °C 0,0 km/h (0 Bft)
19.10.2017 12:46 17,8 °C 17,8 °C 54 % 1014,8 hPa 0,0 mm 0,0 km/h (0 Bft) O-NO 62 ° 1 min 0,000 mm 3,1 UV-I 504 W/m² 8,4 °C 17,8 °C 0,0 km/h (0 Bft)
19.10.2017 12:47 17,9 °C 17,9 °C 54 % 1014,8 hPa 0,0 mm 0,1 km/h (0 Bft) O-NO 62 ° 1 min 0,000 mm 3,1 UV-I 503 W/m² 8,5 °C 17,9 °C 1,6 km/h (1 Bft)
19.10.2017 12:48 17,9 °C 17,9 °C 54 % 1014,8 hPa 0,0 mm 0,3 km/h (0 Bft) O-NO 62 ° 1 min 0,000 mm 3,1 UV-I 504 W/m² 8,5 °C 17,9 °C 1,6 km/h (1 Bft)
19.10.2017 12:49 18,1 °C 18,1 °C 54 % 1014,7 hPa 0,0 mm 0,0 km/h (0 Bft) O-NO 62 ° 1 min 0,000 mm 3,1 UV-I 508 W/m² 8,6 °C 18,1 °C 0,0 km/h (0 Bft)
19.10.2017 12:50 18,1 °C 18,1 °C 53 % 1014,7 hPa 0,0 mm 0,0 km/h (0 Bft) O-NO 62 ° 1 min 0,000 mm 3,1 UV-I 508 W/m² 8,4 °C 18,1 °C 0,0 km/h (0 Bft)
19.10.2017 12:51 18,1 °C 18,1 °C 54 % 1014,8 hPa 0,0 mm 1,0 km/h (0 Bft) O-NO 62 ° 1 min 0,000 mm 3,1 UV-I 512 W/m² 8,6 °C 18,1 °C 3,2 km/h (1 Bft)
19.10.2017 12:52 18,1 °C 18,1 °C 54 % 1014,8 hPa 0,0 mm 1,1 km/h (1 Bft) O-NO 62 ° 1 min 0,000 mm 3,1 UV-I 515 W/m² 8,6 °C 18,1 °C 3,2 km/h (1 Bft)
19.10.2017 12:53 18,1 °C 18,1 °C 54 % 1014,7 hPa 0,0 mm 1,7 km/h (1 Bft) O-NO 62 ° 1 min 0,000 mm 3,1 UV-I 517 W/m² 8,6 °C 18,1 °C 3,2 km/h (1 Bft)
19.10.2017 12:54 18,1 °C 18,1 °C 54 % 1014,6 hPa 0,0 mm 0,0 km/h (0 Bft) O-NO 62 ° 1 min 0,000 mm 3,1 UV-I 513 W/m² 8,6 °C 18,1 °C 0,0 km/h (0 Bft)
19.10.2017 12:55 17,8 °C 18,1 °C 57 % 1014,6 hPa 0,0 mm 0,0 km/h (0 Bft) O-NO 62 ° 1 min 0,000 mm 3,1 UV-I 513 W/m² 9,2 °C 17,8 °C 0,0 km/h (0 Bft)
19.10.2017 12:56 17,7 °C 17,8 °C 57 % 1014,7 hPa 0,0 mm 0,0 km/h (0 Bft) O-NO 62 ° 1 min 0,000 mm 3,1 UV-I 513 W/m² 9,1 °C 17,7 °C 0,0 km/h (0 Bft)
19.10.2017 12:57 17,7 °C 17,7 °C 55 % 1014,6 hPa 0,0 mm 1,7 km/h (1 Bft) O-NO 62 ° 1 min 0,000 mm 3,1 UV-I 512 W/m² 8,5 °C 17,7 °C 3,2 km/h (1 Bft)
19.10.2017 12:58 17,8 °C 17,8 °C 59 % 1014,7 hPa 0,0 mm 1,7 km/h (1 Bft) NO 52 ° 1 min 0,000 mm 3,1 UV-I 513 W/m² 9,7 °C 17,8 °C 4,8 km/h (1 Bft)
19.10.2017 12:59 17,7 °C 17,8 °C 58 % 1014,6 hPa 0,0 mm 2,9 km/h (1 Bft) O-NO 62 ° 1 min 0,000 mm 3,1 UV-I 513 W/m² 9,3 °C 17,7 °C 4,8 km/h (1 Bft)
19.10.2017 13:00 17,8 °C 17,8 °C 56 % 1014,6 hPa 0,0 mm 2,6 km/h (1 Bft) NO 51 ° 1 min 0,000 mm 3,1 UV-I 512 W/m² 8,9 °C 17,8 °C 4,8 km/h (1 Bft)
19.10.2017 13:01 17,8 °C 17,8 °C 56 % 1014,6 hPa 0,0 mm 2,9 km/h (1 Bft) O-NO 75 ° 1 min 0,280 mm 3,1 UV-I 510 W/m² 8,9 °C 17,8 °C 6,4 km/h (2 Bft)
19.10.2017 13:02 17,8 °C 17,8 °C 57 % 1014,6 hPa 0,0 mm 1,0 km/h (0 Bft) O-NO 75 ° 1 min 0,000 mm 3,1 UV-I 510 W/m² 9,2 °C 17,8 °C 3,2 km/h (1 Bft)
19.10.2017 13:03 17,8 °C 17,8 °C 55 % 1014,6 hPa 0,0 mm 0,0 km/h (0 Bft) O-NO 75 ° 1 min 0,000 mm 3,1 UV-I 508 W/m² 8,6 °C 17,8 °C 0,0 km/h (0 Bft)
19.10.2017 13:04 17,9 °C 17,9 °C 55 % 1014,6 hPa 0,0 mm 0,0 km/h (0 Bft) O-NO 75 ° 1 min 0,000 mm 3,1 UV-I 510 W/m² 8,7 °C 17,9 °C 0,0 km/h (0 Bft)
19.10.2017 13:05 18,1 °C 18,1 °C 54 % 1014,6 hPa 0,0 mm 0,0 km/h (0 Bft) O-NO 75 ° 1 min 0,000 mm 3,1 UV-I 506 W/m² 8,6 °C 18,1 °C 0,0 km/h (0 Bft)
19.10.2017 13:06 18,1 °C 18,1 °C 55 % 1014,6 hPa 0,0 mm 1,0 km/h (0 Bft) O-NO 74 ° 1 min 0,000 mm 3,1 UV-I 503 W/m² 8,9 °C 18,1 °C 3,2 km/h (1 Bft)
19.10.2017 13:07 18,1 °C 18,1 °C 55 % 1014,6 hPa 0,0 mm 4,3 km/h (1 Bft) N-NO 21 ° 1 min 0,000 mm 2,9 UV-I 503 W/m² 8,9 °C 18,1 °C 6,4 km/h (2 Bft)
19.10.2017 13:08 18,1 °C 18,1 °C 56 % 1014,6 hPa 0,0 mm 1,3 km/h (1 Bft) N-NO 22 ° 1 min 0,000 mm 2,3 UV-I 503 W/m² 9,2 °C 18,1 °C 3,2 km/h (1 Bft)
19.10.2017 13:09 17,9 °C 18,1 °C 57 % 1014,6 hPa 0,0 mm 2,8 km/h (1 Bft) NO 51 ° 0 min 0,000 mm 1,9 UV-I 142 W/m² 9,3 °C 17,9 °C 4,8 km/h (1 Bft)
19.10.2017 13:10 18,0 °C 18,0 °C 55 % 1014,6 hPa 0,0 mm 3,1 km/h (1 Bft) O-NO 64 ° 0 min 0,000 mm 2,4 UV-I 142 W/m² 8,8 °C 18,0 °C 4,8 km/h (1 Bft)
19.10.2017 13:11 18,1 °C 18,1 °C 57 % 1014,6 hPa 0,0 mm 4,0 km/h (1 Bft) O-NO 61 ° 0 min 0,000 mm 3,0 UV-I 142 W/m² 9,4 °C 18,1 °C 6,4 km/h (2 Bft)
19.10.2017 13:12 18,0 °C 18,1 °C 58 % 1014,6 hPa 0,0 mm 3,6 km/h (1 Bft) NO 55 ° 1 min 0,000 mm 3,1 UV-I 504 W/m² 9,6 °C 18,0 °C 4,8 km/h (1 Bft)
19.10.2017 13:13 17,9 °C 18,0 °C 56 % 1014,6 hPa 0,0 mm 3,4 km/h (1 Bft) NO 56 ° 1 min 0,000 mm 3,1 UV-I 499 W/m² 9,0 °C 17,9 °C 4,8 km/h (1 Bft)
19.10.2017 13:14 18,0 °C 18,0 °C 54 % 1014,6 hPa 0,0 mm 2,8 km/h (1 Bft) O-NO 71 ° 1 min 0,000 mm 3,1 UV-I 499 W/m² 8,6 °C 18,0 °C 6,4 km/h (2 Bft)
19.10.2017 13:15 18,1 °C 18,1 °C 53 % 1014,6 hPa 0,0 mm 3,8 km/h (1 Bft) O-NO 71 ° 1 min 0,000 mm 3,1 UV-I 497 W/m² 8,4 °C 18,1 °C 4,8 km/h (1 Bft)
19.10.2017 13:16 18,2 °C 18,2 °C 54 % 1014,6 hPa 0,0 mm 3,4 km/h (1 Bft) NO 46 ° 1 min 0,000 mm 2,9 UV-I 415 W/m² 8,7 °C 18,2 °C 4,8 km/h (1 Bft)
19.10.2017 13:17 18,3 °C 18,3 °C 54 % 1014,6 hPa 0,0 mm 1,9 km/h (1 Bft) NO 46 ° 0 min 0,000 mm 2,5 UV-I 260 W/m² 8,8 °C 18,3 °C 3,2 km/h (1 Bft)
19.10.2017 13:18 18,2 °C 18,3 °C 54 % 1014,6 hPa 0,0 mm 2,3 km/h (1 Bft) O 94 ° 1 min 0,000 mm 2,4 UV-I 330 W/m² 8,7 °C 18,2 °C 4,8 km/h (1 Bft)
19.10.2017 13:19 18,2 °C 18,2 °C 52 % 1014,6 hPa 0,0 mm 0,0 km/h (0 Bft) O 94 ° 1 min 0,000 mm 2,8 UV-I 330 W/m² 8,2 °C 18,2 °C 0,0 km/h (0 Bft)
19.10.2017 13:20 18,2 °C 18,3 °C 50 % 1014,6 hPa 0,0 mm 0,2 km/h (0 Bft) O 94 ° 1 min 0,000 mm 3,0 UV-I 499 W/m² 7,6 °C 18,2 °C 1,6 km/h (1 Bft)
19.10.2017 13:21 18,1 °C 18,2 °C 54 % 1014,5 hPa 0,0 mm 0,0 km/h (0 Bft) O 94 ° 1 min 0,000 mm 3,0 UV-I 489 W/m² 8,6 °C 18,1 °C 0,0 km/h (0 Bft)
19.10.2017 13:22 18,0 °C 18,1 °C 54 % 1014,6 hPa 0,0 mm 2,8 km/h (1 Bft) O 94 ° 1 min 0,000 mm 2,8 UV-I 406 W/m² 8,6 °C 18,0 °C 4,8 km/h (1 Bft)
19.10.2017 13:23 17,9 °C 18,0 °C 54 % 1014,6 hPa 0,0 mm 2,5 km/h (1 Bft) O 94 ° 1 min 0,000 mm 2,8 UV-I 457 W/m² 8,5 °C 17,9 °C 4,8 km/h (1 Bft)
19.10.2017 13:24 17,9 °C 17,9 °C 53 % 1014,5 hPa 0,0 mm 3,5 km/h (1 Bft) O 94 ° 1 min 0,000 mm 2,9 UV-I 459 W/m² 8,2 °C 17,9 °C 4,8 km/h (1 Bft)
19.10.2017 13:25 18,1 °C 18,1 °C 53 % 1014,5 hPa 0,0 mm 3,0 km/h (1 Bft) NO 49 ° 1 min 0,000 mm 3,0 UV-I 480 W/m² 8,4 °C 18,1 °C 4,8 km/h (1 Bft)
19.10.2017 13:26 18,2 °C 18,2 °C 54 % 1014,4 hPa 0,0 mm 3,2 km/h (1 Bft) O-NO 63 ° 1 min 0,000 mm 3,0 UV-I 480 W/m² 8,7 °C 18,2 °C 4,8 km/h (1 Bft)
19.10.2017 13:27 18,3 °C 18,3 °C 52 % 1014,4 hPa 0,0 mm 3,2 km/h (1 Bft) O-NO 63 ° 1 min 0,000 mm 2,9 UV-I 482 W/m² 8,3 °C 18,3 °C 4,8 km/h (1 Bft)
19.10.2017 13:28 18,2 °C 18,3 °C 52 % 1014,4 hPa 0,0 mm 1,4 km/h (1 Bft) O-NO 63 ° 1 min 0,000 mm 2,7 UV-I 482 W/m² 8,2 °C 18,2 °C 3,2 km/h (1 Bft)
19.10.2017 13:29 18,2 °C 18,3 °C 52 % 1014,4 hPa 0,0 mm 1,1 km/h (1 Bft) O-NO 63 ° 1 min 0,000 mm 3,0 UV-I 489 W/m² 8,2 °C 18,2 °C 3,2 km/h (1 Bft)
19.10.2017 13:30 18,2 °C 18,2 °C 52 % 1014,4 hPa 0,0 mm 0,1 km/h (0 Bft) O-NO 63 ° 1 min 0,000 mm 3,0 UV-I 496 W/m² 8,2 °C 18,2 °C 1,6 km/h (1 Bft)
19.10.2017 13:31 18,2 °C 18,2 °C 52 % 1014,4 hPa 0,0 mm 0,5 km/h (0 Bft) O-NO 63 ° 1 min 0,000 mm 3,0 UV-I 510 W/m² 8,2 °C 18,2 °C 1,6 km/h (1 Bft)
19.10.2017 13:32 18,2 °C 18,2 °C 52 % 1014,4 hPa 0,0 mm 1,5 km/h (1 Bft) O-NO 63 ° 1 min 0,000 mm 3,0 UV-I 508 W/m² 8,2 °C 18,2 °C 3,2 km/h (1 Bft)
19.10.2017 13:33 18,2 °C 18,3 °C 53 % 1014,4 hPa 0,0 mm 0,6 km/h (0 Bft) O-NO 63 ° 1 min 0,000 mm 3,0 UV-I 485 W/m² 8,5 °C 18,2 °C 3,2 km/h (1 Bft)
19.10.2017 13:34 18,2 °C 18,2 °C 53 % 1014,4 hPa 0,0 mm 1,5 km/h (1 Bft) O-NO 63 ° 1 min 0,000 mm 3,0 UV-I 489 W/m² 8,5 °C 18,2 °C 3,2 km/h (1 Bft)
19.10.2017 13:35 18,2 °C 18,2 °C 54 % 1014,4 hPa 0,0 mm 2,3 km/h (1 Bft) O 80 ° 1 min 0,000 mm 3,0 UV-I 485 W/m² 8,7 °C 18,2 °C 3,2 km/h (1 Bft)
19.10.2017 13:36 18,3 °C 18,3 °C 53 % 1014,3 hPa 0,0 mm 2,5 km/h (1 Bft) O 80 ° 1 min 0,000 mm 3,0 UV-I 487 W/m² 8,6 °C 18,3 °C 4,8 km/h (1 Bft)
19.10.2017 13:37 18,4 °C 18,4 °C 54 % 1014,3 hPa 0,0 mm 3,2 km/h (1 Bft) O 101 ° 1 min 0,000 mm 3,0 UV-I 492 W/m² 8,9 °C 18,4 °C 4,8 km/h (1 Bft)
19.10.2017 13:38 18,4 °C 18,4 °C 54 % 1014,3 hPa 0,0 mm 1,5 km/h (1 Bft) O 101 ° 1 min 0,000 mm 3,0 UV-I 490 W/m² 8,9 °C 18,4 °C 3,2 km/h (1 Bft)
19.10.2017 13:39 18,5 °C 18,5 °C 53 % 1014,3 hPa 0,0 mm 2,3 km/h (1 Bft) O 101 ° 1 min 0,000 mm 3,0 UV-I 497 W/m² 8,7 °C 18,5 °C 4,8 km/h (1 Bft)
19.10.2017 13:40 18,4 °C 18,5 °C 53 % 1014,3 hPa 0,0 mm 3,6 km/h (1 Bft) O 80 ° 1 min 0,000 mm 3,0 UV-I 497 W/m² 8,6 °C 18,4 °C 6,4 km/h (2 Bft)
19.10.2017 13:41 18,3 °C 18,4 °C 54 % 1014,3 hPa 0,0 mm 3,2 km/h (1 Bft) O 80 ° 1 min 0,000 mm 3,0 UV-I 499 W/m² 8,8 °C 18,3 °C 6,4 km/h (2 Bft)
19.10.2017 13:42 18,3 °C 18,3 °C 53 % 1014,2 hPa 0,0 mm 1,1 km/h (1 Bft) O 80 ° 1 min 0,000 mm 3,0 UV-I 492 W/m² 8,6 °C 18,3 °C 3,2 km/h (1 Bft)
19.10.2017 13:43 18,4 °C 18,4 °C 53 % 1014,2 hPa 0,0 mm 3,2 km/h (1 Bft) O 80 ° 1 min 0,000 mm 3,0 UV-I 503 W/m² 8,6 °C 18,4 °C 4,8 km/h (1 Bft)
19.10.2017 13:44 18,3 °C 18,4 °C 54 % 1014,2 hPa 0,0 mm 2,7 km/h (1 Bft) O 80 ° 1 min 0,000 mm 3,0 UV-I 504 W/m² 8,8 °C 18,3 °C 6,4 km/h (2 Bft)
19.10.2017 13:45 18,3 °C 18,3 °C 54 % 1014,2 hPa 0,0 mm 0,4 km/h (0 Bft) O 80 ° 1 min 0,000 mm 3,0 UV-I 503 W/m² 8,8 °C 18,3 °C 1,6 km/h (1 Bft)
19.10.2017 13:46 18,3 °C 18,3 °C 54 % 1014,2 hPa 0,0 mm 1,9 km/h (1 Bft) O 80 ° 1 min 0,000 mm 3,0 UV-I 497 W/m² 8,8 °C 18,3 °C 4,8 km/h (1 Bft)
19.10.2017 13:47 18,3 °C 18,3 °C 54 % 1014,1 hPa 0,0 mm 0,3 km/h (0 Bft) O 80 ° 1 min 0,000 mm 3,0 UV-I 480 W/m² 8,8 °C 18,3 °C 1,6 km/h (1 Bft)
19.10.2017 13:48 18,4 °C 18,4 °C 53 % 1014,2 hPa 0,0 mm 0,9 km/h (0 Bft) O 80 ° 1 min 0,000 mm 2,9 UV-I 464 W/m² 8,6 °C 18,4 °C 3,2 km/h (1 Bft)
19.10.2017 13:49 18,4 °C 18,4 °C 54 % 1014,1 hPa 0,0 mm 1,5 km/h (1 Bft) O 80 ° 1 min 0,000 mm 3,0 UV-I 494 W/m² 8,9 °C 18,4 °C 3,2 km/h (1 Bft)
19.10.2017 13:50 18,4 °C 18,4 °C 55 % 1014,1 hPa 0,0 mm 0,4 km/h (0 Bft) O 80 ° 1 min 0,000 mm 2,9 UV-I 478 W/m² 9,2 °C 18,4 °C 1,6 km/h (1 Bft)
19.10.2017 13:51 18,6 °C 18,6 °C 54 % 1014,1 hPa 0,0 mm 0,8 km/h (0 Bft) O 80 ° 1 min 0,000 mm 2,9 UV-I 480 W/m² 9,1 °C 18,6 °C 3,2 km/h (1 Bft)
19.10.2017 13:52 18,6 °C 18,7 °C 54 % 1014,2 hPa 0,0 mm 3,5 km/h (1 Bft) O-NO 70 ° 1 min 0,000 mm 2,9 UV-I 478 W/m² 9,1 °C 18,6 °C 6,4 km/h (2 Bft)
19.10.2017 13:53 18,4 °C 18,6 °C 55 % 1014,2 hPa 0,0 mm 4,8 km/h (1 Bft) O-SO 105 ° 1 min 0,000 mm 2,9 UV-I 480 W/m² 9,2 °C 18,4 °C 6,4 km/h (2 Bft)
19.10.2017 13:54 18,4 °C 18,4 °C 54 % 1014,1 hPa 0,0 mm 2,0 km/h (1 Bft) O-NO 65 ° 1 min 0,000 mm 2,9 UV-I 487 W/m² 8,9 °C 18,4 °C 4,8 km/h (1 Bft)
19.10.2017 13:55 18,6 °C 18,6 °C 54 % 1014,1 hPa 0,0 mm 2,2 km/h (1 Bft) O-NO 65 ° 1 min 0,000 mm 2,9 UV-I 489 W/m² 9,1 °C 18,6 °C 3,2 km/h (1 Bft)
19.10.2017 13:56 18,7 °C 18,7 °C 55 % 1014,1 hPa 0,0 mm 4,4 km/h (1 Bft) NO 45 ° 1 min 0,000 mm 2,9 UV-I 490 W/m² 9,5 °C 18,7 °C 8,0 km/h (2 Bft)
19.10.2017 13:57 18,7 °C 18,7 °C 54 % 1014,1 hPa 0,0 mm 3,5 km/h (1 Bft) O-NO 57 ° 1 min 0,000 mm 2,9 UV-I 489 W/m² 9,2 °C 18,7 °C 6,4 km/h (2 Bft)
19.10.2017 13:58 18,6 °C 18,7 °C 53 % 1014,1 hPa 0,0 mm 4,8 km/h (1 Bft) S-SO 153 ° 1 min 0,000 mm 2,9 UV-I 492 W/m² 8,8 °C 18,6 °C 8,0 km/h (2 Bft)
19.10.2017 13:59 18,7 °C 18,7 °C 52 % 1014,1 hPa 0,0 mm 3,9 km/h (1 Bft) SO 136 ° 1 min 0,000 mm 2,9 UV-I 476 W/m² 8,6 °C 18,7 °C 6,4 km/h (2 Bft)
19.10.2017 14:00 18,7 °C 18,7 °C 52 % 1014,1 hPa 0,0 mm 1,3 km/h (1 Bft) SO 136 ° 1 min 0,279 mm 2,8 UV-I 436 W/m² 8,6 °C 18,7 °C 3,2 km/h (1 Bft)
19.10.2017 14:01 18,7 °C 18,8 °C 53 % 1014,0 hPa 0,0 mm 1,9 km/h (1 Bft) SO 132 ° 1 min 0,000 mm 2,8 UV-I 462 W/m² 8,9 °C 18,7 °C 3,2 km/h (1 Bft)
19.10.2017 14:02 18,7 °C 18,7 °C 55 % 1014,0 hPa 0,0 mm 2,0 km/h (1 Bft) SO 132 ° 1 min 0,000 mm 2,8 UV-I 469 W/m² 9,5 °C 18,7 °C 3,2 km/h (1 Bft)
19.10.2017 14:03 18,6 °C 18,7 °C 54 % 1014,0 hPa 0,0 mm 2,9 km/h (1 Bft) O 90 ° 1 min 0,000 mm 2,8 UV-I 471 W/m² 9,1 °C 18,6 °C 4,8 km/h (1 Bft)
19.10.2017 14:04 18,6 °C 18,6 °C 58 % 1014,0 hPa 0,0 mm 6,9 km/h (2 Bft) O 82 ° 1 min 0,000 mm 2,8 UV-I 434 W/m² 10,2 °C 18,6 °C 8,0 km/h (2 Bft)
19.10.2017 14:05 18,5 °C 18,6 °C 53 % 1014,0 hPa 0,0 mm 3,6 km/h (1 Bft) NO 54 ° 1 min 0,000 mm 2,7 UV-I 406 W/m² 8,7 °C 18,5 °C 4,8 km/h (1 Bft)
19.10.2017 14:06 18,6 °C 18,6 °C 54 % 1014,0 hPa 0,0 mm 2,4 km/h (1 Bft) NO 54 ° 1 min 0,000 mm 2,7 UV-I 427 W/m² 9,1 °C 18,6 °C 4,8 km/h (1 Bft)
19.10.2017 14:07 18,7 °C 18,7 °C 55 % 1013,9 hPa 0,0 mm 2,7 km/h (1 Bft) O-NO 78 ° 1 min 0,000 mm 2,7 UV-I 450 W/m² 9,5 °C 18,7 °C 4,8 km/h (1 Bft)
19.10.2017 14:08 18,6 °C 18,7 °C 55 % 1013,9 hPa 0,0 mm 2,4 km/h (1 Bft) O-NO 67 ° 1 min 0,000 mm 2,7 UV-I 450 W/m² 9,4 °C 18,6 °C 6,4 km/h (2 Bft)
19.10.2017 14:09 18,6 °C 18,7 °C 55 % 1013,9 hPa 0,0 mm 3,6 km/h (1 Bft) O-NO 61 ° 1 min 0,000 mm 2,8 UV-I 457 W/m² 9,4 °C 18,6 °C 6,4 km/h (2 Bft)
19.10.2017 14:10 18,5 °C 18,6 °C 55 % 1013,9 hPa 0,0 mm 0,3 km/h (0 Bft) O-NO 61 ° 1 min 0,000 mm 2,7 UV-I 461 W/m² 9,3 °C 18,5 °C 3,2 km/h (1 Bft)
19.10.2017 14:11 18,6 °C 18,6 °C 55 % 1013,9 hPa 0,0 mm 2,9 km/h (1 Bft) O-NO 76 ° 1 min 0,000 mm 2,8 UV-I 471 W/m² 9,4 °C 18,6 °C 4,8 km/h (1 Bft)
19.10.2017 14:12 18,8 °C 18,8 °C 55 % 1013,9 hPa 0,0 mm 2,9 km/h (1 Bft) SO 132 ° 1 min 0,000 mm 2,8 UV-I 476 W/m² 9,6 °C 18,8 °C 4,8 km/h (1 Bft)
19.10.2017 14:13 18,7 °C 18,8 °C 56 % 1013,9 hPa 0,0 mm 2,5 km/h (1 Bft) O 85 ° 1 min 0,000 mm 2,7 UV-I 462 W/m² 9,7 °C 18,7 °C 4,8 km/h (1 Bft)
19.10.2017 14:14 18,8 °C 18,8 °C 53 % 1013,9 hPa 0,0 mm 3,0 km/h (1 Bft) O 87 ° 1 min 0,000 mm 2,6 UV-I 425 W/m² 9,0 °C 18,8 °C 4,8 km/h (1 Bft)
19.10.2017 14:15 18,8 °C 18,8 °C 50 % 1013,9 hPa 0,0 mm 2,1 km/h (1 Bft) SO 137 ° 1 min 0,000 mm 2,6 UV-I 418 W/m² 8,2 °C 18,8 °C 4,8 km/h (1 Bft)
19.10.2017 14:16 18,8 °C 18,8 °C 50 % 1013,9 hPa 0,0 mm 1,9 km/h (1 Bft) O-NO 68 ° 1 min 0,000 mm 2,6 UV-I 445 W/m² 8,2 °C 18,8 °C 4,8 km/h (1 Bft)
19.10.2017 14:17 18,8 °C 18,8 °C 50 % 1013,7 hPa 0,0 mm 0,3 km/h (0 Bft) O-NO 68 ° 1 min 0,000 mm 2,7 UV-I 448 W/m² 8,2 °C 18,8 °C 1,6 km/h (1 Bft)
19.10.2017 14:18 18,8 °C 18,8 °C 50 % 1013,8 hPa 0,0 mm 2,2 km/h (1 Bft) O 85 ° 1 min 0,000 mm 2,7 UV-I 454 W/m² 8,2 °C 18,8 °C 4,8 km/h (1 Bft)
19.10.2017 14:19 18,7 °C 18,8 °C 52 % 1013,8 hPa 0,0 mm 1,7 km/h (1 Bft) NO 55 ° 1 min 0,000 mm 2,6 UV-I 455 W/m² 8,6 °C 18,7 °C 4,8 km/h (1 Bft)
19.10.2017 14:20 18,8 °C 18,8 °C 52 % 1013,7 hPa 0,0 mm 1,9 km/h (1 Bft) NO 55 ° 1 min 0,000 mm 2,5 UV-I 397 W/m² 8,7 °C 18,8 °C 4,8 km/h (1 Bft)
19.10.2017 14:21 18,7 °C 18,8 °C 50 % 1013,7 hPa 0,0 mm 0,2 km/h (0 Bft) NO 55 ° 1 min 0,000 mm 2,6 UV-I 422 W/m² 8,1 °C 18,7 °C 1,6 km/h (1 Bft)
19.10.2017 14:22 18,7 °C 18,7 °C 50 % 1013,7 hPa 0,0 mm 0,0 km/h (0 Bft) NO 55 ° 1 min 0,000 mm 2,7 UV-I 450 W/m² 8,1 °C 18,7 °C 0,0 km/h (0 Bft)
19.10.2017 14:23 18,8 °C 18,8 °C 49 % 1013,7 hPa 0,0 mm 2,0 km/h (1 Bft) O 88 ° 1 min 0,000 mm 2,6 UV-I 443 W/m² 7,9 °C 18,8 °C 6,4 km/h (2 Bft)
19.10.2017 14:24 18,8 °C 18,8 °C 54 % 1013,7 hPa 0,0 mm 5,0 km/h (1 Bft) O 90 ° 1 min 0,000 mm 2,6 UV-I 443 W/m² 9,3 °C 18,8 °C 6,4 km/h (2 Bft)
19.10.2017 14:25 18,7 °C 18,8 °C 50 % 1013,8 hPa 0,0 mm 3,1 km/h (1 Bft) O 90 ° 1 min 0,000 mm 2,7 UV-I 459 W/m² 8,1 °C 18,7 °C 4,8 km/h (1 Bft)
19.10.2017 14:26 18,7 °C 18,7 °C 49 % 1013,7 hPa 0,0 mm 1,7 km/h (1 Bft) O 90 ° 1 min 0,000 mm 2,7 UV-I 459 W/m² 7,8 °C 18,7 °C 3,2 km/h (1 Bft)
19.10.2017 14:27 18,8 °C 18,8 °C 50 % 1013,7 hPa 0,0 mm 2,6 km/h (1 Bft) O 90 ° 1 min 0,000 mm 2,7 UV-I 457 W/m² 8,2 °C 18,8 °C 4,8 km/h (1 Bft)
19.10.2017 14:28 18,8 °C 18,8 °C 48 % 1013,7 hPa 0,0 mm 1,1 km/h (1 Bft) O 90 ° 1 min 0,000 mm 2,6 UV-I 461 W/m² 7,6 °C 18,8 °C 3,2 km/h (1 Bft)
19.10.2017 14:29 18,6 °C 18,8 °C 49 % 1013,7 hPa 0,0 mm 1,8 km/h (1 Bft) O 90 ° 1 min 0,000 mm 2,7 UV-I 468 W/m² 7,7 °C 18,6 °C 3,2 km/h (1 Bft)
19.10.2017 14:30 18,4 °C 18,6 °C 50 % 1013,7 hPa 0,0 mm 2,4 km/h (1 Bft) O 90 ° 1 min 0,000 mm 2,7 UV-I 468 W/m² 7,8 °C 18,4 °C 4,8 km/h (1 Bft)
19.10.2017 14:31 18,3 °C 18,4 °C 49 % 1013,7 hPa 0,0 mm 0,6 km/h (0 Bft) O 90 ° 1 min 0,000 mm 2,6 UV-I 466 W/m² 7,4 °C 18,3 °C 1,6 km/h (1 Bft)
19.10.2017 14:32 18,3 °C 18,3 °C 52 % 1013,7 hPa 0,0 mm 1,1 km/h (1 Bft) O 90 ° 1 min 0,000 mm 2,6 UV-I 464 W/m² 8,3 °C 18,3 °C 3,2 km/h (1 Bft)
19.10.2017 14:33 18,2 °C 18,3 °C 49 % 1013,6 hPa 0,0 mm 1,7 km/h (1 Bft) O 90 ° 1 min 0,000 mm 2,6 UV-I 461 W/m² 7,3 °C 18,2 °C 3,2 km/h (1 Bft)
19.10.2017 14:34 18,3 °C 18,3 °C 51 % 1013,7 hPa 0,0 mm 2,3 km/h (1 Bft) O 90 ° 1 min 0,000 mm 2,6 UV-I 459 W/m² 8,0 °C 18,3 °C 4,8 km/h (1 Bft)
19.10.2017 14:35 18,3 °C 18,3 °C 49 % 1013,7 hPa 0,0 mm 0,4 km/h (0 Bft) O 90 ° 1 min 0,000 mm 2,6 UV-I 459 W/m² 7,4 °C 18,3 °C 3,2 km/h (1 Bft)
19.10.2017 14:36 18,3 °C 18,3 °C 51 % 1013,7 hPa 0,0 mm 1,2 km/h (1 Bft) O 90 ° 1 min 0,000 mm 2,6 UV-I 454 W/m² 8,0 °C 18,3 °C 3,2 km/h (1 Bft)
19.10.2017 14:37 18,4 °C 18,4 °C 49 % 1013,7 hPa 0,0 mm 3,4 km/h (1 Bft) O 89 ° 1 min 0,000 mm 2,5 UV-I 434 W/m² 7,5 °C 18,4 °C 4,8 km/h (1 Bft)
19.10.2017 14:38 18,4 °C 18,4 °C 49 % 1013,7 hPa 0,0 mm 0,5 km/h (0 Bft) O 89 ° 1 min 0,000 mm 2,5 UV-I 427 W/m² 7,5 °C 18,4 °C 1,6 km/h (1 Bft)
19.10.2017 14:39 18,5 °C 18,5 °C 49 % 1013,7 hPa 0,0 mm 0,8 km/h (0 Bft) O 89 ° 1 min 0,000 mm 2,5 UV-I 425 W/m² 7,6 °C 18,5 °C 3,2 km/h (1 Bft)
19.10.2017 14:40 18,4 °C 18,5 °C 52 % 1013,7 hPa 0,0 mm 2,2 km/h (1 Bft) O 88 ° 1 min 0,000 mm 2,5 UV-I 425 W/m² 8,4 °C 18,4 °C 4,8 km/h (1 Bft)
19.10.2017 14:41 18,4 °C 18,4 °C 52 % 1013,6 hPa 0,0 mm 6,6 km/h (2 Bft) NO 52 ° 1 min 0,000 mm 2,5 UV-I 424 W/m² 8,4 °C 18,4 °C 9,7 km/h (2 Bft)
19.10.2017 14:42 18,4 °C 18,4 °C 56 % 1013,7 hPa 0,0 mm 4,6 km/h (1 Bft) O 80 ° 1 min 0,000 mm 2,5 UV-I 427 W/m² 9,5 °C 18,4 °C 6,4 km/h (2 Bft)
19.10.2017 14:43 18,5 °C 18,5 °C 51 % 1013,7 hPa 0,0 mm 4,9 km/h (1 Bft) O-NO 71 ° 1 min 0,000 mm 2,4 UV-I 422 W/m² 8,2 °C 18,5 °C 6,4 km/h (2 Bft)
19.10.2017 14:44 18,6 °C 18,6 °C 52 % 1013,7 hPa 0,0 mm 4,4 km/h (1 Bft) O-NO 75 ° 1 min 0,000 mm 2,4 UV-I 417 W/m² 8,5 °C 18,6 °C 4,8 km/h (1 Bft)
19.10.2017 14:45 18,6 °C 18,6 °C 52 % 1013,7 hPa 0,0 mm 2,5 km/h (1 Bft) O-NO 75 ° 1 min 0,000 mm 2,4 UV-I 415 W/m² 8,5 °C 18,6 °C 4,8 km/h (1 Bft)
19.10.2017 14:46 18,7 °C 18,7 °C 53 % 1013,6 hPa 0,0 mm 1,5 km/h (1 Bft) O-NO 75 ° 1 min 0,000 mm 2,4 UV-I 406 W/m² 8,9 °C 18,7 °C 3,2 km/h (1 Bft)
19.10.2017 14:47 18,6 °C 18,7 °C 54 % 1013,6 hPa 0,0 mm 3,9 km/h (1 Bft) O-NO 75 ° 1 min 0,000 mm 2,4 UV-I 408 W/m² 9,1 °C 18,6 °C 4,8 km/h (1 Bft)
19.10.2017 14:48 18,7 °C 18,7 °C 50 % 1013,6 hPa 0,0 mm 1,9 km/h (1 Bft) O-NO 75 ° 1 min 0,000 mm 2,4 UV-I 415 W/m² 8,1 °C 18,7 °C 4,8 km/h (1 Bft)
19.10.2017 14:49 18,8 °C 18,8 °C 51 % 1013,6 hPa 0,0 mm 2,0 km/h (1 Bft) O-NO 75 ° 1 min 0,000 mm 2,4 UV-I 417 W/m² 8,4 °C 18,8 °C 3,2 km/h (1 Bft)
19.10.2017 14:50 18,8 °C 18,8 °C 50 % 1013,5 hPa 0,0 mm 1,5 km/h (1 Bft) O-NO 75 ° 1 min 0,000 mm 2,4 UV-I 417 W/m² 8,2 °C 18,8 °C 3,2 km/h (1 Bft)
19.10.2017 14:51 18,6 °C 18,8 °C 52 % 1013,5 hPa 0,0 mm 2,1 km/h (1 Bft) O-NO 75 ° 1 min 0,000 mm 2,4 UV-I 422 W/m² 8,5 °C 18,6 °C 3,2 km/h (1 Bft)
19.10.2017 14:52 18,6 °C 18,6 °C 47 % 1013,5 hPa 0,0 mm 0,5 km/h (0 Bft) O-NO 75 ° 1 min 0,000 mm 2,3 UV-I 417 W/m² 7,1 °C 18,6 °C 1,6 km/h (1 Bft)
19.10.2017 14:53 18,6 °C 18,6 °C 52 % 1013,5 hPa 0,0 mm 2,7 km/h (1 Bft) O-NO 75 ° 1 min 0,000 mm 2,3 UV-I 415 W/m² 8,5 °C 18,6 °C 4,8 km/h (1 Bft)
19.10.2017 14:54 18,7 °C 18,7 °C 48 % 1013,5 hPa 0,0 mm 2,6 km/h (1 Bft) O-NO 57 ° 1 min 0,000 mm 2,3 UV-I 415 W/m² 7,5 °C 18,7 °C 3,2 km/h (1 Bft)
19.10.2017 14:55 18,7 °C 18,7 °C 49 % 1013,5 hPa 0,0 mm 3,0 km/h (1 Bft) NO 41 ° 1 min 0,000 mm 2,3 UV-I 411 W/m² 7,8 °C 18,7 °C 6,4 km/h (2 Bft)
19.10.2017 14:56 18,8 °C 18,8 °C 50 % 1013,5 hPa 0,0 mm 1,7 km/h (1 Bft) NO 41 ° 1 min 0,000 mm 2,2 UV-I 399 W/m² 8,2 °C 18,8 °C 3,2 km/h (1 Bft)
19.10.2017 14:57 18,8 °C 18,9 °C 50 % 1013,5 hPa 0,0 mm 1,7 km/h (1 Bft) O-NO 69 ° 1 min 0,000 mm 2,3 UV-I 417 W/m² 8,2 °C 18,8 °C 6,4 km/h (2 Bft)
19.10.2017 14:58 18,9 °C 18,9 °C 52 % 1013,5 hPa 0,0 mm 3,4 km/h (1 Bft) O-NO 66 ° 1 min 0,000 mm 2,3 UV-I 410 W/m² 8,8 °C 18,9 °C 6,4 km/h (2 Bft)
19.10.2017 14:59 18,8 °C 18,9 °C 50 % 1013,5 hPa 0,0 mm 1,9 km/h (1 Bft) O-NO 66 ° 1 min 0,000 mm 2,3 UV-I 410 W/m² 8,2 °C 18,8 °C 3,2 km/h (1 Bft)
19.10.2017 15:00 18,8 °C 18,8 °C 48 % 1013,5 hPa 0,0 mm 0,7 km/h (0 Bft) O-NO 66 ° 1 min 0,254 mm 2,3 UV-I 415 W/m² 7,6 °C 18,8 °C 3,2 km/h (1 Bft)
19.10.2017 15:01 18,8 °C 18,8 °C 48 % 1013,5 hPa 0,0 mm 0,1 km/h (0 Bft) O-NO 66 ° 1 min 0,000 mm 2,3 UV-I 415 W/m² 7,6 °C 18,8 °C 1,6 km/h (1 Bft)
19.10.2017 15:02 18,8 °C 18,8 °C 49 % 1013,5 hPa 0,0 mm 3,6 km/h (1 Bft) O-NO 57 ° 1 min 0,000 mm 2,2 UV-I 413 W/m² 7,9 °C 18,8 °C 4,8 km/h (1 Bft)
19.10.2017 15:03 18,9 °C 18,9 °C 47 % 1013,5 hPa 0,0 mm 0,7 km/h (0 Bft) O-NO 57 ° 1 min 0,000 mm 2,2 UV-I 410 W/m² 7,3 °C 18,9 °C 3,2 km/h (1 Bft)
19.10.2017 15:04 19,1 °C 19,1 °C 48 % 1013,5 hPa 0,0 mm 0,0 km/h (0 Bft) O-NO 57 ° 1 min 0,000 mm 2,2 UV-I 413 W/m² 7,8 °C 19,1 °C 0,0 km/h (0 Bft)
19.10.2017 15:05 19,2 °C 19,2 °C 45 % 1013,5 hPa 0,0 mm 0,1 km/h (0 Bft) O-NO 57 ° 1 min 0,000 mm 2,2 UV-I 413 W/m² 7,0 °C 19,2 °C 1,6 km/h (1 Bft)
19.10.2017 15:06 19,1 °C 19,2 °C 53 % 1013,5 hPa 0,0 mm 3,0 km/h (1 Bft) O-NO 57 ° 1 min 0,000 mm 2,2 UV-I 411 W/m² 9,3 °C 19,1 °C 3,2 km/h (1 Bft)
19.10.2017 15:07 18,9 °C 19,1 °C 49 % 1013,5 hPa 0,0 mm 1,7 km/h (1 Bft) O 94 ° 1 min 0,000 mm 2,2 UV-I 410 W/m² 7,9 °C 18,9 °C 3,2 km/h (1 Bft)
19.10.2017 15:08 18,8 °C 18,9 °C 49 % 1013,5 hPa 0,0 mm 0,7 km/h (0 Bft) O 94 ° 1 min 0,000 mm 2,2 UV-I 408 W/m² 7,9 °C 18,8 °C 1,6 km/h (1 Bft)
19.10.2017 15:09 18,7 °C 18,8 °C 53 % 1013,4 hPa 0,0 mm 0,3 km/h (0 Bft) NO 44 ° 1 min 0,000 mm 2,2 UV-I 404 W/m² 8,9 °C 18,7 °C 1,6 km/h (1 Bft)
19.10.2017 15:10 18,5 °C 18,7 °C 51 % 1013,5 hPa 0,0 mm 1,3 km/h (1 Bft) NO 44 ° 1 min 0,000 mm 2,2 UV-I 401 W/m² 8,2 °C 18,5 °C 3,2 km/h (1 Bft)
19.10.2017 15:11 18,6 °C 18,6 °C 53 % 1013,4 hPa 0,0 mm 3,5 km/h (1 Bft) NO 43 ° 1 min 0,000 mm 2,1 UV-I 380 W/m² 8,8 °C 18,6 °C 6,4 km/h (2 Bft)
19.10.2017 15:12 18,7 °C 18,7 °C 51 % 1013,4 hPa 0,0 mm 3,8 km/h (1 Bft) N-NW 347 ° 1 min 0,000 mm 2,1 UV-I 380 W/m² 8,4 °C 18,7 °C 4,8 km/h (1 Bft)
19.10.2017 15:13 18,9 °C 18,9 °C 50 % 1013,5 hPa 0,0 mm 4,8 km/h (1 Bft) N 9 ° 1 min 0,000 mm 2,1 UV-I 359 W/m² 8,2 °C 18,9 °C 8,0 km/h (2 Bft)
19.10.2017 15:14 19,1 °C 19,1 °C 51 % 1013,4 hPa 0,0 mm 5,3 km/h (1 Bft) N 5 ° 1 min 0,000 mm 2,1 UV-I 397 W/m² 8,7 °C 19,1 °C 8,0 km/h (2 Bft)
19.10.2017 15:15 19,2 °C 19,2 °C 50 % 1013,4 hPa 0,0 mm 5,0 km/h (1 Bft) N-NO 18 ° 1 min 0,000 mm 2,1 UV-I 397 W/m² 8,5 °C 19,2 °C 8,0 km/h (2 Bft)
19.10.2017 15:16 19,0 °C 19,2 °C 52 % 1013,4 hPa 0,0 mm 2,1 km/h (1 Bft) N-NO 19 ° 1 min 0,000 mm 2,1 UV-I 394 W/m² 8,9 °C 19,0 °C 4,8 km/h (1 Bft)
19.10.2017 15:17 18,7 °C 19,0 °C 56 % 1013,5 hPa 0,0 mm 4,4 km/h (1 Bft) NO 40 ° 1 min 0,000 mm 2,1 UV-I 392 W/m² 9,7 °C 18,7 °C 8,0 km/h (2 Bft)
19.10.2017 15:18 18,7 °C 18,7 °C 56 % 1013,4 hPa 0,0 mm 5,2 km/h (1 Bft) N-NO 32 ° 1 min 0,000 mm 2,1 UV-I 392 W/m² 9,7 °C 18,7 °C 6,4 km/h (2 Bft)
19.10.2017 15:19 18,7 °C 18,7 °C 54 % 1013,4 hPa 0,0 mm 4,1 km/h (1 Bft) NO 40 ° 1 min 0,000 mm 2,0 UV-I 392 W/m² 9,2 °C 18,7 °C 6,4 km/h (2 Bft)
19.10.2017 15:20 18,8 °C 18,8 °C 53 % 1013,4 hPa 0,0 mm 4,8 km/h (1 Bft) N-NO 13 ° 1 min 0,000 mm 2,0 UV-I 385 W/m² 9,0 °C 18,8 °C 8,0 km/h (2 Bft)
19.10.2017 15:21 18,8 °C 18,8 °C 53 % 1013,4 hPa 0,0 mm 6,9 km/h (2 Bft) NO 42 ° 1 min 0,000 mm 2,0 UV-I 385 W/m² 9,0 °C 18,8 °C 8,0 km/h (2 Bft)
19.10.2017 15:22 18,8 °C 18,9 °C 52 % 1013,4 hPa 0,0 mm 2,1 km/h (1 Bft) NO 38 ° 1 min 0,000 mm 2,0 UV-I 381 W/m² 8,7 °C 18,8 °C 4,8 km/h (1 Bft)
19.10.2017 15:23 18,9 °C 18,9 °C 50 % 1013,3 hPa 0,0 mm 3,6 km/h (1 Bft) N 5 ° 1 min 0,000 mm 2,0 UV-I 383 W/m² 8,2 °C 18,9 °C 6,4 km/h (2 Bft)
19.10.2017 15:24 19,1 °C 19,1 °C 53 % 1013,3 hPa 0,0 mm 3,2 km/h (1 Bft) N-NO 16 ° 1 min 0,000 mm 2,0 UV-I 381 W/m² 9,3 °C 19,1 °C 4,8 km/h (1 Bft)
19.10.2017 15:25 19,1 °C 19,1 °C 52 % 1013,3 hPa 0,0 mm 1,5 km/h (1 Bft) N-NO 17 ° 1 min 0,000 mm 2,0 UV-I 378 W/m² 9,0 °C 19,1 °C 3,2 km/h (1 Bft)
19.10.2017 15:26 19,0 °C 19,1 °C 52 % 1013,3 hPa 0,0 mm 5,3 km/h (1 Bft) O 81 ° 1 min 0,000 mm 1,9 UV-I 374 W/m² 8,9 °C 19,0 °C 6,4 km/h (2 Bft)
19.10.2017 15:27 18,9 °C 19,0 °C 56 % 1013,3 hPa 0,0 mm 1,8 km/h (1 Bft) O-NO 61 ° 1 min 0,000 mm 1,9 UV-I 373 W/m² 9,9 °C 18,9 °C 4,8 km/h (1 Bft)
19.10.2017 15:28 18,7 °C 18,9 °C 54 % 1013,3 hPa 0,0 mm 1,4 km/h (1 Bft) NO 48 ° 1 min 0,000 mm 1,9 UV-I 371 W/m² 9,2 °C 18,7 °C 3,2 km/h (1 Bft)
19.10.2017 15:29 18,5 °C 18,7 °C 55 % 1013,3 hPa 0,0 mm 2,0 km/h (1 Bft) NO 49 ° 1 min 0,000 mm 1,9 UV-I 371 W/m² 9,3 °C 18,5 °C 3,2 km/h (1 Bft)
19.10.2017 15:30 18,6 °C 18,6 °C 58 % 1013,3 hPa 0,0 mm 2,0 km/h (1 Bft) NO 49 ° 1 min 0,000 mm 1,9 UV-I 369 W/m² 10,2 °C 18,6 °C 3,2 km/h (1 Bft)
19.10.2017 15:31 18,6 °C 18,6 °C 53 % 1013,3 hPa 0,0 mm 2,0 km/h (1 Bft) NO 49 ° 1 min 0,000 mm 1,9 UV-I 366 W/m² 8,8 °C 18,6 °C 3,2 km/h (1 Bft)
19.10.2017 15:32 18,6 °C 18,6 °C 53 % 1013,3 hPa 0,0 mm 3,9 km/h (1 Bft) N-NO 22 ° 1 min 0,000 mm 1,9 UV-I 362 W/m² 8,8 °C 18,6 °C 6,4 km/h (2 Bft)
19.10.2017 15:33 18,7 °C 18,7 °C 51 % 1013,2 hPa 0,0 mm 5,1 km/h (1 Bft) N-NO 22 ° 1 min 0,000 mm 1,8 UV-I 360 W/m² 8,4 °C 18,7 °C 8,0 km/h (2 Bft)
19.10.2017 15:34 18,7 °C 18,7 °C 55 % 1013,3 hPa 0,0 mm 2,3 km/h (1 Bft) NO 36 ° 1 min 0,000 mm 1,8 UV-I 359 W/m² 9,5 °C 18,7 °C 3,2 km/h (1 Bft)
19.10.2017 15:35 18,8 °C 18,8 °C 50 % 1013,2 hPa 0,0 mm 3,8 km/h (1 Bft) NO 56 ° 1 min 0,000 mm 1,8 UV-I 357 W/m² 8,2 °C 18,8 °C 6,4 km/h (2 Bft)
19.10.2017 15:36 18,7 °C 18,8 °C 54 % 1013,3 hPa 0,0 mm 0,9 km/h (0 Bft) O-NO 64 ° 1 min 0,000 mm 1,8 UV-I 357 W/m² 9,2 °C 18,7 °C 3,2 km/h (1 Bft)
19.10.2017 15:37 18,6 °C 18,7 °C 55 % 1013,3 hPa 0,0 mm 2,4 km/h (1 Bft) N-NO 33 ° 1 min 0,000 mm 1,8 UV-I 353 W/m² 9,4 °C 18,6 °C 6,4 km/h (2 Bft)
19.10.2017 15:38 18,6 °C 18,6 °C 50 % 1013,2 hPa 0,0 mm 2,2 km/h (1 Bft) NO 36 ° 1 min 0,000 mm 1,8 UV-I 350 W/m² 8,0 °C 18,6 °C 4,8 km/h (1 Bft)
19.10.2017 15:39 18,8 °C 18,8 °C 50 % 1013,2 hPa 0,0 mm 2,8 km/h (1 Bft) N-NO 32 ° 1 min 0,000 mm 1,7 UV-I 348 W/m² 8,2 °C 18,8 °C 6,4 km/h (2 Bft)
19.10.2017 15:40 18,9 °C 18,9 °C 49 % 1013,2 hPa 0,0 mm 3,1 km/h (1 Bft) N-NO 32 ° 1 min 0,000 mm 1,7 UV-I 346 W/m² 7,9 °C 18,9 °C 4,8 km/h (1 Bft)
19.10.2017 15:41 18,9 °C 18,9 °C 51 % 1013,2 hPa 0,0 mm 1,7 km/h (1 Bft) N-NO 32 ° 1 min 0,000 mm 1,7 UV-I 343 W/m² 8,5 °C 18,9 °C 4,8 km/h (1 Bft)
19.10.2017 15:42 18,8 °C 18,9 °C 53 % 1013,2 hPa 0,0 mm 2,6 km/h (1 Bft) SO 128 ° 1 min 0,000 mm 1,7 UV-I 330 W/m² 9,0 °C 18,8 °C 4,8 km/h (1 Bft)
19.10.2017 15:44 18,7 °C 18,8 °C 51 % 1013,2 hPa 0,0 mm 2,9 km/h (1 Bft) NO 49 ° 2 min 0,000 mm 1,6 UV-I 327 W/m² 8,4 °C 18,7 °C 8,0 km/h (2 Bft)
19.10.2017 15:45 18,8 °C 18,8 °C 48 % 1013,2 hPa 0,0 mm 3,7 km/h (1 Bft) O-NO 66 ° 1 min 0,000 mm 1,6 UV-I 325 W/m² 7,6 °C 18,8 °C 6,4 km/h (2 Bft)
19.10.2017 15:46 18,8 °C 18,8 °C 52 % 1013,2 hPa 0,0 mm 1,2 km/h (1 Bft) NO 52 ° 1 min 0,000 mm 1,6 UV-I 322 W/m² 8,7 °C 18,8 °C 3,2 km/h (1 Bft)
19.10.2017 15:47 18,9 °C 18,9 °C 52 % 1013,2 hPa 0,0 mm 4,5 km/h (1 Bft) NO 55 ° 1 min 0,000 mm 1,6 UV-I 318 W/m² 8,8 °C 18,9 °C 6,4 km/h (2 Bft)
19.10.2017 15:49 18,8 °C 19,0 °C 55 % 1013,2 hPa 0,0 mm 3,3 km/h (1 Bft) O-NO 58 ° 2 min 0,000 mm 1,6 UV-I 318 W/m² 9,6 °C 18,8 °C 8,0 km/h (2 Bft)
19.10.2017 15:50 18,6 °C 18,8 °C 55 % 1013,2 hPa 0,0 mm 0,9 km/h (0 Bft) O-NO 58 ° 1 min 0,000 mm 1,5 UV-I 316 W/m² 9,4 °C 18,6 °C 1,6 km/h (1 Bft)
19.10.2017 15:51 18,6 °C 18,6 °C 51 % 1013,2 hPa 0,0 mm 0,0 km/h (0 Bft) O-NO 58 ° 1 min 0,000 mm 1,5 UV-I 315 W/m² 8,3 °C 18,6 °C 0,0 km/h (0 Bft)
19.10.2017 15:52 18,6 °C 18,6 °C 51 % 1013,2 hPa 0,0 mm 0,0 km/h (0 Bft) O-NO 58 ° 1 min 0,000 mm 1,5 UV-I 311 W/m² 8,3 °C 18,6 °C 0,0 km/h (0 Bft)
19.10.2017 15:53 18,7 °C 18,7 °C 54 % 1013,2 hPa 0,0 mm 0,0 km/h (0 Bft) O-NO 58 ° 1 min 0,000 mm 1,5 UV-I 309 W/m² 9,2 °C 18,7 °C 0,0 km/h (0 Bft)
19.10.2017 15:54 18,8 °C 18,8 °C 50 % 1013,2 hPa 0,0 mm 0,0 km/h (0 Bft) O-NO 58 ° 1 min 0,000 mm 1,5 UV-I 309 W/m² 8,2 °C 18,8 °C 0,0 km/h (0 Bft)
19.10.2017 15:55 18,8 °C 18,8 °C 51 % 1013,2 hPa 0,0 mm 0,0 km/h (0 Bft) O-NO 58 ° 1 min 0,000 mm 1,5 UV-I 308 W/m² 8,4 °C 18,8 °C 0,0 km/h (0 Bft)
19.10.2017 15:56 18,8 °C 18,8 °C 49 % 1013,2 hPa 0,0 mm 1,3 km/h (1 Bft) O-NO 60 ° 1 min 0,000 mm 1,5 UV-I 301 W/m² 7,9 °C 18,8 °C 3,2 km/h (1 Bft)
19.10.2017 15:57 18,7 °C 18,8 °C 53 % 1013,2 hPa 0,0 mm 0,1 km/h (0 Bft) O-NO 60 ° 1 min 0,000 mm 1,4 UV-I 297 W/m² 8,9 °C 18,7 °C 1,6 km/h (1 Bft)
19.10.2017 15:59 18,6 °C 18,7 °C 55 % 1013,2 hPa 0,0 mm 0,9 km/h (0 Bft) O-NO 74 ° 2 min 0,000 mm 1,4 UV-I 292 W/m² 9,4 °C 18,6 °C 4,8 km/h (1 Bft)
19.10.2017 16:00 18,6 °C 18,6 °C 49 % 1013,2 hPa 0,0 mm 0,0 km/h (0 Bft) O-NO 74 ° 1 min 0,000 mm 1,4 UV-I 292 W/m² 7,7 °C 18,6 °C 0,0 km/h (0 Bft)
19.10.2017 16:01 18,6 °C 18,6 °C 53 % 1013,2 hPa 0,0 mm 1,1 km/h (1 Bft) O-NO 74 ° 0 min 0,229 mm 1,4 UV-I 288 W/m² 8,8 °C 18,6 °C 3,2 km/h (1 Bft)
19.10.2017 16:02 18,4 °C 18,6 °C 57 % 1013,2 hPa 0,0 mm 1,3 km/h (1 Bft) O-NO 74 ° 0 min 0,000 mm 1,4 UV-I 283 W/m² 9,7 °C 18,4 °C 3,2 km/h (1 Bft)
19.10.2017 16:04 18,1 °C 18,4 °C 53 % 1013,2 hPa 0,0 mm 0,9 km/h (0 Bft) O-NO 74 ° 0 min 0,000 mm 1,3 UV-I 281 W/m² 8,4 °C 18,1 °C 3,2 km/h (1 Bft)
19.10.2017 16:05 18,1 °C 18,2 °C 52 % 1013,2 hPa 0,0 mm 2,8 km/h (1 Bft) NO 46 ° 0 min 0,000 mm 1,3 UV-I 279 W/m² 8,1 °C 18,1 °C 3,2 km/h (1 Bft)
19.10.2017 16:06 18,2 °C 18,2 °C 54 % 1013,2 hPa 0,0 mm 3,5 km/h (1 Bft) NO 54 ° 0 min 0,000 mm 1,3 UV-I 269 W/m² 8,7 °C 18,2 °C 6,4 km/h (2 Bft)
19.10.2017 16:07 18,2 °C 18,2 °C 53 % 1013,1 hPa 0,0 mm 1,8 km/h (1 Bft) NO 50 ° 0 min 0,000 mm 1,3 UV-I 269 W/m² 8,5 °C 18,2 °C 3,2 km/h (1 Bft)
19.10.2017 16:08 18,2 °C 18,2 °C 54 % 1013,2 hPa 0,0 mm 0,7 km/h (0 Bft) NO 50 ° 0 min 0,000 mm 1,3 UV-I 272 W/m² 8,7 °C 18,2 °C 1,6 km/h (1 Bft)
19.10.2017 16:09 18,1 °C 18,2 °C 53 % 1013,2 hPa 0,0 mm 0,3 km/h (0 Bft) NO 50 ° 0 min 0,000 mm 1,3 UV-I 274 W/m² 8,4 °C 18,1 °C 1,6 km/h (1 Bft)
19.10.2017 16:10 18,0 °C 18,1 °C 57 % 1013,2 hPa 0,0 mm 0,0 km/h (0 Bft) NO 50 ° 0 min 0,000 mm 1,3 UV-I 272 W/m² 9,4 °C 18,0 °C 0,0 km/h (0 Bft)
19.10.2017 16:11 18,1 °C 18,1 °C 54 % 1013,2 hPa 0,0 mm 0,5 km/h (0 Bft) NO 51 ° 0 min 0,000 mm 1,2 UV-I 271 W/m² 8,6 °C 18,1 °C 3,2 km/h (1 Bft)
19.10.2017 16:12 18,1 °C 18,1 °C 55 % 1013,2 hPa 0,0 mm 2,6 km/h (1 Bft) NO 54 ° 0 min 0,000 mm 1,2 UV-I 267 W/m² 8,9 °C 18,1 °C 4,8 km/h (1 Bft)
19.10.2017 16:13 18,1 °C 18,1 °C 55 % 1013,2 hPa 0,0 mm 4,8 km/h (1 Bft) O-NO 59 ° 0 min 0,000 mm 1,2 UV-I 258 W/m² 8,9 °C 18,1 °C 9,7 km/h (2 Bft)
19.10.2017 16:14 18,2 °C 18,2 °C 54 % 1013,1 hPa 0,0 mm 3,7 km/h (1 Bft) O-NO 59 ° 0 min 0,000 mm 1,2 UV-I 255 W/m² 8,7 °C 18,2 °C 6,4 km/h (2 Bft)
19.10.2017 16:15 18,3 °C 18,3 °C 55 % 1013,1 hPa 0,0 mm 5,7 km/h (1 Bft) NO 51 ° 0 min 0,000 mm 1,2 UV-I 255 W/m² 9,1 °C 18,3 °C 8,0 km/h (2 Bft)
19.10.2017 16:16 18,2 °C 18,3 °C 56 % 1013,1 hPa 0,0 mm 3,8 km/h (1 Bft) NO 49 ° 0 min 0,000 mm 1,1 UV-I 220 W/m² 9,3 °C 18,2 °C 8,0 km/h (2 Bft)
19.10.2017 16:17 18,0 °C 18,2 °C 56 % 1013,1 hPa 0,0 mm 6,4 km/h (2 Bft) N-NO 21 ° 0 min 0,000 mm 1,0 UV-I 151 W/m² 9,1 °C 18,0 °C 8,0 km/h (2 Bft)
19.10.2017 16:18 17,8 °C 18,0 °C 58 % 1013,1 hPa 0,0 mm 3,7 km/h (1 Bft) NO 40 ° 0 min 0,000 mm 1,0 UV-I 93 W/m² 9,4 °C 17,8 °C 6,4 km/h (2 Bft)
19.10.2017 16:19 17,8 °C 17,8 °C 56 % 1013,1 hPa 0,0 mm 4,3 km/h (1 Bft) O 86 ° 0 min 0,000 mm 0,9 UV-I 53 W/m² 8,9 °C 17,8 °C 11,3 km/h (2 Bft)
19.10.2017 16:20 17,8 °C 17,8 °C 56 % 1013,1 hPa 0,0 mm 8,3 km/h (2 Bft) N-NO 30 ° 0 min 0,000 mm 0,0 UV-I 51 W/m² 8,9 °C 17,8 °C 12,9 km/h (3 Bft)
19.10.2017 16:21 17,9 °C 17,9 °C 55 % 1013,1 hPa 0,0 mm 6,0 km/h (2 Bft) O-NO 66 ° 0 min 0,000 mm 0,0 UV-I 47 W/m² 8,7 °C 17,9 °C 9,7 km/h (2 Bft)
19.10.2017 16:22 18,0 °C 18,0 °C 56 % 1013,1 hPa 0,0 mm 3,6 km/h (1 Bft) O 83 ° 0 min 0,000 mm 0,0 UV-I 42 W/m² 9,1 °C 18,0 °C 4,8 km/h (1 Bft)
19.10.2017 16:23 18,1 °C 18,1 °C 56 % 1013,1 hPa 0,0 mm 5,1 km/h (1 Bft) O-NO 69 ° 0 min 0,000 mm 0,0 UV-I 42 W/m² 9,2 °C 18,1 °C 11,3 km/h (2 Bft)
19.10.2017 16:24 18,0 °C 18,1 °C 59 % 1013,1 hPa 0,0 mm 6,4 km/h (2 Bft) NO 49 ° 0 min 0,000 mm 0,0 UV-I 42 W/m² 9,9 °C 18,0 °C 8,0 km/h (2 Bft)
19.10.2017 16:25 17,9 °C 18,0 °C 59 % 1013,1 hPa 0,0 mm 6,6 km/h (2 Bft) NO 44 ° 0 min 0,000 mm 0,0 UV-I 40 W/m² 9,8 °C 17,9 °C 9,7 km/h (2 Bft)
19.10.2017 16:26 17,8 °C 17,9 °C 59 % 1013,1 hPa 0,0 mm 2,4 km/h (1 Bft) O-NO 57 ° 0 min 0,000 mm 0,0 UV-I 40 W/m² 9,7 °C 17,8 °C 4,8 km/h (1 Bft)
19.10.2017 16:27 17,6 °C 17,8 °C 59 % 1013,1 hPa 0,0 mm 5,3 km/h (1 Bft) NO 49 ° 0 min 0,000 mm 0,0 UV-I 46 W/m² 9,5 °C 17,6 °C 8,0 km/h (2 Bft)
19.10.2017 16:28 17,6 °C 17,6 °C 59 % 1013,1 hPa 0,0 mm 4,1 km/h (1 Bft) O-NO 60 ° 0 min 0,000 mm 0,0 UV-I 49 W/m² 9,5 °C 17,6 °C 6,4 km/h (2 Bft)
19.10.2017 16:29 17,6 °C 17,6 °C 58 % 1013,1 hPa 0,0 mm 6,1 km/h (2 Bft) NO 39 ° 0 min 0,000 mm 0,0 UV-I 49 W/m² 9,2 °C 17,6 °C 9,7 km/h (2 Bft)
19.10.2017 16:30 17,6 °C 17,6 °C 59 % 1013,1 hPa 0,0 mm 5,0 km/h (1 Bft) O-NO 73 ° 0 min 0,000 mm 0,0 UV-I 44 W/m² 9,5 °C 17,6 °C 8,0 km/h (2 Bft)
19.10.2017 16:31 17,6 °C 17,6 °C 58 % 1013,1 hPa 0,0 mm 3,5 km/h (1 Bft) O-NO 74 ° 0 min 0,000 mm 0,0 UV-I 35 W/m² 9,2 °C 17,6 °C 4,8 km/h (1 Bft)
19.10.2017 16:32 17,5 °C 17,6 °C 59 % 1013,1 hPa 0,0 mm 3,6 km/h (1 Bft) O 85 ° 0 min 0,000 mm 0,0 UV-I 35 W/m² 9,4 °C 17,5 °C 6,4 km/h (2 Bft)
19.10.2017 16:33 17,5 °C 17,5 °C 59 % 1013,1 hPa 0,0 mm 4,4 km/h (1 Bft) NO 45 ° 0 min 0,000 mm 0,0 UV-I 35 W/m² 9,4 °C 17,5 °C 6,4 km/h (2 Bft)
19.10.2017 16:34 17,5 °C 17,5 °C 58 % 1013,1 hPa 0,0 mm 5,6 km/h (1 Bft) O 98 ° 0 min 0,000 mm 0,0 UV-I 33 W/m² 9,1 °C 17,5 °C 9,7 km/h (2 Bft)
19.10.2017 16:35 17,6 °C 17,6 °C 57 % 1013,0 hPa 0,0 mm 6,4 km/h (2 Bft) NO 51 ° 0 min 0,000 mm 0,0 UV-I 35 W/m² 9,0 °C 17,6 °C 9,7 km/h (2 Bft)
19.10.2017 16:36 17,7 °C 17,7 °C 56 % 1013,0 hPa 0,0 mm 4,0 km/h (1 Bft) NO 46 ° 0 min 0,000 mm 0,0 UV-I 33 W/m² 8,8 °C 17,7 °C 6,4 km/h (2 Bft)
19.10.2017 16:37 17,7 °C 17,7 °C 56 % 1013,0 hPa 0,0 mm 3,2 km/h (1 Bft) NO 46 ° 0 min 0,000 mm 0,0 UV-I 33 W/m² 8,8 °C 17,7 °C 3,2 km/h (1 Bft)
19.10.2017 16:38 17,7 °C 17,8 °C 60 % 1013,0 hPa 0,0 mm 4,8 km/h (1 Bft) O-NO 67 ° 0 min 0,000 mm 0,0 UV-I 33 W/m² 9,8 °C 17,7 °C 4,8 km/h (1 Bft)
19.10.2017 16:39 17,5 °C 17,7 °C 58 % 1013,0 hPa 0,0 mm 4,8 km/h (1 Bft) O 90 ° 0 min 0,000 mm 0,0 UV-I 33 W/m² 9,1 °C 17,5 °C 9,7 km/h (2 Bft)
19.10.2017 16:40 17,4 °C 17,5 °C 59 % 1013,0 hPa 0,0 mm 3,2 km/h (1 Bft) O 90 ° 0 min 0,000 mm 0,0 UV-I 33 W/m² 9,3 °C 17,4 °C 6,4 km/h (2 Bft)
19.10.2017 16:41 17,3 °C 17,4 °C 60 % 1013,0 hPa 0,0 mm 1,6 km/h (1 Bft) O-NO 67 ° 0 min 0,000 mm 0,0 UV-I 32 W/m² 9,5 °C 17,3 °C 3,2 km/h (1 Bft)
19.10.2017 16:42 17,3 °C 17,3 °C 59 % 1013,0 hPa 0,0 mm 0,0 km/h (0 Bft) N 0 ° 0 min 0,000 mm 0,0 UV-I 32 W/m² 9,2 °C 17,3 °C 0,0 km/h (0 Bft)
19.10.2017 16:43 17,3 °C 17,3 °C 59 % 1012,9 hPa 0,0 mm 0,0 km/h (0 Bft) O-NO 67 ° 0 min 0,000 mm 0,0 UV-I 32 W/m² 9,2 °C 17,3 °C 3,2 km/h (1 Bft)
19.10.2017 16:44 17,3 °C 17,3 °C 60 % 1012,9 hPa 0,0 mm 3,2 km/h (1 Bft) O-NO 67 ° 0 min 0,000 mm 0,0 UV-I 32 W/m² 9,5 °C 17,3 °C 4,8 km/h (1 Bft)
19.10.2017 16:45 17,2 °C 17,3 °C 61 % 1013,0 hPa 0,0 mm 1,6 km/h (1 Bft) NO 45 ° 0 min 0,000 mm 0,0 UV-I 32 W/m² 9,6 °C 17,2 °C 3,2 km/h (1 Bft)
19.10.2017 16:46 17,1 °C 17,1 °C 61 % 1012,9 hPa 0,0 mm 1,6 km/h (1 Bft) NO 45 ° 0 min 0,000 mm 0,0 UV-I 32 W/m² 9,5 °C 17,1 °C 3,2 km/h (1 Bft)
19.10.2017 16:48 16,9 °C 17,1 °C 62 % 1012,9 hPa 0,0 mm 0,5 km/h (0 Bft) NO 56 ° 0 min 0,000 mm 0,0 UV-I 30 W/m² 9,6 °C 16,9 °C 1,6 km/h (1 Bft)
19.10.2017 16:49 16,9 °C 16,9 °C 61 % 1012,9 hPa 0,0 mm 3,5 km/h (1 Bft) NO 54 ° 0 min 0,000 mm 0,0 UV-I 30 W/m² 9,3 °C 16,9 °C 6,4 km/h (2 Bft)
19.10.2017 16:50 16,8 °C 16,9 °C 61 % 1012,9 hPa 0,0 mm 0,4 km/h (0 Bft) NO 54 ° 0 min 0,000 mm 0,0 UV-I 30 W/m² 9,2 °C 16,8 °C 3,2 km/h (1 Bft)
19.10.2017 16:51 16,9 °C 16,9 °C 61 % 1012,9 hPa 0,0 mm 0,0 km/h (0 Bft) NO 54 ° 0 min 0,000 mm 0,0 UV-I 30 W/m² 9,3 °C 16,9 °C 0,0 km/h (0 Bft)
19.10.2017 16:52 16,9 °C 16,9 °C 62 % 1012,9 hPa 0,0 mm 1,5 km/h (1 Bft) NO 53 ° 0 min 0,000 mm 0,0 UV-I 30 W/m² 9,6 °C 16,9 °C 4,8 km/h (1 Bft)
19.10.2017 16:53 16,9 °C 16,9 °C 61 % 1012,9 hPa 0,0 mm 3,8 km/h (1 Bft) NO 50 ° 0 min 0,000 mm 0,0 UV-I 30 W/m² 9,3 °C 16,9 °C 6,4 km/h (2 Bft)
19.10.2017 16:54 16,9 °C 16,9 °C 60 % 1012,9 hPa 0,0 mm 2,6 km/h (1 Bft) NO 50 ° 0 min 0,000 mm 0,0 UV-I 30 W/m² 9,1 °C 16,9 °C 3,2 km/h (1 Bft)
19.10.2017 16:55 16,9 °C 16,9 °C 61 % 1013,0 hPa 0,0 mm 1,4 km/h (1 Bft) O-NO 76 ° 0 min 0,000 mm 0,0 UV-I 30 W/m² 9,3 °C 16,9 °C 3,2 km/h (1 Bft)
19.10.2017 16:56 16,8 °C 16,9 °C 61 % 1012,9 hPa 0,0 mm 1,4 km/h (1 Bft) O-NO 76 ° 0 min 0,000 mm 0,0 UV-I 30 W/m² 9,2 °C 16,8 °C 3,2 km/h (1 Bft)
19.10.2017 16:57 16,7 °C 16,8 °C 61 % 1012,9 hPa 0,0 mm 0,9 km/h (0 Bft) NO 44 ° 0 min 0,000 mm 0,0 UV-I 30 W/m² 9,1 °C 16,7 °C 6,4 km/h (2 Bft)
19.10.2017 16:58 16,7 °C 16,7 °C 60 % 1013,0 hPa 0,0 mm 3,0 km/h (1 Bft) NO 54 ° 0 min 0,000 mm 0,0 UV-I 30 W/m² 8,9 °C 16,7 °C 6,4 km/h (2 Bft)
19.10.2017 16:59 16,6 °C 16,7 °C 61 % 1013,0 hPa 0,0 mm 4,4 km/h (1 Bft) O-NO 64 ° 0 min 0,000 mm 0,0 UV-I 30 W/m² 9,0 °C 16,6 °C 8,0 km/h (2 Bft)
19.10.2017 17:00 16,6 °C 16,6 °C 61 % 1013,0 hPa 0,0 mm 1,1 km/h (1 Bft) O-NO 64 ° 0 min 0,076 mm 0,0 UV-I 28 W/m² 9,0 °C 16,6 °C 3,2 km/h (1 Bft)
19.10.2017 17:01 16,7 °C 16,7 °C 59 % 1013,0 hPa 0,0 mm 0,0 km/h (0 Bft) O-NO 64 ° 0 min 0,000 mm 0,0 UV-I 28 W/m² 8,6 °C 16,7 °C 0,0 km/h (0 Bft)
19.10.2017 17:02 16,7 °C 16,7 °C 60 % 1013,0 hPa 0,0 mm 0,5 km/h (0 Bft) O-NO 64 ° 0 min 0,000 mm 0,0 UV-I 28 W/m² 8,9 °C 16,7 °C 3,2 km/h (1 Bft)
19.10.2017 17:03 16,7 °C 16,7 °C 59 % 1013,0 hPa 0,0 mm 1,1 km/h (1 Bft) O-NO 64 ° 0 min 0,000 mm 0,0 UV-I 28 W/m² 8,6 °C 16,7 °C 3,2 km/h (1 Bft)
19.10.2017 17:04 16,8 °C 16,8 °C 58 % 1013,0 hPa 0,0 mm 0,5 km/h (0 Bft) O-NO 64 ° 0 min 0,000 mm 0,0 UV-I 28 W/m² 8,5 °C 16,8 °C 1,6 km/h (1 Bft)
19.10.2017 17:05 16,7 °C 16,8 °C 60 % 1013,0 hPa 0,0 mm 0,0 km/h (0 Bft) O-NO 64 ° 0 min 0,000 mm 0,0 UV-I 28 W/m² 8,9 °C 16,7 °C 0,0 km/h (0 Bft)
19.10.2017 17:06 16,6 °C 16,7 °C 60 % 1013,0 hPa 0,0 mm 0,0 km/h (0 Bft) O-NO 64 ° 0 min 0,000 mm 0,0 UV-I 28 W/m² 8,8 °C 16,6 °C 0,0 km/h (0 Bft)
19.10.2017 17:07 16,6 °C 16,6 °C 60 % 1013,0 hPa 0,0 mm 0,0 km/h (0 Bft) O-NO 64 ° 0 min 0,000 mm 0,0 UV-I 28 W/m² 8,8 °C 16,6 °C 0,0 km/h (0 Bft)
19.10.2017 17:08 16,4 °C 16,6 °C 61 % 1013,0 hPa 0,0 mm 0,0 km/h (0 Bft) O-NO 64 ° 0 min 0,000 mm 0,0 UV-I 28 W/m² 8,9 °C 16,4 °C 0,0 km/h (0 Bft)
19.10.2017 17:09 16,3 °C 16,4 °C 58 % 1012,9 hPa 0,0 mm 0,0 km/h (0 Bft) O-NO 64 ° 0 min 0,000 mm 0,0 UV-I 28 W/m² 8,0 °C 16,3 °C 0,0 km/h (0 Bft)
19.10.2017 17:10 16,4 °C 16,4 °C 58 % 1012,9 hPa 0,0 mm 0,0 km/h (0 Bft) O-NO 64 ° 0 min 0,000 mm 0,0 UV-I 28 W/m² 8,1 °C 16,4 °C 0,0 km/h (0 Bft)
19.10.2017 17:11 16,6 °C 16,6 °C 58 % 1012,9 hPa 0,0 mm 0,6 km/h (0 Bft) O-NO 64 ° 0 min 0,000 mm 0,0 UV-I 26 W/m² 8,3 °C 16,6 °C 1,6 km/h (1 Bft)
19.10.2017 17:12 16,6 °C 16,6 °C 57 % 1012,9 hPa 0,0 mm 0,8 km/h (0 Bft) O-NO 64 ° 0 min 0,000 mm 0,0 UV-I 26 W/m² 8,0 °C 16,6 °C 3,2 km/h (1 Bft)
19.10.2017 17:13 16,7 °C 16,7 °C 57 % 1012,9 hPa 0,0 mm 0,9 km/h (0 Bft) O-NO 64 ° 0 min 0,000 mm 0,0 UV-I 26 W/m² 8,1 °C 16,7 °C 3,2 km/h (1 Bft)
19.10.2017 17:14 16,6 °C 16,7 °C 59 % 1013,0 hPa 0,0 mm 0,0 km/h (0 Bft) O-NO 64 ° 0 min 0,000 mm 0,0 UV-I 26 W/m² 8,6 °C 16,6 °C 0,0 km/h (0 Bft)
19.10.2017 17:15 16,6 °C 16,6 °C 60 % 1013,0 hPa 0,0 mm 0,0 km/h (0 Bft) O-NO 64 ° 0 min 0,000 mm 0,0 UV-I 26 W/m² 8,8 °C 16,6 °C 0,0 km/h (0 Bft)
19.10.2017 17:16 16,3 °C 16,6 °C 59 % 1013,0 hPa 0,0 mm 0,0 km/h (0 Bft) O-NO 64 ° 0 min 0,000 mm 0,0 UV-I 26 W/m² 8,3 °C 16,3 °C 0,0 km/h (0 Bft)
19.10.2017 17:17 16,3 °C 16,3 °C 61 % 1012,9 hPa 0,0 mm 0,0 km/h (0 Bft) O-NO 64 ° 0 min 0,000 mm 0,0 UV-I 26 W/m² 8,8 °C 16,3 °C 0,0 km/h (0 Bft)
19.10.2017 17:18 16,2 °C 16,3 °C 60 % 1013,0 hPa 0,0 mm 0,0 km/h (0 Bft) O-NO 64 ° 0 min 0,000 mm 0,0 UV-I 26 W/m² 8,4 °C 16,2 °C 0,0 km/h (0 Bft)
19.10.2017 17:19 16,2 °C 16,2 °C 60 % 1013,0 hPa 0,0 mm 0,0 km/h (0 Bft) O-NO 64 ° 0 min 0,000 mm 0,0 UV-I 26 W/m² 8,4 °C 16,2 °C 0,0 km/h (0 Bft)
19.10.2017 17:20 16,3 °C 16,3 °C 59 % 1013,0 hPa 0,0 mm 0,0 km/h (0 Bft) O-NO 64 ° 0 min 0,000 mm 0,0 UV-I 26 W/m² 8,3 °C 16,3 °C 0,0 km/h (0 Bft)
19.10.2017 17:21 16,3 °C 16,3 °C 59 % 1013,0 hPa 0,0 mm 1,2 km/h (1 Bft) O-NO 64 ° 0 min 0,000 mm 0,0 UV-I 26 W/m² 8,3 °C 16,3 °C 3,2 km/h (1 Bft)
19.10.2017 17:22 16,3 °C 16,4 °C 60 % 1013,0 hPa 0,0 mm 0,5 km/h (0 Bft) O-NO 64 ° 0 min 0,000 mm 0,0 UV-I 26 W/m² 8,5 °C 16,3 °C 1,6 km/h (1 Bft)
19.10.2017 17:23 16,3 °C 16,4 °C 61 % 1013,0 hPa 0,0 mm 0,0 km/h (0 Bft) O-NO 64 ° 0 min 0,000 mm 0,0 UV-I 26 W/m² 8,8 °C 16,3 °C 0,0 km/h (0 Bft)
19.10.2017 17:24 16,4 °C 16,4 °C 59 % 1013,0 hPa 0,0 mm 0,0 km/h (0 Bft) O-NO 64 ° 0 min 0,000 mm 0,0 UV-I 25 W/m² 8,4 °C 16,4 °C 0,0 km/h (0 Bft)
19.10.2017 17:25 16,6 °C 16,6 °C 59 % 1013,0 hPa 0,0 mm 0,0 km/h (0 Bft) O-NO 64 ° 0 min 0,000 mm 0,0 UV-I 25 W/m² 8,6 °C 16,6 °C 0,0 km/h (0 Bft)
19.10.2017 17:26 16,7 °C 16,7 °C 58 % 1013,0 hPa 0,0 mm 0,0 km/h (0 Bft) O-NO 64 ° 0 min 0,000 mm 0,0 UV-I 26 W/m² 8,4 °C 16,7 °C 0,0 km/h (0 Bft)
19.10.2017 17:27 16,8 °C 16,8 °C 61 % 1013,0 hPa 0,0 mm 0,0 km/h (0 Bft) O-NO 64 ° 0 min 0,000 mm 0,0 UV-I 26 W/m² 9,2 °C 16,8 °C 0,0 km/h (0 Bft)
19.10.2017 17:28 16,6 °C 16,8 °C 61 % 1013,0 hPa 0,0 mm 2,0 km/h (1 Bft) O-NO 64 ° 0 min 0,000 mm 0,0 UV-I 25 W/m² 9,0 °C 16,6 °C 3,2 km/h (1 Bft)
19.10.2017 17:29 16,4 °C 16,6 °C 62 % 1013,0 hPa 0,0 mm 1,9 km/h (1 Bft) O-NO 64 ° 0 min 0,000 mm 0,0 UV-I 25 W/m² 9,1 °C 16,4 °C 3,2 km/h (1 Bft)
19.10.2017 17:30 16,3 °C 16,4 °C 62 % 1013,0 hPa 0,0 mm 1,1 km/h (1 Bft) O-NO 64 ° 0 min 0,000 mm 0,0 UV-I 25 W/m² 9,0 °C 16,3 °C 3,2 km/h (1 Bft)
19.10.2017 17:31 16,3 °C 16,3 °C 61 % 1013,0 hPa 0,0 mm 0,7 km/h (0 Bft) O-NO 64 ° 0 min 0,000 mm 0,0 UV-I 23 W/m² 8,8 °C 16,3 °C 3,2 km/h (1 Bft)
19.10.2017 17:32 16,2 °C 16,3 °C 62 % 1013,0 hPa 0,0 mm 0,9 km/h (0 Bft) O-NO 64 ° 0 min 0,000 mm 0,0 UV-I 23 W/m² 8,9 °C 16,2 °C 3,2 km/h (1 Bft)
19.10.2017 17:33 16,2 °C 16,2 °C 62 % 1013,0 hPa 0,0 mm 0,9 km/h (0 Bft) O-NO 64 ° 0 min 0,000 mm 0,0 UV-I 23 W/m² 8,9 °C 16,2 °C 1,6 km/h (1 Bft)
19.10.2017 17:34 16,3 °C 16,3 °C 61 % 1013,0 hPa 0,0 mm 0,2 km/h (0 Bft) O-NO 64 ° 0 min 0,000 mm 0,0 UV-I 23 W/m² 8,8 °C 16,3 °C 1,6 km/h (1 Bft)
19.10.2017 17:35 16,3 °C 16,4 °C 62 % 1013,0 hPa 0,0 mm 1,4 km/h (1 Bft) O-NO 64 ° 0 min 0,000 mm 0,0 UV-I 23 W/m² 9,0 °C 16,3 °C 3,2 km/h (1 Bft)
19.10.2017 17:36 16,4 °C 16,4 °C 62 % 1013,0 hPa 0,0 mm 1,3 km/h (1 Bft) O-NO 64 ° 0 min 0,000 mm 0,0 UV-I 21 W/m² 9,1 °C 16,4 °C 3,2 km/h (1 Bft)
19.10.2017 17:37 16,4 °C 16,4 °C 62 % 1013,0 hPa 0,0 mm 2,4 km/h (1 Bft) O-NO 64 ° 0 min 0,000 mm 0,0 UV-I 21 W/m² 9,1 °C 16,4 °C 3,2 km/h (1 Bft)
19.10.2017 17:39 16,4 °C 16,4 °C 62 % 1013,0 hPa 0,0 mm 2,1 km/h (1 Bft) O-NO 64 ° 0 min 0,000 mm 0,0 UV-I 21 W/m² 9,1 °C 16,4 °C 3,2 km/h (1 Bft)
19.10.2017 17:40 16,4 °C 16,4 °C 61 % 1013,0 hPa 0,0 mm 0,5 km/h (0 Bft) O-NO 64 ° 0 min 0,000 mm 0,0 UV-I 21 W/m² 8,9 °C 16,4 °C 1,6 km/h (1 Bft)
19.10.2017 17:41 16,5 °C 16,5 °C 62 % 1013,0 hPa 0,0 mm 1,7 km/h (1 Bft) O-NO 64 ° 0 min 0,000 mm 0,0 UV-I 21 W/m² 9,2 °C 16,5 °C 3,2 km/h (1 Bft)
19.10.2017 17:42 16,5 °C 16,5 °C 61 % 1013,0 hPa 0,0 mm 1,9 km/h (1 Bft) O-NO 64 ° 0 min 0,000 mm 0,0 UV-I 21 W/m² 9,0 °C 16,5 °C 3,2 km/h (1 Bft)
19.10.2017 17:43 16,4 °C 16,5 °C 62 % 1013,0 hPa 0,0 mm 2,4 km/h (1 Bft) O-NO 64 ° 0 min 0,000 mm 0,0 UV-I 21 W/m² 9,1 °C 16,4 °C 3,2 km/h (1 Bft)
19.10.2017 17:44 16,4 °C 16,4 °C 62 % 1013,0 hPa 0,0 mm 3,6 km/h (1 Bft) O-NO 64 ° 0 min 0,000 mm 0,0 UV-I 21 W/m² 9,1 °C 16,4 °C 4,8 km/h (1 Bft)
19.10.2017 17:45 16,4 °C 16,4 °C 62 % 1013,0 hPa 0,0 mm 2,9 km/h (1 Bft) O-NO 64 ° 0 min 0,000 mm 0,0 UV-I 21 W/m² 9,1 °C 16,4 °C 4,8 km/h (1 Bft)
19.10.2017 17:46 16,3 °C 16,4 °C 62 % 1013,0 hPa 0,0 mm 1,8 km/h (1 Bft) O-NO 64 ° 0 min 0,000 mm 0,0 UV-I 21 W/m² 9,0 °C 16,3 °C 3,2 km/h (1 Bft)
19.10.2017 17:47 16,3 °C 16,3 °C 63 % 1013,1 hPa 0,0 mm 2,7 km/h (1 Bft) O-NO 64 ° 0 min 0,000 mm 0,0 UV-I 19 W/m² 9,2 °C 16,3 °C 3,2 km/h (1 Bft)
19.10.2017 17:48 16,2 °C 16,3 °C 63 % 1013,1 hPa 0,0 mm 3,0 km/h (1 Bft) O-NO 64 ° 0 min 0,000 mm 0,0 UV-I 19 W/m² 9,1 °C 16,2 °C 3,2 km/h (1 Bft)
19.10.2017 17:49 16,2 °C 16,2 °C 63 % 1013,1 hPa 0,0 mm 2,2 km/h (1 Bft) O-NO 64 ° 0 min 0,000 mm 0,0 UV-I 19 W/m² 9,1 °C 16,2 °C 3,2 km/h (1 Bft)
19.10.2017 17:50 16,1 °C 16,2 °C 64 % 1013,1 hPa 0,0 mm 2,7 km/h (1 Bft) O-NO 64 ° 0 min 0,000 mm 0,0 UV-I 19 W/m² 9,3 °C 16,1 °C 3,2 km/h (1 Bft)
19.10.2017 17:51 16,0 °C 16,1 °C 63 % 1013,1 hPa 0,0 mm 2,9 km/h (1 Bft) O-NO 64 ° 0 min 0,000 mm 0,0 UV-I 19 W/m² 9,0 °C 16,0 °C 3,2 km/h (1 Bft)
19.10.2017 17:52 15,9 °C 16,0 °C 64 % 1013,1 hPa 0,0 mm 2,3 km/h (1 Bft) O-NO 64 ° 0 min 0,000 mm 0,0 UV-I 19 W/m² 9,1 °C 15,9 °C 3,2 km/h (1 Bft)
19.10.2017 17:54 15,8 °C 15,9 °C 65 % 1013,1 hPa 0,0 mm 2,0 km/h (1 Bft) O-NO 64 ° 0 min 0,000 mm 0,0 UV-I 19 W/m² 9,2 °C 15,8 °C 3,2 km/h (1 Bft)
19.10.2017 17:55 15,8 °C 15,8 °C 65 % 1013,1 hPa 0,0 mm 3,0 km/h (1 Bft) O-NO 64 ° 0 min 0,000 mm 0,0 UV-I 18 W/m² 9,2 °C 15,8 °C 3,2 km/h (1 Bft)
19.10.2017 17:56 15,7 °C 15,8 °C 65 % 1013,1 hPa 0,0 mm 2,7 km/h (1 Bft) O-NO 64 ° 0 min 0,000 mm 0,0 UV-I 18 W/m² 9,1 °C 15,7 °C 4,8 km/h (1 Bft)
19.10.2017 17:57 15,6 °C 15,7 °C 66 % 1013,1 hPa 0,0 mm 1,9 km/h (1 Bft) O-NO 64 ° 0 min 0,000 mm 0,0 UV-I 18 W/m² 9,3 °C 15,6 °C 3,2 km/h (1 Bft)
19.10.2017 17:59 15,3 °C 15,6 °C 67 % 1013,2 hPa 0,0 mm 0,2 km/h (0 Bft) O-NO 64 ° 0 min 0,000 mm 0,0 UV-I 16 W/m² 9,2 °C 15,3 °C 1,6 km/h (1 Bft)
19.10.2017 18:00 15,0 °C 15,3 °C 68 % 1013,2 hPa 0,0 mm 0,0 km/h (0 Bft) O-NO 64 ° 0 min 0,025 mm 0,0 UV-I 16 W/m² 9,1 °C 15,0 °C 0,0 km/h (0 Bft)
19.10.2017 18:01 14,6 °C 15,0 °C 69 % 1013,2 hPa 0,0 mm 0,0 km/h (0 Bft) O-NO 64 ° 0 min 0,000 mm 0,0 UV-I 14 W/m² 9,0 °C 14,6 °C 0,0 km/h (0 Bft)
19.10.2017 18:02 14,3 °C 14,6 °C 71 % 1013,2 hPa 0,0 mm 0,6 km/h (0 Bft) O-NO 64 ° 0 min 0,000 mm 0,0 UV-I 14 W/m² 9,1 °C 14,3 °C 1,6 km/h (1 Bft)
19.10.2017 18:03 14,3 °C 14,3 °C 71 % 1013,2 hPa 0,0 mm 2,1 km/h (1 Bft) O-NO 64 ° 0 min 0,000 mm 0,0 UV-I 14 W/m² 9,1 °C 14,3 °C 3,2 km/h (1 Bft)
19.10.2017 18:04 14,4 °C 14,4 °C 70 % 1013,2 hPa 0,0 mm 1,7 km/h (1 Bft) O-NO 64 ° 0 min 0,000 mm 0,0 UV-I 14 W/m² 9,0 °C 14,4 °C 3,2 km/h (1 Bft)
19.10.2017 18:05 14,5 °C 14,5 °C 70 % 1013,2 hPa 0,0 mm 2,4 km/h (1 Bft) O-NO 64 ° 0 min 0,000 mm 0,0 UV-I 12 W/m² 9,1 °C 14,5 °C 3,2 km/h (1 Bft)
19.10.2017 18:06 14,6 °C 14,6 °C 70 % 1013,3 hPa 0,0 mm 3,4 km/h (1 Bft) O-NO 65 ° 0 min 0,000 mm 0,0 UV-I 12 W/m² 9,2 °C 14,6 °C 4,8 km/h (1 Bft)
19.10.2017 18:07 14,7 °C 14,7 °C 70 % 1013,2 hPa 0,0 mm 2,9 km/h (1 Bft) O-NO 65 ° 0 min 0,000 mm 0,0 UV-I 12 W/m² 9,3 °C 14,7 °C 4,8 km/h (1 Bft)
19.10.2017 18:08 14,7 °C 14,7 °C 69 % 1013,2 hPa 0,0 mm 2,1 km/h (1 Bft) O-NO 65 ° 0 min 0,000 mm 0,0 UV-I 11 W/m² 9,1 °C 14,7 °C 3,2 km/h (1 Bft)
19.10.2017 18:09 14,8 °C 14,8 °C 69 % 1013,2 hPa 0,0 mm 2,3 km/h (1 Bft) O-NO 65 ° 0 min 0,000 mm 0,0 UV-I 11 W/m² 9,2 °C 14,8 °C 3,2 km/h (1 Bft)
19.10.2017 18:10 14,8 °C 14,8 °C 69 % 1013,2 hPa 0,0 mm 2,3 km/h (1 Bft) O-NO 65 ° 0 min 0,000 mm 0,0 UV-I 9 W/m² 9,2 °C 14,8 °C 3,2 km/h (1 Bft)
19.10.2017 18:11 14,8 °C 14,8 °C 69 % 1013,2 hPa 0,0 mm 2,1 km/h (1 Bft) O-NO 65 ° 0 min 0,000 mm 0,0 UV-I 9 W/m² 9,2 °C 14,8 °C 3,2 km/h (1 Bft)
19.10.2017 18:12 14,7 °C 14,8 °C 70 % 1013,2 hPa 0,0 mm 2,4 km/h (1 Bft) O-NO 65 ° 0 min 0,000 mm 0,0 UV-I 7 W/m² 9,3 °C 14,7 °C 3,2 km/h (1 Bft)
19.10.2017 18:14 14,7 °C 14,7 °C 70 % 1013,2 hPa 0,0 mm 0,9 km/h (0 Bft) O-NO 65 ° 0 min 0,000 mm 0,0 UV-I 7 W/m² 9,3 °C 14,7 °C 1,6 km/h (1 Bft)
19.10.2017 18:15 14,6 °C 14,7 °C 69 % 1013,2 hPa 0,0 mm 0,1 km/h (0 Bft) O-NO 65 ° 0 min 0,000 mm 0,0 UV-I 7 W/m² 9,0 °C 14,6 °C 1,6 km/h (1 Bft)
19.10.2017 18:16 14,6 °C 14,7 °C 69 % 1013,2 hPa 0,0 mm 1,6 km/h (1 Bft) O-NO 65 ° 0 min 0,000 mm 0,0 UV-I 5 W/m² 9,0 °C 14,6 °C 3,2 km/h (1 Bft)
19.10.2017 18:17 14,7 °C 14,7 °C 69 % 1013,2 hPa 0,0 mm 1,8 km/h (1 Bft) O-NO 65 ° 0 min 0,000 mm 0,0 UV-I 5 W/m² 9,1 °C 14,7 °C 3,2 km/h (1 Bft)
19.10.2017 18:19 14,7 °C 14,7 °C 68 % 1013,2 hPa 0,0 mm 0,2 km/h (0 Bft) O-NO 65 ° 0 min 0,000 mm 0,0 UV-I 0 W/m² 8,9 °C 14,7 °C 1,6 km/h (1 Bft)
19.10.2017 18:20 14,7 °C 14,7 °C 69 % 1013,2 hPa 0,0 mm 0,0 km/h (0 Bft) O-NO 65 ° 0 min 0,000 mm 0,0 UV-I 0 W/m² 9,1 °C 14,7 °C 0,0 km/h (0 Bft)
19.10.2017 18:21 14,6 °C 14,7 °C 69 % 1013,2 hPa 0,0 mm 0,0 km/h (0 Bft) O-NO 65 ° 0 min 0,000 mm 0,0 UV-I 0 W/m² 9,0 °C 14,6 °C 0,0 km/h (0 Bft)
19.10.2017 18:22 14,2 °C 14,6 °C 70 % 1013,2 hPa 0,0 mm 0,0 km/h (0 Bft) O-NO 65 ° 0 min 0,000 mm 0,0 UV-I 0 W/m² 8,8 °C 14,2 °C 0,0 km/h (0 Bft)
19.10.2017 18:23 13,8 °C 14,2 °C 71 % 1013,2 hPa 0,0 mm 0,0 km/h (0 Bft) O-NO 65 ° 0 min 0,000 mm 0,0 UV-I 0 W/m² 8,6 °C 13,8 °C 0,0 km/h (0 Bft)
19.10.2017 18:24 13,5 °C 13,8 °C 72 % 1013,2 hPa 0,0 mm 0,0 km/h (0 Bft) O-NO 65 ° 0 min 0,000 mm 0,0 UV-I 0 W/m² 8,6 °C 13,5 °C 0,0 km/h (0 Bft)
19.10.2017 18:25 13,2 °C 13,5 °C 73 % 1013,1 hPa 0,0 mm 0,0 km/h (0 Bft) O-NO 65 ° 0 min 0,000 mm 0,0 UV-I 0 W/m² 8,5 °C 13,2 °C 0,0 km/h (0 Bft)
19.10.2017 18:26 13,1 °C 13,2 °C 74 % 1013,2 hPa 0,0 mm 0,0 km/h (0 Bft) O-NO 65 ° 0 min 0,000 mm 0,0 UV-I 0 W/m² 8,6 °C 13,1 °C 0,0 km/h (0 Bft)
19.10.2017 18:27 13,2 °C 13,2 °C 73 % 1013,1 hPa 0,0 mm 0,0 km/h (0 Bft) O-NO 65 ° 0 min 0,000 mm 0,0 UV-I 0 W/m² 8,5 °C 13,2 °C 0,0 km/h (0 Bft)
19.10.2017 18:29 13,5 °C 13,5 °C 72 % 1013,2 hPa 0,0 mm 0,0 km/h (0 Bft) O-NO 65 ° 0 min 0,000 mm 0,0 UV-I 0 W/m² 8,6 °C 13,5 °C 0,0 km/h (0 Bft)
19.10.2017 18:30 13,6 °C 13,6 °C 71 % 1013,2 hPa 0,0 mm 0,0 km/h (0 Bft) O-NO 65 ° 0 min 0,000 mm 0,0 UV-I 0 W/m² 8,4 °C 13,6 °C 0,0 km/h (0 Bft)
19.10.2017 18:31 13,4 °C 13,6 °C 72 % 1013,2 hPa 0,0 mm 0,0 km/h (0 Bft) O-NO 65 ° 0 min 0,000 mm 0,0 UV-I 0 W/m² 8,5 °C 13,4 °C 0,0 km/h (0 Bft)
19.10.2017 18:32 13,1 °C 13,4 °C 73 % 1013,2 hPa 0,0 mm 0,0 km/h (0 Bft) O-NO 65 ° 0 min 0,000 mm 0,0 UV-I 0 W/m² 8,4 °C 13,1 °C 0,0 km/h (0 Bft)
19.10.2017 18:33 12,8 °C 13,1 °C 74 % 1013,2 hPa 0,0 mm 0,0 km/h (0 Bft) O-NO 65 ° 0 min 0,000 mm 0,0 UV-I 0 W/m² 8,3 °C 12,8 °C 0,0 km/h (0 Bft)
19.10.2017 18:34 12,6 °C 12,8 °C 75 % 1013,3 hPa 0,0 mm 0,0 km/h (0 Bft) O-NO 65 ° 0 min 0,000 mm 0,0 UV-I 0 W/m² 8,3 °C 12,6 °C 0,0 km/h (0 Bft)
19.10.2017 18:35 12,4 °C 12,6 °C 76 % 1013,3 hPa 0,0 mm 0,0 km/h (0 Bft) O-NO 65 ° 0 min 0,000 mm 0,0 UV-I 0 W/m² 8,3 °C 12,4 °C 0,0 km/h (0 Bft)
19.10.2017 18:36 12,4 °C 12,4 °C 77 % 1013,3 hPa 0,0 mm 0,0 km/h (0 Bft) O-NO 65 ° 0 min 0,000 mm 0,0 UV-I 0 W/m² 8,5 °C 12,4 °C 0,0 km/h (0 Bft)
19.10.2017 18:37 12,3 °C 12,4 °C 76 % 1013,2 hPa 0,0 mm 0,0 km/h (0 Bft) O-NO 65 ° 0 min 0,000 mm 0,0 UV-I 0 W/m² 8,2 °C 12,3 °C 0,0 km/h (0 Bft)
19.10.2017 18:39 12,4 °C 12,4 °C 75 % 1013,3 hPa 0,0 mm 0,0 km/h (0 Bft) O-NO 65 ° 0 min 0,000 mm 0,0 UV-I 0 W/m² 8,1 °C 12,4 °C 0,0 km/h (0 Bft)
19.10.2017 18:40 12,5 °C 12,5 °C 74 % 1013,3 hPa 0,0 mm 0,0 km/h (0 Bft) O-NO 65 ° 0 min 0,000 mm 0,0 UV-I 0 W/m² 8,0 °C 12,5 °C 0,0 km/h (0 Bft)
19.10.2017 18:41 12,6 °C 12,6 °C 74 % 1013,3 hPa 0,0 mm 0,0 km/h (0 Bft) O-NO 65 ° 0 min 0,000 mm 0,0 UV-I 0 W/m² 8,1 °C 12,6 °C 0,0 km/h (0 Bft)
19.10.2017 18:42 12,6 °C 12,7 °C 73 % 1013,3 hPa 0,0 mm 0,0 km/h (0 Bft) O-NO 65 ° 0 min 0,000 mm 0,0 UV-I 0 W/m² 7,9 °C 12,6 °C 0,0 km/h (0 Bft)
19.10.2017 18:43 12,4 °C 12,6 °C 74 % 1013,3 hPa 0,0 mm 0,0 km/h (0 Bft) O-NO 65 ° 0 min 0,000 mm 0,0 UV-I 0 W/m² 7,9 °C 12,4 °C 0,0 km/h (0 Bft)
19.10.2017 18:44 12,3 °C 12,4 °C 74 % 1013,3 hPa 0,0 mm 0,0 km/h (0 Bft) O-NO 65 ° 0 min 0,000 mm 0,0 UV-I 0 W/m² 7,8 °C 12,3 °C 0,0 km/h (0 Bft)
19.10.2017 18:45 12,2 °C 12,3 °C 75 % 1013,3 hPa 0,0 mm 0,0 km/h (0 Bft) O-NO 65 ° 0 min 0,000 mm 0,0 UV-I 0 W/m² 7,9 °C 12,2 °C 0,0 km/h (0 Bft)
19.10.2017 18:46 12,1 °C 12,2 °C 75 % 1013,3 hPa 0,0 mm 0,0 km/h (0 Bft) O-NO 65 ° 0 min 0,000 mm 0,0 UV-I 0 W/m² 7,8 °C 12,1 °C 0,0 km/h (0 Bft)
19.10.2017 18:47 12,1 °C 12,1 °C 75 % 1013,3 hPa 0,0 mm 0,0 km/h (0 Bft) O-NO 65 ° 0 min 0,000 mm 0,0 UV-I 0 W/m² 7,8 °C 12,1 °C 0,0 km/h (0 Bft)
19.10.2017 18:48 12,1 °C 12,1 °C 74 % 1013,3 hPa 0,0 mm 0,0 km/h (0 Bft) O-NO 65 ° 0 min 0,000 mm 0,0 UV-I 0 W/m² 7,6 °C 12,1 °C 0,0 km/h (0 Bft)
19.10.2017 18:49 12,2 °C 12,2 °C 74 % 1013,2 hPa 0,0 mm 0,0 km/h (0 Bft) O-NO 65 ° 0 min 0,000 mm 0,0 UV-I 0 W/m² 7,7 °C 12,2 °C 0,0 km/h (0 Bft)
19.10.2017 18:50 12,3 °C 12,3 °C 73 % 1013,3 hPa 0,0 mm 0,0 km/h (0 Bft) O-NO 65 ° 0 min 0,000 mm 0,0 UV-I 0 W/m² 7,6 °C 12,3 °C 0,0 km/h (0 Bft)
19.10.2017 18:51 12,5 °C 12,5 °C 73 % 1013,3 hPa 0,0 mm 0,0 km/h (0 Bft) O-NO 65 ° 0 min 0,000 mm 0,0 UV-I 0 W/m² 7,8 °C 12,5 °C 0,0 km/h (0 Bft)
19.10.2017 18:52 12,7 °C 12,7 °C 72 % 1013,3 hPa 0,0 mm 0,0 km/h (0 Bft) O-NO 65 ° 0 min 0,000 mm 0,0 UV-I 0 W/m² 7,8 °C 12,7 °C 0,0 km/h (0 Bft)
19.10.2017 18:53 12,7 °C 12,7 °C 71 % 1013,3 hPa 0,0 mm 0,0 km/h (0 Bft) O-NO 65 ° 0 min 0,000 mm 0,0 UV-I 0 W/m² 7,6 °C 12,7 °C 0,0 km/h (0 Bft)
19.10.2017 18:54 12,8 °C 12,8 °C 72 % 1013,3 hPa 0,0 mm 0,0 km/h (0 Bft) O-NO 65 ° 0 min 0,000 mm 0,0 UV-I 0 W/m² 7,9 °C 12,8 °C 0,0 km/h (0 Bft)
19.10.2017 18:55 12,9 °C 12,9 °C 70 % 1013,3 hPa 0,0 mm 0,9 km/h (0 Bft) O-NO 65 ° 0 min 0,000 mm 0,0 UV-I 0 W/m² 7,6 °C 12,9 °C 3,2 km/h (1 Bft)
19.10.2017 18:56 12,9 °C 12,9 °C 70 % 1013,3 hPa 0,0 mm 2,7 km/h (1 Bft) O-NO 65 ° 0 min 0,000 mm 0,0 UV-I 0 W/m² 7,6 °C 12,9 °C 4,8 km/h (1 Bft)
19.10.2017 18:57 13,1 °C 13,1 °C 70 % 1013,3 hPa 0,0 mm 1,6 km/h (1 Bft) O-NO 65 ° 0 min 0,000 mm 0,0 UV-I 0 W/m² 7,8 °C 13,1 °C 4,8 km/h (1 Bft)
19.10.2017 18:58 13,1 °C 13,1 °C 70 % 1013,3 hPa 0,0 mm 0,9 km/h (0 Bft) O-NO 65 ° 0 min 0,000 mm 0,0 UV-I 0 W/m² 7,8 °C 13,1 °C 1,6 km/h (1 Bft)
19.10.2017 18:59 13,1 °C 13,1 °C 70 % 1013,3 hPa 0,0 mm 0,0 km/h (0 Bft) O-NO 65 ° 0 min 0,000 mm 0,0 UV-I 0 W/m² 7,8 °C 13,1 °C 0,0 km/h (0 Bft)
19.10.2017 19:00 13,2 °C 13,2 °C 70 % 1013,3 hPa 0,0 mm 1,8 km/h (1 Bft) SO 144 ° 0 min 0,000 mm 0,0 UV-I 0 W/m² 7,9 °C 13,2 °C 4,8 km/h (1 Bft)
19.10.2017 19:01 13,2 °C 13,2 °C 70 % 1013,3 hPa 0,0 mm 3,3 km/h (1 Bft) SO 144 ° 0 min 0,000 mm 0,0 UV-I 0 W/m² 7,9 °C 13,2 °C 4,8 km/h (1 Bft)
19.10.2017 19:02 13,3 °C 13,3 °C 69 % 1013,4 hPa 0,0 mm 0,8 km/h (0 Bft) SO 144 ° 0 min 0,000 mm 0,0 UV-I 0 W/m² 7,7 °C 13,3 °C 3,2 km/h (1 Bft)
19.10.2017 19:03 13,3 °C 13,3 °C 70 % 1013,3 hPa 0,0 mm 0,6 km/h (0 Bft) SO 144 ° 0 min 0,000 mm 0,0 UV-I 0 W/m² 7,9 °C 13,3 °C 1,6 km/h (1 Bft)
19.10.2017 19:04 13,3 °C 13,3 °C 70 % 1013,3 hPa 0,0 mm 0,0 km/h (0 Bft) SO 144 ° 0 min 0,000 mm 0,0 UV-I 0 W/m² 7,9 °C 13,3 °C 0,0 km/h (0 Bft)
19.10.2017 19:05 13,2 °C 13,3 °C 70 % 1013,3 hPa 0,0 mm 0,0 km/h (0 Bft) SO 144 ° 0 min 0,000 mm 0,0 UV-I 0 W/m² 7,9 °C 13,2 °C 0,0 km/h (0 Bft)
19.10.2017 19:06 12,9 °C 13,2 °C 70 % 1013,4 hPa 0,0 mm 0,0 km/h (0 Bft) SO 144 ° 0 min 0,000 mm 0,0 UV-I 0 W/m² 7,6 °C 12,9 °C 0,0 km/h (0 Bft)
19.10.2017 19:07 12,6 °C 12,9 °C 72 % 1013,3 hPa 0,0 mm 0,0 km/h (0 Bft) SO 144 ° 0 min 0,000 mm 0,0 UV-I 0 W/m² 7,7 °C 12,6 °C 0,0 km/h (0 Bft)
19.10.2017 19:08 12,2 °C 12,6 °C 73 % 1013,3 hPa 0,0 mm 0,0 km/h (0 Bft) SO 144 ° 0 min 0,000 mm 0,0 UV-I 0 W/m² 7,5 °C 12,2 °C 0,0 km/h (0 Bft)
19.10.2017 19:09 12,0 °C 12,2 °C 74 % 1013,4 hPa 0,0 mm 0,0 km/h (0 Bft) SO 144 ° 0 min 0,000 mm 0,0 UV-I 0 W/m² 7,5 °C 12,0 °C 0,0 km/h (0 Bft)
19.10.2017 19:10 11,8 °C 12,0 °C 75 % 1013,4 hPa 0,0 mm 0,0 km/h (0 Bft) SO 144 ° 0 min 0,000 mm 0,0 UV-I 0 W/m² 7,5 °C 11,8 °C 0,0 km/h (0 Bft)
19.10.2017 19:11 11,7 °C 11,8 °C 75 % 1013,4 hPa 0,0 mm 0,0 km/h (0 Bft) SO 144 ° 0 min 0,000 mm 0,0 UV-I 0 W/m² 7,4 °C 11,7 °C 0,0 km/h (0 Bft)
19.10.2017 19:12 11,6 °C 11,7 °C 75 % 1013,5 hPa 0,0 mm 0,0 km/h (0 Bft) SO 144 ° 0 min 0,000 mm 0,0 UV-I 0 W/m² 7,3 °C 11,6 °C 0,0 km/h (0 Bft)
19.10.2017 19:13 11,5 °C 11,6 °C 76 % 1013,5 hPa 0,0 mm 0,0 km/h (0 Bft) SO 144 ° 0 min 0,000 mm 0,0 UV-I 0 W/m² 7,4 °C 11,5 °C 0,0 km/h (0 Bft)
19.10.2017 19:14 11,4 °C 11,5 °C 76 % 1013,5 hPa 0,0 mm 0,0 km/h (0 Bft) SO 144 ° 0 min 0,000 mm 0,0 UV-I 0 W/m² 7,3 °C 11,4 °C 0,0 km/h (0 Bft)
19.10.2017 19:15 11,2 °C 11,4 °C 77 % 1013,5 hPa 0,0 mm 0,0 km/h (0 Bft) SO 144 ° 0 min 0,000 mm 0,0 UV-I 0 W/m² 7,3 °C 11,2 °C 0,0 km/h (0 Bft)
19.10.2017 19:16 11,0 °C 11,2 °C 78 % 1013,5 hPa 0,0 mm 0,0 km/h (0 Bft) SO 144 ° 0 min 0,000 mm 0,0 UV-I 0 W/m² 7,3 °C 11,0 °C 0,0 km/h (0 Bft)
19.10.2017 19:17 10,8 °C 11,0 °C 78 % 1013,5 hPa 0,0 mm 0,0 km/h (0 Bft) SO 144 ° 0 min 0,000 mm 0,0 UV-I 0 W/m² 7,1 °C 10,8 °C 0,0 km/h (0 Bft)
19.10.2017 19:18 10,7 °C 10,8 °C 80 % 1013,5 hPa 0,0 mm 0,0 km/h (0 Bft) SO 144 ° 0 min 0,000 mm 0,0 UV-I 0 W/m² 7,4 °C 10,7 °C 0,0 km/h (0 Bft)
19.10.2017 19:19 10,6 °C 10,7 °C 81 % 1013,5 hPa 0,0 mm 0,0 km/h (0 Bft) SO 144 ° 0 min 0,000 mm 0,0 UV-I 0 W/m² 7,5 °C 10,6 °C 0,0 km/h (0 Bft)
19.10.2017 19:20 10,6 °C 10,6 °C 81 % 1013,4 hPa 0,0 mm 0,0 km/h (0 Bft) SO 144 ° 0 min 0,000 mm 0,0 UV-I 0 W/m² 7,5 °C 10,6 °C 0,0 km/h (0 Bft)
19.10.2017 19:21 10,6 °C 10,6 °C 81 % 1013,5 hPa 0,0 mm 0,0 km/h (0 Bft) SO 144 ° 0 min 0,000 mm 0,0 UV-I 0 W/m² 7,5 °C 10,6 °C 0,0 km/h (0 Bft)
19.10.2017 19:22 10,6 °C 10,6 °C 81 % 1013,5 hPa 0,0 mm 0,0 km/h (0 Bft) SO 144 ° 0 min 0,000 mm 0,0 UV-I 0 W/m² 7,5 °C 10,6 °C 0,0 km/h (0 Bft)
19.10.2017 19:23 10,6 °C 10,6 °C 81 % 1013,5 hPa 0,0 mm 0,0 km/h (0 Bft) SO 144 ° 0 min 0,000 mm 0,0 UV-I 0 W/m² 7,5 °C 10,6 °C 0,0 km/h (0 Bft)
19.10.2017 19:24 10,6 °C 10,6 °C 81 % 1013,5 hPa 0,0 mm 0,0 km/h (0 Bft) SO 144 ° 0 min 0,000 mm 0,0 UV-I 0 W/m² 7,5 °C 10,6 °C 0,0 km/h (0 Bft)
19.10.2017 19:25 10,7 °C 10,7 °C 81 % 1013,6 hPa 0,0 mm 0,0 km/h (0 Bft) SO 144 ° 0 min 0,000 mm 0,0 UV-I 0 W/m² 7,6 °C 10,7 °C 0,0 km/h (0 Bft)
19.10.2017 19:26 10,7 °C 10,7 °C 81 % 1013,5 hPa 0,0 mm 0,0 km/h (0 Bft) SO 144 ° 0 min 0,000 mm 0,0 UV-I 0 W/m² 7,6 °C 10,7 °C 0,0 km/h (0 Bft)
19.10.2017 19:27 10,8 °C 10,8 °C 81 % 1013,5 hPa 0,0 mm 0,0 km/h (0 Bft) SO 144 ° 0 min 0,000 mm 0,0 UV-I 0 W/m² 7,7 °C 10,8 °C 0,0 km/h (0 Bft)
19.10.2017 19:28 10,8 °C 10,8 °C 80 % 1013,5 hPa 0,0 mm 0,0 km/h (0 Bft) SO 144 ° 0 min 0,000 mm 0,0 UV-I 0 W/m² 7,5 °C 10,8 °C 0,0 km/h (0 Bft)
19.10.2017 19:29 10,7 °C 10,8 °C 80 % 1013,5 hPa 0,0 mm 0,0 km/h (0 Bft) SO 144 ° 0 min 0,000 mm 0,0 UV-I 0 W/m² 7,4 °C 10,7 °C 0,0 km/h (0 Bft)
19.10.2017 19:30 10,6 °C 10,7 °C 80 % 1013,5 hPa 0,0 mm 0,0 km/h (0 Bft) SO 144 ° 0 min 0,000 mm 0,0 UV-I 0 W/m² 7,3 °C 10,6 °C 0,0 km/h (0 Bft)
19.10.2017 19:31 10,5 °C 10,6 °C 81 % 1013,5 hPa 0,0 mm 0,0 km/h (0 Bft) SO 144 ° 0 min 0,000 mm 0,0 UV-I 0 W/m² 7,4 °C 10,5 °C 0,0 km/h (0 Bft)
19.10.2017 19:32 10,4 °C 10,5 °C 81 % 1013,5 hPa 0,0 mm 0,0 km/h (0 Bft) SO 144 ° 0 min 0,000 mm 0,0 UV-I 0 W/m² 7,3 °C 10,4 °C 0,0 km/h (0 Bft)
19.10.2017 19:34 10,3 °C 10,4 °C 81 % 1013,6 hPa 0,0 mm 0,0 km/h (0 Bft) SO 144 ° 0 min 0,000 mm 0,0 UV-I 0 W/m² 7,2 °C 10,3 °C 0,0 km/h (0 Bft)
19.10.2017 19:35 10,3 °C 10,3 °C 82 % 1013,6 hPa 0,0 mm 0,0 km/h (0 Bft) SO 144 ° 0 min 0,000 mm 0,0 UV-I 0 W/m² 7,4 °C 10,3 °C 0,0 km/h (0 Bft)
19.10.2017 19:36 10,2 °C 10,3 °C 82 % 1013,5 hPa 0,0 mm 0,0 km/h (0 Bft) SO 144 ° 0 min 0,000 mm 0,0 UV-I 0 W/m² 7,3 °C 10,2 °C 0,0 km/h (0 Bft)
19.10.2017 19:37 10,2 °C 10,2 °C 82 % 1013,5 hPa 0,0 mm 0,0 km/h (0 Bft) SO 144 ° 0 min 0,000 mm 0,0 UV-I 0 W/m² 7,3 °C 10,2 °C 0,0 km/h (0 Bft)
19.10.2017 19:38 10,4 °C 10,4 °C 83 % 1013,5 hPa 0,0 mm 0,0 km/h (0 Bft) SO 144 ° 0 min 0,000 mm 0,0 UV-I 0 W/m² 7,6 °C 10,4 °C 0,0 km/h (0 Bft)
19.10.2017 19:39 10,7 °C 10,7 °C 82 % 1013,5 hPa 0,0 mm 0,0 km/h (0 Bft) SO 144 ° 0 min 0,000 mm 0,0 UV-I 0 W/m² 7,8 °C 10,7 °C 0,0 km/h (0 Bft)
19.10.2017 19:40 10,7 °C 10,7 °C 81 % 1013,4 hPa 0,0 mm 0,0 km/h (0 Bft) SO 144 ° 0 min 0,000 mm 0,0 UV-I 0 W/m² 7,6 °C 10,7 °C 0,0 km/h (0 Bft)
19.10.2017 19:41 10,7 °C 10,8 °C 80 % 1013,5 hPa 0,0 mm 0,0 km/h (0 Bft) SO 144 ° 0 min 0,000 mm 0,0 UV-I 0 W/m² 7,4 °C 10,7 °C 0,0 km/h (0 Bft)
19.10.2017 19:42 10,6 °C 10,7 °C 80 % 1013,5 hPa 0,0 mm 0,0 km/h (0 Bft) SO 144 ° 0 min 0,000 mm 0,0 UV-I 0 W/m² 7,3 °C 10,6 °C 0,0 km/h (0 Bft)
19.10.2017 19:43 10,4 °C 10,6 °C 80 % 1013,5 hPa 0,0 mm 0,0 km/h (0 Bft) SO 144 ° 0 min 0,000 mm 0,0 UV-I 0 W/m² 7,1 °C 10,4 °C 0,0 km/h (0 Bft)
19.10.2017 19:44 10,3 °C 10,4 °C 81 % 1013,5 hPa 0,0 mm 0,0 km/h (0 Bft) SO 144 ° 0 min 0,000 mm 0,0 UV-I 0 W/m² 7,2 °C 10,3 °C 0,0 km/h (0 Bft)
19.10.2017 19:45 10,3 °C 10,3 °C 81 % 1013,5 hPa 0,0 mm 0,0 km/h (0 Bft) SO 144 ° 0 min 0,000 mm 0,0 UV-I 0 W/m² 7,2 °C 10,3 °C 0,0 km/h (0 Bft)
19.10.2017 19:46 10,3 °C 10,3 °C 82 % 1013,5 hPa 0,0 mm 0,0 km/h (0 Bft) SO 144 ° 0 min 0,000 mm 0,0 UV-I 0 W/m² 7,4 °C 10,3 °C 0,0 km/h (0 Bft)
19.10.2017 19:47 10,2 °C 10,3 °C 82 % 1013,5 hPa 0,0 mm 0,0 km/h (0 Bft) SO 144 ° 0 min 0,000 mm 0,0 UV-I 0 W/m² 7,3 °C 10,2 °C 0,0 km/h (0 Bft)
19.10.2017 19:48 10,1 °C 10,2 °C 82 % 1013,5 hPa 0,0 mm 0,0 km/h (0 Bft) SO 144 ° 0 min 0,000 mm 0,0 UV-I 0 W/m² 7,2 °C 10,1 °C 0,0 km/h (0 Bft)
19.10.2017 19:49 10,0 °C 10,1 °C 82 % 1013,5 hPa 0,0 mm 0,0 km/h (0 Bft) SO 144 ° 0 min 0,000 mm 0,0 UV-I 0 W/m² 7,1 °C 10,0 °C 0,0 km/h (0 Bft)
19.10.2017 19:50 10,0 °C 10,0 °C 82 % 1013,5 hPa 0,0 mm 0,0 km/h (0 Bft) SO 144 ° 0 min 0,000 mm 0,0 UV-I 0 W/m² 7,1 °C 10,0 °C 0,0 km/h (0 Bft)
19.10.2017 19:51 9,9 °C 10,0 °C 83 % 1013,5 hPa 0,0 mm 0,0 km/h (0 Bft) SO 144 ° 0 min 0,000 mm 0,0 UV-I 0 W/m² 7,2 °C 9,9 °C 0,0 km/h (0 Bft)
19.10.2017 19:52 9,9 °C 10,0 °C 83 % 1013,5 hPa 0,0 mm 0,0 km/h (0 Bft) SO 144 ° 0 min 0,000 mm 0,0 UV-I 0 W/m² 7,2 °C 9,9 °C 0,0 km/h (0 Bft)
19.10.2017 19:53 10,0 °C 10,0 °C 84 % 1013,6 hPa 0,0 mm 0,0 km/h (0 Bft) SO 144 ° 0 min 0,000 mm 0,0 UV-I 0 W/m² 7,4 °C 10,0 °C 0,0 km/h (0 Bft)
19.10.2017 19:54 10,1 °C 10,1 °C 83 % 1013,6 hPa 0,0 mm 0,0 km/h (0 Bft) SO 144 ° 0 min 0,000 mm 0,0 UV-I 0 W/m² 7,3 °C 10,1 °C 0,0 km/h (0 Bft)
19.10.2017 19:55 10,1 °C 10,1 °C 83 % 1013,6 hPa 0,0 mm 0,0 km/h (0 Bft) SO 144 ° 0 min 0,000 mm 0,0 UV-I 0 W/m² 7,3 °C 10,1 °C 0,0 km/h (0 Bft)
19.10.2017 19:56 10,1 °C 10,1 °C 82 % 1013,5 hPa 0,0 mm 0,0 km/h (0 Bft) SO 144 ° 0 min 0,000 mm 0,0 UV-I 0 W/m² 7,2 °C 10,1 °C 0,0 km/h (0 Bft)
19.10.2017 19:57 10,1 °C 10,1 °C 82 % 1013,5 hPa 0,0 mm 0,0 km/h (0 Bft) SO 144 ° 0 min 0,000 mm 0,0 UV-I 0 W/m² 7,2 °C 10,1 °C 0,0 km/h (0 Bft)
19.10.2017 19:58 10,1 °C 10,1 °C 83 % 1013,6 hPa 0,0 mm 0,0 km/h (0 Bft) SO 144 ° 0 min 0,000 mm 0,0 UV-I 0 W/m² 7,3 °C 10,1 °C 0,0 km/h (0 Bft)
19.10.2017 19:59 10,1 °C 10,2 °C 82 % 1013,6 hPa 0,0 mm 0,0 km/h (0 Bft) SO 144 ° 0 min 0,000 mm 0,0 UV-I 0 W/m² 7,2 °C 10,1 °C 0,0 km/h (0 Bft)
19.10.2017 20:00 10,1 °C 10,2 °C 81 % 1013,6 hPa 0,0 mm 0,0 km/h (0 Bft) SO 144 ° 0 min 0,000 mm 0,0 UV-I 0 W/m² 7,0 °C 10,1 °C 0,0 km/h (0 Bft)
19.10.2017 20:01 10,1 °C 10,1 °C 82 % 1013,6 hPa 0,0 mm 0,0 km/h (0 Bft) SO 144 ° 0 min 0,026 mm 0,0 UV-I 0 W/m² 7,2 °C 10,1 °C 0,0 km/h (0 Bft)
19.10.2017 20:02 10,0 °C 10,1 °C 82 % 1013,6 hPa 0,0 mm 0,0 km/h (0 Bft) SO 144 ° 0 min 0,000 mm 0,0 UV-I 0 W/m² 7,1 °C 10,0 °C 0,0 km/h (0 Bft)
19.10.2017 20:03 9,8 °C 10,0 °C 82 % 1013,6 hPa 0,0 mm 0,0 km/h (0 Bft) SO 144 ° 0 min 0,000 mm 0,0 UV-I 0 W/m² 6,9 °C 9,8 °C 0,0 km/h (0 Bft)
19.10.2017 20:04 9,7 °C 9,8 °C 82 % 1013,7 hPa 0,0 mm 0,0 km/h (0 Bft) SO 144 ° 0 min 0,000 mm 0,0 UV-I 0 W/m² 6,8 °C 9,7 °C 0,0 km/h (0 Bft)
19.10.2017 20:05 9,7 °C 9,7 °C 83 % 1013,7 hPa 0,0 mm 0,0 km/h (0 Bft) SO 144 ° 0 min 0,000 mm 0,0 UV-I 0 W/m² 7,0 °C 9,7 °C 0,0 km/h (0 Bft)
19.10.2017 20:06 9,5 °C 9,7 °C 83 % 1013,6 hPa 0,0 mm 0,0 km/h (0 Bft) SO 144 ° 0 min 0,000 mm 0,0 UV-I 0 W/m² 6,8 °C 9,5 °C 0,0 km/h (0 Bft)
19.10.2017 20:07 9,4 °C 9,5 °C 83 % 1013,6 hPa 0,0 mm 0,0 km/h (0 Bft) SO 144 ° 0 min 0,000 mm 0,0 UV-I 0 W/m² 6,7 °C 9,4 °C 0,0 km/h (0 Bft)
19.10.2017 20:08 9,4 °C 9,4 °C 84 % 1013,6 hPa 0,0 mm 0,0 km/h (0 Bft) SO 144 ° 0 min 0,000 mm 0,0 UV-I 0 W/m² 6,8 °C 9,4 °C 0,0 km/h (0 Bft)
19.10.2017 20:09 9,4 °C 9,4 °C 84 % 1013,6 hPa 0,0 mm 0,0 km/h (0 Bft) SO 144 ° 0 min 0,000 mm 0,0 UV-I 0 W/m² 6,8 °C 9,4 °C 0,0 km/h (0 Bft)
19.10.2017 20:10 9,3 °C 9,4 °C 84 % 1013,6 hPa 0,0 mm 0,0 km/h (0 Bft) SO 144 ° 0 min 0,000 mm 0,0 UV-I 0 W/m² 6,7 °C 9,3 °C 0,0 km/h (0 Bft)
19.10.2017 20:11 9,3 °C 9,3 °C 84 % 1013,6 hPa 0,0 mm 0,0 km/h (0 Bft) SO 144 ° 0 min 0,000 mm 0,0 UV-I 0 W/m² 6,7 °C 9,3 °C 0,0 km/h (0 Bft)
19.10.2017 20:12 9,3 °C 9,3 °C 85 % 1013,5 hPa 0,0 mm 0,0 km/h (0 Bft) SO 144 ° 0 min 0,000 mm 0,0 UV-I 0 W/m² 6,9 °C 9,3 °C 0,0 km/h (0 Bft)
19.10.2017 20:13 9,3 °C 9,3 °C 85 % 1013,6 hPa 0,0 mm 0,0 km/h (0 Bft) SO 144 ° 0 min 0,000 mm 0,0 UV-I 0 W/m² 6,9 °C 9,3 °C 0,0 km/h (0 Bft)
19.10.2017 20:14 9,3 °C 9,3 °C 85 % 1013,6 hPa 0,0 mm 0,0 km/h (0 Bft) SO 144 ° 0 min 0,000 mm 0,0 UV-I 0 W/m² 6,9 °C 9,3 °C 0,0 km/h (0 Bft)
19.10.2017 20:15 9,4 °C 9,4 °C 85 % 1013,5 hPa 0,0 mm 0,0 km/h (0 Bft) SO 144 ° 0 min 0,000 mm 0,0 UV-I 0 W/m² 7,0 °C 9,4 °C 0,0 km/h (0 Bft)
19.10.2017 20:16 9,4 °C 9,4 °C 85 % 1013,6 hPa 0,0 mm 0,0 km/h (0 Bft) SO 144 ° 0 min 0,000 mm 0,0 UV-I 0 W/m² 7,0 °C 9,4 °C 0,0 km/h (0 Bft)
19.10.2017 20:17 9,4 °C 9,4 °C 84 % 1013,6 hPa 0,0 mm 0,0 km/h (0 Bft) SO 144 ° 0 min 0,000 mm 0,0 UV-I 0 W/m² 6,8 °C 9,4 °C 0,0 km/h (0 Bft)
19.10.2017 20:18 9,3 °C 9,4 °C 83 % 1013,5 hPa 0,0 mm 0,0 km/h (0 Bft) SO 144 ° 0 min 0,000 mm 0,0 UV-I 0 W/m² 6,6 °C 9,3 °C 0,0 km/h (0 Bft)
19.10.2017 20:19 9,2 °C 9,3 °C 83 % 1013,5 hPa 0,0 mm 0,0 km/h (0 Bft) SO 144 ° 0 min 0,000 mm 0,0 UV-I 0 W/m² 6,5 °C 9,2 °C 0,0 km/h (0 Bft)
19.10.2017 20:20 9,1 °C 9,2 °C 84 % 1013,6 hPa 0,0 mm 0,0 km/h (0 Bft) SO 144 ° 0 min 0,000 mm 0,0 UV-I 0 W/m² 6,5 °C 9,1 °C 0,0 km/h (0 Bft)
19.10.2017 20:21 8,9 °C 9,1 °C 84 % 1013,5 hPa 0,0 mm 0,0 km/h (0 Bft) SO 144 ° 0 min 0,000 mm 0,0 UV-I 0 W/m² 6,3 °C 8,9 °C 0,0 km/h (0 Bft)
19.10.2017 20:22 8,9 °C 8,9 °C 85 % 1013,5 hPa 0,0 mm 0,0 km/h (0 Bft) SO 144 ° 0 min 0,000 mm 0,0 UV-I 0 W/m² 6,5 °C 8,9 °C 0,0 km/h (0 Bft)
19.10.2017 20:23 8,9 °C 8,9 °C 86 % 1013,4 hPa 0,0 mm 0,0 km/h (0 Bft) SO 144 ° 0 min 0,000 mm 0,0 UV-I 0 W/m² 6,7 °C 8,9 °C 0,0 km/h (0 Bft)
19.10.2017 20:24 8,9 °C 8,9 °C 86 % 1013,4 hPa 0,0 mm 0,0 km/h (0 Bft) SO 144 ° 0 min 0,000 mm 0,0 UV-I 0 W/m² 6,7 °C 8,9 °C 0,0 km/h (0 Bft)
19.10.2017 20:25 8,9 °C 8,9 °C 86 % 1013,4 hPa 0,0 mm 0,0 km/h (0 Bft) SO 144 ° 0 min 0,000 mm 0,0 UV-I 0 W/m² 6,7 °C 8,9 °C 0,0 km/h (0 Bft)
19.10.2017 20:26 8,9 °C 8,9 °C 86 % 1013,5 hPa 0,0 mm 0,0 km/h (0 Bft) SO 144 ° 0 min 0,000 mm 0,0 UV-I 0 W/m² 6,7 °C 8,9 °C 0,0 km/h (0 Bft)
19.10.2017 20:27 8,9 °C 8,9 °C 86 % 1013,5 hPa 0,0 mm 0,0 km/h (0 Bft) SO 144 ° 0 min 0,000 mm 0,0 UV-I 0 W/m² 6,7 °C 8,9 °C 0,0 km/h (0 Bft)
19.10.2017 20:28 9,1 °C 9,1 °C 87 % 1013,4 hPa 0,0 mm 0,0 km/h (0 Bft) SO 144 ° 0 min 0,000 mm 0,0 UV-I 0 W/m² 7,1 °C 9,1 °C 0,0 km/h (0 Bft)
19.10.2017 20:29 9,2 °C 9,2 °C 86 % 1013,4 hPa 0,0 mm 0,0 km/h (0 Bft) SO 144 ° 0 min 0,000 mm 0,0 UV-I 0 W/m² 7,0 °C 9,2 °C 0,0 km/h (0 Bft)
19.10.2017 20:30 9,2 °C 9,2 °C 86 % 1013,4 hPa 0,0 mm 0,0 km/h (0 Bft) SO 144 ° 0 min 0,000 mm 0,0 UV-I 0 W/m² 7,0 °C 9,2 °C 0,0 km/h (0 Bft)
19.10.2017 20:31 9,2 °C 9,2 °C 85 % 1013,4 hPa 0,0 mm 0,0 km/h (0 Bft) SO 144 ° 0 min 0,000 mm 0,0 UV-I 0 W/m² 6,8 °C 9,2 °C 0,0 km/h (0 Bft)
19.10.2017 20:32 9,2 °C 9,2 °C 85 % 1013,4 hPa 0,0 mm 0,0 km/h (0 Bft) SO 144 ° 0 min 0,000 mm 0,0 UV-I 0 W/m² 6,8 °C 9,2 °C 0,0 km/h (0 Bft)
19.10.2017 20:33 9,2 °C 9,2 °C 85 % 1013,4 hPa 0,0 mm 0,0 km/h (0 Bft) SO 144 ° 0 min 0,000 mm 0,0 UV-I 0 W/m² 6,8 °C 9,2 °C 0,0 km/h (0 Bft)
19.10.2017 20:34 9,2 °C 9,2 °C 85 % 1013,4 hPa 0,0 mm 0,0 km/h (0 Bft) SO 144 ° 0 min 0,000 mm 0,0 UV-I 0 W/m² 6,8 °C 9,2 °C 0,0 km/h (0 Bft)
19.10.2017 20:35 9,2 °C 9,2 °C 86 % 1013,4 hPa 0,0 mm 0,0 km/h (0 Bft) SO 144 ° 0 min 0,000 mm 0,0 UV-I 0 W/m² 7,0 °C 9,2 °C 0,0 km/h (0 Bft)
19.10.2017 20:36 9,2 °C 9,2 °C 86 % 1013,4 hPa 0,0 mm 0,0 km/h (0 Bft) SO 144 ° 0 min 0,000 mm 0,0 UV-I 0 W/m² 7,0 °C 9,2 °C 0,0 km/h (0 Bft)
19.10.2017 20:37 9,2 °C 9,2 °C 86 % 1013,4 hPa 0,0 mm 0,0 km/h (0 Bft) SO 144 ° 0 min 0,000 mm 0,0 UV-I 0 W/m² 7,0 °C 9,2 °C 0,0 km/h (0 Bft)
19.10.2017 20:38 9,3 °C 9,3 °C 86 % 1013,4 hPa 0,0 mm 0,0 km/h (0 Bft) SO 144 ° 0 min 0,000 mm 0,0 UV-I 0 W/m² 7,1 °C 9,3 °C 0,0 km/h (0 Bft)
19.10.2017 20:39 9,2 °C 9,3 °C 86 % 1013,4 hPa 0,0 mm 0,0 km/h (0 Bft) SO 144 ° 0 min 0,000 mm 0,0 UV-I 0 W/m² 7,0 °C 9,2 °C 0,0 km/h (0 Bft)
19.10.2017 20:40 9,3 °C 9,3 °C 86 % 1013,5 hPa 0,0 mm 0,0 km/h (0 Bft) SO 144 ° 0 min 0,000 mm 0,0 UV-I 0 W/m² 7,1 °C 9,3 °C 0,0 km/h (0 Bft)
19.10.2017 20:41 9,2 °C 9,3 °C 85 % 1013,4 hPa 0,0 mm 0,0 km/h (0 Bft) SO 144 ° 0 min 0,000 mm 0,0 UV-I 0 W/m² 6,8 °C 9,2 °C 0,0 km/h (0 Bft)
19.10.2017 20:42 9,2 °C 9,3 °C 86 % 1013,4 hPa 0,0 mm 0,0 km/h (0 Bft) SO 144 ° 0 min 0,000 mm 0,0 UV-I 0 W/m² 7,0 °C 9,2 °C 0,0 km/h (0 Bft)
19.10.2017 20:43 9,2 °C 9,2 °C 85 % 1013,5 hPa 0,0 mm 0,0 km/h (0 Bft) SO 144 ° 0 min 0,000 mm 0,0 UV-I 0 W/m² 6,8 °C 9,2 °C 0,0 km/h (0 Bft)
19.10.2017 20:44 9,2 °C 9,2 °C 85 % 1013,5 hPa 0,0 mm 0,0 km/h (0 Bft) SO 144 ° 0 min 0,000 mm 0,0 UV-I 0 W/m² 6,8 °C 9,2 °C 0,0 km/h (0 Bft)
19.10.2017 20:45 9,2 °C 9,2 °C 86 % 1013,4 hPa 0,0 mm 0,0 km/h (0 Bft) SO 144 ° 0 min 0,000 mm 0,0 UV-I 0 W/m² 7,0 °C 9,2 °C 0,0 km/h (0 Bft)
19.10.2017 20:46 9,3 °C 9,3 °C 86 % 1013,5 hPa 0,0 mm 0,0 km/h (0 Bft) SO 144 ° 0 min 0,000 mm 0,0 UV-I 0 W/m² 7,1 °C 9,3 °C 0,0 km/h (0 Bft)
19.10.2017 20:47 9,3 °C 9,3 °C 85 % 1013,4 hPa 0,0 mm 0,0 km/h (0 Bft) SO 144 ° 0 min 0,000 mm 0,0 UV-I 0 W/m² 6,9 °C 9,3 °C 0,0 km/h (0 Bft)
19.10.2017 20:48 9,2 °C 9,3 °C 84 % 1013,4 hPa 0,0 mm 0,0 km/h (0 Bft) SO 144 ° 0 min 0,000 mm 0,0 UV-I 0 W/m² 6,6 °C 9,2 °C 0,0 km/h (0 Bft)
19.10.2017 20:49 9,1 °C 9,2 °C 85 % 1013,4 hPa 0,0 mm 0,0 km/h (0 Bft) SO 144 ° 0 min 0,000 mm 0,0 UV-I 0 W/m² 6,7 °C 9,1 °C 0,0 km/h (0 Bft)
19.10.2017 20:50 9,0 °C 9,1 °C 85 % 1013,3 hPa 0,0 mm 0,0 km/h (0 Bft) SO 144 ° 0 min 0,000 mm 0,0 UV-I 0 W/m² 6,6 °C 9,0 °C 0,0 km/h (0 Bft)
19.10.2017 20:51 8,9 °C 9,0 °C 85 % 1013,4 hPa 0,0 mm 0,0 km/h (0 Bft) SO 144 ° 0 min 0,000 mm 0,0 UV-I 0 W/m² 6,5 °C 8,9 °C 0,0 km/h (0 Bft)
19.10.2017 20:52 8,9 °C 8,9 °C 86 % 1013,4 hPa 0,0 mm 0,0 km/h (0 Bft) SO 144 ° 0 min 0,000 mm 0,0 UV-I 0 W/m² 6,7 °C 8,9 °C 0,0 km/h (0 Bft)
19.10.2017 20:53 8,8 °C 8,9 °C 87 % 1013,4 hPa 0,0 mm 0,0 km/h (0 Bft) SO 144 ° 0 min 0,000 mm 0,0 UV-I 0 W/m² 6,8 °C 8,8 °C 0,0 km/h (0 Bft)
19.10.2017 20:54 8,8 °C 8,9 °C 87 % 1013,4 hPa 0,0 mm 0,0 km/h (0 Bft) SO 144 ° 0 min 0,000 mm 0,0 UV-I 0 W/m² 6,8 °C 8,8 °C 0,0 km/h (0 Bft)
19.10.2017 20:55 8,9 °C 8,9 °C 86 % 1013,4 hPa 0,0 mm 0,0 km/h (0 Bft) SO 144 ° 0 min 0,000 mm 0,0 UV-I 0 W/m² 6,7 °C 8,9 °C 0,0 km/h (0 Bft)
19.10.2017 20:56 8,8 °C 8,9 °C 86 % 1013,4 hPa 0,0 mm 0,0 km/h (0 Bft) SO 144 ° 0 min 0,000 mm 0,0 UV-I 0 W/m² 6,6 °C 8,8 °C 0,0 km/h (0 Bft)
19.10.2017 20:57 8,8 °C 8,8 °C 86 % 1013,4 hPa 0,0 mm 0,0 km/h (0 Bft) SO 144 ° 0 min 0,000 mm 0,0 UV-I 0 W/m² 6,6 °C 8,8 °C 0,0 km/h (0 Bft)
19.10.2017 20:58 8,7 °C 8,8 °C 86 % 1013,4 hPa 0,0 mm 0,0 km/h (0 Bft) SO 144 ° 0 min 0,000 mm 0,0 UV-I 0 W/m² 6,5 °C 8,7 °C 0,0 km/h (0 Bft)
19.10.2017 20:59 8,6 °C 8,7 °C 86 % 1013,4 hPa 0,0 mm 0,0 km/h (0 Bft) SO 144 ° 0 min 0,000 mm 0,0 UV-I 0 W/m² 6,4 °C 8,6 °C 0,0 km/h (0 Bft)
19.10.2017 21:00 8,6 °C 8,6 °C 86 % 1013,4 hPa 0,0 mm 0,0 km/h (0 Bft) SO 144 ° 0 min 0,000 mm 0,0 UV-I 0 W/m² 6,4 °C 8,6 °C 0,0 km/h (0 Bft)
19.10.2017 21:01 8,5 °C 8,6 °C 86 % 1013,4 hPa 0,0 mm 0,0 km/h (0 Bft) SO 144 ° 0 min 0,000 mm 0,0 UV-I 0 W/m² 6,3 °C 8,5 °C 0,0 km/h (0 Bft)
19.10.2017 21:02 8,4 °C 8,5 °C 87 % 1013,4 hPa 0,0 mm 0,0 km/h (0 Bft) SO 144 ° 0 min 0,000 mm 0,0 UV-I 0 W/m² 6,4 °C 8,4 °C 0,0 km/h (0 Bft)
19.10.2017 21:03 8,4 °C 8,4 °C 87 % 1013,4 hPa 0,0 mm 0,0 km/h (0 Bft) SO 144 ° 0 min 0,000 mm 0,0 UV-I 0 W/m² 6,4 °C 8,4 °C 0,0 km/h (0 Bft)
19.10.2017 21:04 8,4 °C 8,4 °C 88 % 1013,4 hPa 0,0 mm 0,0 km/h (0 Bft) SO 144 ° 0 min 0,000 mm 0,0 UV-I 0 W/m² 6,5 °C 8,4 °C 0,0 km/h (0 Bft)
19.10.2017 21:05 8,4 °C 8,4 °C 87 % 1013,4 hPa 0,0 mm 0,0 km/h (0 Bft) SO 144 ° 0 min 0,000 mm 0,0 UV-I 0 W/m² 6,4 °C 8,4 °C 0,0 km/h (0 Bft)
19.10.2017 21:06 8,4 °C 8,4 °C 88 % 1013,4 hPa 0,0 mm 0,0 km/h (0 Bft) SO 144 ° 0 min 0,000 mm 0,0 UV-I 0 W/m² 6,5 °C 8,4 °C 0,0 km/h (0 Bft)
19.10.2017 21:07 8,4 °C 8,4 °C 88 % 1013,4 hPa 0,0 mm 0,0 km/h (0 Bft) SO 144 ° 0 min 0,000 mm 0,0 UV-I 0 W/m² 6,5 °C 8,4 °C 0,0 km/h (0 Bft)
19.10.2017 21:08 8,5 °C 8,5 °C 88 % 1013,4 hPa 0,0 mm 0,0 km/h (0 Bft) SO 144 ° 0 min 0,000 mm 0,0 UV-I 0 W/m² 6,6 °C 8,5 °C 0,0 km/h (0 Bft)
19.10.2017 21:09 8,4 °C 8,5 °C 87 % 1013,4 hPa 0,0 mm 0,0 km/h (0 Bft) SO 144 ° 0 min 0,000 mm 0,0 UV-I 0 W/m² 6,4 °C 8,4 °C 0,0 km/h (0 Bft)
19.10.2017 21:10 8,4 °C 8,4 °C 87 % 1013,4 hPa 0,0 mm 0,0 km/h (0 Bft) SO 144 ° 0 min 0,000 mm 0,0 UV-I 0 W/m² 6,4 °C 8,4 °C 0,0 km/h (0 Bft)
19.10.2017 21:11 8,4 °C 8,4 °C 87 % 1013,4 hPa 0,0 mm 0,0 km/h (0 Bft) SO 144 ° 0 min 0,000 mm 0,0 UV-I 0 W/m² 6,4 °C 8,4 °C 0,0 km/h (0 Bft)
19.10.2017 21:12 8,3 °C 8,4 °C 87 % 1013,4 hPa 0,0 mm 0,0 km/h (0 Bft) SO 144 ° 0 min 0,000 mm 0,0 UV-I 0 W/m² 6,3 °C 8,3 °C 0,0 km/h (0 Bft)
19.10.2017 21:13 8,3 °C 8,3 °C 87 % 1013,4 hPa 0,0 mm 0,0 km/h (0 Bft) SO 144 ° 0 min 0,000 mm 0,0 UV-I 0 W/m² 6,3 °C 8,3 °C 0,0 km/h (0 Bft)
19.10.2017 21:14 8,3 °C 8,3 °C 88 % 1013,3 hPa 0,0 mm 0,0 km/h (0 Bft) SO 144 ° 0 min 0,000 mm 0,0 UV-I 0 W/m² 6,4 °C 8,3 °C 0,0 km/h (0 Bft)
19.10.2017 21:15 8,3 °C 8,3 °C 88 % 1013,3 hPa 0,0 mm 0,0 km/h (0 Bft) SO 144 ° 0 min 0,000 mm 0,0 UV-I 0 W/m² 6,4 °C 8,3 °C 0,0 km/h (0 Bft)
19.10.2017 21:16 8,3 °C 8,3 °C 88 % 1013,4 hPa 0,0 mm 0,0 km/h (0 Bft) SO 144 ° 0 min 0,000 mm 0,0 UV-I 0 W/m² 6,4 °C 8,3 °C 0,0 km/h (0 Bft)
19.10.2017 21:17 8,3 °C 8,3 °C 88 % 1013,4 hPa 0,0 mm 0,0 km/h (0 Bft) SO 144 ° 0 min 0,000 mm 0,0 UV-I 0 W/m² 6,4 °C 8,3 °C 0,0 km/h (0 Bft)
19.10.2017 21:18 8,3 °C 8,3 °C 87 % 1013,4 hPa 0,0 mm 0,0 km/h (0 Bft) SO 144 ° 0 min 0,000 mm 0,0 UV-I 0 W/m² 6,3 °C 8,3 °C 0,0 km/h (0 Bft)
19.10.2017 21:19 8,2 °C 8,3 °C 87 % 1013,3 hPa 0,0 mm 0,0 km/h (0 Bft) SO 144 ° 0 min 0,000 mm 0,0 UV-I 0 W/m² 6,2 °C 8,2 °C 0,0 km/h (0 Bft)
19.10.2017 21:20 8,2 °C 8,2 °C 88 % 1013,4 hPa 0,0 mm 0,0 km/h (0 Bft) SO 144 ° 0 min 0,000 mm 0,0 UV-I 0 W/m² 6,3 °C 8,2 °C 0,0 km/h (0 Bft)
19.10.2017 21:21 8,2 °C 8,2 °C 88 % 1013,4 hPa 0,0 mm 0,0 km/h (0 Bft) SO 144 ° 0 min 0,000 mm 0,0 UV-I 0 W/m² 6,3 °C 8,2 °C 0,0 km/h (0 Bft)
19.10.2017 21:22 8,2 °C 8,2 °C 89 % 1013,4 hPa 0,0 mm 0,0 km/h (0 Bft) SO 144 ° 0 min 0,000 mm 0,0 UV-I 0 W/m² 6,5 °C 8,2 °C 0,0 km/h (0 Bft)
19.10.2017 21:23 8,2 °C 8,2 °C 88 % 1013,4 hPa 0,0 mm 0,0 km/h (0 Bft) SO 144 ° 0 min 0,000 mm 0,0 UV-I 0 W/m² 6,3 °C 8,2 °C 0,0 km/h (0 Bft)
19.10.2017 21:24 8,2 °C 8,2 °C 88 % 1013,4 hPa 0,0 mm 0,0 km/h (0 Bft) SO 144 ° 0 min 0,000 mm 0,0 UV-I 0 W/m² 6,3 °C 8,2 °C 0,0 km/h (0 Bft)
19.10.2017 21:25 8,1 °C 8,2 °C 88 % 1013,3 hPa 0,0 mm 0,0 km/h (0 Bft) SO 144 ° 0 min 0,000 mm 0,0 UV-I 0 W/m² 6,2 °C 8,1 °C 0,0 km/h (0 Bft)
19.10.2017 21:26 8,1 °C 8,2 °C 88 % 1013,4 hPa 0,0 mm 0,0 km/h (0 Bft) SO 144 ° 0 min 0,000 mm 0,0 UV-I 0 W/m² 6,2 °C 8,1 °C 0,0 km/h (0 Bft)
19.10.2017 21:27 8,1 °C 8,1 °C 88 % 1013,3 hPa 0,0 mm 0,0 km/h (0 Bft) SO 144 ° 0 min 0,000 mm 0,0 UV-I 0 W/m² 6,2 °C 8,1 °C 0,0 km/h (0 Bft)
19.10.2017 21:28 8,0 °C 8,1 °C 88 % 1013,3 hPa 0,0 mm 0,0 km/h (0 Bft) SO 144 ° 0 min 0,000 mm 0,0 UV-I 0 W/m² 6,1 °C 8,0 °C 0,0 km/h (0 Bft)
19.10.2017 21:29 7,9 °C 8,0 °C 89 % 1013,3 hPa 0,0 mm 0,0 km/h (0 Bft) SO 144 ° 0 min 0,000 mm 0,0 UV-I 0 W/m² 6,2 °C 7,9 °C 0,0 km/h (0 Bft)
19.10.2017 21:30 7,9 °C 7,9 °C 89 % 1013,3 hPa 0,0 mm 0,0 km/h (0 Bft) SO 144 ° 0 min 0,000 mm 0,0 UV-I 0 W/m² 6,2 °C 7,9 °C 0,0 km/h (0 Bft)
19.10.2017 21:31 8,0 °C 8,0 °C 89 % 1013,3 hPa 0,0 mm 0,0 km/h (0 Bft) SO 144 ° 0 min 0,000 mm 0,0 UV-I 0 W/m² 6,3 °C 8,0 °C 0,0 km/h (0 Bft)
19.10.2017 21:32 8,1 °C 8,1 °C 89 % 1013,3 hPa 0,0 mm 0,0 km/h (0 Bft) SO 144 ° 0 min 0,000 mm 0,0 UV-I 0 W/m² 6,4 °C 8,1 °C 0,0 km/h (0 Bft)
19.10.2017 21:33 8,1 °C 8,1 °C 89 % 1013,3 hPa 0,0 mm 0,0 km/h (0 Bft) SO 144 ° 0 min 0,000 mm 0,0 UV-I 0 W/m² 6,4 °C 8,1 °C 0,0 km/h (0 Bft)
19.10.2017 21:34 8,1 °C 8,1 °C 88 % 1013,3 hPa 0,0 mm 0,0 km/h (0 Bft) SO 144 ° 0 min 0,000 mm 0,0 UV-I 0 W/m² 6,2 °C 8,1 °C 0,0 km/h (0 Bft)
19.10.2017 21:35 8,1 °C 8,1 °C 88 % 1013,4 hPa 0,0 mm 0,0 km/h (0 Bft) SO 144 ° 0 min 0,000 mm 0,0 UV-I 0 W/m² 6,2 °C 8,1 °C 0,0 km/h (0 Bft)
19.10.2017 21:36 8,0 °C 8,1 °C 87 % 1013,3 hPa 0,0 mm 0,0 km/h (0 Bft) SO 144 ° 0 min 0,000 mm 0,0 UV-I 0 W/m² 6,0 °C 8,0 °C 0,0 km/h (0 Bft)
19.10.2017 21:37 7,9 °C 8,0 °C 87 % 1013,4 hPa 0,0 mm 0,0 km/h (0 Bft) SO 144 ° 0 min 0,000 mm 0,0 UV-I 0 W/m² 5,9 °C 7,9 °C 0,0 km/h (0 Bft)
19.10.2017 21:38 7,8 °C 7,9 °C 87 % 1013,4 hPa 0,0 mm 0,0 km/h (0 Bft) SO 144 ° 0 min 0,000 mm 0,0 UV-I 0 W/m² 5,8 °C 7,8 °C 0,0 km/h (0 Bft)
19.10.2017 21:39 7,8 °C 7,8 °C 87 % 1013,3 hPa 0,0 mm 0,0 km/h (0 Bft) SO 144 ° 0 min 0,000 mm 0,0 UV-I 0 W/m² 5,8 °C 7,8 °C 0,0 km/h (0 Bft)
19.10.2017 21:40 7,8 °C 7,8 °C 86 % 1013,3 hPa 0,0 mm 0,0 km/h (0 Bft) SO 144 ° 0 min 0,000 mm 0,0 UV-I 0 W/m² 5,6 °C 7,8 °C 0,0 km/h (0 Bft)
19.10.2017 21:41 7,7 °C 7,8 °C 86 % 1013,3 hPa 0,0 mm 0,0 km/h (0 Bft) SO 144 ° 0 min 0,000 mm 0,0 UV-I 0 W/m² 5,5 °C 7,7 °C 0,0 km/h (0 Bft)
19.10.2017 21:42 7,7 °C 7,7 °C 87 % 1013,3 hPa 0,0 mm 0,0 km/h (0 Bft) SO 144 ° 0 min 0,000 mm 0,0 UV-I 0 W/m² 5,7 °C 7,7 °C 0,0 km/h (0 Bft)
19.10.2017 21:43 7,6 °C 7,7 °C 87 % 1013,3 hPa 0,0 mm 0,0 km/h (0 Bft) SO 144 ° 0 min 0,000 mm 0,0 UV-I 0 W/m² 5,6 °C 7,6 °C 0,0 km/h (0 Bft)
19.10.2017 21:44 7,6 °C 7,6 °C 87 % 1013,3 hPa 0,0 mm 0,0 km/h (0 Bft) SO 144 ° 0 min 0,000 mm 0,0 UV-I 0 W/m² 5,6 °C 7,6 °C 0,0 km/h (0 Bft)
19.10.2017 21:45 7,4 °C 7,6 °C 87 % 1013,3 hPa 0,0 mm 0,0 km/h (0 Bft) SO 144 ° 0 min 0,000 mm 0,0 UV-I 0 W/m² 5,4 °C 7,4 °C 0,0 km/h (0 Bft)
19.10.2017 21:46 7,4 °C 7,4 °C 88 % 1013,3 hPa 0,0 mm 0,0 km/h (0 Bft) SO 144 ° 0 min 0,000 mm 0,0 UV-I 0 W/m² 5,5 °C 7,4 °C 0,0 km/h (0 Bft)
19.10.2017 21:47 7,4 °C 7,4 °C 88 % 1013,3 hPa 0,0 mm 0,0 km/h (0 Bft) SO 144 ° 0 min 0,000 mm 0,0 UV-I 0 W/m² 5,5 °C 7,4 °C 0,0 km/h (0 Bft)
19.10.2017 21:48 7,6 °C 7,6 °C 89 % 1013,3 hPa 0,0 mm 0,0 km/h (0 Bft) SO 144 ° 0 min 0,000 mm 0,0 UV-I 0 W/m² 5,9 °C 7,6 °C 0,0 km/h (0 Bft)
19.10.2017 21:49 7,6 °C 7,6 °C 88 % 1013,3 hPa 0,0 mm 0,0 km/h (0 Bft) SO 144 ° 0 min 0,000 mm 0,0 UV-I 0 W/m² 5,7 °C 7,6 °C 0,0 km/h (0 Bft)
19.10.2017 21:50 7,6 °C 7,6 °C 89 % 1013,4 hPa 0,0 mm 0,0 km/h (0 Bft) SO 144 ° 0 min 0,000 mm 0,0 UV-I 0 W/m² 5,9 °C 7,6 °C 0,0 km/h (0 Bft)
19.10.2017 21:51 7,6 °C 7,7 °C 88 % 1013,3 hPa 0,0 mm 0,0 km/h (0 Bft) SO 144 ° 0 min 0,000 mm 0,0 UV-I 0 W/m² 5,7 °C 7,6 °C 0,0 km/h (0 Bft)
19.10.2017 21:52 7,6 °C 7,6 °C 88 % 1013,3 hPa 0,0 mm 0,0 km/h (0 Bft) SO 144 ° 0 min 0,000 mm 0,0 UV-I 0 W/m² 5,7 °C 7,6 °C 0,0 km/h (0 Bft)
19.10.2017 21:53 7,6 °C 7,6 °C 87 % 1013,3 hPa 0,0 mm 0,0 km/h (0 Bft) SO 144 ° 0 min 0,000 mm 0,0 UV-I 0 W/m² 5,6 °C 7,6 °C 0,0 km/h (0 Bft)
19.10.2017 21:54 7,4 °C 7,6 °C 87 % 1013,3 hPa 0,0 mm 0,0 km/h (0 Bft) SO 144 ° 0 min 0,000 mm 0,0 UV-I 0 W/m² 5,4 °C 7,4 °C 0,0 km/h (0 Bft)
19.10.2017 21:55 7,3 °C 7,4 °C 86 % 1013,2 hPa 0,0 mm 0,0 km/h (0 Bft) SO 144 ° 0 min 0,000 mm 0,0 UV-I 0 W/m² 5,1 °C 7,3 °C 0,0 km/h (0 Bft)
19.10.2017 21:56 7,2 °C 7,3 °C 87 % 1013,2 hPa 0,0 mm 0,0 km/h (0 Bft) SO 144 ° 0 min 0,000 mm 0,0 UV-I 0 W/m² 5,2 °C 7,2 °C 0,0 km/h (0 Bft)
19.10.2017 21:57 7,2 °C 7,2 °C 88 % 1013,3 hPa 0,0 mm 0,0 km/h (0 Bft) SO 144 ° 0 min 0,000 mm 0,0 UV-I 0 W/m² 5,3 °C 7,2 °C 0,0 km/h (0 Bft)
19.10.2017 21:58 7,1 °C 7,2 °C 88 % 1013,3 hPa 0,0 mm 0,0 km/h (0 Bft) SO 144 ° 0 min 0,000 mm 0,0 UV-I 0 W/m² 5,2 °C 7,1 °C 0,0 km/h (0 Bft)
19.10.2017 21:59 7,0 °C 7,1 °C 88 % 1013,3 hPa 0,0 mm 0,0 km/h (0 Bft) SO 144 ° 0 min 0,000 mm 0,0 UV-I 0 W/m² 5,2 °C 7,0 °C 0,0 km/h (0 Bft)
19.10.2017 22:00 6,9 °C 7,0 °C 88 % 1013,3 hPa 0,0 mm 0,0 km/h (0 Bft) SO 144 ° 0 min 0,000 mm 0,0 UV-I 0 W/m² 5,1 °C 6,9 °C 0,0 km/h (0 Bft)
19.10.2017 22:01 6,9 °C 6,9 °C 89 % 1013,2 hPa 0,0 mm 0,0 km/h (0 Bft) SO 144 ° 0 min 0,000 mm 0,0 UV-I 0 W/m² 5,2 °C 6,9 °C 0,0 km/h (0 Bft)
19.10.2017 22:02 6,8 °C 6,9 °C 89 % 1013,2 hPa 0,0 mm 0,0 km/h (0 Bft) SO 144 ° 0 min 0,000 mm 0,0 UV-I 0 W/m² 5,1 °C 6,8 °C 0,0 km/h (0 Bft)
19.10.2017 22:03 6,9 °C 6,9 °C 89 % 1013,2 hPa 0,0 mm 0,0 km/h (0 Bft) SO 144 ° 0 min 0,000 mm 0,0 UV-I 0 W/m² 5,2 °C 6,9 °C 0,0 km/h (0 Bft)
19.10.2017 22:04 6,9 °C 6,9 °C 90 % 1013,2 hPa 0,0 mm 0,0 km/h (0 Bft) SO 144 ° 0 min 0,000 mm 0,0 UV-I 0 W/m² 5,4 °C 6,9 °C 0,0 km/h (0 Bft)
19.10.2017 22:05 7,0 °C 7,0 °C 90 % 1013,2 hPa 0,0 mm 0,0 km/h (0 Bft) SO 144 ° 0 min 0,000 mm 0,0 UV-I 0 W/m² 5,5 °C 7,0 °C 0,0 km/h (0 Bft)
19.10.2017 22:06 7,1 °C 7,1 °C 90 % 1013,2 hPa 0,0 mm 0,0 km/h (0 Bft) SO 144 ° 0 min 0,000 mm 0,0 UV-I 0 W/m² 5,6 °C 7,1 °C 0,0 km/h (0 Bft)
19.10.2017 22:07 7,1 °C 7,1 °C 90 % 1013,3 hPa 0,0 mm 0,0 km/h (0 Bft) SO 144 ° 0 min 0,000 mm 0,0 UV-I 0 W/m² 5,6 °C 7,1 °C 0,0 km/h (0 Bft)
19.10.2017 22:08 7,1 °C 7,1 °C 90 % 1013,3 hPa 0,0 mm 0,0 km/h (0 Bft) SO 144 ° 0 min 0,000 mm 0,0 UV-I 0 W/m² 5,6 °C 7,1 °C 0,0 km/h (0 Bft)
19.10.2017 22:09 7,1 °C 7,1 °C 90 % 1013,2 hPa 0,0 mm 0,0 km/h (0 Bft) SO 144 ° 0 min 0,000 mm 0,0 UV-I 0 W/m² 5,6 °C 7,1 °C 0,0 km/h (0 Bft)
19.10.2017 22:10 7,2 °C 7,2 °C 90 % 1013,2 hPa 0,0 mm 0,0 km/h (0 Bft) SO 144 ° 0 min 0,000 mm 0,0 UV-I 0 W/m² 5,7 °C 7,2 °C 0,0 km/h (0 Bft)
19.10.2017 22:11 7,2 °C 7,2 °C 90 % 1013,2 hPa 0,0 mm 0,0 km/h (0 Bft) SO 144 ° 0 min 0,000 mm 0,0 UV-I 0 W/m² 5,7 °C 7,2 °C 0,0 km/h (0 Bft)
19.10.2017 22:12 7,3 °C 7,3 °C 91 % 1013,2 hPa 0,0 mm 0,0 km/h (0 Bft) SO 144 ° 0 min 0,000 mm 0,0 UV-I 0 W/m² 5,9 °C 7,3 °C 0,0 km/h (0 Bft)
19.10.2017 22:13 7,4 °C 7,4 °C 91 % 1013,2 hPa 0,0 mm 0,0 km/h (0 Bft) SO 144 ° 0 min 0,000 mm 0,0 UV-I 0 W/m² 6,0 °C 7,4 °C 0,0 km/h (0 Bft)
19.10.2017 22:14 7,5 °C 7,5 °C 90 % 1013,3 hPa 0,0 mm 0,0 km/h (0 Bft) SO 144 ° 0 min 0,000 mm 0,0 UV-I 0 W/m² 6,0 °C 7,5 °C 0,0 km/h (0 Bft)
19.10.2017 22:15 7,6 °C 7,6 °C 90 % 1013,3 hPa 0,0 mm 0,0 km/h (0 Bft) SO 144 ° 0 min 0,000 mm 0,0 UV-I 0 W/m² 6,1 °C 7,6 °C 0,0 km/h (0 Bft)
19.10.2017 22:16 7,5 °C 7,6 °C 89 % 1013,3 hPa 0,0 mm 0,0 km/h (0 Bft) SO 144 ° 0 min 0,000 mm 0,0 UV-I 0 W/m² 5,8 °C 7,5 °C 0,0 km/h (0 Bft)
19.10.2017 22:17 7,4 °C 7,5 °C 88 % 1013,3 hPa 0,0 mm 0,0 km/h (0 Bft) SO 144 ° 0 min 0,000 mm 0,0 UV-I 0 W/m² 5,5 °C 7,4 °C 0,0 km/h (0 Bft)
19.10.2017 22:18 7,3 °C 7,4 °C 88 % 1013,3 hPa 0,0 mm 0,0 km/h (0 Bft) SO 144 ° 0 min 0,000 mm 0,0 UV-I 0 W/m² 5,4 °C 7,3 °C 0,0 km/h (0 Bft)
19.10.2017 22:19 7,3 °C 7,3 °C 89 % 1013,3 hPa 0,0 mm 0,0 km/h (0 Bft) SO 144 ° 0 min 0,000 mm 0,0 UV-I 0 W/m² 5,6 °C 7,3 °C 0,0 km/h (0 Bft)
19.10.2017 22:20 7,2 °C 7,3 °C 89 % 1013,3 hPa 0,0 mm 0,0 km/h (0 Bft) SO 144 ° 0 min 0,000 mm 0,0 UV-I 0 W/m² 5,5 °C 7,2 °C 0,0 km/h (0 Bft)
19.10.2017 22:21 7,3 °C 7,3 °C 89 % 1013,3 hPa 0,0 mm 0,0 km/h (0 Bft) SO 144 ° 0 min 0,000 mm 0,0 UV-I 0 W/m² 5,6 °C 7,3 °C 0,0 km/h (0 Bft)
19.10.2017 22:22 7,3 °C 7,3 °C 90 % 1013,3 hPa 0,0 mm 0,0 km/h (0 Bft) SO 144 ° 0 min 0,000 mm 0,0 UV-I 0 W/m² 5,8 °C 7,3 °C 0,0 km/h (0 Bft)
19.10.2017 22:23 7,4 °C 7,4 °C 90 % 1013,3 hPa 0,0 mm 0,0 km/h (0 Bft) SO 144 ° 0 min 0,000 mm 0,0 UV-I 0 W/m² 5,9 °C 7,4 °C 0,0 km/h (0 Bft)
19.10.2017 22:24 7,4 °C 7,4 °C 90 % 1013,3 hPa 0,0 mm 0,0 km/h (0 Bft) SO 144 ° 0 min 0,000 mm 0,0 UV-I 0 W/m² 5,9 °C 7,4 °C 0,0 km/h (0 Bft)
19.10.2017 22:25 7,5 °C 7,6 °C 90 % 1013,3 hPa 0,0 mm 0,0 km/h (0 Bft) SO 144 ° 0 min 0,000 mm 0,0 UV-I 0 W/m² 6,0 °C 7,5 °C 0,0 km/h (0 Bft)
19.10.2017 22:26 7,6 °C 7,6 °C 89 % 1013,3 hPa 0,0 mm 0,0 km/h (0 Bft) SO 144 ° 0 min 0,000 mm 0,0 UV-I 0 W/m² 5,9 °C 7,6 °C 0,0 km/h (0 Bft)
19.10.2017 22:27 7,6 °C 7,6 °C 89 % 1013,3 hPa 0,0 mm 0,0 km/h (0 Bft) SO 144 ° 0 min 0,000 mm 0,0 UV-I 0 W/m² 5,9 °C 7,6 °C 0,0 km/h (0 Bft)
19.10.2017 22:28 7,5 °C 7,6 °C 88 % 1013,3 hPa 0,0 mm 0,0 km/h (0 Bft) SO 144 ° 0 min 0,000 mm 0,0 UV-I 0 W/m² 5,6 °C 7,5 °C 0,0 km/h (0 Bft)
19.10.2017 22:29 7,4 °C 7,5 °C 88 % 1013,3 hPa 0,0 mm 0,0 km/h (0 Bft) SO 144 ° 0 min 0,000 mm 0,0 UV-I 0 W/m² 5,5 °C 7,4 °C 0,0 km/h (0 Bft)
19.10.2017 22:30 7,4 °C 7,4 °C 89 % 1013,3 hPa 0,0 mm 0,0 km/h (0 Bft) SO 144 ° 0 min 0,000 mm 0,0 UV-I 0 W/m² 5,7 °C 7,4 °C 0,0 km/h (0 Bft)
19.10.2017 22:31 7,3 °C 7,4 °C 88 % 1013,3 hPa 0,0 mm 0,0 km/h (0 Bft) SO 144 ° 0 min 0,000 mm 0,0 UV-I 0 W/m² 5,4 °C 7,3 °C 0,0 km/h (0 Bft)
19.10.2017 22:32 7,2 °C 7,3 °C 88 % 1013,3 hPa 0,0 mm 0,0 km/h (0 Bft) SO 144 ° 0 min 0,000 mm 0,0 UV-I 0 W/m² 5,3 °C 7,2 °C 0,0 km/h (0 Bft)
19.10.2017 22:33 7,2 °C 7,2 °C 88 % 1013,3 hPa 0,0 mm 0,0 km/h (0 Bft) SO 144 ° 0 min 0,000 mm 0,0 UV-I 0 W/m² 5,3 °C 7,2 °C 0,0 km/h (0 Bft)
19.10.2017 22:34 7,0 °C 7,2 °C 88 % 1013,3 hPa 0,0 mm 0,0 km/h (0 Bft) SO 144 ° 0 min 0,000 mm 0,0 UV-I 0 W/m² 5,2 °C 7,0 °C 0,0 km/h (0 Bft)
19.10.2017 22:35 6,9 °C 7,0 °C 89 % 1013,3 hPa 0,0 mm 0,0 km/h (0 Bft) SO 144 ° 0 min 0,000 mm 0,0 UV-I 0 W/m² 5,2 °C 6,9 °C 0,0 km/h (0 Bft)
19.10.2017 22:36 6,9 °C 6,9 °C 89 % 1013,3 hPa 0,0 mm 0,0 km/h (0 Bft) SO 144 ° 0 min 0,000 mm 0,0 UV-I 0 W/m² 5,2 °C 6,9 °C 0,0 km/h (0 Bft)
19.10.2017 22:37 6,9 °C 6,9 °C 90 % 1013,3 hPa 0,0 mm 0,0 km/h (0 Bft) SO 144 ° 0 min 0,000 mm 0,0 UV-I 0 W/m² 5,4 °C 6,9 °C 0,0 km/h (0 Bft)
19.10.2017 22:38 6,9 °C 6,9 °C 90 % 1013,3 hPa 0,0 mm 0,0 km/h (0 Bft) SO 144 ° 0 min 0,000 mm 0,0 UV-I 0 W/m² 5,4 °C 6,9 °C 0,0 km/h (0 Bft)
19.10.2017 22:39 6,9 °C 6,9 °C 90 % 1013,3 hPa 0,0 mm 0,0 km/h (0 Bft) SO 144 ° 0 min 0,000 mm 0,0 UV-I 0 W/m² 5,4 °C 6,9 °C 0,0 km/h (0 Bft)
19.10.2017 22:40 6,9 °C 6,9 °C 90 % 1013,3 hPa 0,0 mm 0,0 km/h (0 Bft) SO 144 ° 0 min 0,000 mm 0,0 UV-I 0 W/m² 5,4 °C 6,9 °C 0,0 km/h (0 Bft)
19.10.2017 22:41 6,9 °C 6,9 °C 90 % 1013,3 hPa 0,0 mm 0,0 km/h (0 Bft) SO 144 ° 0 min 0,000 mm 0,0 UV-I 0 W/m² 5,4 °C 6,9 °C 0,0 km/h (0 Bft)
19.10.2017 22:42 6,9 °C 6,9 °C 90 % 1013,2 hPa 0,0 mm 0,0 km/h (0 Bft) SO 144 ° 0 min 0,000 mm 0,0 UV-I 0 W/m² 5,4 °C 6,9 °C 0,0 km/h (0 Bft)
19.10.2017 22:43 6,9 °C 6,9 °C 90 % 1013,2 hPa 0,0 mm 0,0 km/h (0 Bft) SO 144 ° 0 min 0,000 mm 0,0 UV-I 0 W/m² 5,4 °C 6,9 °C 0,0 km/h (0 Bft)
19.10.2017 22:44 6,9 °C 6,9 °C 91 % 1013,2 hPa 0,0 mm 0,0 km/h (0 Bft) SO 144 ° 0 min 0,000 mm 0,0 UV-I 0 W/m² 5,5 °C 6,9 °C 0,0 km/h (0 Bft)
19.10.2017 22:45 7,0 °C 7,0 °C 91 % 1013,2 hPa 0,0 mm 0,0 km/h (0 Bft) SO 144 ° 0 min 0,000 mm 0,0 UV-I 0 W/m² 5,6 °C 7,0 °C 0,0 km/h (0 Bft)
19.10.2017 22:46 7,1 °C 7,1 °C 91 % 1013,2 hPa 0,0 mm 0,0 km/h (0 Bft) SO 144 ° 0 min 0,000 mm 0,0 UV-I 0 W/m² 5,7 °C 7,1 °C 0,0 km/h (0 Bft)
19.10.2017 22:47 7,1 °C 7,1 °C 90 % 1013,2 hPa 0,0 mm 0,0 km/h (0 Bft) SO 144 ° 0 min 0,000 mm 0,0 UV-I 0 W/m² 5,6 °C 7,1 °C 0,0 km/h (0 Bft)
19.10.2017 22:48 7,1 °C 7,1 °C 90 % 1013,2 hPa 0,0 mm 0,0 km/h (0 Bft) SO 144 ° 0 min 0,000 mm 0,0 UV-I 0 W/m² 5,6 °C 7,1 °C 0,0 km/h (0 Bft)
19.10.2017 22:49 7,2 °C 7,2 °C 91 % 1013,2 hPa 0,0 mm 0,0 km/h (0 Bft) SO 144 ° 0 min 0,000 mm 0,0 UV-I 0 W/m² 5,8 °C 7,2 °C 0,0 km/h (0 Bft)
19.10.2017 22:50 7,2 °C 7,2 °C 91 % 1013,2 hPa 0,0 mm 0,0 km/h (0 Bft) SO 144 ° 0 min 0,000 mm 0,0 UV-I 0 W/m² 5,8 °C 7,2 °C 0,0 km/h (0 Bft)
19.10.2017 22:51 7,3 °C 7,3 °C 91 % 1013,3 hPa 0,0 mm 0,0 km/h (0 Bft) SO 144 ° 0 min 0,000 mm 0,0 UV-I 0 W/m² 5,9 °C 7,3 °C 0,0 km/h (0 Bft)
19.10.2017 22:52 7,3 °C 7,3 °C 90 % 1013,2 hPa 0,0 mm 0,0 km/h (0 Bft) SO 144 ° 0 min 0,000 mm 0,0 UV-I 0 W/m² 5,8 °C 7,3 °C 0,0 km/h (0 Bft)
19.10.2017 22:53 7,3 °C 7,3 °C 90 % 1013,3 hPa 0,0 mm 0,0 km/h (0 Bft) SO 144 ° 0 min 0,000 mm 0,0 UV-I 0 W/m² 5,8 °C 7,3 °C 0,0 km/h (0 Bft)
19.10.2017 22:54 7,3 °C 7,3 °C 90 % 1013,2 hPa 0,0 mm 0,0 km/h (0 Bft) SO 144 ° 0 min 0,000 mm 0,0 UV-I 0 W/m² 5,8 °C 7,3 °C 0,0 km/h (0 Bft)
19.10.2017 22:55 7,2 °C 7,3 °C 90 % 1013,2 hPa 0,0 mm 0,0 km/h (0 Bft) SO 144 ° 0 min 0,000 mm 0,0 UV-I 0 W/m² 5,7 °C 7,2 °C 0,0 km/h (0 Bft)
19.10.2017 22:56 7,2 °C 7,2 °C 90 % 1013,2 hPa 0,0 mm 0,0 km/h (0 Bft) SO 144 ° 0 min 0,000 mm 0,0 UV-I 0 W/m² 5,7 °C 7,2 °C 0,0 km/h (0 Bft)
19.10.2017 22:57 7,2 °C 7,2 °C 90 % 1013,2 hPa 0,0 mm 0,0 km/h (0 Bft) SO 144 ° 0 min 0,000 mm 0,0 UV-I 0 W/m² 5,7 °C 7,2 °C 0,0 km/h (0 Bft)
19.10.2017 22:58 7,1 °C 7,2 °C 90 % 1013,2 hPa 0,0 mm 0,0 km/h (0 Bft) SO 144 ° 0 min 0,000 mm 0,0 UV-I 0 W/m² 5,6 °C 7,1 °C 0,0 km/h (0 Bft)
19.10.2017 22:59 7,1 °C 7,2 °C 90 % 1013,1 hPa 0,0 mm 0,0 km/h (0 Bft) SO 144 ° 0 min 0,000 mm 0,0 UV-I 0 W/m² 5,6 °C 7,1 °C 0,0 km/h (0 Bft)
19.10.2017 23:00 7,1 °C 7,1 °C 90 % 1013,2 hPa 0,0 mm 0,0 km/h (0 Bft) SO 144 ° 0 min 0,000 mm 0,0 UV-I 0 W/m² 5,6 °C 7,1 °C 0,0 km/h (0 Bft)
19.10.2017 23:01 6,9 °C 7,1 °C 90 % 1013,2 hPa 0,0 mm 0,0 km/h (0 Bft) SO 144 ° 0 min 0,000 mm 0,0 UV-I 0 W/m² 5,4 °C 6,9 °C 0,0 km/h (0 Bft)
19.10.2017 23:02 7,0 °C 7,0 °C 90 % 1013,2 hPa 0,0 mm 0,0 km/h (0 Bft) SO 144 ° 0 min 0,000 mm 0,0 UV-I 0 W/m² 5,5 °C 7,0 °C 0,0 km/h (0 Bft)
19.10.2017 23:03 7,0 °C 7,0 °C 91 % 1013,1 hPa 0,0 mm 0,0 km/h (0 Bft) SO 144 ° 0 min 0,000 mm 0,0 UV-I 0 W/m² 5,6 °C 7,0 °C 0,0 km/h (0 Bft)
19.10.2017 23:04 7,0 °C 7,0 °C 91 % 1013,2 hPa 0,0 mm 0,0 km/h (0 Bft) SO 144 ° 0 min 0,000 mm 0,0 UV-I 0 W/m² 5,6 °C 7,0 °C 0,0 km/h (0 Bft)
19.10.2017 23:05 7,0 °C 7,1 °C 90 % 1013,2 hPa 0,0 mm 0,0 km/h (0 Bft) SO 144 ° 0 min 0,000 mm 0,0 UV-I 0 W/m² 5,5 °C 7,0 °C 0,0 km/h (0 Bft)
19.10.2017 23:06 7,0 °C 7,0 °C 90 % 1013,2 hPa 0,0 mm 0,0 km/h (0 Bft) SO 144 ° 0 min 0,000 mm 0,0 UV-I 0 W/m² 5,5 °C 7,0 °C 0,0 km/h (0 Bft)
19.10.2017 23:07 6,9 °C 7,0 °C 90 % 1013,2 hPa 0,0 mm 0,0 km/h (0 Bft) SO 144 ° 0 min 0,000 mm 0,0 UV-I 0 W/m² 5,4 °C 6,9 °C 0,0 km/h (0 Bft)
19.10.2017 23:08 6,8 °C 6,9 °C 90 % 1013,2 hPa 0,0 mm 0,0 km/h (0 Bft) SO 144 ° 0 min 0,000 mm 0,0 UV-I 0 W/m² 5,3 °C 6,8 °C 0,0 km/h (0 Bft)
19.10.2017 23:09 6,8 °C 6,8 °C 90 % 1013,2 hPa 0,0 mm 0,0 km/h (0 Bft) SO 144 ° 0 min 0,000 mm 0,0 UV-I 0 W/m² 5,3 °C 6,8 °C 0,0 km/h (0 Bft)
19.10.2017 23:10 6,8 °C 6,8 °C 90 % 1013,2 hPa 0,0 mm 0,0 km/h (0 Bft) SO 144 ° 0 min 0,000 mm 0,0 UV-I 0 W/m² 5,3 °C 6,8 °C 0,0 km/h (0 Bft)
19.10.2017 23:11 6,8 °C 6,8 °C 90 % 1013,2 hPa 0,0 mm 0,0 km/h (0 Bft) SO 144 ° 0 min 0,000 mm 0,0 UV-I 0 W/m² 5,3 °C 6,8 °C 0,0 km/h (0 Bft)
19.10.2017 23:12 6,8 °C 6,8 °C 90 % 1013,2 hPa 0,0 mm 0,0 km/h (0 Bft) SO 144 ° 0 min 0,000 mm 0,0 UV-I 0 W/m² 5,3 °C 6,8 °C 0,0 km/h (0 Bft)
19.10.2017 23:13 6,8 °C 6,8 °C 90 % 1013,2 hPa 0,0 mm 0,0 km/h (0 Bft) SO 144 ° 0 min 0,000 mm 0,0 UV-I 0 W/m² 5,3 °C 6,8 °C 0,0 km/h (0 Bft)
19.10.2017 23:14 6,8 °C 6,8 °C 90 % 1013,2 hPa 0,0 mm 0,0 km/h (0 Bft) SO 144 ° 0 min 0,000 mm 0,0 UV-I 0 W/m² 5,3 °C 6,8 °C 0,0 km/h (0 Bft)
19.10.2017 23:15 6,7 °C 6,8 °C 90 % 1013,2 hPa 0,0 mm 0,0 km/h (0 Bft) SO 144 ° 0 min 0,000 mm 0,0 UV-I 0 W/m² 5,2 °C 6,7 °C 0,0 km/h (0 Bft)
19.10.2017 23:16 6,7 °C 6,7 °C 90 % 1013,2 hPa 0,0 mm 0,0 km/h (0 Bft) SO 144 ° 0 min 0,000 mm 0,0 UV-I 0 W/m² 5,2 °C 6,7 °C 0,0 km/h (0 Bft)
19.10.2017 23:17 6,6 °C 6,7 °C 90 % 1013,2 hPa 0,0 mm 0,0 km/h (0 Bft) SO 144 ° 0 min 0,000 mm 0,0 UV-I 0 W/m² 5,1 °C 6,6 °C 0,0 km/h (0 Bft)
19.10.2017 23:18 6,6 °C 6,6 °C 90 % 1013,2 hPa 0,0 mm 0,0 km/h (0 Bft) SO 144 ° 0 min 0,000 mm 0,0 UV-I 0 W/m² 5,1 °C 6,6 °C 0,0 km/h (0 Bft)
19.10.2017 23:19 6,5 °C 6,6 °C 90 % 1013,2 hPa 0,0 mm 0,0 km/h (0 Bft) SO 144 ° 0 min 0,000 mm 0,0 UV-I 0 W/m² 5,0 °C 6,5 °C 0,0 km/h (0 Bft)
19.10.2017 23:20 6,4 °C 6,5 °C 90 % 1013,2 hPa 0,0 mm 0,0 km/h (0 Bft) SO 144 ° 0 min 0,000 mm 0,0 UV-I 0 W/m² 4,9 °C 6,4 °C 0,0 km/h (0 Bft)
19.10.2017 23:21 6,4 °C 6,4 °C 90 % 1013,2 hPa 0,0 mm 0,0 km/h (0 Bft) SO 144 ° 0 min 0,000 mm 0,0 UV-I 0 W/m² 4,9 °C 6,4 °C 0,0 km/h (0 Bft)
19.10.2017 23:22 6,4 °C 6,4 °C 91 % 1013,1 hPa 0,0 mm 0,0 km/h (0 Bft) SO 144 ° 0 min 0,000 mm 0,0 UV-I 0 W/m² 5,0 °C 6,4 °C 0,0 km/h (0 Bft)
19.10.2017 23:23 6,4 °C 6,4 °C 91 % 1013,2 hPa 0,0 mm 0,0 km/h (0 Bft) SO 144 ° 0 min 0,000 mm 0,0 UV-I 0 W/m² 5,0 °C 6,4 °C 0,0 km/h (0 Bft)
19.10.2017 23:24 6,5 °C 6,5 °C 91 % 1013,1 hPa 0,0 mm 0,0 km/h (0 Bft) SO 144 ° 0 min 0,000 mm 0,0 UV-I 0 W/m² 5,1 °C 6,5 °C 0,0 km/h (0 Bft)
19.10.2017 23:25 6,6 °C 6,6 °C 91 % 1013,2 hPa 0,0 mm 0,0 km/h (0 Bft) SO 144 ° 0 min 0,000 mm 0,0 UV-I 0 W/m² 5,2 °C 6,6 °C 0,0 km/h (0 Bft)
19.10.2017 23:26 6,5 °C 6,6 °C 91 % 1013,2 hPa 0,0 mm 0,0 km/h (0 Bft) SO 144 ° 0 min 0,000 mm 0,0 UV-I 0 W/m² 5,1 °C 6,5 °C 0,0 km/h (0 Bft)
19.10.2017 23:27 6,6 °C 6,6 °C 91 % 1013,2 hPa 0,0 mm 0,0 km/h (0 Bft) SO 144 ° 0 min 0,000 mm 0,0 UV-I 0 W/m² 5,2 °C 6,6 °C 0,0 km/h (0 Bft)
19.10.2017 23:29 6,6 °C 6,6 °C 92 % 1013,1 hPa 0,0 mm 0,0 km/h (0 Bft) SO 144 ° 0 min 0,000 mm 0,0 UV-I 0 W/m² 5,4 °C 6,6 °C 0,0 km/h (0 Bft)
19.10.2017 23:30 6,7 °C 6,7 °C 91 % 1013,1 hPa 0,0 mm 0,0 km/h (0 Bft) SO 144 ° 0 min 0,000 mm 0,0 UV-I 0 W/m² 5,3 °C 6,7 °C 0,0 km/h (0 Bft)
19.10.2017 23:31 6,7 °C 6,7 °C 91 % 1013,1 hPa 0,0 mm 0,0 km/h (0 Bft) SO 144 ° 0 min 0,000 mm 0,0 UV-I 0 W/m² 5,3 °C 6,7 °C 0,0 km/h (0 Bft)
19.10.2017 23:32 6,6 °C 6,7 °C 91 % 1013,1 hPa 0,0 mm 0,0 km/h (0 Bft) SO 144 ° 0 min 0,000 mm 0,0 UV-I 0 W/m² 5,2 °C 6,6 °C 0,0 km/h (0 Bft)
19.10.2017 23:33 6,5 °C 6,6 °C 90 % 1013,1 hPa 0,0 mm 0,0 km/h (0 Bft) SO 144 ° 0 min 0,000 mm 0,0 UV-I 0 W/m² 5,0 °C 6,5 °C 0,0 km/h (0 Bft)
19.10.2017 23:34 6,4 °C 6,5 °C 90 % 1013,1 hPa 0,0 mm 0,0 km/h (0 Bft) SO 144 ° 0 min 0,000 mm 0,0 UV-I 0 W/m² 4,9 °C 6,4 °C 0,0 km/h (0 Bft)
19.10.2017 23:35 6,3 °C 6,4 °C 90 % 1013,0 hPa 0,0 mm 0,0 km/h (0 Bft) SO 144 ° 0 min 0,000 mm 0,0 UV-I 0 W/m² 4,8 °C 6,3 °C 0,0 km/h (0 Bft)
19.10.2017 23:36 6,4 °C 6,4 °C 91 % 1013,1 hPa 0,0 mm 0,0 km/h (0 Bft) SO 144 ° 0 min 0,000 mm 0,0 UV-I 0 W/m² 5,0 °C 6,4 °C 0,0 km/h (0 Bft)
19.10.2017 23:37 6,4 °C 6,4 °C 92 % 1013,0 hPa 0,0 mm 0,0 km/h (0 Bft) SO 144 ° 0 min 0,000 mm 0,0 UV-I 0 W/m² 5,2 °C 6,4 °C 0,0 km/h (0 Bft)
19.10.2017 23:38 6,4 °C 6,5 °C 91 % 1013,0 hPa 0,0 mm 0,0 km/h (0 Bft) SO 144 ° 0 min 0,000 mm 0,0 UV-I 0 W/m² 5,0 °C 6,4 °C 0,0 km/h (0 Bft)
19.10.2017 23:39 6,4 °C 6,5 °C 91 % 1013,0 hPa 0,0 mm 0,0 km/h (0 Bft) SO 144 ° 0 min 0,000 mm 0,0 UV-I 0 W/m² 5,0 °C 6,4 °C 0,0 km/h (0 Bft)
19.10.2017 23:40 6,4 °C 6,4 °C 91 % 1013,0 hPa 0,0 mm 0,0 km/h (0 Bft) SO 144 ° 0 min 0,000 mm 0,0 UV-I 0 W/m² 5,0 °C 6,4 °C 0,0 km/h (0 Bft)
19.10.2017 23:41 6,4 °C 6,4 °C 91 % 1013,0 hPa 0,0 mm 0,0 km/h (0 Bft) SO 144 ° 0 min 0,000 mm 0,0 UV-I 0 W/m² 5,0 °C 6,4 °C 0,0 km/h (0 Bft)
19.10.2017 23:42 6,4 °C 6,4 °C 91 % 1013,0 hPa 0,0 mm 0,0 km/h (0 Bft) SO 144 ° 0 min 0,000 mm 0,0 UV-I 0 W/m² 5,0 °C 6,4 °C 0,0 km/h (0 Bft)
19.10.2017 23:43 6,5 °C 6,5 °C 91 % 1013,0 hPa 0,0 mm 0,0 km/h (0 Bft) SO 144 ° 0 min 0,000 mm 0,0 UV-I 0 W/m² 5,1 °C 6,5 °C 0,0 km/h (0 Bft)
19.10.2017 23:44 6,5 °C 6,5 °C 91 % 1013,0 hPa 0,0 mm 0,0 km/h (0 Bft) SO 144 ° 0 min 0,000 mm 0,0 UV-I 0 W/m² 5,1 °C 6,5 °C 0,0 km/h (0 Bft)
19.10.2017 23:45 6,5 °C 6,6 °C 91 % 1013,0 hPa 0,0 mm 0,0 km/h (0 Bft) SO 144 ° 0 min 0,000 mm 0,0 UV-I 0 W/m² 5,1 °C 6,5 °C 0,0 km/h (0 Bft)
19.10.2017 23:46 6,6 °C 6,6 °C 91 % 1013,0 hPa 0,0 mm 0,0 km/h (0 Bft) SO 144 ° 0 min 0,000 mm 0,0 UV-I 0 W/m² 5,2 °C 6,6 °C 0,0 km/h (0 Bft)
19.10.2017 23:47 6,6 °C 6,6 °C 91 % 1012,9 hPa 0,0 mm 0,0 km/h (0 Bft) SO 144 ° 0 min 0,000 mm 0,0 UV-I 0 W/m² 5,2 °C 6,6 °C 0,0 km/h (0 Bft)
19.10.2017 23:48 6,6 °C 6,6 °C 91 % 1012,9 hPa 0,0 mm 0,0 km/h (0 Bft) SO 144 ° 0 min 0,000 mm 0,0 UV-I 0 W/m² 5,2 °C 6,6 °C 0,0 km/h (0 Bft)
19.10.2017 23:49 6,7 °C 6,7 °C 91 % 1012,9 hPa 0,0 mm 0,0 km/h (0 Bft) SO 144 ° 0 min 0,000 mm 0,0 UV-I 0 W/m² 5,3 °C 6,7 °C 0,0 km/h (0 Bft)
19.10.2017 23:50 6,6 °C 6,7 °C 89 % 1012,9 hPa 0,0 mm 0,0 km/h (0 Bft) SO 144 ° 0 min 0,000 mm 0,0 UV-I 0 W/m² 4,9 °C 6,6 °C 0,0 km/h (0 Bft)
19.10.2017 23:51 6,4 °C 6,6 °C 89 % 1012,9 hPa 0,0 mm 0,0 km/h (0 Bft) SO 144 ° 0 min 0,000 mm 0,0 UV-I 0 W/m² 4,7 °C 6,4 °C 0,0 km/h (0 Bft)
19.10.2017 23:52 6,4 °C 6,4 °C 90 % 1012,9 hPa 0,0 mm 0,0 km/h (0 Bft) SO 144 ° 0 min 0,000 mm 0,0 UV-I 0 W/m² 4,9 °C 6,4 °C 0,0 km/h (0 Bft)
19.10.2017 23:53 6,3 °C 6,4 °C 90 % 1012,9 hPa 0,0 mm 0,0 km/h (0 Bft) SO 144 ° 0 min 0,000 mm 0,0 UV-I 0 W/m² 4,8 °C 6,3 °C 0,0 km/h (0 Bft)
19.10.2017 23:54 6,3 °C 6,4 °C 90 % 1012,9 hPa 0,0 mm 0,0 km/h (0 Bft) SO 144 ° 0 min 0,000 mm 0,0 UV-I 0 W/m² 4,8 °C 6,3 °C 0,0 km/h (0 Bft)
19.10.2017 23:55 6,3 °C 6,4 °C 91 % 1012,9 hPa 0,0 mm 0,0 km/h (0 Bft) SO 144 ° 0 min 0,000 mm 0,0 UV-I 0 W/m² 4,9 °C 6,3 °C 0,0 km/h (0 Bft)
19.10.2017 23:56 6,3 °C 6,3 °C 90 % 1012,9 hPa 0,0 mm 0,0 km/h (0 Bft) SO 144 ° 0 min 0,000 mm 0,0 UV-I 0 W/m² 4,8 °C 6,3 °C 0,0 km/h (0 Bft)
19.10.2017 23:57 6,2 °C 6,3 °C 91 % 1012,9 hPa 0,0 mm 0,0 km/h (0 Bft) SO 144 ° 0 min 0,000 mm 0,0 UV-I 0 W/m² 4,8 °C 6,2 °C 0,0 km/h (0 Bft)
19.10.2017 23:58 6,2 °C 6,2 °C 91 % 1012,9 hPa 0,0 mm 0,0 km/h (0 Bft) SO 144 ° 0 min 0,000 mm 0,0 UV-I 0 W/m² 4,8 °C 6,2 °C 0,0 km/h (0 Bft)
19.10.2017 23:59 6,2 °C 6,2 °C 91 % 1012,9 hPa 0,0 mm 0,0 km/h (0 Bft) SO 144 ° 0 min 0,000 mm 0,0 UV-I 0 W/m² 4,8 °C 6,2 °C 0,0 km/h (0 Bft)
_ Min-Zeit 06:25 06:26 15:05 23:59 - 23:59 - - - - - - 07:09 06:25 23:59
Minimum _ 4,4 °C 4,5 °C 45 % 1012,9 hPa - 0,0 km/h (0 Bft) - - - - - - 3,1 °C 4,4 °C 0,0 km/h (0 Bft)
_ Max-Zeit 15:15 15:16 06:07 02:06 23:59 16:20 - - 15:59 13:01 13:15 12:53 15:30 15:15 16:20
Maximum _ 19,2 °C 19,2 °C 94 % 1015,3 hPa 0,0 mm 8,3 km/h
N-NO (2 Bft)
- - 2 min 0,280 mm 3,1 UV-I 517 W/m² 10,2 °C 19,2 °C 12,9 km/h
N-NO (3 Bft)
Durchschnitt _ 10,5 °C 10,5 °C 77 % 1014,1 hPa #0,0 mm 0,6 km/h (0 Bft) O-NO - #4:12 h #1,321 mm 2,4 UV-I 90 W/m² 6,3 °C 10,5 °C 1,1 km/h (1 Bft)